<?xml version="1.0" encoding="UTF-8" standalone="no" ?>
<gpx xmlns="http://www.topografix.com/GPX/1/1" xmlns:xsi="http://www.w3.org/2001/XMLSchema-instance" xsi:schemaLocation="http://www.topografix.com/GPX/1/1 http://www.topografix.com/GPX/1/1/gpx.xsd" version="1.1" creator="VisuGPX - https://www.visugpx.com">
  <metadata>
    <name>2019-07-07 16:45:52</name>
  </metadata>
  <trk>
    <name><![CDATA[2019-07-07 16:45:52]]></name>
    <trkseg>
      <trkpt lat="50.44021" lon="6.03485">
        <ele>354.86</ele>
        <time>2019-07-07T06:17:09Z</time>
      </trkpt>
      <trkpt lat="50.44021" lon="6.03487">
        <ele>354.86</ele>
        <time>2019-07-07T06:17:11Z</time>
      </trkpt>
      <trkpt lat="50.44019" lon="6.03476">
        <ele>353.9</ele>
        <time>2019-07-07T06:17:16Z</time>
      </trkpt>
      <trkpt lat="50.44018" lon="6.0347">
        <ele>353.9</ele>
        <time>2019-07-07T06:17:37Z</time>
      </trkpt>
      <trkpt lat="50.44019" lon="6.03475">
        <ele>352.94</ele>
        <time>2019-07-07T06:17:54Z</time>
      </trkpt>
      <trkpt lat="50.44062" lon="6.03523">
        <ele>354.38</ele>
        <time>2019-07-07T06:24:51Z</time>
      </trkpt>
      <trkpt lat="50.44066" lon="6.03511">
        <ele>354.38</ele>
        <time>2019-07-07T06:25:02Z</time>
      </trkpt>
      <trkpt lat="50.44069" lon="6.03509">
        <ele>355.34</ele>
        <time>2019-07-07T06:25:05Z</time>
      </trkpt>
      <trkpt lat="50.44075" lon="6.03537">
        <ele>354.86</ele>
        <time>2019-07-07T06:25:19Z</time>
      </trkpt>
      <trkpt lat="50.4408" lon="6.03538">
        <ele>354.86</ele>
        <time>2019-07-07T06:25:28Z</time>
      </trkpt>
      <trkpt lat="50.4408" lon="6.0354">
        <ele>355.34</ele>
        <time>2019-07-07T06:25:50Z</time>
      </trkpt>
      <trkpt lat="50.44081" lon="6.03541">
        <ele>355.34</ele>
        <time>2019-07-07T06:26:20Z</time>
      </trkpt>
      <trkpt lat="50.4408" lon="6.03538">
        <ele>355.34</ele>
        <time>2019-07-07T06:26:50Z</time>
      </trkpt>
      <trkpt lat="50.44079" lon="6.03539">
        <ele>355.34</ele>
        <time>2019-07-07T06:27:19Z</time>
      </trkpt>
      <trkpt lat="50.44079" lon="6.03539">
        <ele>355.34</ele>
        <time>2019-07-07T06:27:46Z</time>
      </trkpt>
      <trkpt lat="50.44078" lon="6.03538">
        <ele>354.86</ele>
        <time>2019-07-07T06:28:21Z</time>
      </trkpt>
      <trkpt lat="50.44081" lon="6.03542">
        <ele>354.86</ele>
        <time>2019-07-07T06:28:49Z</time>
      </trkpt>
      <trkpt lat="50.44081" lon="6.03542">
        <ele>354.86</ele>
        <time>2019-07-07T06:29:18Z</time>
      </trkpt>
      <trkpt lat="50.44079" lon="6.0354">
        <ele>353.9</ele>
        <time>2019-07-07T06:29:59Z</time>
      </trkpt>
      <trkpt lat="50.44078" lon="6.03539">
        <ele>353.9</ele>
        <time>2019-07-07T06:30:08Z</time>
      </trkpt>
      <trkpt lat="50.44075" lon="6.03535">
        <ele>353.9</ele>
        <time>2019-07-07T06:30:11Z</time>
      </trkpt>
      <trkpt lat="50.44075" lon="6.03531">
        <ele>353.9</ele>
        <time>2019-07-07T06:30:12Z</time>
      </trkpt>
      <trkpt lat="50.44075" lon="6.03528">
        <ele>353.9</ele>
        <time>2019-07-07T06:30:13Z</time>
      </trkpt>
      <trkpt lat="50.44075" lon="6.03525">
        <ele>353.9</ele>
        <time>2019-07-07T06:30:14Z</time>
      </trkpt>
      <trkpt lat="50.44074" lon="6.03522">
        <ele>353.9</ele>
        <time>2019-07-07T06:30:15Z</time>
      </trkpt>
      <trkpt lat="50.44073" lon="6.03518">
        <ele>353.9</ele>
        <time>2019-07-07T06:30:16Z</time>
      </trkpt>
      <trkpt lat="50.44072" lon="6.03514">
        <ele>353.9</ele>
        <time>2019-07-07T06:30:17Z</time>
      </trkpt>
      <trkpt lat="50.44071" lon="6.0351">
        <ele>353.9</ele>
        <time>2019-07-07T06:30:18Z</time>
      </trkpt>
      <trkpt lat="50.44069" lon="6.03506">
        <ele>353.9</ele>
        <time>2019-07-07T06:30:19Z</time>
      </trkpt>
      <trkpt lat="50.44053" lon="6.03513">
        <ele>353.9</ele>
        <time>2019-07-07T06:30:24Z</time>
      </trkpt>
      <trkpt lat="50.44046" lon="6.03519">
        <ele>353.9</ele>
        <time>2019-07-07T06:30:30Z</time>
      </trkpt>
      <trkpt lat="50.44047" lon="6.03517">
        <ele>353.9</ele>
        <time>2019-07-07T06:30:49Z</time>
      </trkpt>
      <trkpt lat="50.44047" lon="6.03516">
        <ele>353.9</ele>
        <time>2019-07-07T06:31:15Z</time>
      </trkpt>
      <trkpt lat="50.44069" lon="6.03505">
        <ele>353.9</ele>
        <time>2019-07-07T06:31:25Z</time>
      </trkpt>
      <trkpt lat="50.44071" lon="6.03508">
        <ele>353.42</ele>
        <time>2019-07-07T06:31:26Z</time>
      </trkpt>
      <trkpt lat="50.44072" lon="6.03511">
        <ele>353.42</ele>
        <time>2019-07-07T06:31:27Z</time>
      </trkpt>
      <trkpt lat="50.44073" lon="6.03515">
        <ele>353.42</ele>
        <time>2019-07-07T06:31:28Z</time>
      </trkpt>
      <trkpt lat="50.44074" lon="6.03519">
        <ele>353.42</ele>
        <time>2019-07-07T06:31:29Z</time>
      </trkpt>
      <trkpt lat="50.44074" lon="6.03523">
        <ele>353.42</ele>
        <time>2019-07-07T06:31:30Z</time>
      </trkpt>
      <trkpt lat="50.44074" lon="6.03527">
        <ele>353.42</ele>
        <time>2019-07-07T06:31:31Z</time>
      </trkpt>
      <trkpt lat="50.4408" lon="6.0354">
        <ele>353.42</ele>
        <time>2019-07-07T06:31:41Z</time>
      </trkpt>
      <trkpt lat="50.44079" lon="6.03539">
        <ele>353.42</ele>
        <time>2019-07-07T06:32:01Z</time>
      </trkpt>
      <trkpt lat="50.44079" lon="6.0354">
        <ele>353.42</ele>
        <time>2019-07-07T06:32:19Z</time>
      </trkpt>
      <trkpt lat="50.44078" lon="6.03539">
        <ele>353.42</ele>
        <time>2019-07-07T06:32:49Z</time>
      </trkpt>
      <trkpt lat="50.44077" lon="6.03538">
        <ele>353.42</ele>
        <time>2019-07-07T06:33:17Z</time>
      </trkpt>
      <trkpt lat="50.44076" lon="6.03538">
        <ele>353.42</ele>
        <time>2019-07-07T06:33:48Z</time>
      </trkpt>
      <trkpt lat="50.4408" lon="6.03539">
        <ele>353.42</ele>
        <time>2019-07-07T06:33:59Z</time>
      </trkpt>
      <trkpt lat="50.44082" lon="6.03539">
        <ele>353.42</ele>
        <time>2019-07-07T06:34:22Z</time>
      </trkpt>
      <trkpt lat="50.44082" lon="6.03539">
        <ele>353.42</ele>
        <time>2019-07-07T06:34:42Z</time>
      </trkpt>
      <trkpt lat="50.4408" lon="6.03541">
        <ele>353.42</ele>
        <time>2019-07-07T06:35:09Z</time>
      </trkpt>
      <trkpt lat="50.44078" lon="6.03541">
        <ele>352.94</ele>
        <time>2019-07-07T06:35:27Z</time>
      </trkpt>
      <trkpt lat="50.44077" lon="6.03541">
        <ele>352.94</ele>
        <time>2019-07-07T06:35:28Z</time>
      </trkpt>
      <trkpt lat="50.44076" lon="6.0354">
        <ele>352.94</ele>
        <time>2019-07-07T06:35:41Z</time>
      </trkpt>
      <trkpt lat="50.44077" lon="6.03542">
        <ele>352.94</ele>
        <time>2019-07-07T06:35:59Z</time>
      </trkpt>
      <trkpt lat="50.44076" lon="6.03539">
        <ele>352.94</ele>
        <time>2019-07-07T06:36:38Z</time>
      </trkpt>
      <trkpt lat="50.44076" lon="6.03541">
        <ele>352.94</ele>
        <time>2019-07-07T06:37:07Z</time>
      </trkpt>
      <trkpt lat="50.44078" lon="6.03539">
        <ele>352.94</ele>
        <time>2019-07-07T06:37:16Z</time>
      </trkpt>
      <trkpt lat="50.44077" lon="6.03537">
        <ele>352.94</ele>
        <time>2019-07-07T06:37:17Z</time>
      </trkpt>
      <trkpt lat="50.44069" lon="6.03504">
        <ele>352.94</ele>
        <time>2019-07-07T06:37:30Z</time>
      </trkpt>
      <trkpt lat="50.44063" lon="6.03507">
        <ele>352.94</ele>
        <time>2019-07-07T06:37:33Z</time>
      </trkpt>
      <trkpt lat="50.44058" lon="6.03512">
        <ele>352.94</ele>
        <time>2019-07-07T06:37:39Z</time>
      </trkpt>
      <trkpt lat="50.44061" lon="6.03508">
        <ele>352.94</ele>
        <time>2019-07-07T06:37:41Z</time>
      </trkpt>
      <trkpt lat="50.44066" lon="6.03506">
        <ele>352.94</ele>
        <time>2019-07-07T06:37:44Z</time>
      </trkpt>
      <trkpt lat="50.44071" lon="6.03514">
        <ele>352.94</ele>
        <time>2019-07-07T06:37:48Z</time>
      </trkpt>
      <trkpt lat="50.44072" lon="6.03518">
        <ele>352.94</ele>
        <time>2019-07-07T06:37:49Z</time>
      </trkpt>
      <trkpt lat="50.44073" lon="6.03521">
        <ele>352.94</ele>
        <time>2019-07-07T06:37:50Z</time>
      </trkpt>
      <trkpt lat="50.44078" lon="6.03546">
        <ele>352.94</ele>
        <time>2019-07-07T06:38:03Z</time>
      </trkpt>
      <trkpt lat="50.44077" lon="6.03545">
        <ele>352.46</ele>
        <time>2019-07-07T06:38:33Z</time>
      </trkpt>
      <trkpt lat="50.44077" lon="6.03543">
        <ele>352.46</ele>
        <time>2019-07-07T06:38:48Z</time>
      </trkpt>
      <trkpt lat="50.44078" lon="6.03541">
        <ele>352.46</ele>
        <time>2019-07-07T06:38:49Z</time>
      </trkpt>
      <trkpt lat="50.44079" lon="6.0354">
        <ele>352.46</ele>
        <time>2019-07-07T06:38:50Z</time>
      </trkpt>
      <trkpt lat="50.44078" lon="6.03537">
        <ele>352.46</ele>
        <time>2019-07-07T06:39:07Z</time>
      </trkpt>
      <trkpt lat="50.4408" lon="6.03538">
        <ele>352.46</ele>
        <time>2019-07-07T06:39:44Z</time>
      </trkpt>
      <trkpt lat="50.4408" lon="6.03537">
        <ele>352.46</ele>
        <time>2019-07-07T06:40:33Z</time>
      </trkpt>
      <trkpt lat="50.44079" lon="6.03537">
        <ele>352.46</ele>
        <time>2019-07-07T06:41:08Z</time>
      </trkpt>
      <trkpt lat="50.4408" lon="6.03538">
        <ele>352.46</ele>
        <time>2019-07-07T06:41:32Z</time>
      </trkpt>
      <trkpt lat="50.44079" lon="6.03538">
        <ele>351.98</ele>
        <time>2019-07-07T06:42:08Z</time>
      </trkpt>
      <trkpt lat="50.44082" lon="6.03538">
        <ele>351.98</ele>
        <time>2019-07-07T06:42:42Z</time>
      </trkpt>
      <trkpt lat="50.44079" lon="6.0354">
        <ele>351.98</ele>
        <time>2019-07-07T06:43:25Z</time>
      </trkpt>
      <trkpt lat="50.44078" lon="6.03538">
        <ele>351.98</ele>
        <time>2019-07-07T06:44:00Z</time>
      </trkpt>
      <trkpt lat="50.4408" lon="6.03539">
        <ele>351.98</ele>
        <time>2019-07-07T06:44:45Z</time>
      </trkpt>
      <trkpt lat="50.44081" lon="6.03537">
        <ele>351.5</ele>
        <time>2019-07-07T06:45:18Z</time>
      </trkpt>
      <trkpt lat="50.44079" lon="6.03537">
        <ele>351.5</ele>
        <time>2019-07-07T06:45:54Z</time>
      </trkpt>
      <trkpt lat="50.44078" lon="6.03539">
        <ele>351.5</ele>
        <time>2019-07-07T06:46:12Z</time>
      </trkpt>
      <trkpt lat="50.44075" lon="6.03533">
        <ele>351.5</ele>
        <time>2019-07-07T06:46:15Z</time>
      </trkpt>
      <trkpt lat="50.44069" lon="6.0348">
        <ele>351.5</ele>
        <time>2019-07-07T06:46:28Z</time>
      </trkpt>
      <trkpt lat="50.4407" lon="6.03478">
        <ele>351.5</ele>
        <time>2019-07-07T06:46:29Z</time>
      </trkpt>
      <trkpt lat="50.44071" lon="6.03478">
        <ele>351.5</ele>
        <time>2019-07-07T06:46:30Z</time>
      </trkpt>
      <trkpt lat="50.44072" lon="6.03479">
        <ele>351.5</ele>
        <time>2019-07-07T06:46:31Z</time>
      </trkpt>
      <trkpt lat="50.44074" lon="6.03481">
        <ele>351.5</ele>
        <time>2019-07-07T06:46:32Z</time>
      </trkpt>
      <trkpt lat="50.44075" lon="6.03483">
        <ele>351.5</ele>
        <time>2019-07-07T06:46:33Z</time>
      </trkpt>
      <trkpt lat="50.44076" lon="6.03486">
        <ele>351.5</ele>
        <time>2019-07-07T06:46:34Z</time>
      </trkpt>
      <trkpt lat="50.44077" lon="6.0349">
        <ele>351.5</ele>
        <time>2019-07-07T06:46:35Z</time>
      </trkpt>
      <trkpt lat="50.44088" lon="6.03569">
        <ele>351.5</ele>
        <time>2019-07-07T06:46:47Z</time>
      </trkpt>
      <trkpt lat="50.441" lon="6.03693">
        <ele>351.5</ele>
        <time>2019-07-07T06:47:03Z</time>
      </trkpt>
      <trkpt lat="50.44118" lon="6.03826">
        <ele>353.42</ele>
        <time>2019-07-07T06:47:20Z</time>
      </trkpt>
      <trkpt lat="50.44133" lon="6.03906">
        <ele>355.34</ele>
        <time>2019-07-07T06:47:35Z</time>
      </trkpt>
      <trkpt lat="50.44133" lon="6.03907">
        <ele>355.34</ele>
        <time>2019-07-07T06:47:47Z</time>
      </trkpt>
      <trkpt lat="50.44135" lon="6.03905">
        <ele>355.34</ele>
        <time>2019-07-07T06:47:52Z</time>
      </trkpt>
      <trkpt lat="50.44135" lon="6.03902">
        <ele>355.34</ele>
        <time>2019-07-07T06:47:53Z</time>
      </trkpt>
      <trkpt lat="50.44135" lon="6.03899">
        <ele>355.34</ele>
        <time>2019-07-07T06:47:54Z</time>
      </trkpt>
      <trkpt lat="50.44135" lon="6.03895">
        <ele>355.34</ele>
        <time>2019-07-07T06:47:55Z</time>
      </trkpt>
      <trkpt lat="50.44134" lon="6.0389">
        <ele>355.34</ele>
        <time>2019-07-07T06:47:56Z</time>
      </trkpt>
      <trkpt lat="50.44133" lon="6.03884">
        <ele>355.34</ele>
        <time>2019-07-07T06:47:57Z</time>
      </trkpt>
      <trkpt lat="50.44131" lon="6.03878">
        <ele>355.34</ele>
        <time>2019-07-07T06:47:58Z</time>
      </trkpt>
      <trkpt lat="50.44119" lon="6.03822">
        <ele>353.9</ele>
        <time>2019-07-07T06:48:04Z</time>
      </trkpt>
      <trkpt lat="50.44108" lon="6.03768">
        <ele>352.94</ele>
        <time>2019-07-07T06:48:09Z</time>
      </trkpt>
      <trkpt lat="50.44107" lon="6.03757">
        <ele>352.94</ele>
        <time>2019-07-07T06:48:10Z</time>
      </trkpt>
      <trkpt lat="50.44091" lon="6.03577">
        <ele>351.5</ele>
        <time>2019-07-07T06:48:26Z</time>
      </trkpt>
      <trkpt lat="50.44074" lon="6.03455">
        <ele>351.98</ele>
        <time>2019-07-07T06:48:38Z</time>
      </trkpt>
      <trkpt lat="50.44071" lon="6.03446">
        <ele>351.98</ele>
        <time>2019-07-07T06:48:39Z</time>
      </trkpt>
      <trkpt lat="50.44044" lon="6.03371">
        <ele>351.5</ele>
        <time>2019-07-07T06:48:48Z</time>
      </trkpt>
      <trkpt lat="50.44042" lon="6.03371">
        <ele>351.5</ele>
        <time>2019-07-07T06:48:49Z</time>
      </trkpt>
      <trkpt lat="50.44042" lon="6.03377">
        <ele>351.5</ele>
        <time>2019-07-07T06:48:51Z</time>
      </trkpt>
      <trkpt lat="50.44044" lon="6.03381">
        <ele>351.5</ele>
        <time>2019-07-07T06:48:52Z</time>
      </trkpt>
      <trkpt lat="50.4407" lon="6.03453">
        <ele>351.5</ele>
        <time>2019-07-07T06:49:02Z</time>
      </trkpt>
      <trkpt lat="50.44091" lon="6.03603">
        <ele>351.02</ele>
        <time>2019-07-07T06:49:18Z</time>
      </trkpt>
      <trkpt lat="50.44107" lon="6.03759">
        <ele>351.02</ele>
        <time>2019-07-07T06:49:35Z</time>
      </trkpt>
      <trkpt lat="50.44115" lon="6.03817">
        <ele>352.46</ele>
        <time>2019-07-07T06:49:42Z</time>
      </trkpt>
      <trkpt lat="50.44125" lon="6.03859">
        <ele>353.42</ele>
        <time>2019-07-07T06:49:48Z</time>
      </trkpt>
      <trkpt lat="50.44131" lon="6.03888">
        <ele>354.38</ele>
        <time>2019-07-07T06:49:54Z</time>
      </trkpt>
      <trkpt lat="50.44133" lon="6.0389">
        <ele>354.38</ele>
        <time>2019-07-07T06:49:55Z</time>
      </trkpt>
      <trkpt lat="50.44134" lon="6.03887">
        <ele>354.86</ele>
        <time>2019-07-07T06:49:56Z</time>
      </trkpt>
      <trkpt lat="50.44134" lon="6.03884">
        <ele>354.86</ele>
        <time>2019-07-07T06:49:57Z</time>
      </trkpt>
      <trkpt lat="50.44134" lon="6.03881">
        <ele>354.86</ele>
        <time>2019-07-07T06:49:58Z</time>
      </trkpt>
      <trkpt lat="50.44133" lon="6.03878">
        <ele>354.86</ele>
        <time>2019-07-07T06:49:59Z</time>
      </trkpt>
      <trkpt lat="50.44132" lon="6.03876">
        <ele>354.86</ele>
        <time>2019-07-07T06:50:00Z</time>
      </trkpt>
      <trkpt lat="50.44129" lon="6.0388">
        <ele>354.86</ele>
        <time>2019-07-07T06:50:02Z</time>
      </trkpt>
      <trkpt lat="50.4413" lon="6.03884">
        <ele>354.86</ele>
        <time>2019-07-07T06:50:03Z</time>
      </trkpt>
      <trkpt lat="50.44131" lon="6.03889">
        <ele>354.86</ele>
        <time>2019-07-07T06:50:04Z</time>
      </trkpt>
      <trkpt lat="50.44132" lon="6.03892">
        <ele>354.86</ele>
        <time>2019-07-07T06:50:05Z</time>
      </trkpt>
      <trkpt lat="50.44133" lon="6.03895">
        <ele>354.86</ele>
        <time>2019-07-07T06:50:06Z</time>
      </trkpt>
      <trkpt lat="50.44132" lon="6.03899">
        <ele>354.86</ele>
        <time>2019-07-07T06:50:07Z</time>
      </trkpt>
      <trkpt lat="50.44132" lon="6.03902">
        <ele>354.86</ele>
        <time>2019-07-07T06:50:08Z</time>
      </trkpt>
      <trkpt lat="50.44131" lon="6.03908">
        <ele>354.86</ele>
        <time>2019-07-07T06:50:11Z</time>
      </trkpt>
      <trkpt lat="50.44132" lon="6.03909">
        <ele>354.86</ele>
        <time>2019-07-07T06:50:12Z</time>
      </trkpt>
      <trkpt lat="50.44133" lon="6.03909">
        <ele>354.86</ele>
        <time>2019-07-07T06:50:13Z</time>
      </trkpt>
      <trkpt lat="50.44134" lon="6.03907">
        <ele>354.86</ele>
        <time>2019-07-07T06:50:26Z</time>
      </trkpt>
      <trkpt lat="50.44136" lon="6.03907">
        <ele>354.86</ele>
        <time>2019-07-07T06:50:36Z</time>
      </trkpt>
      <trkpt lat="50.44137" lon="6.03905">
        <ele>354.86</ele>
        <time>2019-07-07T06:50:37Z</time>
      </trkpt>
      <trkpt lat="50.44163" lon="6.03893">
        <ele>356.31</ele>
        <time>2019-07-07T06:50:47Z</time>
      </trkpt>
      <trkpt lat="50.44181" lon="6.03861">
        <ele>359.19</ele>
        <time>2019-07-07T06:50:57Z</time>
      </trkpt>
      <trkpt lat="50.44192" lon="6.03831">
        <ele>362.55</ele>
        <time>2019-07-07T06:51:07Z</time>
      </trkpt>
      <trkpt lat="50.44207" lon="6.03812">
        <ele>365.44</ele>
        <time>2019-07-07T06:51:17Z</time>
      </trkpt>
      <trkpt lat="50.4423" lon="6.03801">
        <ele>368.32</ele>
        <time>2019-07-07T06:51:28Z</time>
      </trkpt>
      <trkpt lat="50.44267" lon="6.03819">
        <ele>371.21</ele>
        <time>2019-07-07T06:51:44Z</time>
      </trkpt>
      <trkpt lat="50.44299" lon="6.0382">
        <ele>374.57</ele>
        <time>2019-07-07T06:51:57Z</time>
      </trkpt>
      <trkpt lat="50.44322" lon="6.03817">
        <ele>377.94</ele>
        <time>2019-07-07T06:52:08Z</time>
      </trkpt>
      <trkpt lat="50.44334" lon="6.03812">
        <ele>380.82</ele>
        <time>2019-07-07T06:52:17Z</time>
      </trkpt>
      <trkpt lat="50.44352" lon="6.03803">
        <ele>384.18</ele>
        <time>2019-07-07T06:52:27Z</time>
      </trkpt>
      <trkpt lat="50.44373" lon="6.03786">
        <ele>387.55</ele>
        <time>2019-07-07T06:52:38Z</time>
      </trkpt>
      <trkpt lat="50.44389" lon="6.03765">
        <ele>390.91</ele>
        <time>2019-07-07T06:52:49Z</time>
      </trkpt>
      <trkpt lat="50.44403" lon="6.03749">
        <ele>394.28</ele>
        <time>2019-07-07T06:53:01Z</time>
      </trkpt>
      <trkpt lat="50.44409" lon="6.03744">
        <ele>395.24</ele>
        <time>2019-07-07T06:53:06Z</time>
      </trkpt>
      <trkpt lat="50.44422" lon="6.03738">
        <ele>397.64</ele>
        <time>2019-07-07T06:53:13Z</time>
      </trkpt>
      <trkpt lat="50.44424" lon="6.03737">
        <ele>397.64</ele>
        <time>2019-07-07T06:53:14Z</time>
      </trkpt>
      <trkpt lat="50.44426" lon="6.03736">
        <ele>398.12</ele>
        <time>2019-07-07T06:53:15Z</time>
      </trkpt>
      <trkpt lat="50.44428" lon="6.03735">
        <ele>398.12</ele>
        <time>2019-07-07T06:53:16Z</time>
      </trkpt>
      <trkpt lat="50.44429" lon="6.03735">
        <ele>398.6</ele>
        <time>2019-07-07T06:53:17Z</time>
      </trkpt>
      <trkpt lat="50.44437" lon="6.03733">
        <ele>400.53</ele>
        <time>2019-07-07T06:53:22Z</time>
      </trkpt>
      <trkpt lat="50.44448" lon="6.03733">
        <ele>402.45</ele>
        <time>2019-07-07T06:53:28Z</time>
      </trkpt>
      <trkpt lat="50.44449" lon="6.03733">
        <ele>402.93</ele>
        <time>2019-07-07T06:53:29Z</time>
      </trkpt>
      <trkpt lat="50.44451" lon="6.03734">
        <ele>402.93</ele>
        <time>2019-07-07T06:53:30Z</time>
      </trkpt>
      <trkpt lat="50.44466" lon="6.03743">
        <ele>406.29</ele>
        <time>2019-07-07T06:53:38Z</time>
      </trkpt>
      <trkpt lat="50.44487" lon="6.03747">
        <ele>410.14</ele>
        <time>2019-07-07T06:53:50Z</time>
      </trkpt>
      <trkpt lat="50.44489" lon="6.03747">
        <ele>410.14</ele>
        <time>2019-07-07T06:53:51Z</time>
      </trkpt>
      <trkpt lat="50.44491" lon="6.03746">
        <ele>410.62</ele>
        <time>2019-07-07T06:53:52Z</time>
      </trkpt>
      <trkpt lat="50.44493" lon="6.03746">
        <ele>410.62</ele>
        <time>2019-07-07T06:53:53Z</time>
      </trkpt>
      <trkpt lat="50.44509" lon="6.03738">
        <ele>414.47</ele>
        <time>2019-07-07T06:54:03Z</time>
      </trkpt>
      <trkpt lat="50.44523" lon="6.03717">
        <ele>416.87</ele>
        <time>2019-07-07T06:54:13Z</time>
      </trkpt>
      <trkpt lat="50.4453" lon="6.03692">
        <ele>420.23</ele>
        <time>2019-07-07T06:54:23Z</time>
      </trkpt>
      <trkpt lat="50.44532" lon="6.03651">
        <ele>424.08</ele>
        <time>2019-07-07T06:54:37Z</time>
      </trkpt>
      <trkpt lat="50.44528" lon="6.03624">
        <ele>427.44</ele>
        <time>2019-07-07T06:54:47Z</time>
      </trkpt>
      <trkpt lat="50.44531" lon="6.03593">
        <ele>430.81</ele>
        <time>2019-07-07T06:54:58Z</time>
      </trkpt>
      <trkpt lat="50.44537" lon="6.03571">
        <ele>434.17</ele>
        <time>2019-07-07T06:55:07Z</time>
      </trkpt>
      <trkpt lat="50.44544" lon="6.03547">
        <ele>437.54</ele>
        <time>2019-07-07T06:55:17Z</time>
      </trkpt>
      <trkpt lat="50.44551" lon="6.03523">
        <ele>440.42</ele>
        <time>2019-07-07T06:55:27Z</time>
      </trkpt>
      <trkpt lat="50.44559" lon="6.03499">
        <ele>443.79</ele>
        <time>2019-07-07T06:55:38Z</time>
      </trkpt>
      <trkpt lat="50.44569" lon="6.03481">
        <ele>446.67</ele>
        <time>2019-07-07T06:55:47Z</time>
      </trkpt>
      <trkpt lat="50.44581" lon="6.03464">
        <ele>450.03</ele>
        <time>2019-07-07T06:55:56Z</time>
      </trkpt>
      <trkpt lat="50.44599" lon="6.03444">
        <ele>453.4</ele>
        <time>2019-07-07T06:56:09Z</time>
      </trkpt>
      <trkpt lat="50.44616" lon="6.0342">
        <ele>457.24</ele>
        <time>2019-07-07T06:56:22Z</time>
      </trkpt>
      <trkpt lat="50.44629" lon="6.03388">
        <ele>460.61</ele>
        <time>2019-07-07T06:56:35Z</time>
      </trkpt>
      <trkpt lat="50.44633" lon="6.03355">
        <ele>463.97</ele>
        <time>2019-07-07T06:56:47Z</time>
      </trkpt>
      <trkpt lat="50.44634" lon="6.03308">
        <ele>465.42</ele>
        <time>2019-07-07T06:57:03Z</time>
      </trkpt>
      <trkpt lat="50.44638" lon="6.03243">
        <ele>466.38</ele>
        <time>2019-07-07T06:57:20Z</time>
      </trkpt>
      <trkpt lat="50.4464" lon="6.03192">
        <ele>469.74</ele>
        <time>2019-07-07T06:57:35Z</time>
      </trkpt>
      <trkpt lat="50.44645" lon="6.03165">
        <ele>472.63</ele>
        <time>2019-07-07T06:57:44Z</time>
      </trkpt>
      <trkpt lat="50.4465" lon="6.03136">
        <ele>475.99</ele>
        <time>2019-07-07T06:57:53Z</time>
      </trkpt>
      <trkpt lat="50.44653" lon="6.03109">
        <ele>478.87</ele>
        <time>2019-07-07T06:58:02Z</time>
      </trkpt>
      <trkpt lat="50.44657" lon="6.0308">
        <ele>482.24</ele>
        <time>2019-07-07T06:58:12Z</time>
      </trkpt>
      <trkpt lat="50.44659" lon="6.03072">
        <ele>482.72</ele>
        <time>2019-07-07T06:58:15Z</time>
      </trkpt>
      <trkpt lat="50.44659" lon="6.03069">
        <ele>483.2</ele>
        <time>2019-07-07T06:58:16Z</time>
      </trkpt>
      <trkpt lat="50.44659" lon="6.03066">
        <ele>483.68</ele>
        <time>2019-07-07T06:58:17Z</time>
      </trkpt>
      <trkpt lat="50.44659" lon="6.03063">
        <ele>483.68</ele>
        <time>2019-07-07T06:58:18Z</time>
      </trkpt>
      <trkpt lat="50.4466" lon="6.03061">
        <ele>484.16</ele>
        <time>2019-07-07T06:58:19Z</time>
      </trkpt>
      <trkpt lat="50.44661" lon="6.03021">
        <ele>487.05</ele>
        <time>2019-07-07T06:58:33Z</time>
      </trkpt>
      <trkpt lat="50.4466" lon="6.02985">
        <ele>490.41</ele>
        <time>2019-07-07T06:58:45Z</time>
      </trkpt>
      <trkpt lat="50.44658" lon="6.02953">
        <ele>493.29</ele>
        <time>2019-07-07T06:58:55Z</time>
      </trkpt>
      <trkpt lat="50.44655" lon="6.02925">
        <ele>496.18</ele>
        <time>2019-07-07T06:59:05Z</time>
      </trkpt>
      <trkpt lat="50.44655" lon="6.02923">
        <ele>496.66</ele>
        <time>2019-07-07T06:59:06Z</time>
      </trkpt>
      <trkpt lat="50.44653" lon="6.029">
        <ele>498.58</ele>
        <time>2019-07-07T06:59:15Z</time>
      </trkpt>
      <trkpt lat="50.44653" lon="6.02897">
        <ele>498.58</ele>
        <time>2019-07-07T06:59:16Z</time>
      </trkpt>
      <trkpt lat="50.44653" lon="6.02894">
        <ele>499.06</ele>
        <time>2019-07-07T06:59:17Z</time>
      </trkpt>
      <trkpt lat="50.44653" lon="6.02891">
        <ele>499.06</ele>
        <time>2019-07-07T06:59:18Z</time>
      </trkpt>
      <trkpt lat="50.44653" lon="6.02888">
        <ele>499.06</ele>
        <time>2019-07-07T06:59:19Z</time>
      </trkpt>
      <trkpt lat="50.44653" lon="6.02885">
        <ele>499.54</ele>
        <time>2019-07-07T06:59:20Z</time>
      </trkpt>
      <trkpt lat="50.44653" lon="6.02882">
        <ele>499.54</ele>
        <time>2019-07-07T06:59:21Z</time>
      </trkpt>
      <trkpt lat="50.44653" lon="6.02879">
        <ele>499.54</ele>
        <time>2019-07-07T06:59:22Z</time>
      </trkpt>
      <trkpt lat="50.44653" lon="6.02876">
        <ele>500.5</ele>
        <time>2019-07-07T06:59:23Z</time>
      </trkpt>
      <trkpt lat="50.44651" lon="6.02832">
        <ele>503.87</ele>
        <time>2019-07-07T06:59:36Z</time>
      </trkpt>
      <trkpt lat="50.44658" lon="6.02777">
        <ele>506.75</ele>
        <time>2019-07-07T06:59:52Z</time>
      </trkpt>
      <trkpt lat="50.44661" lon="6.0277">
        <ele>506.75</ele>
        <time>2019-07-07T07:00:02Z</time>
      </trkpt>
      <trkpt lat="50.44661" lon="6.02772">
        <ele>506.75</ele>
        <time>2019-07-07T07:00:43Z</time>
      </trkpt>
      <trkpt lat="50.44662" lon="6.02771">
        <ele>507.23</ele>
        <time>2019-07-07T07:01:20Z</time>
      </trkpt>
      <trkpt lat="50.44662" lon="6.02773">
        <ele>507.23</ele>
        <time>2019-07-07T07:01:57Z</time>
      </trkpt>
      <trkpt lat="50.4466" lon="6.02771">
        <ele>507.23</ele>
        <time>2019-07-07T07:02:32Z</time>
      </trkpt>
      <trkpt lat="50.44661" lon="6.02773">
        <ele>507.23</ele>
        <time>2019-07-07T07:03:16Z</time>
      </trkpt>
      <trkpt lat="50.4466" lon="6.02772">
        <ele>507.23</ele>
        <time>2019-07-07T07:03:53Z</time>
      </trkpt>
      <trkpt lat="50.44659" lon="6.02772">
        <ele>507.23</ele>
        <time>2019-07-07T07:04:27Z</time>
      </trkpt>
      <trkpt lat="50.44659" lon="6.02774">
        <ele>507.23</ele>
        <time>2019-07-07T07:04:28Z</time>
      </trkpt>
      <trkpt lat="50.44651" lon="6.02812">
        <ele>505.31</ele>
        <time>2019-07-07T07:04:38Z</time>
      </trkpt>
      <trkpt lat="50.44649" lon="6.02813">
        <ele>504.83</ele>
        <time>2019-07-07T07:04:39Z</time>
      </trkpt>
      <trkpt lat="50.44648" lon="6.02814">
        <ele>504.83</ele>
        <time>2019-07-07T07:04:40Z</time>
      </trkpt>
      <trkpt lat="50.44642" lon="6.02818">
        <ele>503.87</ele>
        <time>2019-07-07T07:04:50Z</time>
      </trkpt>
      <trkpt lat="50.44644" lon="6.02821">
        <ele>503.87</ele>
        <time>2019-07-07T07:05:06Z</time>
      </trkpt>
      <trkpt lat="50.44643" lon="6.02822">
        <ele>503.87</ele>
        <time>2019-07-07T07:05:46Z</time>
      </trkpt>
      <trkpt lat="50.44644" lon="6.02824">
        <ele>503.87</ele>
        <time>2019-07-07T07:06:25Z</time>
      </trkpt>
      <trkpt lat="50.44643" lon="6.02825">
        <ele>503.87</ele>
        <time>2019-07-07T07:07:08Z</time>
      </trkpt>
      <trkpt lat="50.44641" lon="6.02819">
        <ele>503.87</ele>
        <time>2019-07-07T07:07:55Z</time>
      </trkpt>
      <trkpt lat="50.44644" lon="6.02822">
        <ele>503.39</ele>
        <time>2019-07-07T07:08:42Z</time>
      </trkpt>
      <trkpt lat="50.44643" lon="6.02821">
        <ele>503.39</ele>
        <time>2019-07-07T07:09:24Z</time>
      </trkpt>
      <trkpt lat="50.44642" lon="6.02822">
        <ele>502.91</ele>
        <time>2019-07-07T07:10:09Z</time>
      </trkpt>
      <trkpt lat="50.4464" lon="6.02823">
        <ele>502.91</ele>
        <time>2019-07-07T07:10:48Z</time>
      </trkpt>
      <trkpt lat="50.44641" lon="6.02822">
        <ele>502.91</ele>
        <time>2019-07-07T07:11:31Z</time>
      </trkpt>
      <trkpt lat="50.44642" lon="6.0282">
        <ele>502.91</ele>
        <time>2019-07-07T07:12:14Z</time>
      </trkpt>
      <trkpt lat="50.44643" lon="6.02822">
        <ele>503.39</ele>
        <time>2019-07-07T07:12:59Z</time>
      </trkpt>
      <trkpt lat="50.44642" lon="6.02824">
        <ele>503.39</ele>
        <time>2019-07-07T07:13:36Z</time>
      </trkpt>
      <trkpt lat="50.44642" lon="6.02822">
        <ele>503.39</ele>
        <time>2019-07-07T07:14:26Z</time>
      </trkpt>
      <trkpt lat="50.44646" lon="6.02819">
        <ele>503.39</ele>
        <time>2019-07-07T07:15:14Z</time>
      </trkpt>
      <trkpt lat="50.44643" lon="6.0282">
        <ele>503.39</ele>
        <time>2019-07-07T07:15:45Z</time>
      </trkpt>
      <trkpt lat="50.4464" lon="6.02819">
        <ele>503.39</ele>
        <time>2019-07-07T07:16:36Z</time>
      </trkpt>
      <trkpt lat="50.44642" lon="6.02823">
        <ele>503.87</ele>
        <time>2019-07-07T07:17:28Z</time>
      </trkpt>
      <trkpt lat="50.44641" lon="6.02819">
        <ele>503.87</ele>
        <time>2019-07-07T07:18:09Z</time>
      </trkpt>
      <trkpt lat="50.44642" lon="6.0282">
        <ele>503.87</ele>
        <time>2019-07-07T07:18:12Z</time>
      </trkpt>
      <trkpt lat="50.44645" lon="6.02819">
        <ele>503.87</ele>
        <time>2019-07-07T07:18:18Z</time>
      </trkpt>
      <trkpt lat="50.44649" lon="6.02825">
        <ele>503.87</ele>
        <time>2019-07-07T07:18:21Z</time>
      </trkpt>
      <trkpt lat="50.44649" lon="6.02829">
        <ele>503.87</ele>
        <time>2019-07-07T07:18:22Z</time>
      </trkpt>
      <trkpt lat="50.44649" lon="6.02832">
        <ele>503.39</ele>
        <time>2019-07-07T07:18:23Z</time>
      </trkpt>
      <trkpt lat="50.44647" lon="6.02835">
        <ele>503.39</ele>
        <time>2019-07-07T07:18:24Z</time>
      </trkpt>
      <trkpt lat="50.44645" lon="6.02841">
        <ele>502.91</ele>
        <time>2019-07-07T07:18:35Z</time>
      </trkpt>
      <trkpt lat="50.44645" lon="6.02842">
        <ele>502.91</ele>
        <time>2019-07-07T07:19:08Z</time>
      </trkpt>
      <trkpt lat="50.44645" lon="6.02841">
        <ele>502.91</ele>
        <time>2019-07-07T07:19:23Z</time>
      </trkpt>
      <trkpt lat="50.44647" lon="6.02838">
        <ele>502.91</ele>
        <time>2019-07-07T07:19:28Z</time>
      </trkpt>
      <trkpt lat="50.44649" lon="6.02827">
        <ele>503.87</ele>
        <time>2019-07-07T07:19:33Z</time>
      </trkpt>
      <trkpt lat="50.44649" lon="6.02824">
        <ele>503.87</ele>
        <time>2019-07-07T07:19:34Z</time>
      </trkpt>
      <trkpt lat="50.44649" lon="6.0282">
        <ele>504.35</ele>
        <time>2019-07-07T07:19:35Z</time>
      </trkpt>
      <trkpt lat="50.4465" lon="6.02816">
        <ele>504.35</ele>
        <time>2019-07-07T07:19:36Z</time>
      </trkpt>
      <trkpt lat="50.44659" lon="6.02759">
        <ele>506.27</ele>
        <time>2019-07-07T07:19:49Z</time>
      </trkpt>
      <trkpt lat="50.44659" lon="6.02698">
        <ele>506.75</ele>
        <time>2019-07-07T07:20:03Z</time>
      </trkpt>
      <trkpt lat="50.44637" lon="6.02659">
        <ele>506.75</ele>
        <time>2019-07-07T07:20:12Z</time>
      </trkpt>
      <trkpt lat="50.44579" lon="6.02565">
        <ele>504.83</ele>
        <time>2019-07-07T07:20:31Z</time>
      </trkpt>
      <trkpt lat="50.44558" lon="6.02531">
        <ele>504.83</ele>
        <time>2019-07-07T07:20:38Z</time>
      </trkpt>
      <trkpt lat="50.44525" lon="6.02482">
        <ele>504.83</ele>
        <time>2019-07-07T07:20:48Z</time>
      </trkpt>
      <trkpt lat="50.44522" lon="6.02477">
        <ele>504.83</ele>
        <time>2019-07-07T07:20:49Z</time>
      </trkpt>
      <trkpt lat="50.4447" lon="6.02379">
        <ele>505.31</ele>
        <time>2019-07-07T07:21:05Z</time>
      </trkpt>
      <trkpt lat="50.44462" lon="6.02365">
        <ele>506.27</ele>
        <time>2019-07-07T07:21:07Z</time>
      </trkpt>
      <trkpt lat="50.44417" lon="6.02266">
        <ele>506.75</ele>
        <time>2019-07-07T07:21:21Z</time>
      </trkpt>
      <trkpt lat="50.44374" lon="6.02131">
        <ele>506.75</ele>
        <time>2019-07-07T07:21:38Z</time>
      </trkpt>
      <trkpt lat="50.4434" lon="6.02007">
        <ele>503.39</ele>
        <time>2019-07-07T07:21:52Z</time>
      </trkpt>
      <trkpt lat="50.44312" lon="6.01948">
        <ele>502.43</ele>
        <time>2019-07-07T07:21:59Z</time>
      </trkpt>
      <trkpt lat="50.44227" lon="6.01844">
        <ele>501.95</ele>
        <time>2019-07-07T07:22:16Z</time>
      </trkpt>
      <trkpt lat="50.44164" lon="6.01785">
        <ele>503.39</ele>
        <time>2019-07-07T07:22:28Z</time>
      </trkpt>
      <trkpt lat="50.44078" lon="6.01707">
        <ele>504.83</ele>
        <time>2019-07-07T07:22:45Z</time>
      </trkpt>
      <trkpt lat="50.43979" lon="6.01616">
        <ele>506.27</ele>
        <time>2019-07-07T07:23:05Z</time>
      </trkpt>
      <trkpt lat="50.4394" lon="6.01577">
        <ele>506.75</ele>
        <time>2019-07-07T07:23:13Z</time>
      </trkpt>
      <trkpt lat="50.43914" lon="6.01532">
        <ele>507.71</ele>
        <time>2019-07-07T07:23:20Z</time>
      </trkpt>
      <trkpt lat="50.4391" lon="6.01527">
        <ele>508.19</ele>
        <time>2019-07-07T07:23:21Z</time>
      </trkpt>
      <trkpt lat="50.43906" lon="6.01523">
        <ele>508.19</ele>
        <time>2019-07-07T07:23:22Z</time>
      </trkpt>
      <trkpt lat="50.43901" lon="6.01519">
        <ele>508.19</ele>
        <time>2019-07-07T07:23:23Z</time>
      </trkpt>
      <trkpt lat="50.43897" lon="6.01515">
        <ele>508.19</ele>
        <time>2019-07-07T07:23:24Z</time>
      </trkpt>
      <trkpt lat="50.43892" lon="6.01513">
        <ele>508.67</ele>
        <time>2019-07-07T07:23:25Z</time>
      </trkpt>
      <trkpt lat="50.43887" lon="6.0151">
        <ele>508.67</ele>
        <time>2019-07-07T07:23:26Z</time>
      </trkpt>
      <trkpt lat="50.43877" lon="6.01506">
        <ele>508.67</ele>
        <time>2019-07-07T07:23:28Z</time>
      </trkpt>
      <trkpt lat="50.43793" lon="6.01466">
        <ele>511.56</ele>
        <time>2019-07-07T07:23:45Z</time>
      </trkpt>
      <trkpt lat="50.43755" lon="6.01444">
        <ele>513</ele>
        <time>2019-07-07T07:23:53Z</time>
      </trkpt>
      <trkpt lat="50.43751" lon="6.0144">
        <ele>513.48</ele>
        <time>2019-07-07T07:23:54Z</time>
      </trkpt>
      <trkpt lat="50.43746" lon="6.01434">
        <ele>513.48</ele>
        <time>2019-07-07T07:23:55Z</time>
      </trkpt>
      <trkpt lat="50.43744" lon="6.0143">
        <ele>513.48</ele>
        <time>2019-07-07T07:23:56Z</time>
      </trkpt>
      <trkpt lat="50.43741" lon="6.01423">
        <ele>513.48</ele>
        <time>2019-07-07T07:23:57Z</time>
      </trkpt>
      <trkpt lat="50.43739" lon="6.01417">
        <ele>513.48</ele>
        <time>2019-07-07T07:23:58Z</time>
      </trkpt>
      <trkpt lat="50.43737" lon="6.01409">
        <ele>513.48</ele>
        <time>2019-07-07T07:23:59Z</time>
      </trkpt>
      <trkpt lat="50.43716" lon="6.01316">
        <ele>511.56</ele>
        <time>2019-07-07T07:24:10Z</time>
      </trkpt>
      <trkpt lat="50.43707" lon="6.01263">
        <ele>509.64</ele>
        <time>2019-07-07T07:24:15Z</time>
      </trkpt>
      <trkpt lat="50.43703" lon="6.01252">
        <ele>509.16</ele>
        <time>2019-07-07T07:24:16Z</time>
      </trkpt>
      <trkpt lat="50.43699" lon="6.0124">
        <ele>508.19</ele>
        <time>2019-07-07T07:24:17Z</time>
      </trkpt>
      <trkpt lat="50.43694" lon="6.01229">
        <ele>507.71</ele>
        <time>2019-07-07T07:24:18Z</time>
      </trkpt>
      <trkpt lat="50.43688" lon="6.01219">
        <ele>506.75</ele>
        <time>2019-07-07T07:24:19Z</time>
      </trkpt>
      <trkpt lat="50.43681" lon="6.01208">
        <ele>505.79</ele>
        <time>2019-07-07T07:24:20Z</time>
      </trkpt>
      <trkpt lat="50.43651" lon="6.01164">
        <ele>501.95</ele>
        <time>2019-07-07T07:24:24Z</time>
      </trkpt>
      <trkpt lat="50.43619" lon="6.01115">
        <ele>497.62</ele>
        <time>2019-07-07T07:24:28Z</time>
      </trkpt>
      <trkpt lat="50.43587" lon="6.01067">
        <ele>494.26</ele>
        <time>2019-07-07T07:24:32Z</time>
      </trkpt>
      <trkpt lat="50.43557" lon="6.01019">
        <ele>490.41</ele>
        <time>2019-07-07T07:24:36Z</time>
      </trkpt>
      <trkpt lat="50.43544" lon="6.00991">
        <ele>488.97</ele>
        <time>2019-07-07T07:24:38Z</time>
      </trkpt>
      <trkpt lat="50.43539" lon="6.00975">
        <ele>488.01</ele>
        <time>2019-07-07T07:24:39Z</time>
      </trkpt>
      <trkpt lat="50.43536" lon="6.00955">
        <ele>487.05</ele>
        <time>2019-07-07T07:24:40Z</time>
      </trkpt>
      <trkpt lat="50.43534" lon="6.00939">
        <ele>486.08</ele>
        <time>2019-07-07T07:24:41Z</time>
      </trkpt>
      <trkpt lat="50.43532" lon="6.0092">
        <ele>485.12</ele>
        <time>2019-07-07T07:24:42Z</time>
      </trkpt>
      <trkpt lat="50.43525" lon="6.00845">
        <ele>481.28</ele>
        <time>2019-07-07T07:24:46Z</time>
      </trkpt>
      <trkpt lat="50.43524" lon="6.00827">
        <ele>481.28</ele>
        <time>2019-07-07T07:24:47Z</time>
      </trkpt>
      <trkpt lat="50.4352" lon="6.00793">
        <ele>480.32</ele>
        <time>2019-07-07T07:24:49Z</time>
      </trkpt>
      <trkpt lat="50.43515" lon="6.00777">
        <ele>479.35</ele>
        <time>2019-07-07T07:24:50Z</time>
      </trkpt>
      <trkpt lat="50.4351" lon="6.0076">
        <ele>478.87</ele>
        <time>2019-07-07T07:24:51Z</time>
      </trkpt>
      <trkpt lat="50.43505" lon="6.00746">
        <ele>478.87</ele>
        <time>2019-07-07T07:24:52Z</time>
      </trkpt>
      <trkpt lat="50.43507" lon="6.00739">
        <ele>478.39</ele>
        <time>2019-07-07T07:24:53Z</time>
      </trkpt>
      <trkpt lat="50.43512" lon="6.00733">
        <ele>478.87</ele>
        <time>2019-07-07T07:24:54Z</time>
      </trkpt>
      <trkpt lat="50.43516" lon="6.00727">
        <ele>478.39</ele>
        <time>2019-07-07T07:24:55Z</time>
      </trkpt>
      <trkpt lat="50.43521" lon="6.00725">
        <ele>477.91</ele>
        <time>2019-07-07T07:24:56Z</time>
      </trkpt>
      <trkpt lat="50.43526" lon="6.00725">
        <ele>477.91</ele>
        <time>2019-07-07T07:24:57Z</time>
      </trkpt>
      <trkpt lat="50.4353" lon="6.00725">
        <ele>478.39</ele>
        <time>2019-07-07T07:24:58Z</time>
      </trkpt>
      <trkpt lat="50.43535" lon="6.00728">
        <ele>479.84</ele>
        <time>2019-07-07T07:24:59Z</time>
      </trkpt>
      <trkpt lat="50.43538" lon="6.00731">
        <ele>479.84</ele>
        <time>2019-07-07T07:25:00Z</time>
      </trkpt>
      <trkpt lat="50.43542" lon="6.00733">
        <ele>480.8</ele>
        <time>2019-07-07T07:25:01Z</time>
      </trkpt>
      <trkpt lat="50.43566" lon="6.00744">
        <ele>483.68</ele>
        <time>2019-07-07T07:25:07Z</time>
      </trkpt>
      <trkpt lat="50.43574" lon="6.00742">
        <ele>484.16</ele>
        <time>2019-07-07T07:25:09Z</time>
      </trkpt>
      <trkpt lat="50.43577" lon="6.00739">
        <ele>484.64</ele>
        <time>2019-07-07T07:25:10Z</time>
      </trkpt>
      <trkpt lat="50.4358" lon="6.00735">
        <ele>485.6</ele>
        <time>2019-07-07T07:25:11Z</time>
      </trkpt>
      <trkpt lat="50.43582" lon="6.0073">
        <ele>486.08</ele>
        <time>2019-07-07T07:25:12Z</time>
      </trkpt>
      <trkpt lat="50.43585" lon="6.00725">
        <ele>486.56</ele>
        <time>2019-07-07T07:25:13Z</time>
      </trkpt>
      <trkpt lat="50.43588" lon="6.0072">
        <ele>487.05</ele>
        <time>2019-07-07T07:25:14Z</time>
      </trkpt>
      <trkpt lat="50.43598" lon="6.00678">
        <ele>489.93</ele>
        <time>2019-07-07T07:25:22Z</time>
      </trkpt>
      <trkpt lat="50.43612" lon="6.00604">
        <ele>493.77</ele>
        <time>2019-07-07T07:25:35Z</time>
      </trkpt>
      <trkpt lat="50.43625" lon="6.0054">
        <ele>494.74</ele>
        <time>2019-07-07T07:25:46Z</time>
      </trkpt>
      <trkpt lat="50.43634" lon="6.00492">
        <ele>496.18</ele>
        <time>2019-07-07T07:25:54Z</time>
      </trkpt>
      <trkpt lat="50.43652" lon="6.00394">
        <ele>497.62</ele>
        <time>2019-07-07T07:26:09Z</time>
      </trkpt>
      <trkpt lat="50.43653" lon="6.00387">
        <ele>497.62</ele>
        <time>2019-07-07T07:26:10Z</time>
      </trkpt>
      <trkpt lat="50.43664" lon="6.0033">
        <ele>498.1</ele>
        <time>2019-07-07T07:26:19Z</time>
      </trkpt>
      <trkpt lat="50.4368" lon="6.00251">
        <ele>498.58</ele>
        <time>2019-07-07T07:26:31Z</time>
      </trkpt>
      <trkpt lat="50.43681" lon="6.00245">
        <ele>499.06</ele>
        <time>2019-07-07T07:26:32Z</time>
      </trkpt>
      <trkpt lat="50.437" lon="6.00144">
        <ele>500.5</ele>
        <time>2019-07-07T07:26:47Z</time>
      </trkpt>
      <trkpt lat="50.4373" lon="5.99993">
        <ele>502.91</ele>
        <time>2019-07-07T07:27:08Z</time>
      </trkpt>
      <trkpt lat="50.43749" lon="5.99891">
        <ele>503.87</ele>
        <time>2019-07-07T07:27:22Z</time>
      </trkpt>
      <trkpt lat="50.43774" lon="5.99765">
        <ele>506.27</ele>
        <time>2019-07-07T07:27:40Z</time>
      </trkpt>
      <trkpt lat="50.43781" lon="5.99731">
        <ele>507.23</ele>
        <time>2019-07-07T07:27:45Z</time>
      </trkpt>
      <trkpt lat="50.43803" lon="5.99615">
        <ele>508.67</ele>
        <time>2019-07-07T07:28:02Z</time>
      </trkpt>
      <trkpt lat="50.4383" lon="5.99474">
        <ele>509.64</ele>
        <time>2019-07-07T07:28:21Z</time>
      </trkpt>
      <trkpt lat="50.43836" lon="5.99439">
        <ele>509.64</ele>
        <time>2019-07-07T07:28:26Z</time>
      </trkpt>
      <trkpt lat="50.43836" lon="5.99432">
        <ele>509.64</ele>
        <time>2019-07-07T07:28:27Z</time>
      </trkpt>
      <trkpt lat="50.43834" lon="5.99425">
        <ele>510.12</ele>
        <time>2019-07-07T07:28:28Z</time>
      </trkpt>
      <trkpt lat="50.43831" lon="5.99422">
        <ele>510.12</ele>
        <time>2019-07-07T07:28:29Z</time>
      </trkpt>
      <trkpt lat="50.43827" lon="5.9942">
        <ele>510.12</ele>
        <time>2019-07-07T07:28:30Z</time>
      </trkpt>
      <trkpt lat="50.43822" lon="5.99419">
        <ele>510.12</ele>
        <time>2019-07-07T07:28:31Z</time>
      </trkpt>
      <trkpt lat="50.43756" lon="5.99411">
        <ele>510.12</ele>
        <time>2019-07-07T07:28:47Z</time>
      </trkpt>
      <trkpt lat="50.43734" lon="5.99408">
        <ele>508.67</ele>
        <time>2019-07-07T07:28:52Z</time>
      </trkpt>
      <trkpt lat="50.43729" lon="5.99407">
        <ele>508.19</ele>
        <time>2019-07-07T07:28:53Z</time>
      </trkpt>
      <trkpt lat="50.43663" lon="5.99414">
        <ele>505.79</ele>
        <time>2019-07-07T07:29:04Z</time>
      </trkpt>
      <trkpt lat="50.43657" lon="5.99415">
        <ele>505.79</ele>
        <time>2019-07-07T07:29:05Z</time>
      </trkpt>
      <trkpt lat="50.43638" lon="5.99416">
        <ele>503.39</ele>
        <time>2019-07-07T07:29:08Z</time>
      </trkpt>
      <trkpt lat="50.43632" lon="5.99411">
        <ele>502.91</ele>
        <time>2019-07-07T07:29:09Z</time>
      </trkpt>
      <trkpt lat="50.43627" lon="5.99404">
        <ele>502.43</ele>
        <time>2019-07-07T07:29:10Z</time>
      </trkpt>
      <trkpt lat="50.43623" lon="5.99395">
        <ele>502.43</ele>
        <time>2019-07-07T07:29:11Z</time>
      </trkpt>
      <trkpt lat="50.43619" lon="5.99385">
        <ele>502.43</ele>
        <time>2019-07-07T07:29:12Z</time>
      </trkpt>
      <trkpt lat="50.43591" lon="5.9932">
        <ele>500.5</ele>
        <time>2019-07-07T07:29:19Z</time>
      </trkpt>
      <trkpt lat="50.43553" lon="5.99231">
        <ele>496.66</ele>
        <time>2019-07-07T07:29:29Z</time>
      </trkpt>
      <trkpt lat="50.43494" lon="5.99097">
        <ele>492.81</ele>
        <time>2019-07-07T07:29:43Z</time>
      </trkpt>
      <trkpt lat="50.43439" lon="5.9897">
        <ele>489.45</ele>
        <time>2019-07-07T07:29:56Z</time>
      </trkpt>
      <trkpt lat="50.43404" lon="5.98884">
        <ele>487.53</ele>
        <time>2019-07-07T07:30:06Z</time>
      </trkpt>
      <trkpt lat="50.43398" lon="5.98879">
        <ele>487.05</ele>
        <time>2019-07-07T07:30:07Z</time>
      </trkpt>
      <trkpt lat="50.43394" lon="5.98878">
        <ele>486.56</ele>
        <time>2019-07-07T07:30:08Z</time>
      </trkpt>
      <trkpt lat="50.43388" lon="5.98879">
        <ele>486.08</ele>
        <time>2019-07-07T07:30:09Z</time>
      </trkpt>
      <trkpt lat="50.43382" lon="5.98881">
        <ele>485.6</ele>
        <time>2019-07-07T07:30:10Z</time>
      </trkpt>
      <trkpt lat="50.43375" lon="5.98885">
        <ele>485.6</ele>
        <time>2019-07-07T07:30:11Z</time>
      </trkpt>
      <trkpt lat="50.43354" lon="5.98894">
        <ele>483.68</ele>
        <time>2019-07-07T07:30:14Z</time>
      </trkpt>
      <trkpt lat="50.43317" lon="5.98905">
        <ele>480.32</ele>
        <time>2019-07-07T07:30:19Z</time>
      </trkpt>
      <trkpt lat="50.43282" lon="5.98912">
        <ele>476.95</ele>
        <time>2019-07-07T07:30:24Z</time>
      </trkpt>
      <trkpt lat="50.43241" lon="5.98917">
        <ele>473.59</ele>
        <time>2019-07-07T07:30:29Z</time>
      </trkpt>
      <trkpt lat="50.43217" lon="5.98921">
        <ele>470.22</ele>
        <time>2019-07-07T07:30:32Z</time>
      </trkpt>
      <trkpt lat="50.43183" lon="5.98925">
        <ele>466.86</ele>
        <time>2019-07-07T07:30:36Z</time>
      </trkpt>
      <trkpt lat="50.43156" lon="5.9893">
        <ele>463.49</ele>
        <time>2019-07-07T07:30:39Z</time>
      </trkpt>
      <trkpt lat="50.43127" lon="5.98933">
        <ele>459.65</ele>
        <time>2019-07-07T07:30:42Z</time>
      </trkpt>
      <trkpt lat="50.43085" lon="5.98931">
        <ele>455.8</ele>
        <time>2019-07-07T07:30:46Z</time>
      </trkpt>
      <trkpt lat="50.43055" lon="5.9893">
        <ele>451.96</ele>
        <time>2019-07-07T07:30:49Z</time>
      </trkpt>
      <trkpt lat="50.43025" lon="5.98929">
        <ele>449.07</ele>
        <time>2019-07-07T07:30:52Z</time>
      </trkpt>
      <trkpt lat="50.42995" lon="5.98928">
        <ele>445.71</ele>
        <time>2019-07-07T07:30:55Z</time>
      </trkpt>
      <trkpt lat="50.42958" lon="5.98926">
        <ele>442.34</ele>
        <time>2019-07-07T07:30:59Z</time>
      </trkpt>
      <trkpt lat="50.42924" lon="5.98924">
        <ele>439.46</ele>
        <time>2019-07-07T07:31:03Z</time>
      </trkpt>
      <trkpt lat="50.42894" lon="5.98922">
        <ele>436.1</ele>
        <time>2019-07-07T07:31:07Z</time>
      </trkpt>
      <trkpt lat="50.42876" lon="5.98921">
        <ele>434.65</ele>
        <time>2019-07-07T07:31:10Z</time>
      </trkpt>
      <trkpt lat="50.42852" lon="5.98903">
        <ele>433.21</ele>
        <time>2019-07-07T07:31:18Z</time>
      </trkpt>
      <trkpt lat="50.42851" lon="5.98897">
        <ele>433.21</ele>
        <time>2019-07-07T07:31:19Z</time>
      </trkpt>
      <trkpt lat="50.4285" lon="5.98876">
        <ele>433.69</ele>
        <time>2019-07-07T07:31:22Z</time>
      </trkpt>
      <trkpt lat="50.42848" lon="5.98861">
        <ele>435.13</ele>
        <time>2019-07-07T07:31:24Z</time>
      </trkpt>
      <trkpt lat="50.42838" lon="5.9879">
        <ele>437.06</ele>
        <time>2019-07-07T07:31:35Z</time>
      </trkpt>
      <trkpt lat="50.42816" lon="5.98687">
        <ele>440.42</ele>
        <time>2019-07-07T07:31:52Z</time>
      </trkpt>
      <trkpt lat="50.42796" lon="5.98585">
        <ele>443.79</ele>
        <time>2019-07-07T07:32:09Z</time>
      </trkpt>
      <trkpt lat="50.42792" lon="5.9848">
        <ele>447.15</ele>
        <time>2019-07-07T07:32:26Z</time>
      </trkpt>
      <trkpt lat="50.428" lon="5.98373">
        <ele>450.52</ele>
        <time>2019-07-07T07:32:44Z</time>
      </trkpt>
      <trkpt lat="50.42809" lon="5.98271">
        <ele>453.4</ele>
        <time>2019-07-07T07:33:02Z</time>
      </trkpt>
      <trkpt lat="50.42833" lon="5.98191">
        <ele>456.28</ele>
        <time>2019-07-07T07:33:18Z</time>
      </trkpt>
      <trkpt lat="50.42858" lon="5.98142">
        <ele>460.13</ele>
        <time>2019-07-07T07:33:31Z</time>
      </trkpt>
      <trkpt lat="50.42881" lon="5.98097">
        <ele>463.01</ele>
        <time>2019-07-07T07:33:44Z</time>
      </trkpt>
      <trkpt lat="50.42901" lon="5.98059">
        <ele>466.38</ele>
        <time>2019-07-07T07:33:55Z</time>
      </trkpt>
      <trkpt lat="50.42925" lon="5.98009">
        <ele>469.74</ele>
        <time>2019-07-07T07:34:09Z</time>
      </trkpt>
      <trkpt lat="50.42928" lon="5.98003">
        <ele>470.22</ele>
        <time>2019-07-07T07:34:11Z</time>
      </trkpt>
      <trkpt lat="50.42955" lon="5.97967">
        <ele>473.59</ele>
        <time>2019-07-07T07:34:23Z</time>
      </trkpt>
      <trkpt lat="50.43002" lon="5.97939">
        <ele>475.03</ele>
        <time>2019-07-07T07:34:40Z</time>
      </trkpt>
      <trkpt lat="50.43065" lon="5.9794">
        <ele>475.99</ele>
        <time>2019-07-07T07:34:57Z</time>
      </trkpt>
      <trkpt lat="50.43127" lon="5.97948">
        <ele>476.47</ele>
        <time>2019-07-07T07:35:12Z</time>
      </trkpt>
      <trkpt lat="50.43144" lon="5.9795">
        <ele>476.95</ele>
        <time>2019-07-07T07:35:16Z</time>
      </trkpt>
      <trkpt lat="50.43148" lon="5.9795">
        <ele>476.95</ele>
        <time>2019-07-07T07:35:17Z</time>
      </trkpt>
      <trkpt lat="50.43225" lon="5.97961">
        <ele>477.91</ele>
        <time>2019-07-07T07:35:35Z</time>
      </trkpt>
      <trkpt lat="50.43239" lon="5.97962">
        <ele>477.91</ele>
        <time>2019-07-07T07:35:38Z</time>
      </trkpt>
      <trkpt lat="50.43311" lon="5.97973">
        <ele>479.35</ele>
        <time>2019-07-07T07:35:55Z</time>
      </trkpt>
      <trkpt lat="50.434" lon="5.97976">
        <ele>480.8</ele>
        <time>2019-07-07T07:36:15Z</time>
      </trkpt>
      <trkpt lat="50.43478" lon="5.9798">
        <ele>481.76</ele>
        <time>2019-07-07T07:36:32Z</time>
      </trkpt>
      <trkpt lat="50.4349" lon="5.97979">
        <ele>481.76</ele>
        <time>2019-07-07T07:36:35Z</time>
      </trkpt>
      <trkpt lat="50.4351" lon="5.97972">
        <ele>480.32</ele>
        <time>2019-07-07T07:36:39Z</time>
      </trkpt>
      <trkpt lat="50.43516" lon="5.97968">
        <ele>479.35</ele>
        <time>2019-07-07T07:36:40Z</time>
      </trkpt>
      <trkpt lat="50.43522" lon="5.97964">
        <ele>479.35</ele>
        <time>2019-07-07T07:36:41Z</time>
      </trkpt>
      <trkpt lat="50.43544" lon="5.97939">
        <ele>477.43</ele>
        <time>2019-07-07T07:36:45Z</time>
      </trkpt>
      <trkpt lat="50.43566" lon="5.979">
        <ele>474.07</ele>
        <time>2019-07-07T07:36:49Z</time>
      </trkpt>
      <trkpt lat="50.43591" lon="5.97852">
        <ele>470.7</ele>
        <time>2019-07-07T07:36:54Z</time>
      </trkpt>
      <trkpt lat="50.43612" lon="5.97814">
        <ele>467.82</ele>
        <time>2019-07-07T07:36:58Z</time>
      </trkpt>
      <trkpt lat="50.43633" lon="5.97775">
        <ele>464.45</ele>
        <time>2019-07-07T07:37:03Z</time>
      </trkpt>
      <trkpt lat="50.43636" lon="5.97769">
        <ele>464.45</ele>
        <time>2019-07-07T07:37:04Z</time>
      </trkpt>
      <trkpt lat="50.43638" lon="5.97765">
        <ele>463.97</ele>
        <time>2019-07-07T07:37:05Z</time>
      </trkpt>
      <trkpt lat="50.43638" lon="5.97762">
        <ele>463.97</ele>
        <time>2019-07-07T07:37:06Z</time>
      </trkpt>
      <trkpt lat="50.43639" lon="5.97763">
        <ele>463.49</ele>
        <time>2019-07-07T07:37:10Z</time>
      </trkpt>
      <trkpt lat="50.43641" lon="5.9776">
        <ele>463.49</ele>
        <time>2019-07-07T07:37:11Z</time>
      </trkpt>
      <trkpt lat="50.43643" lon="5.97757">
        <ele>463.01</ele>
        <time>2019-07-07T07:37:12Z</time>
      </trkpt>
      <trkpt lat="50.43646" lon="5.97753">
        <ele>463.01</ele>
        <time>2019-07-07T07:37:13Z</time>
      </trkpt>
      <trkpt lat="50.43649" lon="5.97748">
        <ele>462.53</ele>
        <time>2019-07-07T07:37:14Z</time>
      </trkpt>
      <trkpt lat="50.43673" lon="5.97715">
        <ele>460.13</ele>
        <time>2019-07-07T07:37:19Z</time>
      </trkpt>
      <trkpt lat="50.43687" lon="5.97704">
        <ele>459.17</ele>
        <time>2019-07-07T07:37:21Z</time>
      </trkpt>
      <trkpt lat="50.43694" lon="5.977">
        <ele>458.21</ele>
        <time>2019-07-07T07:37:22Z</time>
      </trkpt>
      <trkpt lat="50.43702" lon="5.97696">
        <ele>458.21</ele>
        <time>2019-07-07T07:37:23Z</time>
      </trkpt>
      <trkpt lat="50.43795" lon="5.97675">
        <ele>458.21</ele>
        <time>2019-07-07T07:37:36Z</time>
      </trkpt>
      <trkpt lat="50.43898" lon="5.97649">
        <ele>455.8</ele>
        <time>2019-07-07T07:37:51Z</time>
      </trkpt>
      <trkpt lat="50.43905" lon="5.97644">
        <ele>455.8</ele>
        <time>2019-07-07T07:37:52Z</time>
      </trkpt>
      <trkpt lat="50.43912" lon="5.97639">
        <ele>455.32</ele>
        <time>2019-07-07T07:37:53Z</time>
      </trkpt>
      <trkpt lat="50.4392" lon="5.97631">
        <ele>453.88</ele>
        <time>2019-07-07T07:37:54Z</time>
      </trkpt>
      <trkpt lat="50.43927" lon="5.97624">
        <ele>452.92</ele>
        <time>2019-07-07T07:37:55Z</time>
      </trkpt>
      <trkpt lat="50.43962" lon="5.9759">
        <ele>449.55</ele>
        <time>2019-07-07T07:37:59Z</time>
      </trkpt>
      <trkpt lat="50.43991" lon="5.9756">
        <ele>446.19</ele>
        <time>2019-07-07T07:38:02Z</time>
      </trkpt>
      <trkpt lat="50.44032" lon="5.97519">
        <ele>441.86</ele>
        <time>2019-07-07T07:38:06Z</time>
      </trkpt>
      <trkpt lat="50.44063" lon="5.97487">
        <ele>438.98</ele>
        <time>2019-07-07T07:38:09Z</time>
      </trkpt>
      <trkpt lat="50.44098" lon="5.97461">
        <ele>435.13</ele>
        <time>2019-07-07T07:38:12Z</time>
      </trkpt>
      <trkpt lat="50.44111" lon="5.97456">
        <ele>434.17</ele>
        <time>2019-07-07T07:38:13Z</time>
      </trkpt>
      <trkpt lat="50.44124" lon="5.97453">
        <ele>432.73</ele>
        <time>2019-07-07T07:38:14Z</time>
      </trkpt>
      <trkpt lat="50.44137" lon="5.97453">
        <ele>431.77</ele>
        <time>2019-07-07T07:38:15Z</time>
      </trkpt>
      <trkpt lat="50.4415" lon="5.97455">
        <ele>430.33</ele>
        <time>2019-07-07T07:38:16Z</time>
      </trkpt>
      <trkpt lat="50.44162" lon="5.97459">
        <ele>429.37</ele>
        <time>2019-07-07T07:38:17Z</time>
      </trkpt>
      <trkpt lat="50.44175" lon="5.97466">
        <ele>427.92</ele>
        <time>2019-07-07T07:38:18Z</time>
      </trkpt>
      <trkpt lat="50.44187" lon="5.97476">
        <ele>426.48</ele>
        <time>2019-07-07T07:38:19Z</time>
      </trkpt>
      <trkpt lat="50.44199" lon="5.97488">
        <ele>426</ele>
        <time>2019-07-07T07:38:20Z</time>
      </trkpt>
      <trkpt lat="50.44209" lon="5.97502">
        <ele>424.08</ele>
        <time>2019-07-07T07:38:21Z</time>
      </trkpt>
      <trkpt lat="50.44219" lon="5.97519">
        <ele>422.64</ele>
        <time>2019-07-07T07:38:22Z</time>
      </trkpt>
      <trkpt lat="50.44227" lon="5.97537">
        <ele>421.68</ele>
        <time>2019-07-07T07:38:23Z</time>
      </trkpt>
      <trkpt lat="50.44234" lon="5.97556">
        <ele>420.71</ele>
        <time>2019-07-07T07:38:24Z</time>
      </trkpt>
      <trkpt lat="50.4424" lon="5.97577">
        <ele>419.27</ele>
        <time>2019-07-07T07:38:25Z</time>
      </trkpt>
      <trkpt lat="50.44244" lon="5.97595">
        <ele>417.83</ele>
        <time>2019-07-07T07:38:26Z</time>
      </trkpt>
      <trkpt lat="50.4426" lon="5.97653">
        <ele>414.47</ele>
        <time>2019-07-07T07:38:29Z</time>
      </trkpt>
      <trkpt lat="50.44273" lon="5.9769">
        <ele>412.54</ele>
        <time>2019-07-07T07:38:31Z</time>
      </trkpt>
      <trkpt lat="50.44282" lon="5.97707">
        <ele>411.1</ele>
        <time>2019-07-07T07:38:32Z</time>
      </trkpt>
      <trkpt lat="50.44291" lon="5.9772">
        <ele>410.14</ele>
        <time>2019-07-07T07:38:33Z</time>
      </trkpt>
      <trkpt lat="50.44302" lon="5.97731">
        <ele>409.18</ele>
        <time>2019-07-07T07:38:34Z</time>
      </trkpt>
      <trkpt lat="50.44313" lon="5.97739">
        <ele>408.22</ele>
        <time>2019-07-07T07:38:35Z</time>
      </trkpt>
      <trkpt lat="50.44326" lon="5.97744">
        <ele>406.77</ele>
        <time>2019-07-07T07:38:36Z</time>
      </trkpt>
      <trkpt lat="50.44339" lon="5.97747">
        <ele>405.81</ele>
        <time>2019-07-07T07:38:37Z</time>
      </trkpt>
      <trkpt lat="50.44352" lon="5.97748">
        <ele>404.37</ele>
        <time>2019-07-07T07:38:38Z</time>
      </trkpt>
      <trkpt lat="50.44365" lon="5.97747">
        <ele>403.41</ele>
        <time>2019-07-07T07:38:39Z</time>
      </trkpt>
      <trkpt lat="50.44418" lon="5.97738">
        <ele>399.57</ele>
        <time>2019-07-07T07:38:43Z</time>
      </trkpt>
      <trkpt lat="50.4443" lon="5.97731">
        <ele>399.57</ele>
        <time>2019-07-07T07:38:44Z</time>
      </trkpt>
      <trkpt lat="50.4444" lon="5.97721">
        <ele>399.57</ele>
        <time>2019-07-07T07:38:45Z</time>
      </trkpt>
      <trkpt lat="50.44449" lon="5.97709">
        <ele>399.08</ele>
        <time>2019-07-07T07:38:46Z</time>
      </trkpt>
      <trkpt lat="50.44457" lon="5.97698">
        <ele>399.08</ele>
        <time>2019-07-07T07:38:47Z</time>
      </trkpt>
      <trkpt lat="50.44463" lon="5.97681">
        <ele>399.08</ele>
        <time>2019-07-07T07:38:48Z</time>
      </trkpt>
      <trkpt lat="50.44524" lon="5.97541">
        <ele>399.08</ele>
        <time>2019-07-07T07:39:00Z</time>
      </trkpt>
      <trkpt lat="50.4456" lon="5.97493">
        <ele>400.53</ele>
        <time>2019-07-07T07:39:06Z</time>
      </trkpt>
      <trkpt lat="50.44646" lon="5.97438">
        <ele>401.97</ele>
        <time>2019-07-07T07:39:19Z</time>
      </trkpt>
      <trkpt lat="50.44755" lon="5.97376">
        <ele>403.89</ele>
        <time>2019-07-07T07:39:37Z</time>
      </trkpt>
      <trkpt lat="50.44798" lon="5.97345">
        <ele>406.77</ele>
        <time>2019-07-07T07:39:47Z</time>
      </trkpt>
      <trkpt lat="50.44836" lon="5.973">
        <ele>409.66</ele>
        <time>2019-07-07T07:40:00Z</time>
      </trkpt>
      <trkpt lat="50.4485" lon="5.97263">
        <ele>411.1</ele>
        <time>2019-07-07T07:40:08Z</time>
      </trkpt>
      <trkpt lat="50.44881" lon="5.97209">
        <ele>414.47</ele>
        <time>2019-07-07T07:40:22Z</time>
      </trkpt>
      <trkpt lat="50.44902" lon="5.97169">
        <ele>417.83</ele>
        <time>2019-07-07T07:40:33Z</time>
      </trkpt>
      <trkpt lat="50.4492" lon="5.9712">
        <ele>420.71</ele>
        <time>2019-07-07T07:40:46Z</time>
      </trkpt>
      <trkpt lat="50.44926" lon="5.9706">
        <ele>424.08</ele>
        <time>2019-07-07T07:41:00Z</time>
      </trkpt>
      <trkpt lat="50.4493" lon="5.97002">
        <ele>427.44</ele>
        <time>2019-07-07T07:41:14Z</time>
      </trkpt>
      <trkpt lat="50.44925" lon="5.96946">
        <ele>430.81</ele>
        <time>2019-07-07T07:41:28Z</time>
      </trkpt>
      <trkpt lat="50.44904" lon="5.96888">
        <ele>434.65</ele>
        <time>2019-07-07T07:41:44Z</time>
      </trkpt>
      <trkpt lat="50.44884" lon="5.96839">
        <ele>437.54</ele>
        <time>2019-07-07T07:41:58Z</time>
      </trkpt>
      <trkpt lat="50.44868" lon="5.96787">
        <ele>440.9</ele>
        <time>2019-07-07T07:42:12Z</time>
      </trkpt>
      <trkpt lat="50.44854" lon="5.96739">
        <ele>443.79</ele>
        <time>2019-07-07T07:42:25Z</time>
      </trkpt>
      <trkpt lat="50.44855" lon="5.96686">
        <ele>447.15</ele>
        <time>2019-07-07T07:42:38Z</time>
      </trkpt>
      <trkpt lat="50.44868" lon="5.96638">
        <ele>450.03</ele>
        <time>2019-07-07T07:42:50Z</time>
      </trkpt>
      <trkpt lat="50.44891" lon="5.96564">
        <ele>452.92</ele>
        <time>2019-07-07T07:43:08Z</time>
      </trkpt>
      <trkpt lat="50.44916" lon="5.96485">
        <ele>453.88</ele>
        <time>2019-07-07T07:43:24Z</time>
      </trkpt>
      <trkpt lat="50.44947" lon="5.96378">
        <ele>454.84</ele>
        <time>2019-07-07T07:43:44Z</time>
      </trkpt>
      <trkpt lat="50.44949" lon="5.96363">
        <ele>454.84</ele>
        <time>2019-07-07T07:43:47Z</time>
      </trkpt>
      <trkpt lat="50.4495" lon="5.96359">
        <ele>454.84</ele>
        <time>2019-07-07T07:43:48Z</time>
      </trkpt>
      <trkpt lat="50.44951" lon="5.96356">
        <ele>454.84</ele>
        <time>2019-07-07T07:43:49Z</time>
      </trkpt>
      <trkpt lat="50.4495" lon="5.96352">
        <ele>454.84</ele>
        <time>2019-07-07T07:44:01Z</time>
      </trkpt>
      <trkpt lat="50.44949" lon="5.96351">
        <ele>454.84</ele>
        <time>2019-07-07T07:44:08Z</time>
      </trkpt>
      <trkpt lat="50.44949" lon="5.96349">
        <ele>454.84</ele>
        <time>2019-07-07T07:44:09Z</time>
      </trkpt>
      <trkpt lat="50.44949" lon="5.96345">
        <ele>454.84</ele>
        <time>2019-07-07T07:44:10Z</time>
      </trkpt>
      <trkpt lat="50.44949" lon="5.96341">
        <ele>454.84</ele>
        <time>2019-07-07T07:44:11Z</time>
      </trkpt>
      <trkpt lat="50.4495" lon="5.96335">
        <ele>454.84</ele>
        <time>2019-07-07T07:44:12Z</time>
      </trkpt>
      <trkpt lat="50.4495" lon="5.96327">
        <ele>454.84</ele>
        <time>2019-07-07T07:44:13Z</time>
      </trkpt>
      <trkpt lat="50.44949" lon="5.96319">
        <ele>454.84</ele>
        <time>2019-07-07T07:44:14Z</time>
      </trkpt>
      <trkpt lat="50.44949" lon="5.9631">
        <ele>454.84</ele>
        <time>2019-07-07T07:44:15Z</time>
      </trkpt>
      <trkpt lat="50.44949" lon="5.96202">
        <ele>453.4</ele>
        <time>2019-07-07T07:44:26Z</time>
      </trkpt>
      <trkpt lat="50.44947" lon="5.96118">
        <ele>450.52</ele>
        <time>2019-07-07T07:44:33Z</time>
      </trkpt>
      <trkpt lat="50.44951" lon="5.9604">
        <ele>446.67</ele>
        <time>2019-07-07T07:44:39Z</time>
      </trkpt>
      <trkpt lat="50.44953" lon="5.95975">
        <ele>443.31</ele>
        <time>2019-07-07T07:44:44Z</time>
      </trkpt>
      <trkpt lat="50.44944" lon="5.95905">
        <ele>442.34</ele>
        <time>2019-07-07T07:44:50Z</time>
      </trkpt>
      <trkpt lat="50.44944" lon="5.95896">
        <ele>442.34</ele>
        <time>2019-07-07T07:44:51Z</time>
      </trkpt>
      <trkpt lat="50.44944" lon="5.95888">
        <ele>444.27</ele>
        <time>2019-07-07T07:44:52Z</time>
      </trkpt>
      <trkpt lat="50.44946" lon="5.9588">
        <ele>444.75</ele>
        <time>2019-07-07T07:44:53Z</time>
      </trkpt>
      <trkpt lat="50.44948" lon="5.95873">
        <ele>444.75</ele>
        <time>2019-07-07T07:44:54Z</time>
      </trkpt>
      <trkpt lat="50.4495" lon="5.95867">
        <ele>445.23</ele>
        <time>2019-07-07T07:44:55Z</time>
      </trkpt>
      <trkpt lat="50.44952" lon="5.9586">
        <ele>445.23</ele>
        <time>2019-07-07T07:44:56Z</time>
      </trkpt>
      <trkpt lat="50.44953" lon="5.95854">
        <ele>445.71</ele>
        <time>2019-07-07T07:44:57Z</time>
      </trkpt>
      <trkpt lat="50.44956" lon="5.95849">
        <ele>445.71</ele>
        <time>2019-07-07T07:44:58Z</time>
      </trkpt>
      <trkpt lat="50.44959" lon="5.95845">
        <ele>445.71</ele>
        <time>2019-07-07T07:44:59Z</time>
      </trkpt>
      <trkpt lat="50.44962" lon="5.95842">
        <ele>445.71</ele>
        <time>2019-07-07T07:45:00Z</time>
      </trkpt>
      <trkpt lat="50.44966" lon="5.95839">
        <ele>446.19</ele>
        <time>2019-07-07T07:45:01Z</time>
      </trkpt>
      <trkpt lat="50.44969" lon="5.95837">
        <ele>446.19</ele>
        <time>2019-07-07T07:45:02Z</time>
      </trkpt>
      <trkpt lat="50.45019" lon="5.95808">
        <ele>449.07</ele>
        <time>2019-07-07T07:45:16Z</time>
      </trkpt>
      <trkpt lat="50.45084" lon="5.95778">
        <ele>452.44</ele>
        <time>2019-07-07T07:45:35Z</time>
      </trkpt>
      <trkpt lat="50.45144" lon="5.9576">
        <ele>454.84</ele>
        <time>2019-07-07T07:45:51Z</time>
      </trkpt>
      <trkpt lat="50.45209" lon="5.95741">
        <ele>457.72</ele>
        <time>2019-07-07T07:46:09Z</time>
      </trkpt>
      <trkpt lat="50.45258" lon="5.9573">
        <ele>460.61</ele>
        <time>2019-07-07T07:46:23Z</time>
      </trkpt>
      <trkpt lat="50.45308" lon="5.95691">
        <ele>463.97</ele>
        <time>2019-07-07T07:46:40Z</time>
      </trkpt>
      <trkpt lat="50.45337" lon="5.9563">
        <ele>466.38</ele>
        <time>2019-07-07T07:46:55Z</time>
      </trkpt>
      <trkpt lat="50.45368" lon="5.95554">
        <ele>469.26</ele>
        <time>2019-07-07T07:47:12Z</time>
      </trkpt>
      <trkpt lat="50.45388" lon="5.95487">
        <ele>471.66</ele>
        <time>2019-07-07T07:47:26Z</time>
      </trkpt>
      <trkpt lat="50.45406" lon="5.95398">
        <ele>475.03</ele>
        <time>2019-07-07T07:47:43Z</time>
      </trkpt>
      <trkpt lat="50.45416" lon="5.95313">
        <ele>477.43</ele>
        <time>2019-07-07T07:47:58Z</time>
      </trkpt>
      <trkpt lat="50.45425" lon="5.95254">
        <ele>478.39</ele>
        <time>2019-07-07T07:48:08Z</time>
      </trkpt>
      <trkpt lat="50.45427" lon="5.95248">
        <ele>478.39</ele>
        <time>2019-07-07T07:48:09Z</time>
      </trkpt>
      <trkpt lat="50.45429" lon="5.95243">
        <ele>478.87</ele>
        <time>2019-07-07T07:48:10Z</time>
      </trkpt>
      <trkpt lat="50.45432" lon="5.95238">
        <ele>478.87</ele>
        <time>2019-07-07T07:48:11Z</time>
      </trkpt>
      <trkpt lat="50.45435" lon="5.95235">
        <ele>478.87</ele>
        <time>2019-07-07T07:48:12Z</time>
      </trkpt>
      <trkpt lat="50.45438" lon="5.95232">
        <ele>478.87</ele>
        <time>2019-07-07T07:48:13Z</time>
      </trkpt>
      <trkpt lat="50.45442" lon="5.95229">
        <ele>478.87</ele>
        <time>2019-07-07T07:48:14Z</time>
      </trkpt>
      <trkpt lat="50.45445" lon="5.95225">
        <ele>479.35</ele>
        <time>2019-07-07T07:48:15Z</time>
      </trkpt>
      <trkpt lat="50.45447" lon="5.95219">
        <ele>479.35</ele>
        <time>2019-07-07T07:48:16Z</time>
      </trkpt>
      <trkpt lat="50.45447" lon="5.95214">
        <ele>479.35</ele>
        <time>2019-07-07T07:48:17Z</time>
      </trkpt>
      <trkpt lat="50.45446" lon="5.95207">
        <ele>479.35</ele>
        <time>2019-07-07T07:48:18Z</time>
      </trkpt>
      <trkpt lat="50.45445" lon="5.952">
        <ele>479.35</ele>
        <time>2019-07-07T07:48:19Z</time>
      </trkpt>
      <trkpt lat="50.4543" lon="5.95127">
        <ele>478.39</ele>
        <time>2019-07-07T07:48:29Z</time>
      </trkpt>
      <trkpt lat="50.45422" lon="5.95074">
        <ele>476.95</ele>
        <time>2019-07-07T07:48:35Z</time>
      </trkpt>
      <trkpt lat="50.45421" lon="5.95065">
        <ele>476.95</ele>
        <time>2019-07-07T07:48:36Z</time>
      </trkpt>
      <trkpt lat="50.45421" lon="5.95054">
        <ele>476.47</ele>
        <time>2019-07-07T07:48:37Z</time>
      </trkpt>
      <trkpt lat="50.45422" lon="5.95043">
        <ele>475.99</ele>
        <time>2019-07-07T07:48:38Z</time>
      </trkpt>
      <trkpt lat="50.45423" lon="5.95031">
        <ele>475.51</ele>
        <time>2019-07-07T07:48:39Z</time>
      </trkpt>
      <trkpt lat="50.45426" lon="5.94992">
        <ele>473.59</ele>
        <time>2019-07-07T07:48:42Z</time>
      </trkpt>
      <trkpt lat="50.45425" lon="5.94978">
        <ele>472.63</ele>
        <time>2019-07-07T07:48:43Z</time>
      </trkpt>
      <trkpt lat="50.45422" lon="5.94967">
        <ele>472.63</ele>
        <time>2019-07-07T07:48:44Z</time>
      </trkpt>
      <trkpt lat="50.45417" lon="5.94957">
        <ele>472.63</ele>
        <time>2019-07-07T07:48:45Z</time>
      </trkpt>
      <trkpt lat="50.45411" lon="5.94947">
        <ele>472.14</ele>
        <time>2019-07-07T07:48:46Z</time>
      </trkpt>
      <trkpt lat="50.45399" lon="5.94929">
        <ele>472.14</ele>
        <time>2019-07-07T07:48:48Z</time>
      </trkpt>
      <trkpt lat="50.45394" lon="5.94918">
        <ele>471.66</ele>
        <time>2019-07-07T07:48:49Z</time>
      </trkpt>
      <trkpt lat="50.45389" lon="5.94906">
        <ele>471.18</ele>
        <time>2019-07-07T07:48:50Z</time>
      </trkpt>
      <trkpt lat="50.45385" lon="5.94894">
        <ele>470.22</ele>
        <time>2019-07-07T07:48:51Z</time>
      </trkpt>
      <trkpt lat="50.45382" lon="5.94881">
        <ele>469.74</ele>
        <time>2019-07-07T07:48:52Z</time>
      </trkpt>
      <trkpt lat="50.45375" lon="5.94853">
        <ele>468.3</ele>
        <time>2019-07-07T07:48:54Z</time>
      </trkpt>
      <trkpt lat="50.4537" lon="5.94841">
        <ele>467.82</ele>
        <time>2019-07-07T07:48:55Z</time>
      </trkpt>
      <trkpt lat="50.45364" lon="5.94829">
        <ele>467.34</ele>
        <time>2019-07-07T07:48:56Z</time>
      </trkpt>
      <trkpt lat="50.45357" lon="5.94819">
        <ele>466.86</ele>
        <time>2019-07-07T07:48:57Z</time>
      </trkpt>
      <trkpt lat="50.45348" lon="5.94811">
        <ele>466.38</ele>
        <time>2019-07-07T07:48:58Z</time>
      </trkpt>
      <trkpt lat="50.45339" lon="5.94804">
        <ele>465.42</ele>
        <time>2019-07-07T07:48:59Z</time>
      </trkpt>
      <trkpt lat="50.45329" lon="5.94798">
        <ele>464.45</ele>
        <time>2019-07-07T07:49:00Z</time>
      </trkpt>
      <trkpt lat="50.45291" lon="5.94765">
        <ele>463.01</ele>
        <time>2019-07-07T07:49:04Z</time>
      </trkpt>
      <trkpt lat="50.45276" lon="5.94743">
        <ele>463.01</ele>
        <time>2019-07-07T07:49:06Z</time>
      </trkpt>
      <trkpt lat="50.45269" lon="5.94731">
        <ele>463.01</ele>
        <time>2019-07-07T07:49:07Z</time>
      </trkpt>
      <trkpt lat="50.4521" lon="5.94615">
        <ele>462.53</ele>
        <time>2019-07-07T07:49:19Z</time>
      </trkpt>
      <trkpt lat="50.45152" lon="5.94508">
        <ele>462.05</ele>
        <time>2019-07-07T07:49:32Z</time>
      </trkpt>
      <trkpt lat="50.45084" lon="5.94392">
        <ele>459.65</ele>
        <time>2019-07-07T07:49:45Z</time>
      </trkpt>
      <trkpt lat="50.45" lon="5.94247">
        <ele>457.24</ele>
        <time>2019-07-07T07:50:00Z</time>
      </trkpt>
      <trkpt lat="50.44967" lon="5.94161">
        <ele>458.21</ele>
        <time>2019-07-07T07:50:09Z</time>
      </trkpt>
      <trkpt lat="50.4496" lon="5.94142">
        <ele>459.17</ele>
        <time>2019-07-07T07:50:11Z</time>
      </trkpt>
      <trkpt lat="50.449" lon="5.9399">
        <ele>461.09</ele>
        <time>2019-07-07T07:50:28Z</time>
      </trkpt>
      <trkpt lat="50.44831" lon="5.93859">
        <ele>461.57</ele>
        <time>2019-07-07T07:50:44Z</time>
      </trkpt>
      <trkpt lat="50.44806" lon="5.93833">
        <ele>460.61</ele>
        <time>2019-07-07T07:50:48Z</time>
      </trkpt>
      <trkpt lat="50.44716" lon="5.93751">
        <ele>457.24</ele>
        <time>2019-07-07T07:51:01Z</time>
      </trkpt>
      <trkpt lat="50.44708" lon="5.93743">
        <ele>456.76</ele>
        <time>2019-07-07T07:51:02Z</time>
      </trkpt>
      <trkpt lat="50.44656" lon="5.93697">
        <ele>453.4</ele>
        <time>2019-07-07T07:51:08Z</time>
      </trkpt>
      <trkpt lat="50.44617" lon="5.93667">
        <ele>451.48</ele>
        <time>2019-07-07T07:51:12Z</time>
      </trkpt>
      <trkpt lat="50.44576" lon="5.93639">
        <ele>448.59</ele>
        <time>2019-07-07T07:51:16Z</time>
      </trkpt>
      <trkpt lat="50.44524" lon="5.93599">
        <ele>445.71</ele>
        <time>2019-07-07T07:51:21Z</time>
      </trkpt>
      <trkpt lat="50.44494" lon="5.93569">
        <ele>443.31</ele>
        <time>2019-07-07T07:51:24Z</time>
      </trkpt>
      <trkpt lat="50.44451" lon="5.93532">
        <ele>439.46</ele>
        <time>2019-07-07T07:51:28Z</time>
      </trkpt>
      <trkpt lat="50.4444" lon="5.93523">
        <ele>439.46</ele>
        <time>2019-07-07T07:51:29Z</time>
      </trkpt>
      <trkpt lat="50.44431" lon="5.93514">
        <ele>438.5</ele>
        <time>2019-07-07T07:51:30Z</time>
      </trkpt>
      <trkpt lat="50.44422" lon="5.93503">
        <ele>438.5</ele>
        <time>2019-07-07T07:51:31Z</time>
      </trkpt>
      <trkpt lat="50.44416" lon="5.9349">
        <ele>438.5</ele>
        <time>2019-07-07T07:51:32Z</time>
      </trkpt>
      <trkpt lat="50.44411" lon="5.93477">
        <ele>438.02</ele>
        <time>2019-07-07T07:51:33Z</time>
      </trkpt>
      <trkpt lat="50.44408" lon="5.93462">
        <ele>437.54</ele>
        <time>2019-07-07T07:51:34Z</time>
      </trkpt>
      <trkpt lat="50.44393" lon="5.934">
        <ele>434.17</ele>
        <time>2019-07-07T07:51:38Z</time>
      </trkpt>
      <trkpt lat="50.4439" lon="5.93384">
        <ele>434.17</ele>
        <time>2019-07-07T07:51:39Z</time>
      </trkpt>
      <trkpt lat="50.44371" lon="5.93298">
        <ele>430.81</ele>
        <time>2019-07-07T07:51:45Z</time>
      </trkpt>
      <trkpt lat="50.44366" lon="5.93271">
        <ele>429.85</ele>
        <time>2019-07-07T07:51:47Z</time>
      </trkpt>
      <trkpt lat="50.44365" lon="5.93257">
        <ele>429.37</ele>
        <time>2019-07-07T07:51:48Z</time>
      </trkpt>
      <trkpt lat="50.44365" lon="5.93243">
        <ele>428.89</ele>
        <time>2019-07-07T07:51:49Z</time>
      </trkpt>
      <trkpt lat="50.44369" lon="5.9323">
        <ele>427.44</ele>
        <time>2019-07-07T07:51:50Z</time>
      </trkpt>
      <trkpt lat="50.44375" lon="5.9322">
        <ele>426.48</ele>
        <time>2019-07-07T07:51:51Z</time>
      </trkpt>
      <trkpt lat="50.44383" lon="5.93216">
        <ele>425.52</ele>
        <time>2019-07-07T07:51:52Z</time>
      </trkpt>
      <trkpt lat="50.44392" lon="5.93217">
        <ele>425.04</ele>
        <time>2019-07-07T07:51:53Z</time>
      </trkpt>
      <trkpt lat="50.44401" lon="5.93224">
        <ele>425.04</ele>
        <time>2019-07-07T07:51:54Z</time>
      </trkpt>
      <trkpt lat="50.44409" lon="5.93232">
        <ele>424.56</ele>
        <time>2019-07-07T07:51:55Z</time>
      </trkpt>
      <trkpt lat="50.44441" lon="5.93265">
        <ele>422.64</ele>
        <time>2019-07-07T07:51:59Z</time>
      </trkpt>
      <trkpt lat="50.4445" lon="5.93271">
        <ele>422.16</ele>
        <time>2019-07-07T07:52:00Z</time>
      </trkpt>
      <trkpt lat="50.44459" lon="5.93273">
        <ele>421.68</ele>
        <time>2019-07-07T07:52:01Z</time>
      </trkpt>
      <trkpt lat="50.44469" lon="5.93269">
        <ele>420.71</ele>
        <time>2019-07-07T07:52:02Z</time>
      </trkpt>
      <trkpt lat="50.44477" lon="5.93259">
        <ele>419.75</ele>
        <time>2019-07-07T07:52:03Z</time>
      </trkpt>
      <trkpt lat="50.44482" lon="5.93247">
        <ele>419.27</ele>
        <time>2019-07-07T07:52:04Z</time>
      </trkpt>
      <trkpt lat="50.44484" lon="5.93233">
        <ele>418.31</ele>
        <time>2019-07-07T07:52:05Z</time>
      </trkpt>
      <trkpt lat="50.44482" lon="5.93218">
        <ele>417.35</ele>
        <time>2019-07-07T07:52:06Z</time>
      </trkpt>
      <trkpt lat="50.44479" lon="5.93205">
        <ele>416.39</ele>
        <time>2019-07-07T07:52:07Z</time>
      </trkpt>
      <trkpt lat="50.44474" lon="5.93191">
        <ele>415.91</ele>
        <time>2019-07-07T07:52:08Z</time>
      </trkpt>
      <trkpt lat="50.44443" lon="5.93106">
        <ele>413.5</ele>
        <time>2019-07-07T07:52:14Z</time>
      </trkpt>
      <trkpt lat="50.44424" lon="5.93046">
        <ele>411.58</ele>
        <time>2019-07-07T07:52:18Z</time>
      </trkpt>
      <trkpt lat="50.44422" lon="5.93029">
        <ele>410.62</ele>
        <time>2019-07-07T07:52:19Z</time>
      </trkpt>
      <trkpt lat="50.44421" lon="5.93011">
        <ele>409.66</ele>
        <time>2019-07-07T07:52:20Z</time>
      </trkpt>
      <trkpt lat="50.44421" lon="5.92976">
        <ele>407.74</ele>
        <time>2019-07-07T07:52:22Z</time>
      </trkpt>
      <trkpt lat="50.4442" lon="5.92959">
        <ele>407.26</ele>
        <time>2019-07-07T07:52:23Z</time>
      </trkpt>
      <trkpt lat="50.44416" lon="5.92943">
        <ele>406.77</ele>
        <time>2019-07-07T07:52:24Z</time>
      </trkpt>
      <trkpt lat="50.4441" lon="5.92928">
        <ele>405.81</ele>
        <time>2019-07-07T07:52:25Z</time>
      </trkpt>
      <trkpt lat="50.44404" lon="5.92913">
        <ele>405.33</ele>
        <time>2019-07-07T07:52:26Z</time>
      </trkpt>
      <trkpt lat="50.4437" lon="5.92838">
        <ele>401.97</ele>
        <time>2019-07-07T07:52:31Z</time>
      </trkpt>
      <trkpt lat="50.44288" lon="5.92663">
        <ele>403.89</ele>
        <time>2019-07-07T07:52:44Z</time>
      </trkpt>
      <trkpt lat="50.44283" lon="5.92653">
        <ele>404.37</ele>
        <time>2019-07-07T07:52:45Z</time>
      </trkpt>
      <trkpt lat="50.44263" lon="5.92606">
        <ele>407.74</ele>
        <time>2019-07-07T07:52:51Z</time>
      </trkpt>
      <trkpt lat="50.44257" lon="5.92593">
        <ele>408.7</ele>
        <time>2019-07-07T07:52:53Z</time>
      </trkpt>
      <trkpt lat="50.44247" lon="5.92567">
        <ele>409.66</ele>
        <time>2019-07-07T07:52:57Z</time>
      </trkpt>
      <trkpt lat="50.44244" lon="5.92561">
        <ele>410.14</ele>
        <time>2019-07-07T07:52:58Z</time>
      </trkpt>
      <trkpt lat="50.44235" lon="5.92539">
        <ele>411.58</ele>
        <time>2019-07-07T07:53:02Z</time>
      </trkpt>
      <trkpt lat="50.44226" lon="5.92492">
        <ele>413.5</ele>
        <time>2019-07-07T07:53:12Z</time>
      </trkpt>
      <trkpt lat="50.44231" lon="5.92394">
        <ele>413.98</ele>
        <time>2019-07-07T07:53:28Z</time>
      </trkpt>
      <trkpt lat="50.44231" lon="5.92387">
        <ele>413.98</ele>
        <time>2019-07-07T07:53:29Z</time>
      </trkpt>
      <trkpt lat="50.44231" lon="5.9238">
        <ele>413.98</ele>
        <time>2019-07-07T07:53:30Z</time>
      </trkpt>
      <trkpt lat="50.44231" lon="5.92373">
        <ele>413.98</ele>
        <time>2019-07-07T07:53:31Z</time>
      </trkpt>
      <trkpt lat="50.44225" lon="5.92336">
        <ele>413.98</ele>
        <time>2019-07-07T07:53:36Z</time>
      </trkpt>
      <trkpt lat="50.44222" lon="5.92329">
        <ele>412.54</ele>
        <time>2019-07-07T07:53:37Z</time>
      </trkpt>
      <trkpt lat="50.4422" lon="5.92322">
        <ele>412.54</ele>
        <time>2019-07-07T07:53:38Z</time>
      </trkpt>
      <trkpt lat="50.44209" lon="5.92299">
        <ele>412.06</ele>
        <time>2019-07-07T07:53:41Z</time>
      </trkpt>
      <trkpt lat="50.4418" lon="5.92255">
        <ele>408.7</ele>
        <time>2019-07-07T07:53:46Z</time>
      </trkpt>
      <trkpt lat="50.44148" lon="5.92208">
        <ele>404.85</ele>
        <time>2019-07-07T07:53:51Z</time>
      </trkpt>
      <trkpt lat="50.44126" lon="5.92176">
        <ele>401.97</ele>
        <time>2019-07-07T07:53:54Z</time>
      </trkpt>
      <trkpt lat="50.4409" lon="5.92119">
        <ele>398.12</ele>
        <time>2019-07-07T07:53:59Z</time>
      </trkpt>
      <trkpt lat="50.44065" lon="5.92066">
        <ele>395.24</ele>
        <time>2019-07-07T07:54:03Z</time>
      </trkpt>
      <trkpt lat="50.44042" lon="5.92003">
        <ele>391.87</ele>
        <time>2019-07-07T07:54:07Z</time>
      </trkpt>
      <trkpt lat="50.44018" lon="5.91938">
        <ele>388.03</ele>
        <time>2019-07-07T07:54:11Z</time>
      </trkpt>
      <trkpt lat="50.43992" lon="5.91868">
        <ele>384.66</ele>
        <time>2019-07-07T07:54:15Z</time>
      </trkpt>
      <trkpt lat="50.43965" lon="5.91795">
        <ele>380.82</ele>
        <time>2019-07-07T07:54:19Z</time>
      </trkpt>
      <trkpt lat="50.4394" lon="5.91728">
        <ele>377.45</ele>
        <time>2019-07-07T07:54:23Z</time>
      </trkpt>
      <trkpt lat="50.43928" lon="5.91695">
        <ele>376.49</ele>
        <time>2019-07-07T07:54:25Z</time>
      </trkpt>
      <trkpt lat="50.43902" lon="5.91633">
        <ele>373.13</ele>
        <time>2019-07-07T07:54:29Z</time>
      </trkpt>
      <trkpt lat="50.43874" lon="5.91569">
        <ele>369.76</ele>
        <time>2019-07-07T07:54:33Z</time>
      </trkpt>
      <trkpt lat="50.43841" lon="5.9149">
        <ele>365.92</ele>
        <time>2019-07-07T07:54:38Z</time>
      </trkpt>
      <trkpt lat="50.43828" lon="5.91459">
        <ele>364.96</ele>
        <time>2019-07-07T07:54:40Z</time>
      </trkpt>
      <trkpt lat="50.43801" lon="5.91398">
        <ele>361.11</ele>
        <time>2019-07-07T07:54:44Z</time>
      </trkpt>
      <trkpt lat="50.43795" lon="5.91382">
        <ele>360.63</ele>
        <time>2019-07-07T07:54:45Z</time>
      </trkpt>
      <trkpt lat="50.43764" lon="5.91325">
        <ele>357.75</ele>
        <time>2019-07-07T07:54:49Z</time>
      </trkpt>
      <trkpt lat="50.43734" lon="5.91274">
        <ele>354.38</ele>
        <time>2019-07-07T07:54:53Z</time>
      </trkpt>
      <trkpt lat="50.43694" lon="5.91205">
        <ele>351.02</ele>
        <time>2019-07-07T07:54:58Z</time>
      </trkpt>
      <trkpt lat="50.43661" lon="5.91146">
        <ele>347.65</ele>
        <time>2019-07-07T07:55:02Z</time>
      </trkpt>
      <trkpt lat="50.43626" lon="5.91086">
        <ele>344.29</ele>
        <time>2019-07-07T07:55:06Z</time>
      </trkpt>
      <trkpt lat="50.4359" lon="5.91023">
        <ele>340.44</ele>
        <time>2019-07-07T07:55:10Z</time>
      </trkpt>
      <trkpt lat="50.43555" lon="5.9096">
        <ele>336.6</ele>
        <time>2019-07-07T07:55:14Z</time>
      </trkpt>
      <trkpt lat="50.43522" lon="5.90902">
        <ele>333.71</ele>
        <time>2019-07-07T07:55:18Z</time>
      </trkpt>
      <trkpt lat="50.43491" lon="5.90851">
        <ele>330.35</ele>
        <time>2019-07-07T07:55:22Z</time>
      </trkpt>
      <trkpt lat="50.43457" lon="5.90772">
        <ele>326.5</ele>
        <time>2019-07-07T07:55:28Z</time>
      </trkpt>
      <trkpt lat="50.43432" lon="5.90694">
        <ele>323.14</ele>
        <time>2019-07-07T07:55:33Z</time>
      </trkpt>
      <trkpt lat="50.4341" lon="5.90627">
        <ele>319.78</ele>
        <time>2019-07-07T07:55:37Z</time>
      </trkpt>
      <trkpt lat="50.43389" lon="5.90561">
        <ele>316.89</ele>
        <time>2019-07-07T07:55:41Z</time>
      </trkpt>
      <trkpt lat="50.43384" lon="5.90544">
        <ele>315.93</ele>
        <time>2019-07-07T07:55:42Z</time>
      </trkpt>
      <trkpt lat="50.43382" lon="5.90531">
        <ele>315.45</ele>
        <time>2019-07-07T07:55:43Z</time>
      </trkpt>
      <trkpt lat="50.43381" lon="5.90513">
        <ele>314.49</ele>
        <time>2019-07-07T07:55:44Z</time>
      </trkpt>
      <trkpt lat="50.43382" lon="5.90497">
        <ele>313.53</ele>
        <time>2019-07-07T07:55:45Z</time>
      </trkpt>
      <trkpt lat="50.43386" lon="5.9048">
        <ele>312.57</ele>
        <time>2019-07-07T07:55:46Z</time>
      </trkpt>
      <trkpt lat="50.43391" lon="5.90464">
        <ele>312.09</ele>
        <time>2019-07-07T07:55:47Z</time>
      </trkpt>
      <trkpt lat="50.43398" lon="5.90449">
        <ele>311.12</ele>
        <time>2019-07-07T07:55:48Z</time>
      </trkpt>
      <trkpt lat="50.43405" lon="5.90432">
        <ele>310.16</ele>
        <time>2019-07-07T07:55:49Z</time>
      </trkpt>
      <trkpt lat="50.43425" lon="5.90386">
        <ele>307.28</ele>
        <time>2019-07-07T07:55:52Z</time>
      </trkpt>
      <trkpt lat="50.43431" lon="5.90369">
        <ele>306.32</ele>
        <time>2019-07-07T07:55:53Z</time>
      </trkpt>
      <trkpt lat="50.43434" lon="5.90351">
        <ele>305.84</ele>
        <time>2019-07-07T07:55:54Z</time>
      </trkpt>
      <trkpt lat="50.43435" lon="5.9033">
        <ele>305.36</ele>
        <time>2019-07-07T07:55:55Z</time>
      </trkpt>
      <trkpt lat="50.43434" lon="5.90314">
        <ele>304.88</ele>
        <time>2019-07-07T07:55:56Z</time>
      </trkpt>
      <trkpt lat="50.43429" lon="5.90297">
        <ele>304.88</ele>
        <time>2019-07-07T07:55:57Z</time>
      </trkpt>
      <trkpt lat="50.43423" lon="5.90282">
        <ele>305.36</ele>
        <time>2019-07-07T07:55:58Z</time>
      </trkpt>
      <trkpt lat="50.43416" lon="5.90269">
        <ele>305.36</ele>
        <time>2019-07-07T07:55:59Z</time>
      </trkpt>
      <trkpt lat="50.43352" lon="5.90161">
        <ele>305.36</ele>
        <time>2019-07-07T07:56:09Z</time>
      </trkpt>
      <trkpt lat="50.43348" lon="5.9015">
        <ele>305.36</ele>
        <time>2019-07-07T07:56:10Z</time>
      </trkpt>
      <trkpt lat="50.43343" lon="5.90137">
        <ele>305.36</ele>
        <time>2019-07-07T07:56:11Z</time>
      </trkpt>
      <trkpt lat="50.4331" lon="5.90029">
        <ele>305.36</ele>
        <time>2019-07-07T07:56:20Z</time>
      </trkpt>
      <trkpt lat="50.433" lon="5.90011">
        <ele>306.8</ele>
        <time>2019-07-07T07:56:22Z</time>
      </trkpt>
      <trkpt lat="50.43287" lon="5.89989">
        <ele>307.28</ele>
        <time>2019-07-07T07:56:25Z</time>
      </trkpt>
      <trkpt lat="50.43286" lon="5.89982">
        <ele>307.76</ele>
        <time>2019-07-07T07:56:26Z</time>
      </trkpt>
      <trkpt lat="50.43287" lon="5.89977">
        <ele>307.76</ele>
        <time>2019-07-07T07:56:27Z</time>
      </trkpt>
      <trkpt lat="50.43289" lon="5.89974">
        <ele>308.24</ele>
        <time>2019-07-07T07:56:28Z</time>
      </trkpt>
      <trkpt lat="50.43292" lon="5.89974">
        <ele>308.72</ele>
        <time>2019-07-07T07:56:29Z</time>
      </trkpt>
      <trkpt lat="50.43294" lon="5.89977">
        <ele>308.72</ele>
        <time>2019-07-07T07:56:30Z</time>
      </trkpt>
      <trkpt lat="50.43296" lon="5.89981">
        <ele>309.2</ele>
        <time>2019-07-07T07:56:31Z</time>
      </trkpt>
      <trkpt lat="50.43298" lon="5.89985">
        <ele>309.2</ele>
        <time>2019-07-07T07:56:32Z</time>
      </trkpt>
      <trkpt lat="50.43301" lon="5.89989">
        <ele>309.68</ele>
        <time>2019-07-07T07:56:33Z</time>
      </trkpt>
      <trkpt lat="50.43303" lon="5.89992">
        <ele>309.68</ele>
        <time>2019-07-07T07:56:34Z</time>
      </trkpt>
      <trkpt lat="50.43306" lon="5.89995">
        <ele>310.16</ele>
        <time>2019-07-07T07:56:35Z</time>
      </trkpt>
      <trkpt lat="50.43341" lon="5.90021">
        <ele>313.53</ele>
        <time>2019-07-07T07:56:47Z</time>
      </trkpt>
      <trkpt lat="50.43372" lon="5.90017">
        <ele>316.89</ele>
        <time>2019-07-07T07:56:58Z</time>
      </trkpt>
      <trkpt lat="50.43414" lon="5.90019">
        <ele>319.78</ele>
        <time>2019-07-07T07:57:13Z</time>
      </trkpt>
      <trkpt lat="50.43452" lon="5.90043">
        <ele>322.18</ele>
        <time>2019-07-07T07:57:27Z</time>
      </trkpt>
      <trkpt lat="50.43476" lon="5.90058">
        <ele>324.58</ele>
        <time>2019-07-07T07:57:37Z</time>
      </trkpt>
      <trkpt lat="50.43506" lon="5.90084">
        <ele>327.47</ele>
        <time>2019-07-07T07:57:50Z</time>
      </trkpt>
      <trkpt lat="50.43537" lon="5.90101">
        <ele>329.39</ele>
        <time>2019-07-07T07:58:02Z</time>
      </trkpt>
      <trkpt lat="50.4357" lon="5.90119">
        <ele>331.79</ele>
        <time>2019-07-07T07:58:15Z</time>
      </trkpt>
      <trkpt lat="50.43602" lon="5.90128">
        <ele>334.68</ele>
        <time>2019-07-07T07:58:27Z</time>
      </trkpt>
      <trkpt lat="50.43632" lon="5.9014">
        <ele>337.56</ele>
        <time>2019-07-07T07:58:39Z</time>
      </trkpt>
      <trkpt lat="50.4366" lon="5.90149">
        <ele>339.48</ele>
        <time>2019-07-07T07:58:50Z</time>
      </trkpt>
      <trkpt lat="50.4369" lon="5.90156">
        <ele>341.89</ele>
        <time>2019-07-07T07:59:01Z</time>
      </trkpt>
      <trkpt lat="50.43725" lon="5.90168">
        <ele>344.29</ele>
        <time>2019-07-07T07:59:14Z</time>
      </trkpt>
      <trkpt lat="50.43773" lon="5.9018">
        <ele>347.65</ele>
        <time>2019-07-07T07:59:30Z</time>
      </trkpt>
      <trkpt lat="50.43794" lon="5.90205">
        <ele>350.06</ele>
        <time>2019-07-07T07:59:40Z</time>
      </trkpt>
      <trkpt lat="50.43793" lon="5.90209">
        <ele>350.06</ele>
        <time>2019-07-07T07:59:41Z</time>
      </trkpt>
      <trkpt lat="50.43793" lon="5.90213">
        <ele>351.02</ele>
        <time>2019-07-07T07:59:42Z</time>
      </trkpt>
      <trkpt lat="50.43791" lon="5.90217">
        <ele>351.02</ele>
        <time>2019-07-07T07:59:43Z</time>
      </trkpt>
      <trkpt lat="50.4379" lon="5.9022">
        <ele>351.5</ele>
        <time>2019-07-07T07:59:44Z</time>
      </trkpt>
      <trkpt lat="50.43788" lon="5.90223">
        <ele>351.5</ele>
        <time>2019-07-07T07:59:45Z</time>
      </trkpt>
      <trkpt lat="50.43774" lon="5.90267">
        <ele>354.86</ele>
        <time>2019-07-07T07:59:58Z</time>
      </trkpt>
      <trkpt lat="50.43791" lon="5.90295">
        <ele>356.79</ele>
        <time>2019-07-07T08:00:08Z</time>
      </trkpt>
      <trkpt lat="50.43827" lon="5.90294">
        <ele>359.19</ele>
        <time>2019-07-07T08:00:22Z</time>
      </trkpt>
      <trkpt lat="50.43861" lon="5.90255">
        <ele>361.11</ele>
        <time>2019-07-07T08:00:36Z</time>
      </trkpt>
      <trkpt lat="50.43878" lon="5.9023">
        <ele>363.04</ele>
        <time>2019-07-07T08:00:45Z</time>
      </trkpt>
      <trkpt lat="50.43879" lon="5.90228">
        <ele>363.52</ele>
        <time>2019-07-07T08:00:46Z</time>
      </trkpt>
      <trkpt lat="50.43881" lon="5.90225">
        <ele>363.52</ele>
        <time>2019-07-07T08:00:47Z</time>
      </trkpt>
      <trkpt lat="50.43905" lon="5.902">
        <ele>365.92</ele>
        <time>2019-07-07T08:00:58Z</time>
      </trkpt>
      <trkpt lat="50.43933" lon="5.90205">
        <ele>368.8</ele>
        <time>2019-07-07T08:01:09Z</time>
      </trkpt>
      <trkpt lat="50.43967" lon="5.90217">
        <ele>371.21</ele>
        <time>2019-07-07T08:01:22Z</time>
      </trkpt>
      <trkpt lat="50.43999" lon="5.90217">
        <ele>373.13</ele>
        <time>2019-07-07T08:01:32Z</time>
      </trkpt>
      <trkpt lat="50.44029" lon="5.90188">
        <ele>375.53</ele>
        <time>2019-07-07T08:01:44Z</time>
      </trkpt>
      <trkpt lat="50.44032" lon="5.90183">
        <ele>375.53</ele>
        <time>2019-07-07T08:01:46Z</time>
      </trkpt>
      <trkpt lat="50.44034" lon="5.9018">
        <ele>376.49</ele>
        <time>2019-07-07T08:01:47Z</time>
      </trkpt>
      <trkpt lat="50.44058" lon="5.90132">
        <ele>378.42</ele>
        <time>2019-07-07T08:02:00Z</time>
      </trkpt>
      <trkpt lat="50.44081" lon="5.90093">
        <ele>380.82</ele>
        <time>2019-07-07T08:02:11Z</time>
      </trkpt>
      <trkpt lat="50.4409" lon="5.90081">
        <ele>381.3</ele>
        <time>2019-07-07T08:02:15Z</time>
      </trkpt>
      <trkpt lat="50.44092" lon="5.90079">
        <ele>382.26</ele>
        <time>2019-07-07T08:02:16Z</time>
      </trkpt>
      <trkpt lat="50.44094" lon="5.90076">
        <ele>382.26</ele>
        <time>2019-07-07T08:02:17Z</time>
      </trkpt>
      <trkpt lat="50.44096" lon="5.90073">
        <ele>382.26</ele>
        <time>2019-07-07T08:02:18Z</time>
      </trkpt>
      <trkpt lat="50.44098" lon="5.90071">
        <ele>382.74</ele>
        <time>2019-07-07T08:02:19Z</time>
      </trkpt>
      <trkpt lat="50.441" lon="5.90068">
        <ele>382.74</ele>
        <time>2019-07-07T08:02:20Z</time>
      </trkpt>
      <trkpt lat="50.44102" lon="5.90066">
        <ele>382.74</ele>
        <time>2019-07-07T08:02:21Z</time>
      </trkpt>
      <trkpt lat="50.44122" lon="5.90024">
        <ele>385.15</ele>
        <time>2019-07-07T08:02:33Z</time>
      </trkpt>
      <trkpt lat="50.44125" lon="5.90016">
        <ele>385.63</ele>
        <time>2019-07-07T08:02:35Z</time>
      </trkpt>
      <trkpt lat="50.44126" lon="5.90013">
        <ele>386.11</ele>
        <time>2019-07-07T08:02:36Z</time>
      </trkpt>
      <trkpt lat="50.44128" lon="5.90009">
        <ele>386.11</ele>
        <time>2019-07-07T08:02:37Z</time>
      </trkpt>
      <trkpt lat="50.44129" lon="5.90005">
        <ele>386.11</ele>
        <time>2019-07-07T08:02:38Z</time>
      </trkpt>
      <trkpt lat="50.4413" lon="5.90001">
        <ele>386.59</ele>
        <time>2019-07-07T08:02:39Z</time>
      </trkpt>
      <trkpt lat="50.44132" lon="5.89998">
        <ele>386.59</ele>
        <time>2019-07-07T08:02:40Z</time>
      </trkpt>
      <trkpt lat="50.44133" lon="5.89994">
        <ele>387.55</ele>
        <time>2019-07-07T08:02:41Z</time>
      </trkpt>
      <trkpt lat="50.44155" lon="5.89956">
        <ele>389.95</ele>
        <time>2019-07-07T08:02:54Z</time>
      </trkpt>
      <trkpt lat="50.44156" lon="5.89954">
        <ele>390.43</ele>
        <time>2019-07-07T08:02:55Z</time>
      </trkpt>
      <trkpt lat="50.44171" lon="5.89934">
        <ele>391.39</ele>
        <time>2019-07-07T08:03:02Z</time>
      </trkpt>
      <trkpt lat="50.44172" lon="5.89931">
        <ele>391.39</ele>
        <time>2019-07-07T08:03:03Z</time>
      </trkpt>
      <trkpt lat="50.44184" lon="5.89914">
        <ele>392.84</ele>
        <time>2019-07-07T08:03:09Z</time>
      </trkpt>
      <trkpt lat="50.44185" lon="5.89911">
        <ele>392.84</ele>
        <time>2019-07-07T08:03:10Z</time>
      </trkpt>
      <trkpt lat="50.44187" lon="5.89908">
        <ele>393.32</ele>
        <time>2019-07-07T08:03:11Z</time>
      </trkpt>
      <trkpt lat="50.44188" lon="5.89904">
        <ele>393.32</ele>
        <time>2019-07-07T08:03:12Z</time>
      </trkpt>
      <trkpt lat="50.44191" lon="5.899">
        <ele>393.32</ele>
        <time>2019-07-07T08:03:13Z</time>
      </trkpt>
      <trkpt lat="50.44193" lon="5.89898">
        <ele>393.32</ele>
        <time>2019-07-07T08:03:14Z</time>
      </trkpt>
      <trkpt lat="50.44195" lon="5.89895">
        <ele>394.28</ele>
        <time>2019-07-07T08:03:15Z</time>
      </trkpt>
      <trkpt lat="50.44197" lon="5.89892">
        <ele>394.28</ele>
        <time>2019-07-07T08:03:16Z</time>
      </trkpt>
      <trkpt lat="50.442" lon="5.89889">
        <ele>394.28</ele>
        <time>2019-07-07T08:03:17Z</time>
      </trkpt>
      <trkpt lat="50.44201" lon="5.89886">
        <ele>394.76</ele>
        <time>2019-07-07T08:03:18Z</time>
      </trkpt>
      <trkpt lat="50.44226" lon="5.89856">
        <ele>397.16</ele>
        <time>2019-07-07T08:03:28Z</time>
      </trkpt>
      <trkpt lat="50.44239" lon="5.89811">
        <ele>398.6</ele>
        <time>2019-07-07T08:03:39Z</time>
      </trkpt>
      <trkpt lat="50.44218" lon="5.89767">
        <ele>400.53</ele>
        <time>2019-07-07T08:03:51Z</time>
      </trkpt>
      <trkpt lat="50.4419" lon="5.89737">
        <ele>402.45</ele>
        <time>2019-07-07T08:04:03Z</time>
      </trkpt>
      <trkpt lat="50.44164" lon="5.8971">
        <ele>404.85</ele>
        <time>2019-07-07T08:04:14Z</time>
      </trkpt>
      <trkpt lat="50.44124" lon="5.89673">
        <ele>407.74</ele>
        <time>2019-07-07T08:04:30Z</time>
      </trkpt>
      <trkpt lat="50.44081" lon="5.89633">
        <ele>410.62</ele>
        <time>2019-07-07T08:04:47Z</time>
      </trkpt>
      <trkpt lat="50.44047" lon="5.89598">
        <ele>414.47</ele>
        <time>2019-07-07T08:05:02Z</time>
      </trkpt>
      <trkpt lat="50.44006" lon="5.89556">
        <ele>416.39</ele>
        <time>2019-07-07T08:05:20Z</time>
      </trkpt>
      <trkpt lat="50.43973" lon="5.89525">
        <ele>418.31</ele>
        <time>2019-07-07T08:05:33Z</time>
      </trkpt>
      <trkpt lat="50.43933" lon="5.89487">
        <ele>421.68</ele>
        <time>2019-07-07T08:05:49Z</time>
      </trkpt>
      <trkpt lat="50.4389" lon="5.89447">
        <ele>424.56</ele>
        <time>2019-07-07T08:06:06Z</time>
      </trkpt>
      <trkpt lat="50.4386" lon="5.89401">
        <ele>427.92</ele>
        <time>2019-07-07T08:06:21Z</time>
      </trkpt>
      <trkpt lat="50.4384" lon="5.89349">
        <ele>429.85</ele>
        <time>2019-07-07T08:06:34Z</time>
      </trkpt>
      <trkpt lat="50.43823" lon="5.89295">
        <ele>432.25</ele>
        <time>2019-07-07T08:06:48Z</time>
      </trkpt>
      <trkpt lat="50.43823" lon="5.89231">
        <ele>435.13</ele>
        <time>2019-07-07T08:07:02Z</time>
      </trkpt>
      <trkpt lat="50.43848" lon="5.89185">
        <ele>438.02</ele>
        <time>2019-07-07T08:07:16Z</time>
      </trkpt>
      <trkpt lat="50.43867" lon="5.89143">
        <ele>440.9</ele>
        <time>2019-07-07T08:07:29Z</time>
      </trkpt>
      <trkpt lat="50.43887" lon="5.89099">
        <ele>443.79</ele>
        <time>2019-07-07T08:07:42Z</time>
      </trkpt>
      <trkpt lat="50.43925" lon="5.89075">
        <ele>447.15</ele>
        <time>2019-07-07T08:07:57Z</time>
      </trkpt>
      <trkpt lat="50.43954" lon="5.89086">
        <ele>450.52</ele>
        <time>2019-07-07T08:08:09Z</time>
      </trkpt>
      <trkpt lat="50.43993" lon="5.89093">
        <ele>453.4</ele>
        <time>2019-07-07T08:08:25Z</time>
      </trkpt>
      <trkpt lat="50.44013" lon="5.89052">
        <ele>456.28</ele>
        <time>2019-07-07T08:08:39Z</time>
      </trkpt>
      <trkpt lat="50.44" lon="5.88999">
        <ele>458.69</ele>
        <time>2019-07-07T08:08:53Z</time>
      </trkpt>
      <trkpt lat="50.43984" lon="5.88959">
        <ele>460.61</ele>
        <time>2019-07-07T08:09:04Z</time>
      </trkpt>
      <trkpt lat="50.43972" lon="5.88905">
        <ele>463.01</ele>
        <time>2019-07-07T08:09:18Z</time>
      </trkpt>
      <trkpt lat="50.43964" lon="5.88842">
        <ele>465.9</ele>
        <time>2019-07-07T08:09:33Z</time>
      </trkpt>
      <trkpt lat="50.43957" lon="5.88782">
        <ele>468.78</ele>
        <time>2019-07-07T08:09:48Z</time>
      </trkpt>
      <trkpt lat="50.43951" lon="5.88735">
        <ele>470.7</ele>
        <time>2019-07-07T08:10:00Z</time>
      </trkpt>
      <trkpt lat="50.43945" lon="5.88701">
        <ele>472.63</ele>
        <time>2019-07-07T08:10:09Z</time>
      </trkpt>
      <trkpt lat="50.43936" lon="5.88658">
        <ele>474.55</ele>
        <time>2019-07-07T08:10:20Z</time>
      </trkpt>
      <trkpt lat="50.43936" lon="5.88654">
        <ele>474.55</ele>
        <time>2019-07-07T08:10:21Z</time>
      </trkpt>
      <trkpt lat="50.43938" lon="5.88649">
        <ele>475.03</ele>
        <time>2019-07-07T08:10:22Z</time>
      </trkpt>
      <trkpt lat="50.4395" lon="5.88585">
        <ele>476.95</ele>
        <time>2019-07-07T08:10:35Z</time>
      </trkpt>
      <trkpt lat="50.43964" lon="5.88523">
        <ele>480.32</ele>
        <time>2019-07-07T08:10:48Z</time>
      </trkpt>
      <trkpt lat="50.4398" lon="5.88475">
        <ele>481.76</ele>
        <time>2019-07-07T08:11:00Z</time>
      </trkpt>
      <trkpt lat="50.4401" lon="5.88428">
        <ele>485.12</ele>
        <time>2019-07-07T08:11:15Z</time>
      </trkpt>
      <trkpt lat="50.44045" lon="5.88395">
        <ele>488.01</ele>
        <time>2019-07-07T08:11:30Z</time>
      </trkpt>
      <trkpt lat="50.44087" lon="5.88377">
        <ele>490.41</ele>
        <time>2019-07-07T08:11:45Z</time>
      </trkpt>
      <trkpt lat="50.44136" lon="5.88384">
        <ele>493.29</ele>
        <time>2019-07-07T08:12:02Z</time>
      </trkpt>
      <trkpt lat="50.44181" lon="5.884">
        <ele>495.7</ele>
        <time>2019-07-07T08:12:18Z</time>
      </trkpt>
      <trkpt lat="50.44228" lon="5.88419">
        <ele>498.1</ele>
        <time>2019-07-07T08:12:34Z</time>
      </trkpt>
      <trkpt lat="50.44268" lon="5.88436">
        <ele>500.5</ele>
        <time>2019-07-07T08:12:48Z</time>
      </trkpt>
      <trkpt lat="50.44316" lon="5.88452">
        <ele>503.39</ele>
        <time>2019-07-07T08:13:05Z</time>
      </trkpt>
      <trkpt lat="50.44363" lon="5.88446">
        <ele>505.79</ele>
        <time>2019-07-07T08:13:21Z</time>
      </trkpt>
      <trkpt lat="50.44396" lon="5.88424">
        <ele>507.71</ele>
        <time>2019-07-07T08:13:34Z</time>
      </trkpt>
      <trkpt lat="50.44427" lon="5.88388">
        <ele>509.16</ele>
        <time>2019-07-07T08:13:48Z</time>
      </trkpt>
      <trkpt lat="50.4445" lon="5.88347">
        <ele>511.56</ele>
        <time>2019-07-07T08:14:00Z</time>
      </trkpt>
      <trkpt lat="50.44477" lon="5.88284">
        <ele>514.44</ele>
        <time>2019-07-07T08:14:16Z</time>
      </trkpt>
      <trkpt lat="50.44498" lon="5.8823">
        <ele>516.37</ele>
        <time>2019-07-07T08:14:30Z</time>
      </trkpt>
      <trkpt lat="50.44524" lon="5.88152">
        <ele>518.77</ele>
        <time>2019-07-07T08:14:48Z</time>
      </trkpt>
      <trkpt lat="50.44544" lon="5.88076">
        <ele>522.13</ele>
        <time>2019-07-07T08:15:03Z</time>
      </trkpt>
      <trkpt lat="50.44566" lon="5.88016">
        <ele>524.06</ele>
        <time>2019-07-07T08:15:17Z</time>
      </trkpt>
      <trkpt lat="50.44586" lon="5.87964">
        <ele>526.46</ele>
        <time>2019-07-07T08:15:30Z</time>
      </trkpt>
      <trkpt lat="50.44605" lon="5.87918">
        <ele>528.38</ele>
        <time>2019-07-07T08:15:41Z</time>
      </trkpt>
      <trkpt lat="50.44622" lon="5.8785">
        <ele>530.79</ele>
        <time>2019-07-07T08:15:56Z</time>
      </trkpt>
      <trkpt lat="50.4465" lon="5.87787">
        <ele>533.67</ele>
        <time>2019-07-07T08:16:13Z</time>
      </trkpt>
      <trkpt lat="50.44672" lon="5.87751">
        <ele>535.11</ele>
        <time>2019-07-07T08:16:24Z</time>
      </trkpt>
      <trkpt lat="50.44699" lon="5.87706">
        <ele>537.03</ele>
        <time>2019-07-07T08:16:37Z</time>
      </trkpt>
      <trkpt lat="50.44727" lon="5.87666">
        <ele>539.44</ele>
        <time>2019-07-07T08:16:51Z</time>
      </trkpt>
      <trkpt lat="50.44755" lon="5.87639">
        <ele>541.36</ele>
        <time>2019-07-07T08:17:04Z</time>
      </trkpt>
      <trkpt lat="50.44758" lon="5.87641">
        <ele>541.84</ele>
        <time>2019-07-07T08:17:05Z</time>
      </trkpt>
      <trkpt lat="50.44783" lon="5.87685">
        <ele>544.24</ele>
        <time>2019-07-07T08:17:18Z</time>
      </trkpt>
      <trkpt lat="50.44817" lon="5.87747">
        <ele>546.17</ele>
        <time>2019-07-07T08:17:34Z</time>
      </trkpt>
      <trkpt lat="50.44846" lon="5.87799">
        <ele>548.57</ele>
        <time>2019-07-07T08:17:48Z</time>
      </trkpt>
      <trkpt lat="50.44874" lon="5.8786">
        <ele>551.45</ele>
        <time>2019-07-07T08:18:03Z</time>
      </trkpt>
      <trkpt lat="50.44899" lon="5.87902">
        <ele>553.38</ele>
        <time>2019-07-07T08:18:15Z</time>
      </trkpt>
      <trkpt lat="50.44933" lon="5.87949">
        <ele>555.78</ele>
        <time>2019-07-07T08:18:30Z</time>
      </trkpt>
      <trkpt lat="50.44976" lon="5.87991">
        <ele>558.66</ele>
        <time>2019-07-07T08:18:46Z</time>
      </trkpt>
      <trkpt lat="50.45023" lon="5.88022">
        <ele>561.07</ele>
        <time>2019-07-07T08:19:02Z</time>
      </trkpt>
      <trkpt lat="50.45082" lon="5.88051">
        <ele>561.55</ele>
        <time>2019-07-07T08:19:19Z</time>
      </trkpt>
      <trkpt lat="50.4514" lon="5.88073">
        <ele>562.03</ele>
        <time>2019-07-07T08:19:33Z</time>
      </trkpt>
      <trkpt lat="50.45167" lon="5.88082">
        <ele>562.03</ele>
        <time>2019-07-07T08:19:39Z</time>
      </trkpt>
      <trkpt lat="50.45171" lon="5.88084">
        <ele>562.03</ele>
        <time>2019-07-07T08:19:40Z</time>
      </trkpt>
      <trkpt lat="50.45216" lon="5.88102">
        <ele>560.59</ele>
        <time>2019-07-07T08:19:49Z</time>
      </trkpt>
      <trkpt lat="50.45283" lon="5.88126">
        <ele>558.66</ele>
        <time>2019-07-07T08:20:02Z</time>
      </trkpt>
      <trkpt lat="50.45339" lon="5.88146">
        <ele>557.22</ele>
        <time>2019-07-07T08:20:12Z</time>
      </trkpt>
      <trkpt lat="50.45345" lon="5.88149">
        <ele>557.22</ele>
        <time>2019-07-07T08:20:13Z</time>
      </trkpt>
      <trkpt lat="50.45434" lon="5.88169">
        <ele>555.3</ele>
        <time>2019-07-07T08:20:27Z</time>
      </trkpt>
      <trkpt lat="50.45493" lon="5.88183">
        <ele>551.93</ele>
        <time>2019-07-07T08:20:35Z</time>
      </trkpt>
      <trkpt lat="50.45549" lon="5.88194">
        <ele>549.53</ele>
        <time>2019-07-07T08:20:42Z</time>
      </trkpt>
      <trkpt lat="50.45612" lon="5.88208">
        <ele>546.17</ele>
        <time>2019-07-07T08:20:49Z</time>
      </trkpt>
      <trkpt lat="50.45641" lon="5.88214">
        <ele>544.72</ele>
        <time>2019-07-07T08:20:52Z</time>
      </trkpt>
      <trkpt lat="50.4569" lon="5.88226">
        <ele>541.84</ele>
        <time>2019-07-07T08:20:57Z</time>
      </trkpt>
      <trkpt lat="50.45729" lon="5.88234">
        <ele>538.48</ele>
        <time>2019-07-07T08:21:01Z</time>
      </trkpt>
      <trkpt lat="50.4578" lon="5.88247">
        <ele>535.11</ele>
        <time>2019-07-07T08:21:07Z</time>
      </trkpt>
      <trkpt lat="50.45807" lon="5.88251">
        <ele>534.15</ele>
        <time>2019-07-07T08:21:11Z</time>
      </trkpt>
      <trkpt lat="50.45814" lon="5.8825">
        <ele>533.19</ele>
        <time>2019-07-07T08:21:12Z</time>
      </trkpt>
      <trkpt lat="50.45822" lon="5.88249">
        <ele>532.23</ele>
        <time>2019-07-07T08:21:13Z</time>
      </trkpt>
      <trkpt lat="50.4583" lon="5.88246">
        <ele>531.75</ele>
        <time>2019-07-07T08:21:14Z</time>
      </trkpt>
      <trkpt lat="50.45837" lon="5.88242">
        <ele>530.79</ele>
        <time>2019-07-07T08:21:15Z</time>
      </trkpt>
      <trkpt lat="50.45845" lon="5.88236">
        <ele>530.79</ele>
        <time>2019-07-07T08:21:16Z</time>
      </trkpt>
      <trkpt lat="50.45853" lon="5.88229">
        <ele>530.3</ele>
        <time>2019-07-07T08:21:17Z</time>
      </trkpt>
      <trkpt lat="50.45861" lon="5.88221">
        <ele>529.34</ele>
        <time>2019-07-07T08:21:18Z</time>
      </trkpt>
      <trkpt lat="50.45867" lon="5.88214">
        <ele>528.38</ele>
        <time>2019-07-07T08:21:19Z</time>
      </trkpt>
      <trkpt lat="50.45873" lon="5.88205">
        <ele>527.9</ele>
        <time>2019-07-07T08:21:20Z</time>
      </trkpt>
      <trkpt lat="50.45879" lon="5.88197">
        <ele>526.94</ele>
        <time>2019-07-07T08:21:21Z</time>
      </trkpt>
      <trkpt lat="50.45884" lon="5.88187">
        <ele>526.46</ele>
        <time>2019-07-07T08:21:22Z</time>
      </trkpt>
      <trkpt lat="50.45903" lon="5.88141">
        <ele>523.09</ele>
        <time>2019-07-07T08:21:26Z</time>
      </trkpt>
      <trkpt lat="50.45907" lon="5.88126">
        <ele>522.13</ele>
        <time>2019-07-07T08:21:27Z</time>
      </trkpt>
      <trkpt lat="50.4591" lon="5.8811">
        <ele>521.17</ele>
        <time>2019-07-07T08:21:28Z</time>
      </trkpt>
      <trkpt lat="50.45912" lon="5.88094">
        <ele>520.21</ele>
        <time>2019-07-07T08:21:29Z</time>
      </trkpt>
      <trkpt lat="50.45912" lon="5.88078">
        <ele>519.25</ele>
        <time>2019-07-07T08:21:30Z</time>
      </trkpt>
      <trkpt lat="50.45912" lon="5.88061">
        <ele>518.77</ele>
        <time>2019-07-07T08:21:31Z</time>
      </trkpt>
      <trkpt lat="50.45912" lon="5.88044">
        <ele>517.81</ele>
        <time>2019-07-07T08:21:32Z</time>
      </trkpt>
      <trkpt lat="50.45911" lon="5.88027">
        <ele>517.81</ele>
        <time>2019-07-07T08:21:33Z</time>
      </trkpt>
      <trkpt lat="50.45909" lon="5.87955">
        <ele>513.96</ele>
        <time>2019-07-07T08:21:37Z</time>
      </trkpt>
      <trkpt lat="50.45908" lon="5.8788">
        <ele>511.08</ele>
        <time>2019-07-07T08:21:41Z</time>
      </trkpt>
      <trkpt lat="50.45914" lon="5.87824">
        <ele>507.71</ele>
        <time>2019-07-07T08:21:44Z</time>
      </trkpt>
      <trkpt lat="50.45929" lon="5.8775">
        <ele>504.83</ele>
        <time>2019-07-07T08:21:48Z</time>
      </trkpt>
      <trkpt lat="50.45944" lon="5.87675">
        <ele>501.95</ele>
        <time>2019-07-07T08:21:52Z</time>
      </trkpt>
      <trkpt lat="50.45959" lon="5.87603">
        <ele>498.1</ele>
        <time>2019-07-07T08:21:56Z</time>
      </trkpt>
      <trkpt lat="50.45972" lon="5.8753">
        <ele>495.22</ele>
        <time>2019-07-07T08:22:00Z</time>
      </trkpt>
      <trkpt lat="50.45981" lon="5.87456">
        <ele>492.33</ele>
        <time>2019-07-07T08:22:04Z</time>
      </trkpt>
      <trkpt lat="50.45986" lon="5.87361">
        <ele>488.49</ele>
        <time>2019-07-07T08:22:09Z</time>
      </trkpt>
      <trkpt lat="50.45987" lon="5.87342">
        <ele>488.49</ele>
        <time>2019-07-07T08:22:10Z</time>
      </trkpt>
      <trkpt lat="50.45989" lon="5.87285">
        <ele>486.08</ele>
        <time>2019-07-07T08:22:13Z</time>
      </trkpt>
      <trkpt lat="50.45993" lon="5.87211">
        <ele>482.72</ele>
        <time>2019-07-07T08:22:17Z</time>
      </trkpt>
      <trkpt lat="50.45994" lon="5.8716">
        <ele>480.8</ele>
        <time>2019-07-07T08:22:20Z</time>
      </trkpt>
      <trkpt lat="50.45998" lon="5.87078">
        <ele>477.43</ele>
        <time>2019-07-07T08:22:25Z</time>
      </trkpt>
      <trkpt lat="50.46" lon="5.87048">
        <ele>477.43</ele>
        <time>2019-07-07T08:22:27Z</time>
      </trkpt>
      <trkpt lat="50.46003" lon="5.87035">
        <ele>476.47</ele>
        <time>2019-07-07T08:22:28Z</time>
      </trkpt>
      <trkpt lat="50.46007" lon="5.87023">
        <ele>475.99</ele>
        <time>2019-07-07T08:22:29Z</time>
      </trkpt>
      <trkpt lat="50.46014" lon="5.87012">
        <ele>475.03</ele>
        <time>2019-07-07T08:22:30Z</time>
      </trkpt>
      <trkpt lat="50.46021" lon="5.87003">
        <ele>474.07</ele>
        <time>2019-07-07T08:22:31Z</time>
      </trkpt>
      <trkpt lat="50.4603" lon="5.86996">
        <ele>473.11</ele>
        <time>2019-07-07T08:22:32Z</time>
      </trkpt>
      <trkpt lat="50.4604" lon="5.86992">
        <ele>472.14</ele>
        <time>2019-07-07T08:22:33Z</time>
      </trkpt>
      <trkpt lat="50.4605" lon="5.86993">
        <ele>471.18</ele>
        <time>2019-07-07T08:22:34Z</time>
      </trkpt>
      <trkpt lat="50.4606" lon="5.86997">
        <ele>470.22</ele>
        <time>2019-07-07T08:22:35Z</time>
      </trkpt>
      <trkpt lat="50.4607" lon="5.87005">
        <ele>469.74</ele>
        <time>2019-07-07T08:22:36Z</time>
      </trkpt>
      <trkpt lat="50.46079" lon="5.87014">
        <ele>468.78</ele>
        <time>2019-07-07T08:22:37Z</time>
      </trkpt>
      <trkpt lat="50.46088" lon="5.87025">
        <ele>468.3</ele>
        <time>2019-07-07T08:22:38Z</time>
      </trkpt>
      <trkpt lat="50.46127" lon="5.87062">
        <ele>464.93</ele>
        <time>2019-07-07T08:22:42Z</time>
      </trkpt>
      <trkpt lat="50.46167" lon="5.87091">
        <ele>462.05</ele>
        <time>2019-07-07T08:22:46Z</time>
      </trkpt>
      <trkpt lat="50.46234" lon="5.87139">
        <ele>458.21</ele>
        <time>2019-07-07T08:22:53Z</time>
      </trkpt>
      <trkpt lat="50.46278" lon="5.87171">
        <ele>455.32</ele>
        <time>2019-07-07T08:22:58Z</time>
      </trkpt>
      <trkpt lat="50.46322" lon="5.87196">
        <ele>452.92</ele>
        <time>2019-07-07T08:23:04Z</time>
      </trkpt>
      <trkpt lat="50.46327" lon="5.87196">
        <ele>451.96</ele>
        <time>2019-07-07T08:23:05Z</time>
      </trkpt>
      <trkpt lat="50.46332" lon="5.87192">
        <ele>451.96</ele>
        <time>2019-07-07T08:23:06Z</time>
      </trkpt>
      <trkpt lat="50.46335" lon="5.87185">
        <ele>451</ele>
        <time>2019-07-07T08:23:07Z</time>
      </trkpt>
      <trkpt lat="50.46337" lon="5.87176">
        <ele>451</ele>
        <time>2019-07-07T08:23:08Z</time>
      </trkpt>
      <trkpt lat="50.46336" lon="5.87167">
        <ele>450.52</ele>
        <time>2019-07-07T08:23:09Z</time>
      </trkpt>
      <trkpt lat="50.46335" lon="5.87157">
        <ele>450.03</ele>
        <time>2019-07-07T08:23:10Z</time>
      </trkpt>
      <trkpt lat="50.46316" lon="5.8702">
        <ele>447.63</ele>
        <time>2019-07-07T08:23:21Z</time>
      </trkpt>
      <trkpt lat="50.4631" lon="5.86981">
        <ele>446.19</ele>
        <time>2019-07-07T08:23:24Z</time>
      </trkpt>
      <trkpt lat="50.46299" lon="5.86869">
        <ele>443.31</ele>
        <time>2019-07-07T08:23:32Z</time>
      </trkpt>
      <trkpt lat="50.46297" lon="5.86775">
        <ele>439.94</ele>
        <time>2019-07-07T08:23:38Z</time>
      </trkpt>
      <trkpt lat="50.46293" lon="5.86676">
        <ele>436.58</ele>
        <time>2019-07-07T08:23:44Z</time>
      </trkpt>
      <trkpt lat="50.46293" lon="5.86659">
        <ele>436.58</ele>
        <time>2019-07-07T08:23:45Z</time>
      </trkpt>
      <trkpt lat="50.46291" lon="5.86557">
        <ele>433.21</ele>
        <time>2019-07-07T08:23:51Z</time>
      </trkpt>
      <trkpt lat="50.46288" lon="5.86468">
        <ele>430.33</ele>
        <time>2019-07-07T08:23:56Z</time>
      </trkpt>
      <trkpt lat="50.46286" lon="5.8638">
        <ele>426.96</ele>
        <time>2019-07-07T08:24:01Z</time>
      </trkpt>
      <trkpt lat="50.46285" lon="5.86308">
        <ele>424.08</ele>
        <time>2019-07-07T08:24:05Z</time>
      </trkpt>
      <trkpt lat="50.46284" lon="5.86291">
        <ele>423.6</ele>
        <time>2019-07-07T08:24:06Z</time>
      </trkpt>
      <trkpt lat="50.46283" lon="5.86256">
        <ele>423.12</ele>
        <time>2019-07-07T08:24:08Z</time>
      </trkpt>
      <trkpt lat="50.46281" lon="5.86149">
        <ele>419.27</ele>
        <time>2019-07-07T08:24:14Z</time>
      </trkpt>
      <trkpt lat="50.4628" lon="5.86029">
        <ele>415.91</ele>
        <time>2019-07-07T08:24:21Z</time>
      </trkpt>
      <trkpt lat="50.46277" lon="5.85926">
        <ele>413.02</ele>
        <time>2019-07-07T08:24:27Z</time>
      </trkpt>
      <trkpt lat="50.46278" lon="5.8591">
        <ele>412.06</ele>
        <time>2019-07-07T08:24:28Z</time>
      </trkpt>
      <trkpt lat="50.46287" lon="5.85807">
        <ele>409.18</ele>
        <time>2019-07-07T08:24:34Z</time>
      </trkpt>
      <trkpt lat="50.46296" lon="5.85702">
        <ele>405.81</ele>
        <time>2019-07-07T08:24:40Z</time>
      </trkpt>
      <trkpt lat="50.46309" lon="5.85581">
        <ele>402.45</ele>
        <time>2019-07-07T08:24:47Z</time>
      </trkpt>
      <trkpt lat="50.4631" lon="5.85563">
        <ele>401.97</ele>
        <time>2019-07-07T08:24:48Z</time>
      </trkpt>
      <trkpt lat="50.46309" lon="5.85546">
        <ele>401.01</ele>
        <time>2019-07-07T08:24:49Z</time>
      </trkpt>
      <trkpt lat="50.46308" lon="5.85528">
        <ele>401.01</ele>
        <time>2019-07-07T08:24:50Z</time>
      </trkpt>
      <trkpt lat="50.46293" lon="5.8532">
        <ele>398.12</ele>
        <time>2019-07-07T08:25:03Z</time>
      </trkpt>
      <trkpt lat="50.46276" lon="5.85118">
        <ele>396.2</ele>
        <time>2019-07-07T08:25:17Z</time>
      </trkpt>
      <trkpt lat="50.46269" lon="5.8501">
        <ele>395.24</ele>
        <time>2019-07-07T08:25:25Z</time>
      </trkpt>
      <trkpt lat="50.46257" lon="5.84846">
        <ele>393.8</ele>
        <time>2019-07-07T08:25:38Z</time>
      </trkpt>
      <trkpt lat="50.46256" lon="5.84823">
        <ele>393.8</ele>
        <time>2019-07-07T08:25:40Z</time>
      </trkpt>
      <trkpt lat="50.46257" lon="5.84812">
        <ele>392.84</ele>
        <time>2019-07-07T08:25:41Z</time>
      </trkpt>
      <trkpt lat="50.46258" lon="5.84801">
        <ele>392.84</ele>
        <time>2019-07-07T08:25:42Z</time>
      </trkpt>
      <trkpt lat="50.46258" lon="5.84789">
        <ele>392.84</ele>
        <time>2019-07-07T08:25:43Z</time>
      </trkpt>
      <trkpt lat="50.46258" lon="5.84777">
        <ele>392.84</ele>
        <time>2019-07-07T08:25:44Z</time>
      </trkpt>
      <trkpt lat="50.4626" lon="5.84752">
        <ele>392.84</ele>
        <time>2019-07-07T08:25:46Z</time>
      </trkpt>
      <trkpt lat="50.46263" lon="5.84727">
        <ele>391.87</ele>
        <time>2019-07-07T08:25:48Z</time>
      </trkpt>
      <trkpt lat="50.46264" lon="5.84715">
        <ele>391.39</ele>
        <time>2019-07-07T08:25:49Z</time>
      </trkpt>
      <trkpt lat="50.46271" lon="5.84693">
        <ele>391.39</ele>
        <time>2019-07-07T08:25:51Z</time>
      </trkpt>
      <trkpt lat="50.4632" lon="5.84587">
        <ele>388.51</ele>
        <time>2019-07-07T08:26:02Z</time>
      </trkpt>
      <trkpt lat="50.46324" lon="5.84578">
        <ele>388.03</ele>
        <time>2019-07-07T08:26:03Z</time>
      </trkpt>
      <trkpt lat="50.46343" lon="5.84542">
        <ele>387.55</ele>
        <time>2019-07-07T08:26:07Z</time>
      </trkpt>
      <trkpt lat="50.46362" lon="5.84507">
        <ele>387.07</ele>
        <time>2019-07-07T08:26:11Z</time>
      </trkpt>
      <trkpt lat="50.46369" lon="5.84501">
        <ele>387.07</ele>
        <time>2019-07-07T08:26:12Z</time>
      </trkpt>
      <trkpt lat="50.46375" lon="5.84497">
        <ele>387.07</ele>
        <time>2019-07-07T08:26:13Z</time>
      </trkpt>
      <trkpt lat="50.46381" lon="5.84493">
        <ele>387.07</ele>
        <time>2019-07-07T08:26:14Z</time>
      </trkpt>
      <trkpt lat="50.46388" lon="5.8449">
        <ele>387.07</ele>
        <time>2019-07-07T08:26:15Z</time>
      </trkpt>
      <trkpt lat="50.46407" lon="5.84486">
        <ele>387.07</ele>
        <time>2019-07-07T08:26:18Z</time>
      </trkpt>
      <trkpt lat="50.46426" lon="5.84488">
        <ele>387.07</ele>
        <time>2019-07-07T08:26:21Z</time>
      </trkpt>
      <trkpt lat="50.46465" lon="5.84491">
        <ele>387.07</ele>
        <time>2019-07-07T08:26:28Z</time>
      </trkpt>
      <trkpt lat="50.4647" lon="5.84493">
        <ele>387.07</ele>
        <time>2019-07-07T08:26:29Z</time>
      </trkpt>
      <trkpt lat="50.46475" lon="5.84496">
        <ele>387.07</ele>
        <time>2019-07-07T08:26:30Z</time>
      </trkpt>
      <trkpt lat="50.4648" lon="5.84499">
        <ele>387.07</ele>
        <time>2019-07-07T08:26:31Z</time>
      </trkpt>
      <trkpt lat="50.46485" lon="5.84503">
        <ele>387.07</ele>
        <time>2019-07-07T08:26:32Z</time>
      </trkpt>
      <trkpt lat="50.46514" lon="5.84524">
        <ele>388.51</ele>
        <time>2019-07-07T08:26:38Z</time>
      </trkpt>
      <trkpt lat="50.46537" lon="5.84542">
        <ele>388.51</ele>
        <time>2019-07-07T08:26:43Z</time>
      </trkpt>
      <trkpt lat="50.46561" lon="5.84557">
        <ele>389.47</ele>
        <time>2019-07-07T08:26:48Z</time>
      </trkpt>
      <trkpt lat="50.46635" lon="5.84573">
        <ele>389.47</ele>
        <time>2019-07-07T08:27:03Z</time>
      </trkpt>
      <trkpt lat="50.4664" lon="5.84574">
        <ele>389.47</ele>
        <time>2019-07-07T08:27:04Z</time>
      </trkpt>
      <trkpt lat="50.46724" lon="5.8459">
        <ele>390.43</ele>
        <time>2019-07-07T08:27:20Z</time>
      </trkpt>
      <trkpt lat="50.46754" lon="5.84594">
        <ele>390.91</ele>
        <time>2019-07-07T08:27:26Z</time>
      </trkpt>
      <trkpt lat="50.46768" lon="5.84591">
        <ele>390.91</ele>
        <time>2019-07-07T08:27:29Z</time>
      </trkpt>
      <trkpt lat="50.46773" lon="5.84589">
        <ele>390.91</ele>
        <time>2019-07-07T08:27:30Z</time>
      </trkpt>
      <trkpt lat="50.46778" lon="5.84586">
        <ele>390.91</ele>
        <time>2019-07-07T08:27:31Z</time>
      </trkpt>
      <trkpt lat="50.46838" lon="5.84537">
        <ele>390.91</ele>
        <time>2019-07-07T08:27:43Z</time>
      </trkpt>
      <trkpt lat="50.46844" lon="5.84535">
        <ele>390.91</ele>
        <time>2019-07-07T08:27:44Z</time>
      </trkpt>
      <trkpt lat="50.46851" lon="5.84535">
        <ele>390.91</ele>
        <time>2019-07-07T08:27:45Z</time>
      </trkpt>
      <trkpt lat="50.46857" lon="5.84535">
        <ele>390.91</ele>
        <time>2019-07-07T08:27:46Z</time>
      </trkpt>
      <trkpt lat="50.46864" lon="5.84537">
        <ele>390.91</ele>
        <time>2019-07-07T08:27:47Z</time>
      </trkpt>
      <trkpt lat="50.4687" lon="5.84538">
        <ele>390.91</ele>
        <time>2019-07-07T08:27:48Z</time>
      </trkpt>
      <trkpt lat="50.46877" lon="5.84541">
        <ele>389.95</ele>
        <time>2019-07-07T08:27:49Z</time>
      </trkpt>
      <trkpt lat="50.46883" lon="5.84545">
        <ele>389.95</ele>
        <time>2019-07-07T08:27:50Z</time>
      </trkpt>
      <trkpt lat="50.46889" lon="5.8455">
        <ele>389.47</ele>
        <time>2019-07-07T08:27:51Z</time>
      </trkpt>
      <trkpt lat="50.46894" lon="5.84555">
        <ele>389.47</ele>
        <time>2019-07-07T08:27:52Z</time>
      </trkpt>
      <trkpt lat="50.46899" lon="5.84561">
        <ele>388.99</ele>
        <time>2019-07-07T08:27:53Z</time>
      </trkpt>
      <trkpt lat="50.46904" lon="5.84568">
        <ele>388.99</ele>
        <time>2019-07-07T08:27:54Z</time>
      </trkpt>
      <trkpt lat="50.4696" lon="5.84645">
        <ele>388.03</ele>
        <time>2019-07-07T08:28:06Z</time>
      </trkpt>
      <trkpt lat="50.46974" lon="5.8466">
        <ele>388.03</ele>
        <time>2019-07-07T08:28:09Z</time>
      </trkpt>
      <trkpt lat="50.4698" lon="5.84663">
        <ele>387.55</ele>
        <time>2019-07-07T08:28:10Z</time>
      </trkpt>
      <trkpt lat="50.46986" lon="5.84667">
        <ele>387.55</ele>
        <time>2019-07-07T08:28:11Z</time>
      </trkpt>
      <trkpt lat="50.46992" lon="5.84669">
        <ele>387.55</ele>
        <time>2019-07-07T08:28:12Z</time>
      </trkpt>
      <trkpt lat="50.46999" lon="5.84671">
        <ele>387.55</ele>
        <time>2019-07-07T08:28:13Z</time>
      </trkpt>
      <trkpt lat="50.47096" lon="5.84676">
        <ele>386.11</ele>
        <time>2019-07-07T08:28:27Z</time>
      </trkpt>
      <trkpt lat="50.47123" lon="5.84669">
        <ele>385.15</ele>
        <time>2019-07-07T08:28:31Z</time>
      </trkpt>
      <trkpt lat="50.47196" lon="5.84611">
        <ele>384.18</ele>
        <time>2019-07-07T08:28:44Z</time>
      </trkpt>
      <trkpt lat="50.47259" lon="5.84531">
        <ele>383.22</ele>
        <time>2019-07-07T08:28:58Z</time>
      </trkpt>
      <trkpt lat="50.47268" lon="5.84523">
        <ele>383.22</ele>
        <time>2019-07-07T08:29:00Z</time>
      </trkpt>
      <trkpt lat="50.47273" lon="5.84522">
        <ele>383.22</ele>
        <time>2019-07-07T08:29:01Z</time>
      </trkpt>
      <trkpt lat="50.47278" lon="5.84523">
        <ele>383.22</ele>
        <time>2019-07-07T08:29:02Z</time>
      </trkpt>
      <trkpt lat="50.47284" lon="5.84527">
        <ele>383.22</ele>
        <time>2019-07-07T08:29:03Z</time>
      </trkpt>
      <trkpt lat="50.4729" lon="5.84533">
        <ele>383.22</ele>
        <time>2019-07-07T08:29:04Z</time>
      </trkpt>
      <trkpt lat="50.47293" lon="5.84538">
        <ele>382.74</ele>
        <time>2019-07-07T08:29:05Z</time>
      </trkpt>
      <trkpt lat="50.47298" lon="5.84544">
        <ele>382.74</ele>
        <time>2019-07-07T08:29:06Z</time>
      </trkpt>
      <trkpt lat="50.47377" lon="5.84614">
        <ele>380.82</ele>
        <time>2019-07-07T08:29:21Z</time>
      </trkpt>
      <trkpt lat="50.47432" lon="5.84657">
        <ele>378.42</ele>
        <time>2019-07-07T08:29:30Z</time>
      </trkpt>
      <trkpt lat="50.47501" lon="5.84732">
        <ele>376.49</ele>
        <time>2019-07-07T08:29:41Z</time>
      </trkpt>
      <trkpt lat="50.47577" lon="5.84802">
        <ele>373.13</ele>
        <time>2019-07-07T08:29:52Z</time>
      </trkpt>
      <trkpt lat="50.4767" lon="5.84888">
        <ele>370.73</ele>
        <time>2019-07-07T08:30:06Z</time>
      </trkpt>
      <trkpt lat="50.47738" lon="5.84974">
        <ele>367.36</ele>
        <time>2019-07-07T08:30:17Z</time>
      </trkpt>
      <trkpt lat="50.47791" lon="5.85062">
        <ele>364</ele>
        <time>2019-07-07T08:30:26Z</time>
      </trkpt>
      <trkpt lat="50.47832" lon="5.85126">
        <ele>360.63</ele>
        <time>2019-07-07T08:30:32Z</time>
      </trkpt>
      <trkpt lat="50.47847" lon="5.85149">
        <ele>359.67</ele>
        <time>2019-07-07T08:30:34Z</time>
      </trkpt>
      <trkpt lat="50.47877" lon="5.85199">
        <ele>355.83</ele>
        <time>2019-07-07T08:30:38Z</time>
      </trkpt>
      <trkpt lat="50.47899" lon="5.85237">
        <ele>352.94</ele>
        <time>2019-07-07T08:30:41Z</time>
      </trkpt>
      <trkpt lat="50.47937" lon="5.85303">
        <ele>349.1</ele>
        <time>2019-07-07T08:30:46Z</time>
      </trkpt>
      <trkpt lat="50.4797" lon="5.85358">
        <ele>345.25</ele>
        <time>2019-07-07T08:30:50Z</time>
      </trkpt>
      <trkpt lat="50.48013" lon="5.85426">
        <ele>341.89</ele>
        <time>2019-07-07T08:30:55Z</time>
      </trkpt>
      <trkpt lat="50.48052" lon="5.85493">
        <ele>338.52</ele>
        <time>2019-07-07T08:31:00Z</time>
      </trkpt>
      <trkpt lat="50.4806" lon="5.85504">
        <ele>339</ele>
        <time>2019-07-07T08:31:01Z</time>
      </trkpt>
      <trkpt lat="50.48069" lon="5.85514">
        <ele>338.52</ele>
        <time>2019-07-07T08:31:02Z</time>
      </trkpt>
      <trkpt lat="50.4808" lon="5.85521">
        <ele>337.56</ele>
        <time>2019-07-07T08:31:03Z</time>
      </trkpt>
      <trkpt lat="50.48091" lon="5.85528">
        <ele>337.56</ele>
        <time>2019-07-07T08:31:04Z</time>
      </trkpt>
      <trkpt lat="50.48103" lon="5.85533">
        <ele>336.6</ele>
        <time>2019-07-07T08:31:05Z</time>
      </trkpt>
      <trkpt lat="50.48114" lon="5.85537">
        <ele>336.6</ele>
        <time>2019-07-07T08:31:06Z</time>
      </trkpt>
      <trkpt lat="50.48169" lon="5.85558">
        <ele>332.75</ele>
        <time>2019-07-07T08:31:11Z</time>
      </trkpt>
      <trkpt lat="50.48214" lon="5.85576">
        <ele>329.87</ele>
        <time>2019-07-07T08:31:15Z</time>
      </trkpt>
      <trkpt lat="50.48258" lon="5.856">
        <ele>326.02</ele>
        <time>2019-07-07T08:31:19Z</time>
      </trkpt>
      <trkpt lat="50.48298" lon="5.85625">
        <ele>322.18</ele>
        <time>2019-07-07T08:31:23Z</time>
      </trkpt>
      <trkpt lat="50.48329" lon="5.85644">
        <ele>318.81</ele>
        <time>2019-07-07T08:31:26Z</time>
      </trkpt>
      <trkpt lat="50.48361" lon="5.85661">
        <ele>314.97</ele>
        <time>2019-07-07T08:31:29Z</time>
      </trkpt>
      <trkpt lat="50.48397" lon="5.85671">
        <ele>310.64</ele>
        <time>2019-07-07T08:31:32Z</time>
      </trkpt>
      <trkpt lat="50.48433" lon="5.85678">
        <ele>306.8</ele>
        <time>2019-07-07T08:31:35Z</time>
      </trkpt>
      <trkpt lat="50.48469" lon="5.85685">
        <ele>302.95</ele>
        <time>2019-07-07T08:31:38Z</time>
      </trkpt>
      <trkpt lat="50.48505" lon="5.85695">
        <ele>299.59</ele>
        <time>2019-07-07T08:31:41Z</time>
      </trkpt>
      <trkpt lat="50.48517" lon="5.85701">
        <ele>298.15</ele>
        <time>2019-07-07T08:31:42Z</time>
      </trkpt>
      <trkpt lat="50.4855" lon="5.85724">
        <ele>294.3</ele>
        <time>2019-07-07T08:31:45Z</time>
      </trkpt>
      <trkpt lat="50.4858" lon="5.85753">
        <ele>290.46</ele>
        <time>2019-07-07T08:31:48Z</time>
      </trkpt>
      <trkpt lat="50.4861" lon="5.85783">
        <ele>287.57</ele>
        <time>2019-07-07T08:31:51Z</time>
      </trkpt>
      <trkpt lat="50.48643" lon="5.85817">
        <ele>283.25</ele>
        <time>2019-07-07T08:31:54Z</time>
      </trkpt>
      <trkpt lat="50.48691" lon="5.85864">
        <ele>279.88</ele>
        <time>2019-07-07T08:31:59Z</time>
      </trkpt>
      <trkpt lat="50.4871" lon="5.85883">
        <ele>278.92</ele>
        <time>2019-07-07T08:32:01Z</time>
      </trkpt>
      <trkpt lat="50.48761" lon="5.85926">
        <ele>276.52</ele>
        <time>2019-07-07T08:32:07Z</time>
      </trkpt>
      <trkpt lat="50.4877" lon="5.8593">
        <ele>276.52</ele>
        <time>2019-07-07T08:32:08Z</time>
      </trkpt>
      <trkpt lat="50.48778" lon="5.85933">
        <ele>275.56</ele>
        <time>2019-07-07T08:32:09Z</time>
      </trkpt>
      <trkpt lat="50.48787" lon="5.85933">
        <ele>275.56</ele>
        <time>2019-07-07T08:32:10Z</time>
      </trkpt>
      <trkpt lat="50.48795" lon="5.85933">
        <ele>274.59</ele>
        <time>2019-07-07T08:32:11Z</time>
      </trkpt>
      <trkpt lat="50.48806" lon="5.85931">
        <ele>274.11</ele>
        <time>2019-07-07T08:32:12Z</time>
      </trkpt>
      <trkpt lat="50.48811" lon="5.85929">
        <ele>274.11</ele>
        <time>2019-07-07T08:32:13Z</time>
      </trkpt>
      <trkpt lat="50.48819" lon="5.85926">
        <ele>272.67</ele>
        <time>2019-07-07T08:32:14Z</time>
      </trkpt>
      <trkpt lat="50.48827" lon="5.85922">
        <ele>272.19</ele>
        <time>2019-07-07T08:32:15Z</time>
      </trkpt>
      <trkpt lat="50.48866" lon="5.85904">
        <ele>269.31</ele>
        <time>2019-07-07T08:32:20Z</time>
      </trkpt>
      <trkpt lat="50.48873" lon="5.85903">
        <ele>269.31</ele>
        <time>2019-07-07T08:32:21Z</time>
      </trkpt>
      <trkpt lat="50.48879" lon="5.85902">
        <ele>268.83</ele>
        <time>2019-07-07T08:32:22Z</time>
      </trkpt>
      <trkpt lat="50.48885" lon="5.85902">
        <ele>268.35</ele>
        <time>2019-07-07T08:32:23Z</time>
      </trkpt>
      <trkpt lat="50.48891" lon="5.85903">
        <ele>267.38</ele>
        <time>2019-07-07T08:32:24Z</time>
      </trkpt>
      <trkpt lat="50.48895" lon="5.85901">
        <ele>267.38</ele>
        <time>2019-07-07T08:32:25Z</time>
      </trkpt>
      <trkpt lat="50.48899" lon="5.85896">
        <ele>266.9</ele>
        <time>2019-07-07T08:32:26Z</time>
      </trkpt>
      <trkpt lat="50.48901" lon="5.85888">
        <ele>266.9</ele>
        <time>2019-07-07T08:32:27Z</time>
      </trkpt>
      <trkpt lat="50.48901" lon="5.85879">
        <ele>266.9</ele>
        <time>2019-07-07T08:32:28Z</time>
      </trkpt>
      <trkpt lat="50.489" lon="5.85872">
        <ele>266.42</ele>
        <time>2019-07-07T08:32:29Z</time>
      </trkpt>
      <trkpt lat="50.48898" lon="5.85863">
        <ele>266.42</ele>
        <time>2019-07-07T08:32:30Z</time>
      </trkpt>
      <trkpt lat="50.48896" lon="5.85854">
        <ele>266.42</ele>
        <time>2019-07-07T08:32:31Z</time>
      </trkpt>
      <trkpt lat="50.48894" lon="5.85845">
        <ele>266.42</ele>
        <time>2019-07-07T08:32:32Z</time>
      </trkpt>
      <trkpt lat="50.48892" lon="5.85835">
        <ele>265.94</ele>
        <time>2019-07-07T08:32:33Z</time>
      </trkpt>
      <trkpt lat="50.48891" lon="5.85825">
        <ele>266.42</ele>
        <time>2019-07-07T08:32:34Z</time>
      </trkpt>
      <trkpt lat="50.48882" lon="5.85689">
        <ele>266.42</ele>
        <time>2019-07-07T08:32:48Z</time>
      </trkpt>
      <trkpt lat="50.48881" lon="5.85662">
        <ele>266.42</ele>
        <time>2019-07-07T08:32:51Z</time>
      </trkpt>
      <trkpt lat="50.48876" lon="5.85609">
        <ele>266.42</ele>
        <time>2019-07-07T08:32:57Z</time>
      </trkpt>
      <trkpt lat="50.48875" lon="5.856">
        <ele>266.42</ele>
        <time>2019-07-07T08:32:58Z</time>
      </trkpt>
      <trkpt lat="50.48871" lon="5.85548">
        <ele>267.38</ele>
        <time>2019-07-07T08:33:04Z</time>
      </trkpt>
      <trkpt lat="50.4887" lon="5.85539">
        <ele>267.38</ele>
        <time>2019-07-07T08:33:05Z</time>
      </trkpt>
      <trkpt lat="50.4887" lon="5.85529">
        <ele>267.38</ele>
        <time>2019-07-07T08:33:06Z</time>
      </trkpt>
      <trkpt lat="50.4886" lon="5.85394">
        <ele>267.38</ele>
        <time>2019-07-07T08:33:20Z</time>
      </trkpt>
      <trkpt lat="50.48841" lon="5.85269">
        <ele>265.94</ele>
        <time>2019-07-07T08:33:34Z</time>
      </trkpt>
      <trkpt lat="50.48814" lon="5.85197">
        <ele>265.94</ele>
        <time>2019-07-07T08:33:43Z</time>
      </trkpt>
      <trkpt lat="50.48811" lon="5.85189">
        <ele>265.94</ele>
        <time>2019-07-07T08:33:44Z</time>
      </trkpt>
      <trkpt lat="50.48768" lon="5.85083">
        <ele>265.46</ele>
        <time>2019-07-07T08:33:57Z</time>
      </trkpt>
      <trkpt lat="50.48732" lon="5.84954">
        <ele>265.46</ele>
        <time>2019-07-07T08:34:11Z</time>
      </trkpt>
      <trkpt lat="50.48728" lon="5.84936">
        <ele>265.46</ele>
        <time>2019-07-07T08:34:13Z</time>
      </trkpt>
      <trkpt lat="50.48728" lon="5.84926">
        <ele>265.46</ele>
        <time>2019-07-07T08:34:14Z</time>
      </trkpt>
      <trkpt lat="50.48728" lon="5.84917">
        <ele>265.46</ele>
        <time>2019-07-07T08:34:15Z</time>
      </trkpt>
      <trkpt lat="50.48729" lon="5.84907">
        <ele>265.46</ele>
        <time>2019-07-07T08:34:16Z</time>
      </trkpt>
      <trkpt lat="50.48731" lon="5.84898">
        <ele>264.98</ele>
        <time>2019-07-07T08:34:17Z</time>
      </trkpt>
      <trkpt lat="50.48733" lon="5.84888">
        <ele>264.98</ele>
        <time>2019-07-07T08:34:18Z</time>
      </trkpt>
      <trkpt lat="50.48737" lon="5.84878">
        <ele>264.02</ele>
        <time>2019-07-07T08:34:19Z</time>
      </trkpt>
      <trkpt lat="50.48741" lon="5.8487">
        <ele>263.54</ele>
        <time>2019-07-07T08:34:20Z</time>
      </trkpt>
      <trkpt lat="50.48747" lon="5.84862">
        <ele>262.58</ele>
        <time>2019-07-07T08:34:21Z</time>
      </trkpt>
      <trkpt lat="50.48753" lon="5.84854">
        <ele>262.1</ele>
        <time>2019-07-07T08:34:22Z</time>
      </trkpt>
      <trkpt lat="50.48761" lon="5.84847">
        <ele>261.62</ele>
        <time>2019-07-07T08:34:23Z</time>
      </trkpt>
      <trkpt lat="50.48794" lon="5.84815">
        <ele>258.25</ele>
        <time>2019-07-07T08:34:27Z</time>
      </trkpt>
      <trkpt lat="50.48827" lon="5.84775">
        <ele>254.89</ele>
        <time>2019-07-07T08:34:31Z</time>
      </trkpt>
      <trkpt lat="50.48834" lon="5.84761">
        <ele>254.41</ele>
        <time>2019-07-07T08:34:32Z</time>
      </trkpt>
      <trkpt lat="50.4884" lon="5.84746">
        <ele>253.44</ele>
        <time>2019-07-07T08:34:33Z</time>
      </trkpt>
      <trkpt lat="50.48845" lon="5.84729">
        <ele>252.96</ele>
        <time>2019-07-07T08:34:34Z</time>
      </trkpt>
      <trkpt lat="50.48848" lon="5.84712">
        <ele>252</ele>
        <time>2019-07-07T08:34:35Z</time>
      </trkpt>
      <trkpt lat="50.4885" lon="5.84694">
        <ele>251.52</ele>
        <time>2019-07-07T08:34:36Z</time>
      </trkpt>
      <trkpt lat="50.4885" lon="5.84677">
        <ele>251.04</ele>
        <time>2019-07-07T08:34:37Z</time>
      </trkpt>
      <trkpt lat="50.48849" lon="5.8466">
        <ele>251.04</ele>
        <time>2019-07-07T08:34:38Z</time>
      </trkpt>
      <trkpt lat="50.48847" lon="5.84643">
        <ele>250.56</ele>
        <time>2019-07-07T08:34:39Z</time>
      </trkpt>
      <trkpt lat="50.48845" lon="5.84627">
        <ele>250.56</ele>
        <time>2019-07-07T08:34:40Z</time>
      </trkpt>
      <trkpt lat="50.48828" lon="5.84478">
        <ele>247.2</ele>
        <time>2019-07-07T08:34:50Z</time>
      </trkpt>
      <trkpt lat="50.48826" lon="5.84464">
        <ele>247.2</ele>
        <time>2019-07-07T08:34:51Z</time>
      </trkpt>
      <trkpt lat="50.48817" lon="5.84386">
        <ele>243.35</ele>
        <time>2019-07-07T08:34:56Z</time>
      </trkpt>
      <trkpt lat="50.48808" lon="5.84304">
        <ele>239.51</ele>
        <time>2019-07-07T08:35:01Z</time>
      </trkpt>
      <trkpt lat="50.48804" lon="5.84271">
        <ele>238.54</ele>
        <time>2019-07-07T08:35:03Z</time>
      </trkpt>
      <trkpt lat="50.48779" lon="5.84112">
        <ele>235.18</ele>
        <time>2019-07-07T08:35:13Z</time>
      </trkpt>
      <trkpt lat="50.48745" lon="5.8389">
        <ele>233.26</ele>
        <time>2019-07-07T08:35:30Z</time>
      </trkpt>
      <trkpt lat="50.48738" lon="5.83838">
        <ele>233.26</ele>
        <time>2019-07-07T08:35:34Z</time>
      </trkpt>
      <trkpt lat="50.48737" lon="5.83825">
        <ele>233.26</ele>
        <time>2019-07-07T08:35:35Z</time>
      </trkpt>
      <trkpt lat="50.48732" lon="5.83718">
        <ele>231.81</ele>
        <time>2019-07-07T08:35:43Z</time>
      </trkpt>
      <trkpt lat="50.48752" lon="5.83498">
        <ele>229.41</ele>
        <time>2019-07-07T08:36:00Z</time>
      </trkpt>
      <trkpt lat="50.48771" lon="5.83402">
        <ele>226.05</ele>
        <time>2019-07-07T08:36:07Z</time>
      </trkpt>
      <trkpt lat="50.48779" lon="5.83374">
        <ele>225.09</ele>
        <time>2019-07-07T08:36:09Z</time>
      </trkpt>
      <trkpt lat="50.48785" lon="5.8336">
        <ele>224.61</ele>
        <time>2019-07-07T08:36:10Z</time>
      </trkpt>
      <trkpt lat="50.4879" lon="5.83347">
        <ele>224.12</ele>
        <time>2019-07-07T08:36:11Z</time>
      </trkpt>
      <trkpt lat="50.48796" lon="5.83333">
        <ele>223.16</ele>
        <time>2019-07-07T08:36:12Z</time>
      </trkpt>
      <trkpt lat="50.48803" lon="5.8332">
        <ele>223.16</ele>
        <time>2019-07-07T08:36:13Z</time>
      </trkpt>
      <trkpt lat="50.48809" lon="5.83307">
        <ele>222.2</ele>
        <time>2019-07-07T08:36:14Z</time>
      </trkpt>
      <trkpt lat="50.48816" lon="5.83295">
        <ele>221.72</ele>
        <time>2019-07-07T08:36:15Z</time>
      </trkpt>
      <trkpt lat="50.48823" lon="5.83284">
        <ele>221.24</ele>
        <time>2019-07-07T08:36:16Z</time>
      </trkpt>
      <trkpt lat="50.48849" lon="5.83249">
        <ele>219.8</ele>
        <time>2019-07-07T08:36:20Z</time>
      </trkpt>
      <trkpt lat="50.48855" lon="5.83246">
        <ele>219.32</ele>
        <time>2019-07-07T08:36:21Z</time>
      </trkpt>
      <trkpt lat="50.48861" lon="5.83245">
        <ele>219.32</ele>
        <time>2019-07-07T08:36:22Z</time>
      </trkpt>
      <trkpt lat="50.48865" lon="5.83245">
        <ele>219.32</ele>
        <time>2019-07-07T08:36:23Z</time>
      </trkpt>
      <trkpt lat="50.48869" lon="5.83246">
        <ele>218.84</ele>
        <time>2019-07-07T08:36:24Z</time>
      </trkpt>
      <trkpt lat="50.48871" lon="5.83248">
        <ele>218.84</ele>
        <time>2019-07-07T08:36:25Z</time>
      </trkpt>
      <trkpt lat="50.48873" lon="5.83249">
        <ele>218.36</ele>
        <time>2019-07-07T08:36:26Z</time>
      </trkpt>
      <trkpt lat="50.48876" lon="5.83251">
        <ele>218.36</ele>
        <time>2019-07-07T08:36:34Z</time>
      </trkpt>
      <trkpt lat="50.48881" lon="5.83251">
        <ele>218.84</ele>
        <time>2019-07-07T08:36:45Z</time>
      </trkpt>
      <trkpt lat="50.48884" lon="5.8325">
        <ele>218.36</ele>
        <time>2019-07-07T08:36:55Z</time>
      </trkpt>
      <trkpt lat="50.48886" lon="5.83249">
        <ele>218.36</ele>
        <time>2019-07-07T08:36:56Z</time>
      </trkpt>
      <trkpt lat="50.48889" lon="5.83247">
        <ele>218.36</ele>
        <time>2019-07-07T08:36:57Z</time>
      </trkpt>
      <trkpt lat="50.48891" lon="5.83245">
        <ele>218.36</ele>
        <time>2019-07-07T08:36:58Z</time>
      </trkpt>
      <trkpt lat="50.48893" lon="5.83241">
        <ele>218.36</ele>
        <time>2019-07-07T08:36:59Z</time>
      </trkpt>
      <trkpt lat="50.48895" lon="5.83236">
        <ele>218.36</ele>
        <time>2019-07-07T08:37:00Z</time>
      </trkpt>
      <trkpt lat="50.48897" lon="5.8323">
        <ele>218.36</ele>
        <time>2019-07-07T08:37:01Z</time>
      </trkpt>
      <trkpt lat="50.48913" lon="5.83171">
        <ele>217.88</ele>
        <time>2019-07-07T08:37:09Z</time>
      </trkpt>
      <trkpt lat="50.48915" lon="5.83164">
        <ele>217.88</ele>
        <time>2019-07-07T08:37:10Z</time>
      </trkpt>
      <trkpt lat="50.48919" lon="5.83149">
        <ele>217.88</ele>
        <time>2019-07-07T08:37:12Z</time>
      </trkpt>
      <trkpt lat="50.4894" lon="5.83124">
        <ele>217.88</ele>
        <time>2019-07-07T08:37:16Z</time>
      </trkpt>
      <trkpt lat="50.49005" lon="5.83085">
        <ele>217.4</ele>
        <time>2019-07-07T08:37:26Z</time>
      </trkpt>
      <trkpt lat="50.4903" lon="5.83078">
        <ele>217.4</ele>
        <time>2019-07-07T08:37:30Z</time>
      </trkpt>
      <trkpt lat="50.49036" lon="5.83074">
        <ele>217.4</ele>
        <time>2019-07-07T08:37:31Z</time>
      </trkpt>
      <trkpt lat="50.4904" lon="5.83066">
        <ele>217.4</ele>
        <time>2019-07-07T08:37:32Z</time>
      </trkpt>
      <trkpt lat="50.49042" lon="5.83056">
        <ele>217.4</ele>
        <time>2019-07-07T08:37:33Z</time>
      </trkpt>
      <trkpt lat="50.49042" lon="5.8305">
        <ele>217.4</ele>
        <time>2019-07-07T08:37:34Z</time>
      </trkpt>
      <trkpt lat="50.49041" lon="5.83044">
        <ele>217.4</ele>
        <time>2019-07-07T08:37:35Z</time>
      </trkpt>
      <trkpt lat="50.49038" lon="5.8304">
        <ele>216.91</ele>
        <time>2019-07-07T08:37:36Z</time>
      </trkpt>
      <trkpt lat="50.49034" lon="5.83035">
        <ele>216.91</ele>
        <time>2019-07-07T08:37:37Z</time>
      </trkpt>
      <trkpt lat="50.4902" lon="5.83017">
        <ele>216.91</ele>
        <time>2019-07-07T08:37:40Z</time>
      </trkpt>
      <trkpt lat="50.49016" lon="5.8301">
        <ele>216.91</ele>
        <time>2019-07-07T08:37:41Z</time>
      </trkpt>
      <trkpt lat="50.49013" lon="5.83003">
        <ele>216.91</ele>
        <time>2019-07-07T08:37:42Z</time>
      </trkpt>
      <trkpt lat="50.48951" lon="5.82932">
        <ele>219.32</ele>
        <time>2019-07-07T08:37:56Z</time>
      </trkpt>
      <trkpt lat="50.48895" lon="5.82892">
        <ele>220.28</ele>
        <time>2019-07-07T08:38:07Z</time>
      </trkpt>
      <trkpt lat="50.4889" lon="5.82888">
        <ele>220.28</ele>
        <time>2019-07-07T08:38:08Z</time>
      </trkpt>
      <trkpt lat="50.48884" lon="5.82884">
        <ele>220.28</ele>
        <time>2019-07-07T08:38:09Z</time>
      </trkpt>
      <trkpt lat="50.4884" lon="5.82854">
        <ele>221.24</ele>
        <time>2019-07-07T08:38:18Z</time>
      </trkpt>
      <trkpt lat="50.48835" lon="5.82852">
        <ele>221.24</ele>
        <time>2019-07-07T08:38:19Z</time>
      </trkpt>
      <trkpt lat="50.48786" lon="5.82844">
        <ele>222.2</ele>
        <time>2019-07-07T08:38:28Z</time>
      </trkpt>
      <trkpt lat="50.48781" lon="5.82845">
        <ele>222.2</ele>
        <time>2019-07-07T08:38:29Z</time>
      </trkpt>
      <trkpt lat="50.48688" lon="5.82865">
        <ele>225.09</ele>
        <time>2019-07-07T08:38:47Z</time>
      </trkpt>
      <trkpt lat="50.48669" lon="5.82869">
        <ele>226.05</ele>
        <time>2019-07-07T08:38:51Z</time>
      </trkpt>
      <trkpt lat="50.48655" lon="5.82872">
        <ele>226.53</ele>
        <time>2019-07-07T08:38:54Z</time>
      </trkpt>
      <trkpt lat="50.48651" lon="5.82869">
        <ele>226.53</ele>
        <time>2019-07-07T08:38:55Z</time>
      </trkpt>
      <trkpt lat="50.48647" lon="5.82863">
        <ele>227.01</ele>
        <time>2019-07-07T08:38:56Z</time>
      </trkpt>
      <trkpt lat="50.48646" lon="5.82857">
        <ele>227.49</ele>
        <time>2019-07-07T08:38:57Z</time>
      </trkpt>
      <trkpt lat="50.48645" lon="5.82853">
        <ele>227.97</ele>
        <time>2019-07-07T08:38:58Z</time>
      </trkpt>
      <trkpt lat="50.48648" lon="5.82848">
        <ele>228.45</ele>
        <time>2019-07-07T08:39:00Z</time>
      </trkpt>
      <trkpt lat="50.48703" lon="5.8282">
        <ele>232.3</ele>
        <time>2019-07-07T08:39:14Z</time>
      </trkpt>
      <trkpt lat="50.48751" lon="5.82788">
        <ele>234.7</ele>
        <time>2019-07-07T08:39:28Z</time>
      </trkpt>
      <trkpt lat="50.48795" lon="5.82767">
        <ele>237.58</ele>
        <time>2019-07-07T08:39:42Z</time>
      </trkpt>
      <trkpt lat="50.48844" lon="5.82776">
        <ele>241.43</ele>
        <time>2019-07-07T08:39:57Z</time>
      </trkpt>
      <trkpt lat="50.48877" lon="5.82777">
        <ele>244.31</ele>
        <time>2019-07-07T08:40:09Z</time>
      </trkpt>
      <trkpt lat="50.48899" lon="5.82738">
        <ele>246.23</ele>
        <time>2019-07-07T08:40:19Z</time>
      </trkpt>
      <trkpt lat="50.4892" lon="5.82713">
        <ele>247.68</ele>
        <time>2019-07-07T08:40:27Z</time>
      </trkpt>
      <trkpt lat="50.48923" lon="5.82715">
        <ele>247.68</ele>
        <time>2019-07-07T08:40:28Z</time>
      </trkpt>
      <trkpt lat="50.48925" lon="5.82717">
        <ele>247.68</ele>
        <time>2019-07-07T08:40:29Z</time>
      </trkpt>
      <trkpt lat="50.48926" lon="5.82721">
        <ele>248.16</ele>
        <time>2019-07-07T08:40:30Z</time>
      </trkpt>
      <trkpt lat="50.48927" lon="5.82724">
        <ele>248.16</ele>
        <time>2019-07-07T08:40:31Z</time>
      </trkpt>
      <trkpt lat="50.48929" lon="5.82728">
        <ele>248.64</ele>
        <time>2019-07-07T08:40:32Z</time>
      </trkpt>
      <trkpt lat="50.48931" lon="5.82732">
        <ele>248.64</ele>
        <time>2019-07-07T08:40:33Z</time>
      </trkpt>
      <trkpt lat="50.48933" lon="5.82735">
        <ele>249.12</ele>
        <time>2019-07-07T08:40:34Z</time>
      </trkpt>
      <trkpt lat="50.48963" lon="5.82746">
        <ele>250.56</ele>
        <time>2019-07-07T08:40:44Z</time>
      </trkpt>
      <trkpt lat="50.48986" lon="5.82711">
        <ele>253.44</ele>
        <time>2019-07-07T08:40:54Z</time>
      </trkpt>
      <trkpt lat="50.4898" lon="5.82638">
        <ele>256.33</ele>
        <time>2019-07-07T08:41:09Z</time>
      </trkpt>
      <trkpt lat="50.48973" lon="5.82577">
        <ele>259.21</ele>
        <time>2019-07-07T08:41:22Z</time>
      </trkpt>
      <trkpt lat="50.48964" lon="5.82508">
        <ele>262.1</ele>
        <time>2019-07-07T08:41:37Z</time>
      </trkpt>
      <trkpt lat="50.48938" lon="5.82451">
        <ele>265.46</ele>
        <time>2019-07-07T08:41:52Z</time>
      </trkpt>
      <trkpt lat="50.48896" lon="5.82421">
        <ele>267.86</ele>
        <time>2019-07-07T08:42:07Z</time>
      </trkpt>
      <trkpt lat="50.48843" lon="5.82388">
        <ele>270.75</ele>
        <time>2019-07-07T08:42:24Z</time>
      </trkpt>
      <trkpt lat="50.48796" lon="5.82359">
        <ele>274.11</ele>
        <time>2019-07-07T08:42:39Z</time>
      </trkpt>
      <trkpt lat="50.48771" lon="5.82307">
        <ele>276.52</ele>
        <time>2019-07-07T08:42:53Z</time>
      </trkpt>
      <trkpt lat="50.4877" lon="5.82238">
        <ele>279.88</ele>
        <time>2019-07-07T08:43:07Z</time>
      </trkpt>
      <trkpt lat="50.48769" lon="5.8216">
        <ele>283.25</ele>
        <time>2019-07-07T08:43:23Z</time>
      </trkpt>
      <trkpt lat="50.48768" lon="5.82087">
        <ele>286.61</ele>
        <time>2019-07-07T08:43:39Z</time>
      </trkpt>
      <trkpt lat="50.48788" lon="5.82019">
        <ele>289.49</ele>
        <time>2019-07-07T08:43:56Z</time>
      </trkpt>
      <trkpt lat="50.48826" lon="5.81982">
        <ele>291.9</ele>
        <time>2019-07-07T08:44:11Z</time>
      </trkpt>
      <trkpt lat="50.48859" lon="5.81948">
        <ele>295.26</ele>
        <time>2019-07-07T08:44:25Z</time>
      </trkpt>
      <trkpt lat="50.48899" lon="5.8191">
        <ele>298.15</ele>
        <time>2019-07-07T08:44:41Z</time>
      </trkpt>
      <trkpt lat="50.48939" lon="5.81872">
        <ele>301.51</ele>
        <time>2019-07-07T08:44:56Z</time>
      </trkpt>
      <trkpt lat="50.48981" lon="5.81832">
        <ele>303.91</ele>
        <time>2019-07-07T08:45:12Z</time>
      </trkpt>
      <trkpt lat="50.49019" lon="5.81818">
        <ele>306.32</ele>
        <time>2019-07-07T08:45:24Z</time>
      </trkpt>
      <trkpt lat="50.49059" lon="5.81845">
        <ele>308.24</ele>
        <time>2019-07-07T08:45:37Z</time>
      </trkpt>
      <trkpt lat="50.4909" lon="5.81875">
        <ele>310.64</ele>
        <time>2019-07-07T08:45:48Z</time>
      </trkpt>
      <trkpt lat="50.49132" lon="5.81921">
        <ele>313.53</ele>
        <time>2019-07-07T08:46:02Z</time>
      </trkpt>
      <trkpt lat="50.49161" lon="5.81935">
        <ele>315.45</ele>
        <time>2019-07-07T08:46:11Z</time>
      </trkpt>
      <trkpt lat="50.49164" lon="5.81931">
        <ele>315.93</ele>
        <time>2019-07-07T08:46:12Z</time>
      </trkpt>
      <trkpt lat="50.49165" lon="5.81925">
        <ele>315.93</ele>
        <time>2019-07-07T08:46:13Z</time>
      </trkpt>
      <trkpt lat="50.49165" lon="5.8192">
        <ele>316.41</ele>
        <time>2019-07-07T08:46:14Z</time>
      </trkpt>
      <trkpt lat="50.49163" lon="5.81916">
        <ele>316.41</ele>
        <time>2019-07-07T08:46:15Z</time>
      </trkpt>
      <trkpt lat="50.49162" lon="5.81911">
        <ele>316.41</ele>
        <time>2019-07-07T08:46:16Z</time>
      </trkpt>
      <trkpt lat="50.4916" lon="5.81907">
        <ele>316.41</ele>
        <time>2019-07-07T08:46:17Z</time>
      </trkpt>
      <trkpt lat="50.49134" lon="5.81846">
        <ele>318.81</ele>
        <time>2019-07-07T08:46:31Z</time>
      </trkpt>
      <trkpt lat="50.49126" lon="5.81779">
        <ele>321.7</ele>
        <time>2019-07-07T08:46:46Z</time>
      </trkpt>
      <trkpt lat="50.4911" lon="5.81718">
        <ele>325.06</ele>
        <time>2019-07-07T08:47:00Z</time>
      </trkpt>
      <trkpt lat="50.49091" lon="5.81694">
        <ele>325.54</ele>
        <time>2019-07-07T08:47:06Z</time>
      </trkpt>
      <trkpt lat="50.49062" lon="5.81658">
        <ele>327.95</ele>
        <time>2019-07-07T08:47:16Z</time>
      </trkpt>
      <trkpt lat="50.49039" lon="5.81628">
        <ele>329.87</ele>
        <time>2019-07-07T08:47:26Z</time>
      </trkpt>
      <trkpt lat="50.49014" lon="5.81594">
        <ele>331.79</ele>
        <time>2019-07-07T08:47:36Z</time>
      </trkpt>
      <trkpt lat="50.48982" lon="5.81562">
        <ele>334.2</ele>
        <time>2019-07-07T08:47:47Z</time>
      </trkpt>
      <trkpt lat="50.48954" lon="5.81528">
        <ele>336.12</ele>
        <time>2019-07-07T08:47:59Z</time>
      </trkpt>
      <trkpt lat="50.48931" lon="5.81486">
        <ele>338.52</ele>
        <time>2019-07-07T08:48:11Z</time>
      </trkpt>
      <trkpt lat="50.48916" lon="5.81435">
        <ele>341.41</ele>
        <time>2019-07-07T08:48:23Z</time>
      </trkpt>
      <trkpt lat="50.48898" lon="5.8138">
        <ele>343.81</ele>
        <time>2019-07-07T08:48:36Z</time>
      </trkpt>
      <trkpt lat="50.48874" lon="5.81322">
        <ele>346.21</ele>
        <time>2019-07-07T08:48:49Z</time>
      </trkpt>
      <trkpt lat="50.48853" lon="5.81262">
        <ele>349.1</ele>
        <time>2019-07-07T08:49:02Z</time>
      </trkpt>
      <trkpt lat="50.48832" lon="5.81201">
        <ele>351.98</ele>
        <time>2019-07-07T08:49:16Z</time>
      </trkpt>
      <trkpt lat="50.48815" lon="5.81124">
        <ele>355.83</ele>
        <time>2019-07-07T08:49:33Z</time>
      </trkpt>
      <trkpt lat="50.4882" lon="5.81064">
        <ele>358.71</ele>
        <time>2019-07-07T08:49:46Z</time>
      </trkpt>
      <trkpt lat="50.48841" lon="5.80992">
        <ele>362.07</ele>
        <time>2019-07-07T08:50:03Z</time>
      </trkpt>
      <trkpt lat="50.48843" lon="5.80987">
        <ele>362.07</ele>
        <time>2019-07-07T08:50:04Z</time>
      </trkpt>
      <trkpt lat="50.48871" lon="5.80933">
        <ele>365.44</ele>
        <time>2019-07-07T08:50:18Z</time>
      </trkpt>
      <trkpt lat="50.48893" lon="5.8088">
        <ele>366.88</ele>
        <time>2019-07-07T08:50:32Z</time>
      </trkpt>
      <trkpt lat="50.48902" lon="5.80864">
        <ele>367.36</ele>
        <time>2019-07-07T08:50:38Z</time>
      </trkpt>
      <trkpt lat="50.48904" lon="5.80861">
        <ele>367.36</ele>
        <time>2019-07-07T08:50:50Z</time>
      </trkpt>
      <trkpt lat="50.48905" lon="5.80859">
        <ele>367.36</ele>
        <time>2019-07-07T08:51:07Z</time>
      </trkpt>
      <trkpt lat="50.48906" lon="5.80862">
        <ele>367.36</ele>
        <time>2019-07-07T08:51:24Z</time>
      </trkpt>
      <trkpt lat="50.48905" lon="5.80862">
        <ele>367.84</ele>
        <time>2019-07-07T08:51:38Z</time>
      </trkpt>
      <trkpt lat="50.48906" lon="5.80862">
        <ele>367.84</ele>
        <time>2019-07-07T08:51:52Z</time>
      </trkpt>
      <trkpt lat="50.48905" lon="5.80862">
        <ele>367.84</ele>
        <time>2019-07-07T08:52:14Z</time>
      </trkpt>
      <trkpt lat="50.48907" lon="5.80863">
        <ele>367.84</ele>
        <time>2019-07-07T08:52:36Z</time>
      </trkpt>
      <trkpt lat="50.48906" lon="5.80862">
        <ele>367.84</ele>
        <time>2019-07-07T08:52:58Z</time>
      </trkpt>
      <trkpt lat="50.48907" lon="5.80862">
        <ele>367.84</ele>
        <time>2019-07-07T08:53:27Z</time>
      </trkpt>
      <trkpt lat="50.48907" lon="5.80864">
        <ele>367.84</ele>
        <time>2019-07-07T08:53:55Z</time>
      </trkpt>
      <trkpt lat="50.4891" lon="5.80866">
        <ele>367.84</ele>
        <time>2019-07-07T08:54:06Z</time>
      </trkpt>
      <trkpt lat="50.48921" lon="5.80868">
        <ele>367.84</ele>
        <time>2019-07-07T08:54:18Z</time>
      </trkpt>
      <trkpt lat="50.48921" lon="5.80867">
        <ele>367.84</ele>
        <time>2019-07-07T08:54:43Z</time>
      </trkpt>
      <trkpt lat="50.48922" lon="5.80867">
        <ele>367.84</ele>
        <time>2019-07-07T08:55:05Z</time>
      </trkpt>
      <trkpt lat="50.48922" lon="5.80867">
        <ele>367.84</ele>
        <time>2019-07-07T08:55:27Z</time>
      </trkpt>
      <trkpt lat="50.48922" lon="5.80868">
        <ele>367.84</ele>
        <time>2019-07-07T08:55:52Z</time>
      </trkpt>
      <trkpt lat="50.48922" lon="5.80866">
        <ele>367.84</ele>
        <time>2019-07-07T08:56:20Z</time>
      </trkpt>
      <trkpt lat="50.48923" lon="5.80866">
        <ele>367.84</ele>
        <time>2019-07-07T08:56:31Z</time>
      </trkpt>
      <trkpt lat="50.48925" lon="5.80864">
        <ele>367.84</ele>
        <time>2019-07-07T08:56:32Z</time>
      </trkpt>
      <trkpt lat="50.48945" lon="5.80843">
        <ele>366.88</ele>
        <time>2019-07-07T08:56:41Z</time>
      </trkpt>
      <trkpt lat="50.48948" lon="5.80838">
        <ele>366.88</ele>
        <time>2019-07-07T08:56:42Z</time>
      </trkpt>
      <trkpt lat="50.4895" lon="5.80831">
        <ele>366.88</ele>
        <time>2019-07-07T08:56:43Z</time>
      </trkpt>
      <trkpt lat="50.48953" lon="5.80822">
        <ele>365.92</ele>
        <time>2019-07-07T08:56:44Z</time>
      </trkpt>
      <trkpt lat="50.48955" lon="5.80816">
        <ele>364.48</ele>
        <time>2019-07-07T08:56:45Z</time>
      </trkpt>
      <trkpt lat="50.48956" lon="5.80808">
        <ele>366.88</ele>
        <time>2019-07-07T08:56:46Z</time>
      </trkpt>
      <trkpt lat="50.48957" lon="5.80798">
        <ele>364.96</ele>
        <time>2019-07-07T08:56:47Z</time>
      </trkpt>
      <trkpt lat="50.48957" lon="5.80789">
        <ele>364.48</ele>
        <time>2019-07-07T08:56:48Z</time>
      </trkpt>
      <trkpt lat="50.48957" lon="5.8078">
        <ele>364.48</ele>
        <time>2019-07-07T08:56:49Z</time>
      </trkpt>
      <trkpt lat="50.48956" lon="5.8077">
        <ele>364</ele>
        <time>2019-07-07T08:56:50Z</time>
      </trkpt>
      <trkpt lat="50.48954" lon="5.80749">
        <ele>363.52</ele>
        <time>2019-07-07T08:56:52Z</time>
      </trkpt>
      <trkpt lat="50.48937" lon="5.80654">
        <ele>360.15</ele>
        <time>2019-07-07T08:57:00Z</time>
      </trkpt>
      <trkpt lat="50.4892" lon="5.80557">
        <ele>357.27</ele>
        <time>2019-07-07T08:57:07Z</time>
      </trkpt>
      <trkpt lat="50.48914" lon="5.80513">
        <ele>355.83</ele>
        <time>2019-07-07T08:57:10Z</time>
      </trkpt>
      <trkpt lat="50.48896" lon="5.80369">
        <ele>352.46</ele>
        <time>2019-07-07T08:57:20Z</time>
      </trkpt>
      <trkpt lat="50.48892" lon="5.80306">
        <ele>349.1</ele>
        <time>2019-07-07T08:57:24Z</time>
      </trkpt>
      <trkpt lat="50.48892" lon="5.80289">
        <ele>348.62</ele>
        <time>2019-07-07T08:57:25Z</time>
      </trkpt>
      <trkpt lat="50.48893" lon="5.80273">
        <ele>347.65</ele>
        <time>2019-07-07T08:57:26Z</time>
      </trkpt>
      <trkpt lat="50.48895" lon="5.80256">
        <ele>347.65</ele>
        <time>2019-07-07T08:57:27Z</time>
      </trkpt>
      <trkpt lat="50.48906" lon="5.80204">
        <ele>343.81</ele>
        <time>2019-07-07T08:57:30Z</time>
      </trkpt>
      <trkpt lat="50.48916" lon="5.8015">
        <ele>340.92</ele>
        <time>2019-07-07T08:57:33Z</time>
      </trkpt>
      <trkpt lat="50.48928" lon="5.80093">
        <ele>337.56</ele>
        <time>2019-07-07T08:57:36Z</time>
      </trkpt>
      <trkpt lat="50.4894" lon="5.80034">
        <ele>334.2</ele>
        <time>2019-07-07T08:57:39Z</time>
      </trkpt>
      <trkpt lat="50.48951" lon="5.79974">
        <ele>330.83</ele>
        <time>2019-07-07T08:57:42Z</time>
      </trkpt>
      <trkpt lat="50.48953" lon="5.79954">
        <ele>329.39</ele>
        <time>2019-07-07T08:57:43Z</time>
      </trkpt>
      <trkpt lat="50.48953" lon="5.79933">
        <ele>328.91</ele>
        <time>2019-07-07T08:57:44Z</time>
      </trkpt>
      <trkpt lat="50.48952" lon="5.79913">
        <ele>327.95</ele>
        <time>2019-07-07T08:57:45Z</time>
      </trkpt>
      <trkpt lat="50.48949" lon="5.79892">
        <ele>326.5</ele>
        <time>2019-07-07T08:57:46Z</time>
      </trkpt>
      <trkpt lat="50.48945" lon="5.79872">
        <ele>326.02</ele>
        <time>2019-07-07T08:57:47Z</time>
      </trkpt>
      <trkpt lat="50.48934" lon="5.79811">
        <ele>322.66</ele>
        <time>2019-07-07T08:57:50Z</time>
      </trkpt>
      <trkpt lat="50.48917" lon="5.7973">
        <ele>318.81</ele>
        <time>2019-07-07T08:57:54Z</time>
      </trkpt>
      <trkpt lat="50.48901" lon="5.79648">
        <ele>314.97</ele>
        <time>2019-07-07T08:57:58Z</time>
      </trkpt>
      <trkpt lat="50.48892" lon="5.79585">
        <ele>311.12</ele>
        <time>2019-07-07T08:58:01Z</time>
      </trkpt>
      <trkpt lat="50.48882" lon="5.79523">
        <ele>307.76</ele>
        <time>2019-07-07T08:58:04Z</time>
      </trkpt>
      <trkpt lat="50.48876" lon="5.79459">
        <ele>303.91</ele>
        <time>2019-07-07T08:58:07Z</time>
      </trkpt>
      <trkpt lat="50.48876" lon="5.79437">
        <ele>302.95</ele>
        <time>2019-07-07T08:58:08Z</time>
      </trkpt>
      <trkpt lat="50.48877" lon="5.79415">
        <ele>301.51</ele>
        <time>2019-07-07T08:58:09Z</time>
      </trkpt>
      <trkpt lat="50.48879" lon="5.79394">
        <ele>300.55</ele>
        <time>2019-07-07T08:58:10Z</time>
      </trkpt>
      <trkpt lat="50.48883" lon="5.79373">
        <ele>299.11</ele>
        <time>2019-07-07T08:58:11Z</time>
      </trkpt>
      <trkpt lat="50.4889" lon="5.7933">
        <ele>296.7</ele>
        <time>2019-07-07T08:58:13Z</time>
      </trkpt>
      <trkpt lat="50.48892" lon="5.79308">
        <ele>295.26</ele>
        <time>2019-07-07T08:58:14Z</time>
      </trkpt>
      <trkpt lat="50.48892" lon="5.7924">
        <ele>291.9</ele>
        <time>2019-07-07T08:58:17Z</time>
      </trkpt>
      <trkpt lat="50.4889" lon="5.79218">
        <ele>290.94</ele>
        <time>2019-07-07T08:58:18Z</time>
      </trkpt>
      <trkpt lat="50.48877" lon="5.79154">
        <ele>287.57</ele>
        <time>2019-07-07T08:58:21Z</time>
      </trkpt>
      <trkpt lat="50.48842" lon="5.79027">
        <ele>288.05</ele>
        <time>2019-07-07T08:58:29Z</time>
      </trkpt>
      <trkpt lat="50.4884" lon="5.79015">
        <ele>288.05</ele>
        <time>2019-07-07T08:58:30Z</time>
      </trkpt>
      <trkpt lat="50.48837" lon="5.79003">
        <ele>288.05</ele>
        <time>2019-07-07T08:58:31Z</time>
      </trkpt>
      <trkpt lat="50.48828" lon="5.78944">
        <ele>288.05</ele>
        <time>2019-07-07T08:58:36Z</time>
      </trkpt>
      <trkpt lat="50.48825" lon="5.78933">
        <ele>288.05</ele>
        <time>2019-07-07T08:58:37Z</time>
      </trkpt>
      <trkpt lat="50.48818" lon="5.78913">
        <ele>288.05</ele>
        <time>2019-07-07T08:58:39Z</time>
      </trkpt>
      <trkpt lat="50.48813" lon="5.78904">
        <ele>288.05</ele>
        <time>2019-07-07T08:58:40Z</time>
      </trkpt>
      <trkpt lat="50.48808" lon="5.78894">
        <ele>288.05</ele>
        <time>2019-07-07T08:58:41Z</time>
      </trkpt>
      <trkpt lat="50.48803" lon="5.78888">
        <ele>288.05</ele>
        <time>2019-07-07T08:58:42Z</time>
      </trkpt>
      <trkpt lat="50.48797" lon="5.7888">
        <ele>288.05</ele>
        <time>2019-07-07T08:58:43Z</time>
      </trkpt>
      <trkpt lat="50.48791" lon="5.78874">
        <ele>288.05</ele>
        <time>2019-07-07T08:58:44Z</time>
      </trkpt>
      <trkpt lat="50.48785" lon="5.78869">
        <ele>288.05</ele>
        <time>2019-07-07T08:58:45Z</time>
      </trkpt>
      <trkpt lat="50.48696" lon="5.78787">
        <ele>288.05</ele>
        <time>2019-07-07T08:59:00Z</time>
      </trkpt>
      <trkpt lat="50.4869" lon="5.78782">
        <ele>288.05</ele>
        <time>2019-07-07T08:59:01Z</time>
      </trkpt>
      <trkpt lat="50.48595" lon="5.78691">
        <ele>290.46</ele>
        <time>2019-07-07T08:59:19Z</time>
      </trkpt>
      <trkpt lat="50.48503" lon="5.78597">
        <ele>291.9</ele>
        <time>2019-07-07T08:59:38Z</time>
      </trkpt>
      <trkpt lat="50.48473" lon="5.78505">
        <ele>294.78</ele>
        <time>2019-07-07T08:59:51Z</time>
      </trkpt>
      <trkpt lat="50.48477" lon="5.78408">
        <ele>296.22</ele>
        <time>2019-07-07T09:00:04Z</time>
      </trkpt>
      <trkpt lat="50.48485" lon="5.78347">
        <ele>297.18</ele>
        <time>2019-07-07T09:00:13Z</time>
      </trkpt>
      <trkpt lat="50.48486" lon="5.78341">
        <ele>297.18</ele>
        <time>2019-07-07T09:00:14Z</time>
      </trkpt>
      <trkpt lat="50.48487" lon="5.78334">
        <ele>297.18</ele>
        <time>2019-07-07T09:00:15Z</time>
      </trkpt>
      <trkpt lat="50.48506" lon="5.78207">
        <ele>299.59</ele>
        <time>2019-07-07T09:00:34Z</time>
      </trkpt>
      <trkpt lat="50.48523" lon="5.78084">
        <ele>301.51</ele>
        <time>2019-07-07T09:00:53Z</time>
      </trkpt>
      <trkpt lat="50.48531" lon="5.78022">
        <ele>302.95</ele>
        <time>2019-07-07T09:01:02Z</time>
      </trkpt>
      <trkpt lat="50.48533" lon="5.78016">
        <ele>302.95</ele>
        <time>2019-07-07T09:01:03Z</time>
      </trkpt>
      <trkpt lat="50.48543" lon="5.77944">
        <ele>306.32</ele>
        <time>2019-07-07T09:01:15Z</time>
      </trkpt>
      <trkpt lat="50.48554" lon="5.77866">
        <ele>309.68</ele>
        <time>2019-07-07T09:01:29Z</time>
      </trkpt>
      <trkpt lat="50.48566" lon="5.77775">
        <ele>313.05</ele>
        <time>2019-07-07T09:01:46Z</time>
      </trkpt>
      <trkpt lat="50.48577" lon="5.777">
        <ele>315.93</ele>
        <time>2019-07-07T09:02:00Z</time>
      </trkpt>
      <trkpt lat="50.48588" lon="5.77627">
        <ele>319.3</ele>
        <time>2019-07-07T09:02:14Z</time>
      </trkpt>
      <trkpt lat="50.48598" lon="5.77552">
        <ele>322.18</ele>
        <time>2019-07-07T09:02:28Z</time>
      </trkpt>
      <trkpt lat="50.48612" lon="5.77463">
        <ele>325.54</ele>
        <time>2019-07-07T09:02:45Z</time>
      </trkpt>
      <trkpt lat="50.48626" lon="5.77359">
        <ele>328.91</ele>
        <time>2019-07-07T09:03:04Z</time>
      </trkpt>
      <trkpt lat="50.48638" lon="5.77256">
        <ele>331.31</ele>
        <time>2019-07-07T09:03:22Z</time>
      </trkpt>
      <trkpt lat="50.48654" lon="5.77142">
        <ele>334.68</ele>
        <time>2019-07-07T09:03:41Z</time>
      </trkpt>
      <trkpt lat="50.48676" lon="5.77038">
        <ele>337.08</ele>
        <time>2019-07-07T09:03:59Z</time>
      </trkpt>
      <trkpt lat="50.48707" lon="5.76923">
        <ele>339.96</ele>
        <time>2019-07-07T09:04:19Z</time>
      </trkpt>
      <trkpt lat="50.48732" lon="5.76841">
        <ele>342.85</ele>
        <time>2019-07-07T09:04:34Z</time>
      </trkpt>
      <trkpt lat="50.48753" lon="5.76785">
        <ele>346.21</ele>
        <time>2019-07-07T09:04:46Z</time>
      </trkpt>
      <trkpt lat="50.48772" lon="5.76728">
        <ele>349.1</ele>
        <time>2019-07-07T09:04:58Z</time>
      </trkpt>
      <trkpt lat="50.48793" lon="5.76669">
        <ele>352.46</ele>
        <time>2019-07-07T09:05:11Z</time>
      </trkpt>
      <trkpt lat="50.48803" lon="5.7663">
        <ele>354.38</ele>
        <time>2019-07-07T09:05:23Z</time>
      </trkpt>
      <trkpt lat="50.48807" lon="5.76602">
        <ele>354.86</ele>
        <time>2019-07-07T09:05:32Z</time>
      </trkpt>
      <trkpt lat="50.48804" lon="5.76513">
        <ele>355.34</ele>
        <time>2019-07-07T09:05:46Z</time>
      </trkpt>
      <trkpt lat="50.48797" lon="5.76479">
        <ele>355.34</ele>
        <time>2019-07-07T09:05:51Z</time>
      </trkpt>
      <trkpt lat="50.48796" lon="5.76472">
        <ele>355.34</ele>
        <time>2019-07-07T09:05:52Z</time>
      </trkpt>
      <trkpt lat="50.48795" lon="5.76465">
        <ele>355.34</ele>
        <time>2019-07-07T09:05:53Z</time>
      </trkpt>
      <trkpt lat="50.48774" lon="5.76378">
        <ele>354.86</ele>
        <time>2019-07-07T09:06:09Z</time>
      </trkpt>
      <trkpt lat="50.4877" lon="5.76363">
        <ele>353.42</ele>
        <time>2019-07-07T09:06:11Z</time>
      </trkpt>
      <trkpt lat="50.48744" lon="5.76248">
        <ele>350.54</ele>
        <time>2019-07-07T09:06:24Z</time>
      </trkpt>
      <trkpt lat="50.48707" lon="5.76091">
        <ele>346.69</ele>
        <time>2019-07-07T09:06:38Z</time>
      </trkpt>
      <trkpt lat="50.48676" lon="5.75955">
        <ele>342.85</ele>
        <time>2019-07-07T09:06:49Z</time>
      </trkpt>
      <trkpt lat="50.48651" lon="5.75848">
        <ele>339.48</ele>
        <time>2019-07-07T09:06:57Z</time>
      </trkpt>
      <trkpt lat="50.48645" lon="5.75823">
        <ele>339</ele>
        <time>2019-07-07T09:06:59Z</time>
      </trkpt>
      <trkpt lat="50.48623" lon="5.7573">
        <ele>336.12</ele>
        <time>2019-07-07T09:07:06Z</time>
      </trkpt>
      <trkpt lat="50.48595" lon="5.75593">
        <ele>333.23</ele>
        <time>2019-07-07T09:07:16Z</time>
      </trkpt>
      <trkpt lat="50.48594" lon="5.75566">
        <ele>332.75</ele>
        <time>2019-07-07T09:07:18Z</time>
      </trkpt>
      <trkpt lat="50.48615" lon="5.75453">
        <ele>332.27</ele>
        <time>2019-07-07T09:07:28Z</time>
      </trkpt>
      <trkpt lat="50.4863" lon="5.75306">
        <ele>330.83</ele>
        <time>2019-07-07T09:07:41Z</time>
      </trkpt>
      <trkpt lat="50.48604" lon="5.75161">
        <ele>328.91</ele>
        <time>2019-07-07T09:07:54Z</time>
      </trkpt>
      <trkpt lat="50.48574" lon="5.7504">
        <ele>327.47</ele>
        <time>2019-07-07T09:08:05Z</time>
      </trkpt>
      <trkpt lat="50.4857" lon="5.75029">
        <ele>326.99</ele>
        <time>2019-07-07T09:08:06Z</time>
      </trkpt>
      <trkpt lat="50.48529" lon="5.74862">
        <ele>324.1</ele>
        <time>2019-07-07T09:08:20Z</time>
      </trkpt>
      <trkpt lat="50.48504" lon="5.74758">
        <ele>320.74</ele>
        <time>2019-07-07T09:08:28Z</time>
      </trkpt>
      <trkpt lat="50.48497" lon="5.74731">
        <ele>320.26</ele>
        <time>2019-07-07T09:08:30Z</time>
      </trkpt>
      <trkpt lat="50.48472" lon="5.74664">
        <ele>316.41</ele>
        <time>2019-07-07T09:08:35Z</time>
      </trkpt>
      <trkpt lat="50.4844" lon="5.74599">
        <ele>313.53</ele>
        <time>2019-07-07T09:08:40Z</time>
      </trkpt>
      <trkpt lat="50.48407" lon="5.7453">
        <ele>310.16</ele>
        <time>2019-07-07T09:08:45Z</time>
      </trkpt>
      <trkpt lat="50.48371" lon="5.74459">
        <ele>306.8</ele>
        <time>2019-07-07T09:08:50Z</time>
      </trkpt>
      <trkpt lat="50.48349" lon="5.74416">
        <ele>304.88</ele>
        <time>2019-07-07T09:08:53Z</time>
      </trkpt>
      <trkpt lat="50.48321" lon="5.74357">
        <ele>301.03</ele>
        <time>2019-07-07T09:08:57Z</time>
      </trkpt>
      <trkpt lat="50.48313" lon="5.74343">
        <ele>301.03</ele>
        <time>2019-07-07T09:08:58Z</time>
      </trkpt>
      <trkpt lat="50.48283" lon="5.74282">
        <ele>297.67</ele>
        <time>2019-07-07T09:09:02Z</time>
      </trkpt>
      <trkpt lat="50.48275" lon="5.74267">
        <ele>297.67</ele>
        <time>2019-07-07T09:09:03Z</time>
      </trkpt>
      <trkpt lat="50.48245" lon="5.74206">
        <ele>293.82</ele>
        <time>2019-07-07T09:09:07Z</time>
      </trkpt>
      <trkpt lat="50.48229" lon="5.74176">
        <ele>293.34</ele>
        <time>2019-07-07T09:09:09Z</time>
      </trkpt>
      <trkpt lat="50.48219" lon="5.74161">
        <ele>291.9</ele>
        <time>2019-07-07T09:09:10Z</time>
      </trkpt>
      <trkpt lat="50.48211" lon="5.7415">
        <ele>290.94</ele>
        <time>2019-07-07T09:09:11Z</time>
      </trkpt>
      <trkpt lat="50.48199" lon="5.7414">
        <ele>290.46</ele>
        <time>2019-07-07T09:09:12Z</time>
      </trkpt>
      <trkpt lat="50.48189" lon="5.74133">
        <ele>289.97</ele>
        <time>2019-07-07T09:09:13Z</time>
      </trkpt>
      <trkpt lat="50.48177" lon="5.74128">
        <ele>289.01</ele>
        <time>2019-07-07T09:09:14Z</time>
      </trkpt>
      <trkpt lat="50.48165" lon="5.74126">
        <ele>288.53</ele>
        <time>2019-07-07T09:09:15Z</time>
      </trkpt>
      <trkpt lat="50.48152" lon="5.74127">
        <ele>287.57</ele>
        <time>2019-07-07T09:09:16Z</time>
      </trkpt>
      <trkpt lat="50.4814" lon="5.74129">
        <ele>287.09</ele>
        <time>2019-07-07T09:09:17Z</time>
      </trkpt>
      <trkpt lat="50.48126" lon="5.74133">
        <ele>285.65</ele>
        <time>2019-07-07T09:09:18Z</time>
      </trkpt>
      <trkpt lat="50.4809" lon="5.74142">
        <ele>284.21</ele>
        <time>2019-07-07T09:09:21Z</time>
      </trkpt>
      <trkpt lat="50.48041" lon="5.74153">
        <ele>281.32</ele>
        <time>2019-07-07T09:09:25Z</time>
      </trkpt>
      <trkpt lat="50.48028" lon="5.74152">
        <ele>280.36</ele>
        <time>2019-07-07T09:09:26Z</time>
      </trkpt>
      <trkpt lat="50.48016" lon="5.7415">
        <ele>279.88</ele>
        <time>2019-07-07T09:09:27Z</time>
      </trkpt>
      <trkpt lat="50.48003" lon="5.74146">
        <ele>278.92</ele>
        <time>2019-07-07T09:09:28Z</time>
      </trkpt>
      <trkpt lat="50.47991" lon="5.74141">
        <ele>277.96</ele>
        <time>2019-07-07T09:09:29Z</time>
      </trkpt>
      <trkpt lat="50.47932" lon="5.74112">
        <ele>274.11</ele>
        <time>2019-07-07T09:09:34Z</time>
      </trkpt>
      <trkpt lat="50.47907" lon="5.74104">
        <ele>273.15</ele>
        <time>2019-07-07T09:09:36Z</time>
      </trkpt>
      <trkpt lat="50.47858" lon="5.74105">
        <ele>269.79</ele>
        <time>2019-07-07T09:09:40Z</time>
      </trkpt>
      <trkpt lat="50.47822" lon="5.74111">
        <ele>268.35</ele>
        <time>2019-07-07T09:09:43Z</time>
      </trkpt>
      <trkpt lat="50.47785" lon="5.74117">
        <ele>266.9</ele>
        <time>2019-07-07T09:09:46Z</time>
      </trkpt>
      <trkpt lat="50.47737" lon="5.74115">
        <ele>263.54</ele>
        <time>2019-07-07T09:09:50Z</time>
      </trkpt>
      <trkpt lat="50.47725" lon="5.74112">
        <ele>263.54</ele>
        <time>2019-07-07T09:09:51Z</time>
      </trkpt>
      <trkpt lat="50.47688" lon="5.74106">
        <ele>261.62</ele>
        <time>2019-07-07T09:09:54Z</time>
      </trkpt>
      <trkpt lat="50.4764" lon="5.74098">
        <ele>258.73</ele>
        <time>2019-07-07T09:09:58Z</time>
      </trkpt>
      <trkpt lat="50.47579" lon="5.74086">
        <ele>255.37</ele>
        <time>2019-07-07T09:10:03Z</time>
      </trkpt>
      <trkpt lat="50.47521" lon="5.74056">
        <ele>251.52</ele>
        <time>2019-07-07T09:10:08Z</time>
      </trkpt>
      <trkpt lat="50.47465" lon="5.7402">
        <ele>248.16</ele>
        <time>2019-07-07T09:10:13Z</time>
      </trkpt>
      <trkpt lat="50.47454" lon="5.74012">
        <ele>247.68</ele>
        <time>2019-07-07T09:10:14Z</time>
      </trkpt>
      <trkpt lat="50.47444" lon="5.74002">
        <ele>246.72</ele>
        <time>2019-07-07T09:10:15Z</time>
      </trkpt>
      <trkpt lat="50.47435" lon="5.73989">
        <ele>246.23</ele>
        <time>2019-07-07T09:10:16Z</time>
      </trkpt>
      <trkpt lat="50.47426" lon="5.73975">
        <ele>245.75</ele>
        <time>2019-07-07T09:10:17Z</time>
      </trkpt>
      <trkpt lat="50.4742" lon="5.73959">
        <ele>244.79</ele>
        <time>2019-07-07T09:10:18Z</time>
      </trkpt>
      <trkpt lat="50.47414" lon="5.73941">
        <ele>243.83</ele>
        <time>2019-07-07T09:10:19Z</time>
      </trkpt>
      <trkpt lat="50.4741" lon="5.73923">
        <ele>243.83</ele>
        <time>2019-07-07T09:10:20Z</time>
      </trkpt>
      <trkpt lat="50.47408" lon="5.73904">
        <ele>242.87</ele>
        <time>2019-07-07T09:10:21Z</time>
      </trkpt>
      <trkpt lat="50.47407" lon="5.73885">
        <ele>241.91</ele>
        <time>2019-07-07T09:10:22Z</time>
      </trkpt>
      <trkpt lat="50.47408" lon="5.73866">
        <ele>241.43</ele>
        <time>2019-07-07T09:10:23Z</time>
      </trkpt>
      <trkpt lat="50.4741" lon="5.73847">
        <ele>240.47</ele>
        <time>2019-07-07T09:10:24Z</time>
      </trkpt>
      <trkpt lat="50.47414" lon="5.73828">
        <ele>239.99</ele>
        <time>2019-07-07T09:10:25Z</time>
      </trkpt>
      <trkpt lat="50.47419" lon="5.7381">
        <ele>238.54</ele>
        <time>2019-07-07T09:10:26Z</time>
      </trkpt>
      <trkpt lat="50.47447" lon="5.73724">
        <ele>235.18</ele>
        <time>2019-07-07T09:10:31Z</time>
      </trkpt>
      <trkpt lat="50.47463" lon="5.7367">
        <ele>233.26</ele>
        <time>2019-07-07T09:10:34Z</time>
      </trkpt>
      <trkpt lat="50.47485" lon="5.73598">
        <ele>229.41</ele>
        <time>2019-07-07T09:10:38Z</time>
      </trkpt>
      <trkpt lat="50.47512" lon="5.73508">
        <ele>225.57</ele>
        <time>2019-07-07T09:10:43Z</time>
      </trkpt>
      <trkpt lat="50.47534" lon="5.73435">
        <ele>222.2</ele>
        <time>2019-07-07T09:10:47Z</time>
      </trkpt>
      <trkpt lat="50.47555" lon="5.73361">
        <ele>219.32</ele>
        <time>2019-07-07T09:10:51Z</time>
      </trkpt>
      <trkpt lat="50.47571" lon="5.73264">
        <ele>215.95</ele>
        <time>2019-07-07T09:10:56Z</time>
      </trkpt>
      <trkpt lat="50.47576" lon="5.73186">
        <ele>212.59</ele>
        <time>2019-07-07T09:11:00Z</time>
      </trkpt>
      <trkpt lat="50.47576" lon="5.73127">
        <ele>210.67</ele>
        <time>2019-07-07T09:11:03Z</time>
      </trkpt>
      <trkpt lat="50.47576" lon="5.73088">
        <ele>208.74</ele>
        <time>2019-07-07T09:11:05Z</time>
      </trkpt>
      <trkpt lat="50.47576" lon="5.73011">
        <ele>205.38</ele>
        <time>2019-07-07T09:11:09Z</time>
      </trkpt>
      <trkpt lat="50.47577" lon="5.7293">
        <ele>202.01</ele>
        <time>2019-07-07T09:11:13Z</time>
      </trkpt>
      <trkpt lat="50.47577" lon="5.72847">
        <ele>198.65</ele>
        <time>2019-07-07T09:11:17Z</time>
      </trkpt>
      <trkpt lat="50.47577" lon="5.7276">
        <ele>194.8</ele>
        <time>2019-07-07T09:11:21Z</time>
      </trkpt>
      <trkpt lat="50.47578" lon="5.72671">
        <ele>190.96</ele>
        <time>2019-07-07T09:11:25Z</time>
      </trkpt>
      <trkpt lat="50.4758" lon="5.72649">
        <ele>190</ele>
        <time>2019-07-07T09:11:26Z</time>
      </trkpt>
      <trkpt lat="50.47583" lon="5.72628">
        <ele>189.04</ele>
        <time>2019-07-07T09:11:27Z</time>
      </trkpt>
      <trkpt lat="50.47588" lon="5.72608">
        <ele>188.08</ele>
        <time>2019-07-07T09:11:28Z</time>
      </trkpt>
      <trkpt lat="50.47611" lon="5.72506">
        <ele>184.71</ele>
        <time>2019-07-07T09:11:33Z</time>
      </trkpt>
      <trkpt lat="50.47622" lon="5.72424">
        <ele>181.83</ele>
        <time>2019-07-07T09:11:37Z</time>
      </trkpt>
      <trkpt lat="50.47631" lon="5.7234">
        <ele>177.98</ele>
        <time>2019-07-07T09:11:41Z</time>
      </trkpt>
      <trkpt lat="50.47641" lon="5.72236">
        <ele>174.62</ele>
        <time>2019-07-07T09:11:46Z</time>
      </trkpt>
      <trkpt lat="50.47645" lon="5.72153">
        <ele>171.25</ele>
        <time>2019-07-07T09:11:50Z</time>
      </trkpt>
      <trkpt lat="50.47644" lon="5.72071">
        <ele>167.89</ele>
        <time>2019-07-07T09:11:54Z</time>
      </trkpt>
      <trkpt lat="50.4764" lon="5.7199">
        <ele>164.52</ele>
        <time>2019-07-07T09:11:58Z</time>
      </trkpt>
      <trkpt lat="50.47631" lon="5.7193">
        <ele>161.64</ele>
        <time>2019-07-07T09:12:01Z</time>
      </trkpt>
      <trkpt lat="50.47628" lon="5.7191">
        <ele>161.16</ele>
        <time>2019-07-07T09:12:02Z</time>
      </trkpt>
      <trkpt lat="50.47614" lon="5.71834">
        <ele>157.79</ele>
        <time>2019-07-07T09:12:06Z</time>
      </trkpt>
      <trkpt lat="50.47604" lon="5.71752">
        <ele>154.43</ele>
        <time>2019-07-07T09:12:10Z</time>
      </trkpt>
      <trkpt lat="50.476" lon="5.71682">
        <ele>151.54</ele>
        <time>2019-07-07T09:12:14Z</time>
      </trkpt>
      <trkpt lat="50.476" lon="5.71666">
        <ele>151.54</ele>
        <time>2019-07-07T09:12:15Z</time>
      </trkpt>
      <trkpt lat="50.476" lon="5.71601">
        <ele>148.66</ele>
        <time>2019-07-07T09:12:19Z</time>
      </trkpt>
      <trkpt lat="50.47604" lon="5.7157">
        <ele>147.22</ele>
        <time>2019-07-07T09:12:21Z</time>
      </trkpt>
      <trkpt lat="50.47607" lon="5.71553">
        <ele>146.26</ele>
        <time>2019-07-07T09:12:22Z</time>
      </trkpt>
      <trkpt lat="50.4762" lon="5.71504">
        <ele>144.34</ele>
        <time>2019-07-07T09:12:25Z</time>
      </trkpt>
      <trkpt lat="50.47633" lon="5.71474">
        <ele>142.41</ele>
        <time>2019-07-07T09:12:27Z</time>
      </trkpt>
      <trkpt lat="50.47639" lon="5.71463">
        <ele>142.41</ele>
        <time>2019-07-07T09:12:28Z</time>
      </trkpt>
      <trkpt lat="50.47648" lon="5.71452">
        <ele>141.93</ele>
        <time>2019-07-07T09:12:29Z</time>
      </trkpt>
      <trkpt lat="50.47656" lon="5.71441">
        <ele>141.93</ele>
        <time>2019-07-07T09:12:30Z</time>
      </trkpt>
      <trkpt lat="50.47665" lon="5.71431">
        <ele>141.45</ele>
        <time>2019-07-07T09:12:31Z</time>
      </trkpt>
      <trkpt lat="50.47762" lon="5.71325">
        <ele>138.09</ele>
        <time>2019-07-07T09:12:43Z</time>
      </trkpt>
      <trkpt lat="50.47814" lon="5.71281">
        <ele>135.68</ele>
        <time>2019-07-07T09:12:50Z</time>
      </trkpt>
      <trkpt lat="50.47821" lon="5.71277">
        <ele>135.68</ele>
        <time>2019-07-07T09:12:51Z</time>
      </trkpt>
      <trkpt lat="50.47908" lon="5.71233">
        <ele>134.24</ele>
        <time>2019-07-07T09:13:05Z</time>
      </trkpt>
      <trkpt lat="50.47959" lon="5.712">
        <ele>132.32</ele>
        <time>2019-07-07T09:13:16Z</time>
      </trkpt>
      <trkpt lat="50.47977" lon="5.71189">
        <ele>130.88</ele>
        <time>2019-07-07T09:13:26Z</time>
      </trkpt>
      <trkpt lat="50.4798" lon="5.71185">
        <ele>131.36</ele>
        <time>2019-07-07T09:13:39Z</time>
      </trkpt>
      <trkpt lat="50.47984" lon="5.71178">
        <ele>131.36</ele>
        <time>2019-07-07T09:13:49Z</time>
      </trkpt>
      <trkpt lat="50.47985" lon="5.71173">
        <ele>131.36</ele>
        <time>2019-07-07T09:13:50Z</time>
      </trkpt>
      <trkpt lat="50.47985" lon="5.71168">
        <ele>131.36</ele>
        <time>2019-07-07T09:13:51Z</time>
      </trkpt>
      <trkpt lat="50.47983" lon="5.71116">
        <ele>130.88</ele>
        <time>2019-07-07T09:13:57Z</time>
      </trkpt>
      <trkpt lat="50.47969" lon="5.70979">
        <ele>130.88</ele>
        <time>2019-07-07T09:14:13Z</time>
      </trkpt>
      <trkpt lat="50.47978" lon="5.70847">
        <ele>128.95</ele>
        <time>2019-07-07T09:14:25Z</time>
      </trkpt>
      <trkpt lat="50.48008" lon="5.70676">
        <ele>128.95</ele>
        <time>2019-07-07T09:14:43Z</time>
      </trkpt>
      <trkpt lat="50.4801" lon="5.70668">
        <ele>128.95</ele>
        <time>2019-07-07T09:14:44Z</time>
      </trkpt>
      <trkpt lat="50.48014" lon="5.70662">
        <ele>128.95</ele>
        <time>2019-07-07T09:14:45Z</time>
      </trkpt>
      <trkpt lat="50.48018" lon="5.70658">
        <ele>128.95</ele>
        <time>2019-07-07T09:14:46Z</time>
      </trkpt>
      <trkpt lat="50.48023" lon="5.70658">
        <ele>128.95</ele>
        <time>2019-07-07T09:14:47Z</time>
      </trkpt>
      <trkpt lat="50.48028" lon="5.7066">
        <ele>128.95</ele>
        <time>2019-07-07T09:14:48Z</time>
      </trkpt>
      <trkpt lat="50.48033" lon="5.70663">
        <ele>128.95</ele>
        <time>2019-07-07T09:14:49Z</time>
      </trkpt>
      <trkpt lat="50.48036" lon="5.70667">
        <ele>128.95</ele>
        <time>2019-07-07T09:14:50Z</time>
      </trkpt>
      <trkpt lat="50.4804" lon="5.70671">
        <ele>128.95</ele>
        <time>2019-07-07T09:14:51Z</time>
      </trkpt>
      <trkpt lat="50.48044" lon="5.70675">
        <ele>129.92</ele>
        <time>2019-07-07T09:14:52Z</time>
      </trkpt>
      <trkpt lat="50.48047" lon="5.7068">
        <ele>129.92</ele>
        <time>2019-07-07T09:14:53Z</time>
      </trkpt>
      <trkpt lat="50.48051" lon="5.70686">
        <ele>129.92</ele>
        <time>2019-07-07T09:14:54Z</time>
      </trkpt>
      <trkpt lat="50.48058" lon="5.70697">
        <ele>129.92</ele>
        <time>2019-07-07T09:14:56Z</time>
      </trkpt>
      <trkpt lat="50.48076" lon="5.70711">
        <ele>130.4</ele>
        <time>2019-07-07T09:15:00Z</time>
      </trkpt>
      <trkpt lat="50.48134" lon="5.70746">
        <ele>130.88</ele>
        <time>2019-07-07T09:15:12Z</time>
      </trkpt>
      <trkpt lat="50.48138" lon="5.70748">
        <ele>131.84</ele>
        <time>2019-07-07T09:15:13Z</time>
      </trkpt>
      <trkpt lat="50.48176" lon="5.70768">
        <ele>131.84</ele>
        <time>2019-07-07T09:15:21Z</time>
      </trkpt>
      <trkpt lat="50.48187" lon="5.70767">
        <ele>131.84</ele>
        <time>2019-07-07T09:15:24Z</time>
      </trkpt>
      <trkpt lat="50.48189" lon="5.70762">
        <ele>131.84</ele>
        <time>2019-07-07T09:15:25Z</time>
      </trkpt>
      <trkpt lat="50.48195" lon="5.70739">
        <ele>130.4</ele>
        <time>2019-07-07T09:15:29Z</time>
      </trkpt>
      <trkpt lat="50.48198" lon="5.70735">
        <ele>130.4</ele>
        <time>2019-07-07T09:15:30Z</time>
      </trkpt>
      <trkpt lat="50.48202" lon="5.70732">
        <ele>130.4</ele>
        <time>2019-07-07T09:15:31Z</time>
      </trkpt>
      <trkpt lat="50.48206" lon="5.7073">
        <ele>129.92</ele>
        <time>2019-07-07T09:15:32Z</time>
      </trkpt>
      <trkpt lat="50.48211" lon="5.7073">
        <ele>129.92</ele>
        <time>2019-07-07T09:15:33Z</time>
      </trkpt>
      <trkpt lat="50.48216" lon="5.70728">
        <ele>129.92</ele>
        <time>2019-07-07T09:15:34Z</time>
      </trkpt>
      <trkpt lat="50.48235" lon="5.70722">
        <ele>129.92</ele>
        <time>2019-07-07T09:15:38Z</time>
      </trkpt>
      <trkpt lat="50.48239" lon="5.70722">
        <ele>129.92</ele>
        <time>2019-07-07T09:15:39Z</time>
      </trkpt>
      <trkpt lat="50.48261" lon="5.70718">
        <ele>131.84</ele>
        <time>2019-07-07T09:15:44Z</time>
      </trkpt>
      <trkpt lat="50.48313" lon="5.70715">
        <ele>134.72</ele>
        <time>2019-07-07T09:15:57Z</time>
      </trkpt>
      <trkpt lat="50.48366" lon="5.7071">
        <ele>137.13</ele>
        <time>2019-07-07T09:16:11Z</time>
      </trkpt>
      <trkpt lat="50.48398" lon="5.70706">
        <ele>137.61</ele>
        <time>2019-07-07T09:16:19Z</time>
      </trkpt>
      <trkpt lat="50.48402" lon="5.70703">
        <ele>137.61</ele>
        <time>2019-07-07T09:16:20Z</time>
      </trkpt>
      <trkpt lat="50.48406" lon="5.707">
        <ele>137.61</ele>
        <time>2019-07-07T09:16:21Z</time>
      </trkpt>
      <trkpt lat="50.4841" lon="5.70696">
        <ele>138.09</ele>
        <time>2019-07-07T09:16:22Z</time>
      </trkpt>
      <trkpt lat="50.48412" lon="5.7069">
        <ele>138.09</ele>
        <time>2019-07-07T09:16:23Z</time>
      </trkpt>
      <trkpt lat="50.48412" lon="5.70683">
        <ele>138.09</ele>
        <time>2019-07-07T09:16:24Z</time>
      </trkpt>
      <trkpt lat="50.48411" lon="5.70676">
        <ele>138.09</ele>
        <time>2019-07-07T09:16:25Z</time>
      </trkpt>
      <trkpt lat="50.48409" lon="5.7067">
        <ele>138.09</ele>
        <time>2019-07-07T09:16:26Z</time>
      </trkpt>
      <trkpt lat="50.48406" lon="5.70664">
        <ele>138.09</ele>
        <time>2019-07-07T09:16:27Z</time>
      </trkpt>
      <trkpt lat="50.48403" lon="5.70658">
        <ele>138.09</ele>
        <time>2019-07-07T09:16:28Z</time>
      </trkpt>
      <trkpt lat="50.48372" lon="5.70605">
        <ele>136.64</ele>
        <time>2019-07-07T09:16:36Z</time>
      </trkpt>
      <trkpt lat="50.48338" lon="5.70532">
        <ele>134.24</ele>
        <time>2019-07-07T09:16:44Z</time>
      </trkpt>
      <trkpt lat="50.48326" lon="5.70483">
        <ele>132.32</ele>
        <time>2019-07-07T09:16:49Z</time>
      </trkpt>
      <trkpt lat="50.48323" lon="5.70463">
        <ele>132.8</ele>
        <time>2019-07-07T09:16:51Z</time>
      </trkpt>
      <trkpt lat="50.48318" lon="5.70407">
        <ele>131.36</ele>
        <time>2019-07-07T09:16:57Z</time>
      </trkpt>
      <trkpt lat="50.4832" lon="5.70398">
        <ele>131.36</ele>
        <time>2019-07-07T09:16:58Z</time>
      </trkpt>
      <trkpt lat="50.48322" lon="5.70391">
        <ele>131.36</ele>
        <time>2019-07-07T09:16:59Z</time>
      </trkpt>
      <trkpt lat="50.48326" lon="5.70385">
        <ele>131.36</ele>
        <time>2019-07-07T09:17:00Z</time>
      </trkpt>
      <trkpt lat="50.48331" lon="5.7038">
        <ele>131.36</ele>
        <time>2019-07-07T09:17:01Z</time>
      </trkpt>
      <trkpt lat="50.48335" lon="5.70376">
        <ele>131.36</ele>
        <time>2019-07-07T09:17:02Z</time>
      </trkpt>
      <trkpt lat="50.4835" lon="5.70365">
        <ele>133.76</ele>
        <time>2019-07-07T09:17:06Z</time>
      </trkpt>
      <trkpt lat="50.48379" lon="5.70341">
        <ele>137.13</ele>
        <time>2019-07-07T09:17:15Z</time>
      </trkpt>
      <trkpt lat="50.48409" lon="5.70317">
        <ele>140.49</ele>
        <time>2019-07-07T09:17:26Z</time>
      </trkpt>
      <trkpt lat="50.4845" lon="5.70322">
        <ele>143.37</ele>
        <time>2019-07-07T09:17:40Z</time>
      </trkpt>
      <trkpt lat="50.48495" lon="5.70334">
        <ele>146.26</ele>
        <time>2019-07-07T09:17:56Z</time>
      </trkpt>
      <trkpt lat="50.48529" lon="5.70343">
        <ele>150.1</ele>
        <time>2019-07-07T09:18:08Z</time>
      </trkpt>
      <trkpt lat="50.48551" lon="5.70343">
        <ele>152.99</ele>
        <time>2019-07-07T09:18:18Z</time>
      </trkpt>
      <trkpt lat="50.48577" lon="5.70328">
        <ele>156.35</ele>
        <time>2019-07-07T09:18:30Z</time>
      </trkpt>
      <trkpt lat="50.48604" lon="5.70316">
        <ele>159.24</ele>
        <time>2019-07-07T09:18:42Z</time>
      </trkpt>
      <trkpt lat="50.48625" lon="5.70358">
        <ele>160.68</ele>
        <time>2019-07-07T09:18:55Z</time>
      </trkpt>
      <trkpt lat="50.48634" lon="5.70403">
        <ele>164.04</ele>
        <time>2019-07-07T09:19:07Z</time>
      </trkpt>
      <trkpt lat="50.48642" lon="5.70439">
        <ele>167.41</ele>
        <time>2019-07-07T09:19:18Z</time>
      </trkpt>
      <trkpt lat="50.48653" lon="5.70474">
        <ele>170.29</ele>
        <time>2019-07-07T09:19:29Z</time>
      </trkpt>
      <trkpt lat="50.48675" lon="5.70522">
        <ele>173.66</ele>
        <time>2019-07-07T09:19:45Z</time>
      </trkpt>
      <trkpt lat="50.48699" lon="5.70564">
        <ele>177.02</ele>
        <time>2019-07-07T09:20:01Z</time>
      </trkpt>
      <trkpt lat="50.48726" lon="5.70608">
        <ele>180.38</ele>
        <time>2019-07-07T09:20:17Z</time>
      </trkpt>
      <trkpt lat="50.48755" lon="5.70653">
        <ele>183.75</ele>
        <time>2019-07-07T09:20:34Z</time>
      </trkpt>
      <trkpt lat="50.48783" lon="5.70693">
        <ele>187.11</ele>
        <time>2019-07-07T09:20:48Z</time>
      </trkpt>
      <trkpt lat="50.48806" lon="5.70727">
        <ele>190.48</ele>
        <time>2019-07-07T09:21:01Z</time>
      </trkpt>
      <trkpt lat="50.48826" lon="5.70759">
        <ele>193.84</ele>
        <time>2019-07-07T09:21:14Z</time>
      </trkpt>
      <trkpt lat="50.48846" lon="5.70774">
        <ele>197.69</ele>
        <time>2019-07-07T09:21:24Z</time>
      </trkpt>
      <trkpt lat="50.48874" lon="5.70767">
        <ele>200.57</ele>
        <time>2019-07-07T09:21:36Z</time>
      </trkpt>
      <trkpt lat="50.48906" lon="5.70749">
        <ele>203.94</ele>
        <time>2019-07-07T09:21:50Z</time>
      </trkpt>
      <trkpt lat="50.4894" lon="5.70728">
        <ele>207.3</ele>
        <time>2019-07-07T09:22:05Z</time>
      </trkpt>
      <trkpt lat="50.48978" lon="5.70698">
        <ele>208.74</ele>
        <time>2019-07-07T09:22:22Z</time>
      </trkpt>
      <trkpt lat="50.49001" lon="5.70673">
        <ele>211.63</ele>
        <time>2019-07-07T09:22:34Z</time>
      </trkpt>
      <trkpt lat="50.49025" lon="5.70645">
        <ele>214.99</ele>
        <time>2019-07-07T09:22:47Z</time>
      </trkpt>
      <trkpt lat="50.49039" lon="5.70626">
        <ele>218.36</ele>
        <time>2019-07-07T09:22:56Z</time>
      </trkpt>
      <trkpt lat="50.49055" lon="5.70602">
        <ele>221.72</ele>
        <time>2019-07-07T09:23:07Z</time>
      </trkpt>
      <trkpt lat="50.49073" lon="5.70588">
        <ele>225.09</ele>
        <time>2019-07-07T09:23:16Z</time>
      </trkpt>
      <trkpt lat="50.49092" lon="5.70569">
        <ele>227.97</ele>
        <time>2019-07-07T09:23:27Z</time>
      </trkpt>
      <trkpt lat="50.491" lon="5.70543">
        <ele>231.81</ele>
        <time>2019-07-07T09:23:36Z</time>
      </trkpt>
      <trkpt lat="50.49101" lon="5.70513">
        <ele>235.18</ele>
        <time>2019-07-07T09:23:46Z</time>
      </trkpt>
      <trkpt lat="50.49099" lon="5.70491">
        <ele>238.06</ele>
        <time>2019-07-07T09:23:53Z</time>
      </trkpt>
      <trkpt lat="50.49096" lon="5.70463">
        <ele>241.91</ele>
        <time>2019-07-07T09:24:02Z</time>
      </trkpt>
      <trkpt lat="50.49091" lon="5.70436">
        <ele>244.79</ele>
        <time>2019-07-07T09:24:11Z</time>
      </trkpt>
      <trkpt lat="50.49092" lon="5.70386">
        <ele>248.16</ele>
        <time>2019-07-07T09:24:28Z</time>
      </trkpt>
      <trkpt lat="50.49097" lon="5.70347">
        <ele>251.52</ele>
        <time>2019-07-07T09:24:40Z</time>
      </trkpt>
      <trkpt lat="50.49104" lon="5.70304">
        <ele>254.89</ele>
        <time>2019-07-07T09:24:53Z</time>
      </trkpt>
      <trkpt lat="50.49113" lon="5.70256">
        <ele>257.77</ele>
        <time>2019-07-07T09:25:08Z</time>
      </trkpt>
      <trkpt lat="50.49127" lon="5.70198">
        <ele>261.14</ele>
        <time>2019-07-07T09:25:25Z</time>
      </trkpt>
      <trkpt lat="50.49147" lon="5.7017">
        <ele>264.5</ele>
        <time>2019-07-07T09:25:37Z</time>
      </trkpt>
      <trkpt lat="50.4917" lon="5.70147">
        <ele>268.35</ele>
        <time>2019-07-07T09:25:49Z</time>
      </trkpt>
      <trkpt lat="50.49189" lon="5.70125">
        <ele>271.23</ele>
        <time>2019-07-07T09:26:00Z</time>
      </trkpt>
      <trkpt lat="50.49208" lon="5.70096">
        <ele>274.59</ele>
        <time>2019-07-07T09:26:12Z</time>
      </trkpt>
      <trkpt lat="50.49219" lon="5.70063">
        <ele>278.44</ele>
        <time>2019-07-07T09:26:23Z</time>
      </trkpt>
      <trkpt lat="50.49223" lon="5.70034">
        <ele>281.32</ele>
        <time>2019-07-07T09:26:31Z</time>
      </trkpt>
      <trkpt lat="50.49226" lon="5.70005">
        <ele>284.69</ele>
        <time>2019-07-07T09:26:39Z</time>
      </trkpt>
      <trkpt lat="50.49227" lon="5.69977">
        <ele>288.05</ele>
        <time>2019-07-07T09:26:46Z</time>
      </trkpt>
      <trkpt lat="50.49225" lon="5.69923">
        <ele>290.94</ele>
        <time>2019-07-07T09:27:01Z</time>
      </trkpt>
      <trkpt lat="50.49218" lon="5.69904">
        <ele>292.38</ele>
        <time>2019-07-07T09:27:13Z</time>
      </trkpt>
      <trkpt lat="50.49219" lon="5.69901">
        <ele>292.38</ele>
        <time>2019-07-07T09:27:17Z</time>
      </trkpt>
      <trkpt lat="50.49219" lon="5.69899">
        <ele>292.38</ele>
        <time>2019-07-07T09:27:18Z</time>
      </trkpt>
      <trkpt lat="50.49219" lon="5.69898">
        <ele>292.38</ele>
        <time>2019-07-07T09:27:19Z</time>
      </trkpt>
      <trkpt lat="50.49218" lon="5.69898">
        <ele>292.86</ele>
        <time>2019-07-07T09:27:33Z</time>
      </trkpt>
      <trkpt lat="50.49218" lon="5.69896">
        <ele>292.86</ele>
        <time>2019-07-07T09:27:52Z</time>
      </trkpt>
      <trkpt lat="50.49217" lon="5.69895">
        <ele>292.86</ele>
        <time>2019-07-07T09:28:30Z</time>
      </trkpt>
      <trkpt lat="50.49216" lon="5.69894">
        <ele>292.86</ele>
        <time>2019-07-07T09:29:09Z</time>
      </trkpt>
      <trkpt lat="50.49217" lon="5.69894">
        <ele>291.9</ele>
        <time>2019-07-07T09:29:42Z</time>
      </trkpt>
      <trkpt lat="50.49217" lon="5.69894">
        <ele>291.9</ele>
        <time>2019-07-07T09:29:46Z</time>
      </trkpt>
      <trkpt lat="50.49215" lon="5.69898">
        <ele>291.9</ele>
        <time>2019-07-07T09:30:00Z</time>
      </trkpt>
      <trkpt lat="50.49216" lon="5.699">
        <ele>291.9</ele>
        <time>2019-07-07T09:30:20Z</time>
      </trkpt>
      <trkpt lat="50.49217" lon="5.69898">
        <ele>291.9</ele>
        <time>2019-07-07T09:30:37Z</time>
      </trkpt>
      <trkpt lat="50.49217" lon="5.69899">
        <ele>291.9</ele>
        <time>2019-07-07T09:30:53Z</time>
      </trkpt>
      <trkpt lat="50.49217" lon="5.699">
        <ele>291.9</ele>
        <time>2019-07-07T09:31:23Z</time>
      </trkpt>
      <trkpt lat="50.49215" lon="5.69899">
        <ele>291.9</ele>
        <time>2019-07-07T09:31:54Z</time>
      </trkpt>
      <trkpt lat="50.49213" lon="5.699">
        <ele>292.38</ele>
        <time>2019-07-07T09:32:24Z</time>
      </trkpt>
      <trkpt lat="50.49216" lon="5.69899">
        <ele>292.38</ele>
        <time>2019-07-07T09:32:35Z</time>
      </trkpt>
      <trkpt lat="50.49217" lon="5.69892">
        <ele>292.38</ele>
        <time>2019-07-07T09:32:48Z</time>
      </trkpt>
      <trkpt lat="50.49215" lon="5.69889">
        <ele>292.86</ele>
        <time>2019-07-07T09:33:34Z</time>
      </trkpt>
      <trkpt lat="50.49215" lon="5.6989">
        <ele>292.86</ele>
        <time>2019-07-07T09:34:05Z</time>
      </trkpt>
      <trkpt lat="50.49216" lon="5.6989">
        <ele>292.86</ele>
        <time>2019-07-07T09:34:38Z</time>
      </trkpt>
      <trkpt lat="50.49217" lon="5.69891">
        <ele>293.34</ele>
        <time>2019-07-07T09:35:31Z</time>
      </trkpt>
      <trkpt lat="50.49218" lon="5.69894">
        <ele>293.34</ele>
        <time>2019-07-07T09:36:03Z</time>
      </trkpt>
      <trkpt lat="50.4922" lon="5.69895">
        <ele>293.34</ele>
        <time>2019-07-07T09:36:39Z</time>
      </trkpt>
      <trkpt lat="50.49219" lon="5.69897">
        <ele>293.82</ele>
        <time>2019-07-07T09:37:14Z</time>
      </trkpt>
      <trkpt lat="50.49214" lon="5.69897">
        <ele>293.82</ele>
        <time>2019-07-07T09:37:39Z</time>
      </trkpt>
      <trkpt lat="50.49212" lon="5.69897">
        <ele>293.82</ele>
        <time>2019-07-07T09:37:59Z</time>
      </trkpt>
      <trkpt lat="50.49213" lon="5.69898">
        <ele>293.82</ele>
        <time>2019-07-07T09:38:13Z</time>
      </trkpt>
      <trkpt lat="50.49212" lon="5.69897">
        <ele>293.82</ele>
        <time>2019-07-07T09:38:14Z</time>
      </trkpt>
      <trkpt lat="50.49211" lon="5.69896">
        <ele>293.82</ele>
        <time>2019-07-07T09:38:15Z</time>
      </trkpt>
      <trkpt lat="50.4921" lon="5.69895">
        <ele>293.82</ele>
        <time>2019-07-07T09:38:16Z</time>
      </trkpt>
      <trkpt lat="50.49188" lon="5.69862">
        <ele>293.82</ele>
        <time>2019-07-07T09:38:27Z</time>
      </trkpt>
      <trkpt lat="50.4917" lon="5.69842">
        <ele>293.82</ele>
        <time>2019-07-07T09:38:32Z</time>
      </trkpt>
      <trkpt lat="50.49162" lon="5.69832">
        <ele>294.78</ele>
        <time>2019-07-07T09:38:34Z</time>
      </trkpt>
      <trkpt lat="50.4912" lon="5.69768">
        <ele>297.67</ele>
        <time>2019-07-07T09:38:47Z</time>
      </trkpt>
      <trkpt lat="50.49108" lon="5.69753">
        <ele>299.59</ele>
        <time>2019-07-07T09:38:50Z</time>
      </trkpt>
      <trkpt lat="50.49104" lon="5.69747">
        <ele>300.55</ele>
        <time>2019-07-07T09:38:51Z</time>
      </trkpt>
      <trkpt lat="50.49101" lon="5.69742">
        <ele>300.55</ele>
        <time>2019-07-07T09:38:52Z</time>
      </trkpt>
      <trkpt lat="50.49091" lon="5.69712">
        <ele>301.99</ele>
        <time>2019-07-07T09:38:57Z</time>
      </trkpt>
      <trkpt lat="50.49088" lon="5.69706">
        <ele>301.99</ele>
        <time>2019-07-07T09:38:58Z</time>
      </trkpt>
      <trkpt lat="50.49085" lon="5.69701">
        <ele>301.99</ele>
        <time>2019-07-07T09:38:59Z</time>
      </trkpt>
      <trkpt lat="50.49058" lon="5.69655">
        <ele>305.36</ele>
        <time>2019-07-07T09:39:09Z</time>
      </trkpt>
      <trkpt lat="50.49055" lon="5.69651">
        <ele>305.36</ele>
        <time>2019-07-07T09:39:10Z</time>
      </trkpt>
      <trkpt lat="50.49046" lon="5.69637">
        <ele>305.84</ele>
        <time>2019-07-07T09:39:13Z</time>
      </trkpt>
      <trkpt lat="50.49043" lon="5.69633">
        <ele>306.32</ele>
        <time>2019-07-07T09:39:14Z</time>
      </trkpt>
      <trkpt lat="50.49009" lon="5.69594">
        <ele>309.68</ele>
        <time>2019-07-07T09:39:24Z</time>
      </trkpt>
      <trkpt lat="50.48976" lon="5.69563">
        <ele>312.57</ele>
        <time>2019-07-07T09:39:33Z</time>
      </trkpt>
      <trkpt lat="50.48961" lon="5.69554">
        <ele>313.05</ele>
        <time>2019-07-07T09:39:37Z</time>
      </trkpt>
      <trkpt lat="50.48919" lon="5.6952">
        <ele>314.49</ele>
        <time>2019-07-07T09:39:49Z</time>
      </trkpt>
      <trkpt lat="50.48915" lon="5.69517">
        <ele>314.49</ele>
        <time>2019-07-07T09:39:50Z</time>
      </trkpt>
      <trkpt lat="50.48912" lon="5.69514">
        <ele>314.49</ele>
        <time>2019-07-07T09:39:51Z</time>
      </trkpt>
      <trkpt lat="50.48908" lon="5.6951">
        <ele>314.49</ele>
        <time>2019-07-07T09:39:52Z</time>
      </trkpt>
      <trkpt lat="50.48904" lon="5.69507">
        <ele>314.01</ele>
        <time>2019-07-07T09:39:53Z</time>
      </trkpt>
      <trkpt lat="50.48897" lon="5.69501">
        <ele>314.01</ele>
        <time>2019-07-07T09:39:55Z</time>
      </trkpt>
      <trkpt lat="50.48836" lon="5.69436">
        <ele>314.01</ele>
        <time>2019-07-07T09:40:10Z</time>
      </trkpt>
      <trkpt lat="50.48785" lon="5.69385">
        <ele>312.09</ele>
        <time>2019-07-07T09:40:21Z</time>
      </trkpt>
      <trkpt lat="50.4878" lon="5.6938">
        <ele>311.6</ele>
        <time>2019-07-07T09:40:22Z</time>
      </trkpt>
      <trkpt lat="50.48691" lon="5.69306">
        <ele>308.72</ele>
        <time>2019-07-07T09:40:37Z</time>
      </trkpt>
      <trkpt lat="50.48644" lon="5.69267">
        <ele>305.84</ele>
        <time>2019-07-07T09:40:44Z</time>
      </trkpt>
      <trkpt lat="50.48639" lon="5.69261">
        <ele>305.84</ele>
        <time>2019-07-07T09:40:45Z</time>
      </trkpt>
      <trkpt lat="50.48634" lon="5.69255">
        <ele>305.36</ele>
        <time>2019-07-07T09:40:46Z</time>
      </trkpt>
      <trkpt lat="50.4863" lon="5.69249">
        <ele>305.36</ele>
        <time>2019-07-07T09:40:47Z</time>
      </trkpt>
      <trkpt lat="50.48628" lon="5.69244">
        <ele>305.36</ele>
        <time>2019-07-07T09:40:48Z</time>
      </trkpt>
      <trkpt lat="50.48626" lon="5.69239">
        <ele>305.36</ele>
        <time>2019-07-07T09:40:49Z</time>
      </trkpt>
      <trkpt lat="50.48626" lon="5.69233">
        <ele>305.36</ele>
        <time>2019-07-07T09:40:50Z</time>
      </trkpt>
      <trkpt lat="50.48627" lon="5.69228">
        <ele>305.36</ele>
        <time>2019-07-07T09:40:51Z</time>
      </trkpt>
      <trkpt lat="50.48628" lon="5.69223">
        <ele>304.39</ele>
        <time>2019-07-07T09:40:52Z</time>
      </trkpt>
      <trkpt lat="50.4863" lon="5.69219">
        <ele>304.39</ele>
        <time>2019-07-07T09:40:53Z</time>
      </trkpt>
      <trkpt lat="50.48632" lon="5.69216">
        <ele>304.39</ele>
        <time>2019-07-07T09:40:54Z</time>
      </trkpt>
      <trkpt lat="50.48634" lon="5.69213">
        <ele>304.39</ele>
        <time>2019-07-07T09:40:55Z</time>
      </trkpt>
      <trkpt lat="50.48668" lon="5.69163">
        <ele>304.88</ele>
        <time>2019-07-07T09:41:08Z</time>
      </trkpt>
      <trkpt lat="50.48708" lon="5.69102">
        <ele>304.39</ele>
        <time>2019-07-07T09:41:22Z</time>
      </trkpt>
      <trkpt lat="50.48718" lon="5.69089">
        <ele>303.91</ele>
        <time>2019-07-07T09:41:25Z</time>
      </trkpt>
      <trkpt lat="50.48784" lon="5.68986">
        <ele>301.03</ele>
        <time>2019-07-07T09:41:42Z</time>
      </trkpt>
      <trkpt lat="50.48837" lon="5.68902">
        <ele>298.15</ele>
        <time>2019-07-07T09:41:55Z</time>
      </trkpt>
      <trkpt lat="50.48845" lon="5.68889">
        <ele>297.67</ele>
        <time>2019-07-07T09:41:57Z</time>
      </trkpt>
      <trkpt lat="50.48848" lon="5.68883">
        <ele>297.67</ele>
        <time>2019-07-07T09:41:58Z</time>
      </trkpt>
      <trkpt lat="50.48851" lon="5.68877">
        <ele>297.67</ele>
        <time>2019-07-07T09:41:59Z</time>
      </trkpt>
      <trkpt lat="50.48861" lon="5.68863">
        <ele>296.22</ele>
        <time>2019-07-07T09:42:08Z</time>
      </trkpt>
      <trkpt lat="50.48873" lon="5.68847">
        <ele>295.74</ele>
        <time>2019-07-07T09:42:20Z</time>
      </trkpt>
      <trkpt lat="50.48889" lon="5.68826">
        <ele>293.82</ele>
        <time>2019-07-07T09:42:26Z</time>
      </trkpt>
      <trkpt lat="50.48897" lon="5.68817">
        <ele>293.82</ele>
        <time>2019-07-07T09:42:28Z</time>
      </trkpt>
      <trkpt lat="50.48901" lon="5.68811">
        <ele>292.86</ele>
        <time>2019-07-07T09:42:29Z</time>
      </trkpt>
      <trkpt lat="50.48936" lon="5.68751">
        <ele>291.9</ele>
        <time>2019-07-07T09:42:37Z</time>
      </trkpt>
      <trkpt lat="50.4894" lon="5.68742">
        <ele>291.9</ele>
        <time>2019-07-07T09:42:38Z</time>
      </trkpt>
      <trkpt lat="50.48972" lon="5.68653">
        <ele>293.82</ele>
        <time>2019-07-07T09:42:48Z</time>
      </trkpt>
      <trkpt lat="50.48997" lon="5.68571">
        <ele>297.18</ele>
        <time>2019-07-07T09:43:01Z</time>
      </trkpt>
      <trkpt lat="50.49021" lon="5.6849">
        <ele>300.07</ele>
        <time>2019-07-07T09:43:16Z</time>
      </trkpt>
      <trkpt lat="50.49046" lon="5.68412">
        <ele>303.43</ele>
        <time>2019-07-07T09:43:31Z</time>
      </trkpt>
      <trkpt lat="50.49067" lon="5.68349">
        <ele>305.84</ele>
        <time>2019-07-07T09:43:43Z</time>
      </trkpt>
      <trkpt lat="50.49089" lon="5.68306">
        <ele>306.8</ele>
        <time>2019-07-07T09:43:53Z</time>
      </trkpt>
      <trkpt lat="50.49093" lon="5.68282">
        <ele>306.8</ele>
        <time>2019-07-07T09:43:56Z</time>
      </trkpt>
      <trkpt lat="50.49099" lon="5.68262">
        <ele>306.8</ele>
        <time>2019-07-07T09:43:59Z</time>
      </trkpt>
      <trkpt lat="50.49101" lon="5.68254">
        <ele>306.8</ele>
        <time>2019-07-07T09:44:00Z</time>
      </trkpt>
      <trkpt lat="50.49124" lon="5.6819">
        <ele>307.76</ele>
        <time>2019-07-07T09:44:09Z</time>
      </trkpt>
      <trkpt lat="50.49145" lon="5.68157">
        <ele>307.76</ele>
        <time>2019-07-07T09:44:15Z</time>
      </trkpt>
      <trkpt lat="50.49157" lon="5.68121">
        <ele>308.24</ele>
        <time>2019-07-07T09:44:19Z</time>
      </trkpt>
      <trkpt lat="50.49177" lon="5.68083">
        <ele>308.72</ele>
        <time>2019-07-07T09:44:24Z</time>
      </trkpt>
      <trkpt lat="50.49223" lon="5.68002">
        <ele>309.2</ele>
        <time>2019-07-07T09:44:36Z</time>
      </trkpt>
      <trkpt lat="50.49227" lon="5.67995">
        <ele>309.2</ele>
        <time>2019-07-07T09:44:37Z</time>
      </trkpt>
      <trkpt lat="50.49278" lon="5.67893">
        <ele>309.2</ele>
        <time>2019-07-07T09:44:51Z</time>
      </trkpt>
      <trkpt lat="50.49279" lon="5.67885">
        <ele>309.2</ele>
        <time>2019-07-07T09:44:52Z</time>
      </trkpt>
      <trkpt lat="50.4928" lon="5.67875">
        <ele>309.2</ele>
        <time>2019-07-07T09:44:53Z</time>
      </trkpt>
      <trkpt lat="50.4928" lon="5.67865">
        <ele>309.2</ele>
        <time>2019-07-07T09:44:54Z</time>
      </trkpt>
      <trkpt lat="50.4928" lon="5.67856">
        <ele>309.2</ele>
        <time>2019-07-07T09:44:55Z</time>
      </trkpt>
      <trkpt lat="50.49279" lon="5.67846">
        <ele>309.2</ele>
        <time>2019-07-07T09:44:56Z</time>
      </trkpt>
      <trkpt lat="50.49276" lon="5.67766">
        <ele>307.76</ele>
        <time>2019-07-07T09:45:04Z</time>
      </trkpt>
      <trkpt lat="50.49278" lon="5.67614">
        <ele>306.32</ele>
        <time>2019-07-07T09:45:19Z</time>
      </trkpt>
      <trkpt lat="50.49288" lon="5.67447">
        <ele>304.88</ele>
        <time>2019-07-07T09:45:35Z</time>
      </trkpt>
      <trkpt lat="50.49288" lon="5.67437">
        <ele>304.88</ele>
        <time>2019-07-07T09:45:36Z</time>
      </trkpt>
      <trkpt lat="50.49277" lon="5.67325">
        <ele>302.95</ele>
        <time>2019-07-07T09:45:47Z</time>
      </trkpt>
      <trkpt lat="50.49278" lon="5.67314">
        <ele>302.95</ele>
        <time>2019-07-07T09:45:48Z</time>
      </trkpt>
      <trkpt lat="50.49279" lon="5.67304">
        <ele>302.47</ele>
        <time>2019-07-07T09:45:49Z</time>
      </trkpt>
      <trkpt lat="50.49295" lon="5.67203">
        <ele>299.11</ele>
        <time>2019-07-07T09:45:58Z</time>
      </trkpt>
      <trkpt lat="50.49296" lon="5.67192">
        <ele>299.11</ele>
        <time>2019-07-07T09:45:59Z</time>
      </trkpt>
      <trkpt lat="50.49299" lon="5.67158">
        <ele>296.22</ele>
        <time>2019-07-07T09:46:02Z</time>
      </trkpt>
      <trkpt lat="50.49299" lon="5.67137">
        <ele>293.82</ele>
        <time>2019-07-07T09:46:04Z</time>
      </trkpt>
      <trkpt lat="50.49301" lon="5.67121">
        <ele>293.34</ele>
        <time>2019-07-07T09:46:06Z</time>
      </trkpt>
      <trkpt lat="50.49302" lon="5.67115">
        <ele>292.86</ele>
        <time>2019-07-07T09:46:07Z</time>
      </trkpt>
      <trkpt lat="50.49304" lon="5.67111">
        <ele>292.86</ele>
        <time>2019-07-07T09:46:08Z</time>
      </trkpt>
      <trkpt lat="50.49304" lon="5.67108">
        <ele>292.86</ele>
        <time>2019-07-07T09:46:09Z</time>
      </trkpt>
      <trkpt lat="50.49304" lon="5.6711">
        <ele>292.86</ele>
        <time>2019-07-07T09:46:21Z</time>
      </trkpt>
      <trkpt lat="50.49303" lon="5.67105">
        <ele>292.38</ele>
        <time>2019-07-07T09:46:26Z</time>
      </trkpt>
      <trkpt lat="50.49302" lon="5.67101">
        <ele>292.86</ele>
        <time>2019-07-07T09:46:27Z</time>
      </trkpt>
      <trkpt lat="50.49301" lon="5.67096">
        <ele>291.9</ele>
        <time>2019-07-07T09:46:28Z</time>
      </trkpt>
      <trkpt lat="50.49299" lon="5.6709">
        <ele>291.9</ele>
        <time>2019-07-07T09:46:29Z</time>
      </trkpt>
      <trkpt lat="50.49296" lon="5.67083">
        <ele>291.42</ele>
        <time>2019-07-07T09:46:30Z</time>
      </trkpt>
      <trkpt lat="50.49263" lon="5.67021">
        <ele>288.05</ele>
        <time>2019-07-07T09:46:37Z</time>
      </trkpt>
      <trkpt lat="50.49256" lon="5.67012">
        <ele>287.57</ele>
        <time>2019-07-07T09:46:38Z</time>
      </trkpt>
      <trkpt lat="50.49249" lon="5.67004">
        <ele>287.09</ele>
        <time>2019-07-07T09:46:39Z</time>
      </trkpt>
      <trkpt lat="50.49215" lon="5.66967">
        <ele>283.73</ele>
        <time>2019-07-07T09:46:43Z</time>
      </trkpt>
      <trkpt lat="50.49173" lon="5.6691">
        <ele>279.88</ele>
        <time>2019-07-07T09:46:48Z</time>
      </trkpt>
      <trkpt lat="50.49134" lon="5.66869">
        <ele>276.52</ele>
        <time>2019-07-07T09:46:52Z</time>
      </trkpt>
      <trkpt lat="50.49091" lon="5.6683">
        <ele>273.15</ele>
        <time>2019-07-07T09:46:56Z</time>
      </trkpt>
      <trkpt lat="50.49079" lon="5.66823">
        <ele>272.19</ele>
        <time>2019-07-07T09:46:57Z</time>
      </trkpt>
      <trkpt lat="50.49067" lon="5.66819">
        <ele>271.23</ele>
        <time>2019-07-07T09:46:58Z</time>
      </trkpt>
      <trkpt lat="50.49055" lon="5.66818">
        <ele>270.27</ele>
        <time>2019-07-07T09:46:59Z</time>
      </trkpt>
      <trkpt lat="50.49043" lon="5.6682">
        <ele>269.31</ele>
        <time>2019-07-07T09:47:00Z</time>
      </trkpt>
      <trkpt lat="50.49031" lon="5.6682">
        <ele>268.35</ele>
        <time>2019-07-07T09:47:01Z</time>
      </trkpt>
      <trkpt lat="50.49019" lon="5.66817">
        <ele>267.38</ele>
        <time>2019-07-07T09:47:02Z</time>
      </trkpt>
      <trkpt lat="50.49008" lon="5.66813">
        <ele>266.42</ele>
        <time>2019-07-07T09:47:03Z</time>
      </trkpt>
      <trkpt lat="50.48997" lon="5.66807">
        <ele>265.46</ele>
        <time>2019-07-07T09:47:04Z</time>
      </trkpt>
      <trkpt lat="50.48988" lon="5.66798">
        <ele>264.5</ele>
        <time>2019-07-07T09:47:05Z</time>
      </trkpt>
      <trkpt lat="50.48982" lon="5.66787">
        <ele>263.54</ele>
        <time>2019-07-07T09:47:06Z</time>
      </trkpt>
      <trkpt lat="50.48975" lon="5.66774">
        <ele>263.54</ele>
        <time>2019-07-07T09:47:07Z</time>
      </trkpt>
      <trkpt lat="50.48967" lon="5.66764">
        <ele>262.58</ele>
        <time>2019-07-07T09:47:08Z</time>
      </trkpt>
      <trkpt lat="50.48957" lon="5.6676">
        <ele>261.62</ele>
        <time>2019-07-07T09:47:09Z</time>
      </trkpt>
      <trkpt lat="50.48946" lon="5.66759">
        <ele>260.65</ele>
        <time>2019-07-07T09:47:10Z</time>
      </trkpt>
      <trkpt lat="50.48936" lon="5.66762">
        <ele>259.21</ele>
        <time>2019-07-07T09:47:11Z</time>
      </trkpt>
      <trkpt lat="50.48926" lon="5.66766">
        <ele>258.73</ele>
        <time>2019-07-07T09:47:12Z</time>
      </trkpt>
      <trkpt lat="50.48916" lon="5.66768">
        <ele>257.77</ele>
        <time>2019-07-07T09:47:13Z</time>
      </trkpt>
      <trkpt lat="50.48905" lon="5.66767">
        <ele>257.29</ele>
        <time>2019-07-07T09:47:14Z</time>
      </trkpt>
      <trkpt lat="50.48894" lon="5.66763">
        <ele>256.33</ele>
        <time>2019-07-07T09:47:15Z</time>
      </trkpt>
      <trkpt lat="50.48873" lon="5.66754">
        <ele>254.41</ele>
        <time>2019-07-07T09:47:17Z</time>
      </trkpt>
      <trkpt lat="50.48861" lon="5.66751">
        <ele>254.41</ele>
        <time>2019-07-07T09:47:18Z</time>
      </trkpt>
      <trkpt lat="50.4885" lon="5.66751">
        <ele>253.44</ele>
        <time>2019-07-07T09:47:19Z</time>
      </trkpt>
      <trkpt lat="50.48837" lon="5.66754">
        <ele>252.48</ele>
        <time>2019-07-07T09:47:20Z</time>
      </trkpt>
      <trkpt lat="50.48826" lon="5.66759">
        <ele>251.52</ele>
        <time>2019-07-07T09:47:21Z</time>
      </trkpt>
      <trkpt lat="50.48814" lon="5.66765">
        <ele>251.04</ele>
        <time>2019-07-07T09:47:22Z</time>
      </trkpt>
      <trkpt lat="50.48768" lon="5.66796">
        <ele>247.2</ele>
        <time>2019-07-07T09:47:26Z</time>
      </trkpt>
      <trkpt lat="50.48722" lon="5.66828">
        <ele>244.31</ele>
        <time>2019-07-07T09:47:30Z</time>
      </trkpt>
      <trkpt lat="50.48662" lon="5.66859">
        <ele>240.95</ele>
        <time>2019-07-07T09:47:35Z</time>
      </trkpt>
      <trkpt lat="50.48637" lon="5.66865">
        <ele>239.99</ele>
        <time>2019-07-07T09:47:37Z</time>
      </trkpt>
      <trkpt lat="50.48577" lon="5.66864">
        <ele>236.14</ele>
        <time>2019-07-07T09:47:42Z</time>
      </trkpt>
      <trkpt lat="50.48499" lon="5.66825">
        <ele>232.78</ele>
        <time>2019-07-07T09:47:49Z</time>
      </trkpt>
      <trkpt lat="50.48449" lon="5.66783">
        <ele>229.41</ele>
        <time>2019-07-07T09:47:54Z</time>
      </trkpt>
      <trkpt lat="50.48429" lon="5.66766">
        <ele>228.93</ele>
        <time>2019-07-07T09:47:56Z</time>
      </trkpt>
      <trkpt lat="50.48379" lon="5.66723">
        <ele>225.57</ele>
        <time>2019-07-07T09:48:01Z</time>
      </trkpt>
      <trkpt lat="50.48328" lon="5.6668">
        <ele>222.2</ele>
        <time>2019-07-07T09:48:06Z</time>
      </trkpt>
      <trkpt lat="50.48318" lon="5.66672">
        <ele>222.2</ele>
        <time>2019-07-07T09:48:07Z</time>
      </trkpt>
      <trkpt lat="50.48267" lon="5.66628">
        <ele>218.84</ele>
        <time>2019-07-07T09:48:12Z</time>
      </trkpt>
      <trkpt lat="50.48224" lon="5.66593">
        <ele>215.47</ele>
        <time>2019-07-07T09:48:16Z</time>
      </trkpt>
      <trkpt lat="50.4817" lon="5.66549">
        <ele>212.11</ele>
        <time>2019-07-07T09:48:21Z</time>
      </trkpt>
      <trkpt lat="50.48116" lon="5.6651">
        <ele>208.74</ele>
        <time>2019-07-07T09:48:26Z</time>
      </trkpt>
      <trkpt lat="50.48058" lon="5.66483">
        <ele>205.86</ele>
        <time>2019-07-07T09:48:31Z</time>
      </trkpt>
      <trkpt lat="50.48047" lon="5.66475">
        <ele>204.9</ele>
        <time>2019-07-07T09:48:32Z</time>
      </trkpt>
      <trkpt lat="50.48036" lon="5.66466">
        <ele>203.94</ele>
        <time>2019-07-07T09:48:33Z</time>
      </trkpt>
      <trkpt lat="50.48027" lon="5.66453">
        <ele>202.98</ele>
        <time>2019-07-07T09:48:34Z</time>
      </trkpt>
      <trkpt lat="50.48018" lon="5.6644">
        <ele>202.01</ele>
        <time>2019-07-07T09:48:35Z</time>
      </trkpt>
      <trkpt lat="50.4801" lon="5.66426">
        <ele>201.53</ele>
        <time>2019-07-07T09:48:36Z</time>
      </trkpt>
      <trkpt lat="50.47986" lon="5.66382">
        <ele>199.61</ele>
        <time>2019-07-07T09:48:39Z</time>
      </trkpt>
      <trkpt lat="50.47946" lon="5.66335">
        <ele>196.25</ele>
        <time>2019-07-07T09:48:43Z</time>
      </trkpt>
      <trkpt lat="50.47937" lon="5.66324">
        <ele>195.28</ele>
        <time>2019-07-07T09:48:44Z</time>
      </trkpt>
      <trkpt lat="50.47928" lon="5.66312">
        <ele>194.8</ele>
        <time>2019-07-07T09:48:45Z</time>
      </trkpt>
      <trkpt lat="50.47919" lon="5.66299">
        <ele>193.84</ele>
        <time>2019-07-07T09:48:46Z</time>
      </trkpt>
      <trkpt lat="50.47912" lon="5.66286">
        <ele>193.36</ele>
        <time>2019-07-07T09:48:47Z</time>
      </trkpt>
      <trkpt lat="50.47905" lon="5.66273">
        <ele>192.4</ele>
        <time>2019-07-07T09:48:48Z</time>
      </trkpt>
      <trkpt lat="50.47898" lon="5.66258">
        <ele>191.44</ele>
        <time>2019-07-07T09:48:49Z</time>
      </trkpt>
      <trkpt lat="50.47893" lon="5.66243">
        <ele>190.96</ele>
        <time>2019-07-07T09:48:50Z</time>
      </trkpt>
      <trkpt lat="50.47876" lon="5.66202">
        <ele>189.52</ele>
        <time>2019-07-07T09:48:53Z</time>
      </trkpt>
      <trkpt lat="50.47868" lon="5.66191">
        <ele>189.04</ele>
        <time>2019-07-07T09:48:54Z</time>
      </trkpt>
      <trkpt lat="50.47859" lon="5.66183">
        <ele>188.56</ele>
        <time>2019-07-07T09:48:55Z</time>
      </trkpt>
      <trkpt lat="50.47849" lon="5.6618">
        <ele>188.08</ele>
        <time>2019-07-07T09:48:56Z</time>
      </trkpt>
      <trkpt lat="50.47839" lon="5.66181">
        <ele>187.11</ele>
        <time>2019-07-07T09:48:57Z</time>
      </trkpt>
      <trkpt lat="50.47828" lon="5.66182">
        <ele>186.63</ele>
        <time>2019-07-07T09:48:58Z</time>
      </trkpt>
      <trkpt lat="50.47817" lon="5.66181">
        <ele>185.67</ele>
        <time>2019-07-07T09:48:59Z</time>
      </trkpt>
      <trkpt lat="50.47806" lon="5.66176">
        <ele>184.71</ele>
        <time>2019-07-07T09:49:00Z</time>
      </trkpt>
      <trkpt lat="50.47796" lon="5.66169">
        <ele>184.23</ele>
        <time>2019-07-07T09:49:01Z</time>
      </trkpt>
      <trkpt lat="50.47769" lon="5.66147">
        <ele>182.79</ele>
        <time>2019-07-07T09:49:04Z</time>
      </trkpt>
      <trkpt lat="50.47759" lon="5.66141">
        <ele>181.83</ele>
        <time>2019-07-07T09:49:05Z</time>
      </trkpt>
      <trkpt lat="50.4775" lon="5.6614">
        <ele>181.83</ele>
        <time>2019-07-07T09:49:06Z</time>
      </trkpt>
      <trkpt lat="50.47742" lon="5.66143">
        <ele>181.35</ele>
        <time>2019-07-07T09:49:07Z</time>
      </trkpt>
      <trkpt lat="50.47735" lon="5.66151">
        <ele>180.87</ele>
        <time>2019-07-07T09:49:08Z</time>
      </trkpt>
      <trkpt lat="50.47729" lon="5.66163">
        <ele>180.38</ele>
        <time>2019-07-07T09:49:09Z</time>
      </trkpt>
      <trkpt lat="50.47725" lon="5.66176">
        <ele>179.42</ele>
        <time>2019-07-07T09:49:10Z</time>
      </trkpt>
      <trkpt lat="50.47723" lon="5.66191">
        <ele>178.94</ele>
        <time>2019-07-07T09:49:11Z</time>
      </trkpt>
      <trkpt lat="50.47721" lon="5.66207">
        <ele>177.98</ele>
        <time>2019-07-07T09:49:12Z</time>
      </trkpt>
      <trkpt lat="50.47719" lon="5.66223">
        <ele>177.02</ele>
        <time>2019-07-07T09:49:13Z</time>
      </trkpt>
      <trkpt lat="50.47718" lon="5.6624">
        <ele>176.06</ele>
        <time>2019-07-07T09:49:14Z</time>
      </trkpt>
      <trkpt lat="50.47711" lon="5.66327">
        <ele>172.21</ele>
        <time>2019-07-07T09:49:19Z</time>
      </trkpt>
      <trkpt lat="50.47698" lon="5.66398">
        <ele>169.33</ele>
        <time>2019-07-07T09:49:23Z</time>
      </trkpt>
      <trkpt lat="50.47682" lon="5.66469">
        <ele>165.96</ele>
        <time>2019-07-07T09:49:27Z</time>
      </trkpt>
      <trkpt lat="50.47664" lon="5.66562">
        <ele>162.12</ele>
        <time>2019-07-07T09:49:32Z</time>
      </trkpt>
      <trkpt lat="50.47658" lon="5.6664">
        <ele>158.75</ele>
        <time>2019-07-07T09:49:36Z</time>
      </trkpt>
      <trkpt lat="50.47654" lon="5.66702">
        <ele>155.87</ele>
        <time>2019-07-07T09:49:39Z</time>
      </trkpt>
      <trkpt lat="50.47649" lon="5.66779">
        <ele>152.99</ele>
        <time>2019-07-07T09:49:43Z</time>
      </trkpt>
      <trkpt lat="50.47645" lon="5.66861">
        <ele>149.14</ele>
        <time>2019-07-07T09:49:47Z</time>
      </trkpt>
      <trkpt lat="50.47645" lon="5.66962">
        <ele>144.82</ele>
        <time>2019-07-07T09:49:52Z</time>
      </trkpt>
      <trkpt lat="50.47649" lon="5.67041">
        <ele>141.45</ele>
        <time>2019-07-07T09:49:56Z</time>
      </trkpt>
      <trkpt lat="50.47658" lon="5.6712">
        <ele>138.09</ele>
        <time>2019-07-07T09:50:00Z</time>
      </trkpt>
      <trkpt lat="50.47663" lon="5.67179">
        <ele>135.2</ele>
        <time>2019-07-07T09:50:03Z</time>
      </trkpt>
      <trkpt lat="50.47663" lon="5.67201">
        <ele>134.24</ele>
        <time>2019-07-07T09:50:04Z</time>
      </trkpt>
      <trkpt lat="50.4766" lon="5.67238">
        <ele>133.28</ele>
        <time>2019-07-07T09:50:06Z</time>
      </trkpt>
      <trkpt lat="50.47659" lon="5.67275">
        <ele>132.32</ele>
        <time>2019-07-07T09:50:08Z</time>
      </trkpt>
      <trkpt lat="50.47665" lon="5.67381">
        <ele>128.95</ele>
        <time>2019-07-07T09:50:14Z</time>
      </trkpt>
      <trkpt lat="50.47666" lon="5.67431">
        <ele>127.51</ele>
        <time>2019-07-07T09:50:17Z</time>
      </trkpt>
      <trkpt lat="50.47665" lon="5.67448">
        <ele>127.03</ele>
        <time>2019-07-07T09:50:18Z</time>
      </trkpt>
      <trkpt lat="50.47662" lon="5.67464">
        <ele>125.59</ele>
        <time>2019-07-07T09:50:19Z</time>
      </trkpt>
      <trkpt lat="50.47657" lon="5.67478">
        <ele>125.59</ele>
        <time>2019-07-07T09:50:20Z</time>
      </trkpt>
      <trkpt lat="50.47651" lon="5.67491">
        <ele>125.59</ele>
        <time>2019-07-07T09:50:21Z</time>
      </trkpt>
      <trkpt lat="50.47644" lon="5.67503">
        <ele>125.11</ele>
        <time>2019-07-07T09:50:22Z</time>
      </trkpt>
      <trkpt lat="50.47637" lon="5.67512">
        <ele>125.59</ele>
        <time>2019-07-07T09:50:23Z</time>
      </trkpt>
      <trkpt lat="50.47623" lon="5.67529">
        <ele>125.59</ele>
        <time>2019-07-07T09:50:25Z</time>
      </trkpt>
      <trkpt lat="50.47616" lon="5.67534">
        <ele>125.59</ele>
        <time>2019-07-07T09:50:26Z</time>
      </trkpt>
      <trkpt lat="50.47608" lon="5.67539">
        <ele>125.11</ele>
        <time>2019-07-07T09:50:27Z</time>
      </trkpt>
      <trkpt lat="50.47574" lon="5.67545">
        <ele>125.11</ele>
        <time>2019-07-07T09:50:32Z</time>
      </trkpt>
      <trkpt lat="50.4756" lon="5.67542">
        <ele>126.55</ele>
        <time>2019-07-07T09:50:35Z</time>
      </trkpt>
      <trkpt lat="50.47508" lon="5.67533">
        <ele>125.59</ele>
        <time>2019-07-07T09:50:48Z</time>
      </trkpt>
      <trkpt lat="50.47472" lon="5.67532">
        <ele>125.59</ele>
        <time>2019-07-07T09:50:59Z</time>
      </trkpt>
      <trkpt lat="50.47438" lon="5.67527">
        <ele>125.59</ele>
        <time>2019-07-07T09:51:12Z</time>
      </trkpt>
      <trkpt lat="50.47401" lon="5.67523">
        <ele>125.59</ele>
        <time>2019-07-07T09:51:24Z</time>
      </trkpt>
      <trkpt lat="50.47396" lon="5.67523">
        <ele>125.59</ele>
        <time>2019-07-07T09:51:27Z</time>
      </trkpt>
      <trkpt lat="50.4739" lon="5.67519">
        <ele>125.59</ele>
        <time>2019-07-07T09:51:31Z</time>
      </trkpt>
      <trkpt lat="50.47387" lon="5.67516">
        <ele>125.59</ele>
        <time>2019-07-07T09:51:33Z</time>
      </trkpt>
      <trkpt lat="50.47385" lon="5.67516">
        <ele>125.59</ele>
        <time>2019-07-07T09:51:34Z</time>
      </trkpt>
      <trkpt lat="50.47384" lon="5.67517">
        <ele>125.59</ele>
        <time>2019-07-07T09:51:35Z</time>
      </trkpt>
      <trkpt lat="50.47382" lon="5.67518">
        <ele>125.59</ele>
        <time>2019-07-07T09:51:36Z</time>
      </trkpt>
      <trkpt lat="50.4738" lon="5.67518">
        <ele>125.59</ele>
        <time>2019-07-07T09:51:37Z</time>
      </trkpt>
      <trkpt lat="50.47362" lon="5.6752">
        <ele>126.55</ele>
        <time>2019-07-07T09:51:45Z</time>
      </trkpt>
      <trkpt lat="50.47359" lon="5.67517">
        <ele>127.03</ele>
        <time>2019-07-07T09:51:47Z</time>
      </trkpt>
      <trkpt lat="50.47358" lon="5.67518">
        <ele>127.51</ele>
        <time>2019-07-07T09:51:48Z</time>
      </trkpt>
      <trkpt lat="50.4736" lon="5.67518">
        <ele>127.51</ele>
        <time>2019-07-07T09:51:58Z</time>
      </trkpt>
      <trkpt lat="50.47356" lon="5.67525">
        <ele>127.51</ele>
        <time>2019-07-07T09:52:09Z</time>
      </trkpt>
      <trkpt lat="50.47357" lon="5.67526">
        <ele>127.51</ele>
        <time>2019-07-07T09:52:12Z</time>
      </trkpt>
      <trkpt lat="50.47368" lon="5.67528">
        <ele>127.51</ele>
        <time>2019-07-07T09:52:19Z</time>
      </trkpt>
      <trkpt lat="50.47372" lon="5.67531">
        <ele>127.51</ele>
        <time>2019-07-07T09:52:21Z</time>
      </trkpt>
      <trkpt lat="50.47395" lon="5.67531">
        <ele>127.51</ele>
        <time>2019-07-07T09:52:34Z</time>
      </trkpt>
      <trkpt lat="50.47402" lon="5.67529">
        <ele>127.51</ele>
        <time>2019-07-07T09:52:53Z</time>
      </trkpt>
      <trkpt lat="50.47415" lon="5.67533">
        <ele>127.51</ele>
        <time>2019-07-07T09:53:03Z</time>
      </trkpt>
      <trkpt lat="50.47418" lon="5.67527">
        <ele>127.51</ele>
        <time>2019-07-07T09:53:16Z</time>
      </trkpt>
      <trkpt lat="50.4742" lon="5.67522">
        <ele>127.51</ele>
        <time>2019-07-07T09:53:43Z</time>
      </trkpt>
      <trkpt lat="50.47416" lon="5.67511">
        <ele>127.51</ele>
        <time>2019-07-07T09:54:07Z</time>
      </trkpt>
      <trkpt lat="50.47413" lon="5.67505">
        <ele>127.99</ele>
        <time>2019-07-07T09:54:34Z</time>
      </trkpt>
      <trkpt lat="50.47413" lon="5.67506">
        <ele>127.99</ele>
        <time>2019-07-07T09:55:07Z</time>
      </trkpt>
      <trkpt lat="50.47416" lon="5.67509">
        <ele>128.47</ele>
        <time>2019-07-07T09:55:36Z</time>
      </trkpt>
      <trkpt lat="50.47415" lon="5.67506">
        <ele>128.47</ele>
        <time>2019-07-07T09:56:05Z</time>
      </trkpt>
      <trkpt lat="50.47414" lon="5.67503">
        <ele>128.95</ele>
        <time>2019-07-07T09:56:28Z</time>
      </trkpt>
      <trkpt lat="50.47412" lon="5.67503">
        <ele>128.95</ele>
        <time>2019-07-07T09:56:59Z</time>
      </trkpt>
      <trkpt lat="50.47415" lon="5.67505">
        <ele>128.95</ele>
        <time>2019-07-07T09:57:20Z</time>
      </trkpt>
      <trkpt lat="50.47413" lon="5.67511">
        <ele>129.43</ele>
        <time>2019-07-07T09:57:43Z</time>
      </trkpt>
      <trkpt lat="50.47414" lon="5.67513">
        <ele>129.43</ele>
        <time>2019-07-07T09:58:11Z</time>
      </trkpt>
      <trkpt lat="50.47416" lon="5.67513">
        <ele>129.43</ele>
        <time>2019-07-07T09:58:45Z</time>
      </trkpt>
      <trkpt lat="50.47416" lon="5.67513">
        <ele>129.92</ele>
        <time>2019-07-07T09:59:16Z</time>
      </trkpt>
      <trkpt lat="50.47417" lon="5.67512">
        <ele>129.92</ele>
        <time>2019-07-07T09:59:42Z</time>
      </trkpt>
      <trkpt lat="50.47418" lon="5.67507">
        <ele>129.92</ele>
        <time>2019-07-07T10:00:12Z</time>
      </trkpt>
      <trkpt lat="50.47415" lon="5.67503">
        <ele>130.4</ele>
        <time>2019-07-07T10:00:51Z</time>
      </trkpt>
      <trkpt lat="50.47415" lon="5.67505">
        <ele>130.88</ele>
        <time>2019-07-07T10:01:25Z</time>
      </trkpt>
      <trkpt lat="50.47413" lon="5.67501">
        <ele>129.43</ele>
        <time>2019-07-07T10:01:55Z</time>
      </trkpt>
      <trkpt lat="50.47413" lon="5.67505">
        <ele>129.92</ele>
        <time>2019-07-07T10:02:20Z</time>
      </trkpt>
      <trkpt lat="50.47414" lon="5.67508">
        <ele>129.92</ele>
        <time>2019-07-07T10:02:45Z</time>
      </trkpt>
      <trkpt lat="50.47412" lon="5.67506">
        <ele>129.92</ele>
        <time>2019-07-07T10:03:19Z</time>
      </trkpt>
      <trkpt lat="50.47411" lon="5.67503">
        <ele>129.92</ele>
        <time>2019-07-07T10:03:47Z</time>
      </trkpt>
      <trkpt lat="50.47412" lon="5.675">
        <ele>129.92</ele>
        <time>2019-07-07T10:04:13Z</time>
      </trkpt>
      <trkpt lat="50.47412" lon="5.675">
        <ele>130.4</ele>
        <time>2019-07-07T10:04:45Z</time>
      </trkpt>
      <trkpt lat="50.47414" lon="5.675">
        <ele>130.4</ele>
        <time>2019-07-07T10:05:15Z</time>
      </trkpt>
      <trkpt lat="50.47411" lon="5.67497">
        <ele>130.88</ele>
        <time>2019-07-07T10:05:44Z</time>
      </trkpt>
      <trkpt lat="50.47411" lon="5.67503">
        <ele>130.88</ele>
        <time>2019-07-07T10:06:17Z</time>
      </trkpt>
      <trkpt lat="50.47413" lon="5.67504">
        <ele>130.88</ele>
        <time>2019-07-07T10:06:44Z</time>
      </trkpt>
      <trkpt lat="50.47412" lon="5.67502">
        <ele>131.36</ele>
        <time>2019-07-07T10:07:15Z</time>
      </trkpt>
      <trkpt lat="50.47414" lon="5.67504">
        <ele>131.84</ele>
        <time>2019-07-07T10:07:53Z</time>
      </trkpt>
      <trkpt lat="50.47415" lon="5.67505">
        <ele>131.84</ele>
        <time>2019-07-07T10:08:25Z</time>
      </trkpt>
      <trkpt lat="50.47413" lon="5.67495">
        <ele>131.84</ele>
        <time>2019-07-07T10:09:07Z</time>
      </trkpt>
      <trkpt lat="50.4741" lon="5.67491">
        <ele>132.32</ele>
        <time>2019-07-07T10:09:40Z</time>
      </trkpt>
      <trkpt lat="50.4741" lon="5.67491">
        <ele>132.32</ele>
        <time>2019-07-07T10:10:15Z</time>
      </trkpt>
      <trkpt lat="50.47412" lon="5.67497">
        <ele>131.84</ele>
        <time>2019-07-07T10:10:47Z</time>
      </trkpt>
      <trkpt lat="50.47409" lon="5.67496">
        <ele>132.32</ele>
        <time>2019-07-07T10:11:21Z</time>
      </trkpt>
      <trkpt lat="50.4741" lon="5.675">
        <ele>131.84</ele>
        <time>2019-07-07T10:11:52Z</time>
      </trkpt>
      <trkpt lat="50.47411" lon="5.67499">
        <ele>131.84</ele>
        <time>2019-07-07T10:12:22Z</time>
      </trkpt>
      <trkpt lat="50.4741" lon="5.67494">
        <ele>132.32</ele>
        <time>2019-07-07T10:12:57Z</time>
      </trkpt>
      <trkpt lat="50.47413" lon="5.67494">
        <ele>132.32</ele>
        <time>2019-07-07T10:13:31Z</time>
      </trkpt>
      <trkpt lat="50.47412" lon="5.67494">
        <ele>132.32</ele>
        <time>2019-07-07T10:14:00Z</time>
      </trkpt>
      <trkpt lat="50.47412" lon="5.67498">
        <ele>132.32</ele>
        <time>2019-07-07T10:14:29Z</time>
      </trkpt>
      <trkpt lat="50.47412" lon="5.67501">
        <ele>132.8</ele>
        <time>2019-07-07T10:15:05Z</time>
      </trkpt>
      <trkpt lat="50.47414" lon="5.675">
        <ele>132.8</ele>
        <time>2019-07-07T10:15:38Z</time>
      </trkpt>
      <trkpt lat="50.47415" lon="5.67501">
        <ele>132.8</ele>
        <time>2019-07-07T10:16:21Z</time>
      </trkpt>
      <trkpt lat="50.47415" lon="5.67502">
        <ele>133.28</ele>
        <time>2019-07-07T10:17:00Z</time>
      </trkpt>
      <trkpt lat="50.47412" lon="5.67504">
        <ele>133.28</ele>
        <time>2019-07-07T10:17:32Z</time>
      </trkpt>
      <trkpt lat="50.47412" lon="5.67506">
        <ele>133.76</ele>
        <time>2019-07-07T10:18:09Z</time>
      </trkpt>
      <trkpt lat="50.47411" lon="5.67502">
        <ele>133.76</ele>
        <time>2019-07-07T10:18:34Z</time>
      </trkpt>
      <trkpt lat="50.47411" lon="5.67504">
        <ele>134.24</ele>
        <time>2019-07-07T10:19:05Z</time>
      </trkpt>
      <trkpt lat="50.47413" lon="5.67503">
        <ele>134.24</ele>
        <time>2019-07-07T10:19:40Z</time>
      </trkpt>
      <trkpt lat="50.47412" lon="5.67501">
        <ele>134.24</ele>
        <time>2019-07-07T10:20:09Z</time>
      </trkpt>
      <trkpt lat="50.47413" lon="5.67498">
        <ele>134.72</ele>
        <time>2019-07-07T10:20:33Z</time>
      </trkpt>
      <trkpt lat="50.47413" lon="5.67499">
        <ele>134.72</ele>
        <time>2019-07-07T10:21:07Z</time>
      </trkpt>
      <trkpt lat="50.47412" lon="5.67503">
        <ele>134.72</ele>
        <time>2019-07-07T10:21:38Z</time>
      </trkpt>
      <trkpt lat="50.47411" lon="5.67501">
        <ele>135.2</ele>
        <time>2019-07-07T10:22:06Z</time>
      </trkpt>
      <trkpt lat="50.4741" lon="5.67497">
        <ele>135.2</ele>
        <time>2019-07-07T10:22:42Z</time>
      </trkpt>
      <trkpt lat="50.4741" lon="5.675">
        <ele>135.2</ele>
        <time>2019-07-07T10:23:09Z</time>
      </trkpt>
      <trkpt lat="50.4741" lon="5.67502">
        <ele>135.2</ele>
        <time>2019-07-07T10:23:27Z</time>
      </trkpt>
      <trkpt lat="50.47409" lon="5.67504">
        <ele>135.68</ele>
        <time>2019-07-07T10:23:52Z</time>
      </trkpt>
      <trkpt lat="50.47409" lon="5.67503">
        <ele>135.68</ele>
        <time>2019-07-07T10:24:16Z</time>
      </trkpt>
      <trkpt lat="50.4741" lon="5.67503">
        <ele>135.68</ele>
        <time>2019-07-07T10:24:43Z</time>
      </trkpt>
      <trkpt lat="50.4741" lon="5.67502">
        <ele>135.68</ele>
        <time>2019-07-07T10:25:06Z</time>
      </trkpt>
      <trkpt lat="50.4741" lon="5.67503">
        <ele>135.68</ele>
        <time>2019-07-07T10:25:29Z</time>
      </trkpt>
      <trkpt lat="50.47411" lon="5.67503">
        <ele>135.68</ele>
        <time>2019-07-07T10:25:52Z</time>
      </trkpt>
      <trkpt lat="50.47411" lon="5.67498">
        <ele>135.68</ele>
        <time>2019-07-07T10:26:16Z</time>
      </trkpt>
      <trkpt lat="50.47411" lon="5.67495">
        <ele>135.68</ele>
        <time>2019-07-07T10:26:36Z</time>
      </trkpt>
      <trkpt lat="50.4741" lon="5.67497">
        <ele>136.16</ele>
        <time>2019-07-07T10:27:02Z</time>
      </trkpt>
      <trkpt lat="50.47412" lon="5.67499">
        <ele>136.16</ele>
        <time>2019-07-07T10:27:21Z</time>
      </trkpt>
      <trkpt lat="50.47413" lon="5.67503">
        <ele>136.16</ele>
        <time>2019-07-07T10:27:53Z</time>
      </trkpt>
      <trkpt lat="50.47413" lon="5.67502">
        <ele>136.16</ele>
        <time>2019-07-07T10:28:15Z</time>
      </trkpt>
      <trkpt lat="50.47412" lon="5.67504">
        <ele>136.16</ele>
        <time>2019-07-07T10:28:41Z</time>
      </trkpt>
      <trkpt lat="50.47411" lon="5.67503">
        <ele>136.16</ele>
        <time>2019-07-07T10:28:58Z</time>
      </trkpt>
      <trkpt lat="50.47411" lon="5.67503">
        <ele>136.64</ele>
        <time>2019-07-07T10:29:23Z</time>
      </trkpt>
      <trkpt lat="50.47411" lon="5.67504">
        <ele>136.64</ele>
        <time>2019-07-07T10:29:48Z</time>
      </trkpt>
      <trkpt lat="50.4741" lon="5.67499">
        <ele>136.64</ele>
        <time>2019-07-07T10:30:08Z</time>
      </trkpt>
      <trkpt lat="50.47407" lon="5.67497">
        <ele>136.64</ele>
        <time>2019-07-07T10:30:28Z</time>
      </trkpt>
      <trkpt lat="50.47409" lon="5.67502">
        <ele>136.64</ele>
        <time>2019-07-07T10:30:54Z</time>
      </trkpt>
      <trkpt lat="50.47411" lon="5.67509">
        <ele>138.09</ele>
        <time>2019-07-07T10:31:29Z</time>
      </trkpt>
      <trkpt lat="50.47411" lon="5.67509">
        <ele>138.09</ele>
        <time>2019-07-07T10:31:54Z</time>
      </trkpt>
      <trkpt lat="50.4741" lon="5.67506">
        <ele>138.09</ele>
        <time>2019-07-07T10:32:21Z</time>
      </trkpt>
      <trkpt lat="50.47411" lon="5.67508">
        <ele>138.09</ele>
        <time>2019-07-07T10:32:41Z</time>
      </trkpt>
      <trkpt lat="50.47411" lon="5.67509">
        <ele>138.57</ele>
        <time>2019-07-07T10:33:10Z</time>
      </trkpt>
      <trkpt lat="50.47414" lon="5.67519">
        <ele>138.57</ele>
        <time>2019-07-07T10:33:43Z</time>
      </trkpt>
      <trkpt lat="50.47415" lon="5.67509">
        <ele>138.57</ele>
        <time>2019-07-07T10:34:09Z</time>
      </trkpt>
      <trkpt lat="50.47413" lon="5.67502">
        <ele>138.57</ele>
        <time>2019-07-07T10:34:33Z</time>
      </trkpt>
      <trkpt lat="50.47411" lon="5.67501">
        <ele>137.13</ele>
        <time>2019-07-07T10:34:55Z</time>
      </trkpt>
      <trkpt lat="50.47411" lon="5.67507">
        <ele>137.61</ele>
        <time>2019-07-07T10:35:18Z</time>
      </trkpt>
      <trkpt lat="50.47409" lon="5.67507">
        <ele>137.61</ele>
        <time>2019-07-07T10:35:48Z</time>
      </trkpt>
      <trkpt lat="50.47411" lon="5.67504">
        <ele>137.61</ele>
        <time>2019-07-07T10:36:21Z</time>
      </trkpt>
      <trkpt lat="50.47412" lon="5.67502">
        <ele>137.61</ele>
        <time>2019-07-07T10:36:43Z</time>
      </trkpt>
      <trkpt lat="50.47411" lon="5.67504">
        <ele>138.09</ele>
        <time>2019-07-07T10:37:13Z</time>
      </trkpt>
      <trkpt lat="50.47411" lon="5.67507">
        <ele>138.09</ele>
        <time>2019-07-07T10:37:36Z</time>
      </trkpt>
      <trkpt lat="50.4741" lon="5.67504">
        <ele>138.09</ele>
        <time>2019-07-07T10:38:03Z</time>
      </trkpt>
      <trkpt lat="50.47412" lon="5.67503">
        <ele>138.09</ele>
        <time>2019-07-07T10:38:26Z</time>
      </trkpt>
      <trkpt lat="50.4741" lon="5.67504">
        <ele>138.09</ele>
        <time>2019-07-07T10:38:54Z</time>
      </trkpt>
      <trkpt lat="50.47408" lon="5.67499">
        <ele>138.57</ele>
        <time>2019-07-07T10:39:23Z</time>
      </trkpt>
      <trkpt lat="50.47408" lon="5.67499">
        <ele>138.57</ele>
        <time>2019-07-07T10:39:53Z</time>
      </trkpt>
      <trkpt lat="50.47407" lon="5.67497">
        <ele>138.57</ele>
        <time>2019-07-07T10:40:29Z</time>
      </trkpt>
      <trkpt lat="50.47408" lon="5.67498">
        <ele>138.57</ele>
        <time>2019-07-07T10:40:55Z</time>
      </trkpt>
      <trkpt lat="50.47411" lon="5.67499">
        <ele>138.57</ele>
        <time>2019-07-07T10:41:21Z</time>
      </trkpt>
      <trkpt lat="50.47411" lon="5.67506">
        <ele>139.05</ele>
        <time>2019-07-07T10:41:53Z</time>
      </trkpt>
      <trkpt lat="50.47409" lon="5.6751">
        <ele>139.05</ele>
        <time>2019-07-07T10:42:22Z</time>
      </trkpt>
      <trkpt lat="50.47409" lon="5.6751">
        <ele>139.05</ele>
        <time>2019-07-07T10:42:41Z</time>
      </trkpt>
      <trkpt lat="50.47412" lon="5.67508">
        <ele>139.05</ele>
        <time>2019-07-07T10:43:08Z</time>
      </trkpt>
      <trkpt lat="50.4741" lon="5.67508">
        <ele>139.05</ele>
        <time>2019-07-07T10:43:31Z</time>
      </trkpt>
      <trkpt lat="50.47407" lon="5.67508">
        <ele>140.49</ele>
        <time>2019-07-07T10:44:05Z</time>
      </trkpt>
      <trkpt lat="50.47408" lon="5.67508">
        <ele>140.49</ele>
        <time>2019-07-07T10:44:22Z</time>
      </trkpt>
      <trkpt lat="50.47409" lon="5.67504">
        <ele>140.49</ele>
        <time>2019-07-07T10:44:38Z</time>
      </trkpt>
      <trkpt lat="50.47409" lon="5.67502">
        <ele>140.49</ele>
        <time>2019-07-07T10:45:03Z</time>
      </trkpt>
      <trkpt lat="50.47408" lon="5.67506">
        <ele>140.49</ele>
        <time>2019-07-07T10:45:25Z</time>
      </trkpt>
      <trkpt lat="50.47411" lon="5.67512">
        <ele>140.49</ele>
        <time>2019-07-07T10:45:48Z</time>
      </trkpt>
      <trkpt lat="50.4741" lon="5.67508">
        <ele>140.49</ele>
        <time>2019-07-07T10:46:09Z</time>
      </trkpt>
      <trkpt lat="50.4741" lon="5.6751">
        <ele>140.49</ele>
        <time>2019-07-07T10:46:36Z</time>
      </trkpt>
      <trkpt lat="50.4741" lon="5.67514">
        <ele>140.49</ele>
        <time>2019-07-07T10:47:00Z</time>
      </trkpt>
      <trkpt lat="50.4741" lon="5.67518">
        <ele>140.49</ele>
        <time>2019-07-07T10:47:23Z</time>
      </trkpt>
      <trkpt lat="50.47411" lon="5.67519">
        <ele>140.49</ele>
        <time>2019-07-07T10:47:43Z</time>
      </trkpt>
      <trkpt lat="50.4741" lon="5.67518">
        <ele>140.49</ele>
        <time>2019-07-07T10:48:02Z</time>
      </trkpt>
      <trkpt lat="50.47411" lon="5.67521">
        <ele>140.49</ele>
        <time>2019-07-07T10:48:20Z</time>
      </trkpt>
      <trkpt lat="50.47411" lon="5.67512">
        <ele>140.97</ele>
        <time>2019-07-07T10:48:46Z</time>
      </trkpt>
      <trkpt lat="50.47409" lon="5.6751">
        <ele>140.97</ele>
        <time>2019-07-07T10:49:07Z</time>
      </trkpt>
      <trkpt lat="50.47408" lon="5.67504">
        <ele>140.97</ele>
        <time>2019-07-07T10:49:30Z</time>
      </trkpt>
      <trkpt lat="50.47407" lon="5.675">
        <ele>140.97</ele>
        <time>2019-07-07T10:49:57Z</time>
      </trkpt>
      <trkpt lat="50.47407" lon="5.67505">
        <ele>141.45</ele>
        <time>2019-07-07T10:50:19Z</time>
      </trkpt>
      <trkpt lat="50.47407" lon="5.67505">
        <ele>141.45</ele>
        <time>2019-07-07T10:50:44Z</time>
      </trkpt>
      <trkpt lat="50.47408" lon="5.67495">
        <ele>141.45</ele>
        <time>2019-07-07T10:51:08Z</time>
      </trkpt>
      <trkpt lat="50.47406" lon="5.67495">
        <ele>141.93</ele>
        <time>2019-07-07T10:51:31Z</time>
      </trkpt>
      <trkpt lat="50.47406" lon="5.675">
        <ele>142.41</ele>
        <time>2019-07-07T10:51:49Z</time>
      </trkpt>
      <trkpt lat="50.47407" lon="5.67508">
        <ele>142.41</ele>
        <time>2019-07-07T10:52:10Z</time>
      </trkpt>
      <trkpt lat="50.47407" lon="5.67511">
        <ele>142.41</ele>
        <time>2019-07-07T10:52:33Z</time>
      </trkpt>
      <trkpt lat="50.47407" lon="5.6751">
        <ele>142.41</ele>
        <time>2019-07-07T10:52:36Z</time>
      </trkpt>
      <trkpt lat="50.47406" lon="5.67508">
        <ele>142.41</ele>
        <time>2019-07-07T10:52:37Z</time>
      </trkpt>
      <trkpt lat="50.47405" lon="5.67506">
        <ele>142.41</ele>
        <time>2019-07-07T10:52:38Z</time>
      </trkpt>
      <trkpt lat="50.47404" lon="5.67504">
        <ele>142.41</ele>
        <time>2019-07-07T10:52:39Z</time>
      </trkpt>
      <trkpt lat="50.47402" lon="5.67504">
        <ele>142.41</ele>
        <time>2019-07-07T10:52:40Z</time>
      </trkpt>
      <trkpt lat="50.47399" lon="5.67504">
        <ele>142.41</ele>
        <time>2019-07-07T10:52:41Z</time>
      </trkpt>
      <trkpt lat="50.47397" lon="5.67504">
        <ele>142.41</ele>
        <time>2019-07-07T10:52:42Z</time>
      </trkpt>
      <trkpt lat="50.47395" lon="5.67504">
        <ele>142.41</ele>
        <time>2019-07-07T10:52:43Z</time>
      </trkpt>
      <trkpt lat="50.47366" lon="5.67518">
        <ele>143.37</ele>
        <time>2019-07-07T10:52:54Z</time>
      </trkpt>
      <trkpt lat="50.47363" lon="5.67517">
        <ele>143.37</ele>
        <time>2019-07-07T10:52:55Z</time>
      </trkpt>
      <trkpt lat="50.4736" lon="5.67514">
        <ele>143.37</ele>
        <time>2019-07-07T10:52:56Z</time>
      </trkpt>
      <trkpt lat="50.47351" lon="5.67503">
        <ele>144.82</ele>
        <time>2019-07-07T10:53:03Z</time>
      </trkpt>
      <trkpt lat="50.47336" lon="5.67502">
        <ele>146.26</ele>
        <time>2019-07-07T10:53:12Z</time>
      </trkpt>
      <trkpt lat="50.47322" lon="5.67459">
        <ele>149.62</ele>
        <time>2019-07-07T10:53:22Z</time>
      </trkpt>
      <trkpt lat="50.47316" lon="5.67436">
        <ele>151.54</ele>
        <time>2019-07-07T10:53:27Z</time>
      </trkpt>
      <trkpt lat="50.4731" lon="5.67403">
        <ele>153.95</ele>
        <time>2019-07-07T10:53:35Z</time>
      </trkpt>
      <trkpt lat="50.47311" lon="5.67391">
        <ele>154.43</ele>
        <time>2019-07-07T10:53:38Z</time>
      </trkpt>
      <trkpt lat="50.47303" lon="5.67387">
        <ele>155.87</ele>
        <time>2019-07-07T10:53:42Z</time>
      </trkpt>
      <trkpt lat="50.47302" lon="5.67391">
        <ele>155.87</ele>
        <time>2019-07-07T10:53:43Z</time>
      </trkpt>
      <trkpt lat="50.47302" lon="5.67395">
        <ele>155.87</ele>
        <time>2019-07-07T10:53:44Z</time>
      </trkpt>
      <trkpt lat="50.47301" lon="5.67399">
        <ele>156.35</ele>
        <time>2019-07-07T10:53:45Z</time>
      </trkpt>
      <trkpt lat="50.47299" lon="5.67402">
        <ele>156.83</ele>
        <time>2019-07-07T10:53:46Z</time>
      </trkpt>
      <trkpt lat="50.47294" lon="5.67405">
        <ele>157.31</ele>
        <time>2019-07-07T10:53:48Z</time>
      </trkpt>
      <trkpt lat="50.47291" lon="5.67406">
        <ele>157.31</ele>
        <time>2019-07-07T10:53:49Z</time>
      </trkpt>
      <trkpt lat="50.47289" lon="5.67406">
        <ele>157.79</ele>
        <time>2019-07-07T10:53:50Z</time>
      </trkpt>
      <trkpt lat="50.47278" lon="5.67405">
        <ele>157.79</ele>
        <time>2019-07-07T10:53:54Z</time>
      </trkpt>
      <trkpt lat="50.47276" lon="5.67402">
        <ele>157.79</ele>
        <time>2019-07-07T10:53:55Z</time>
      </trkpt>
      <trkpt lat="50.47274" lon="5.67398">
        <ele>157.79</ele>
        <time>2019-07-07T10:53:56Z</time>
      </trkpt>
      <trkpt lat="50.47263" lon="5.67343">
        <ele>161.16</ele>
        <time>2019-07-07T10:54:11Z</time>
      </trkpt>
      <trkpt lat="50.47249" lon="5.67299">
        <ele>164.04</ele>
        <time>2019-07-07T10:54:24Z</time>
      </trkpt>
      <trkpt lat="50.47243" lon="5.67262">
        <ele>167.41</ele>
        <time>2019-07-07T10:54:35Z</time>
      </trkpt>
      <trkpt lat="50.47229" lon="5.67247">
        <ele>169.33</ele>
        <time>2019-07-07T10:54:42Z</time>
      </trkpt>
      <trkpt lat="50.47227" lon="5.67248">
        <ele>169.33</ele>
        <time>2019-07-07T10:54:43Z</time>
      </trkpt>
      <trkpt lat="50.47225" lon="5.6725">
        <ele>169.33</ele>
        <time>2019-07-07T10:54:44Z</time>
      </trkpt>
      <trkpt lat="50.47208" lon="5.67277">
        <ele>171.73</ele>
        <time>2019-07-07T10:54:54Z</time>
      </trkpt>
      <trkpt lat="50.47206" lon="5.67279">
        <ele>171.73</ele>
        <time>2019-07-07T10:54:55Z</time>
      </trkpt>
      <trkpt lat="50.47187" lon="5.67321">
        <ele>175.1</ele>
        <time>2019-07-07T10:55:08Z</time>
      </trkpt>
      <trkpt lat="50.47156" lon="5.67364">
        <ele>175.58</ele>
        <time>2019-07-07T10:55:21Z</time>
      </trkpt>
      <trkpt lat="50.47137" lon="5.67374">
        <ele>176.06</ele>
        <time>2019-07-07T10:55:26Z</time>
      </trkpt>
      <trkpt lat="50.47128" lon="5.67375">
        <ele>176.06</ele>
        <time>2019-07-07T10:55:28Z</time>
      </trkpt>
      <trkpt lat="50.47124" lon="5.67374">
        <ele>176.06</ele>
        <time>2019-07-07T10:55:29Z</time>
      </trkpt>
      <trkpt lat="50.47092" lon="5.67363">
        <ele>176.06</ele>
        <time>2019-07-07T10:55:36Z</time>
      </trkpt>
      <trkpt lat="50.47087" lon="5.67362">
        <ele>176.06</ele>
        <time>2019-07-07T10:55:37Z</time>
      </trkpt>
      <trkpt lat="50.47033" lon="5.673">
        <ele>176.06</ele>
        <time>2019-07-07T10:55:52Z</time>
      </trkpt>
      <trkpt lat="50.46998" lon="5.67223">
        <ele>177.5</ele>
        <time>2019-07-07T10:56:06Z</time>
      </trkpt>
      <trkpt lat="50.46996" lon="5.67218">
        <ele>177.5</ele>
        <time>2019-07-07T10:56:07Z</time>
      </trkpt>
      <trkpt lat="50.46994" lon="5.67213">
        <ele>177.5</ele>
        <time>2019-07-07T10:56:08Z</time>
      </trkpt>
      <trkpt lat="50.46992" lon="5.67208">
        <ele>177.5</ele>
        <time>2019-07-07T10:56:09Z</time>
      </trkpt>
      <trkpt lat="50.4699" lon="5.67202">
        <ele>177.5</ele>
        <time>2019-07-07T10:56:10Z</time>
      </trkpt>
      <trkpt lat="50.46988" lon="5.67197">
        <ele>177.5</ele>
        <time>2019-07-07T10:56:11Z</time>
      </trkpt>
      <trkpt lat="50.46985" lon="5.67192">
        <ele>177.98</ele>
        <time>2019-07-07T10:56:12Z</time>
      </trkpt>
      <trkpt lat="50.46945" lon="5.67135">
        <ele>181.35</ele>
        <time>2019-07-07T10:56:28Z</time>
      </trkpt>
      <trkpt lat="50.46917" lon="5.67109">
        <ele>184.71</ele>
        <time>2019-07-07T10:56:40Z</time>
      </trkpt>
      <trkpt lat="50.46877" lon="5.67077">
        <ele>187.59</ele>
        <time>2019-07-07T10:56:57Z</time>
      </trkpt>
      <trkpt lat="50.46849" lon="5.67052">
        <ele>190.48</ele>
        <time>2019-07-07T10:57:09Z</time>
      </trkpt>
      <trkpt lat="50.46823" lon="5.67035">
        <ele>193.84</ele>
        <time>2019-07-07T10:57:21Z</time>
      </trkpt>
      <trkpt lat="50.46799" lon="5.67024">
        <ele>197.21</ele>
        <time>2019-07-07T10:57:32Z</time>
      </trkpt>
      <trkpt lat="50.46779" lon="5.67014">
        <ele>200.09</ele>
        <time>2019-07-07T10:57:42Z</time>
      </trkpt>
      <trkpt lat="50.46758" lon="5.66996">
        <ele>203.46</ele>
        <time>2019-07-07T10:57:54Z</time>
      </trkpt>
      <trkpt lat="50.46741" lon="5.6698">
        <ele>206.34</ele>
        <time>2019-07-07T10:58:04Z</time>
      </trkpt>
      <trkpt lat="50.46721" lon="5.66957">
        <ele>209.7</ele>
        <time>2019-07-07T10:58:16Z</time>
      </trkpt>
      <trkpt lat="50.46697" lon="5.66933">
        <ele>213.07</ele>
        <time>2019-07-07T10:58:30Z</time>
      </trkpt>
      <trkpt lat="50.4668" lon="5.66917">
        <ele>215.95</ele>
        <time>2019-07-07T10:58:39Z</time>
      </trkpt>
      <trkpt lat="50.46659" lon="5.66899">
        <ele>219.32</ele>
        <time>2019-07-07T10:58:50Z</time>
      </trkpt>
      <trkpt lat="50.46638" lon="5.66881">
        <ele>222.68</ele>
        <time>2019-07-07T10:59:01Z</time>
      </trkpt>
      <trkpt lat="50.46623" lon="5.66865">
        <ele>225.09</ele>
        <time>2019-07-07T10:59:09Z</time>
      </trkpt>
      <trkpt lat="50.46593" lon="5.66832">
        <ele>227.01</ele>
        <time>2019-07-07T10:59:26Z</time>
      </trkpt>
      <trkpt lat="50.46562" lon="5.66795">
        <ele>227.97</ele>
        <time>2019-07-07T10:59:41Z</time>
      </trkpt>
      <trkpt lat="50.46518" lon="5.66737">
        <ele>231.33</ele>
        <time>2019-07-07T11:00:01Z</time>
      </trkpt>
      <trkpt lat="50.46517" lon="5.66733">
        <ele>231.33</ele>
        <time>2019-07-07T11:00:02Z</time>
      </trkpt>
      <trkpt lat="50.46516" lon="5.6673">
        <ele>231.33</ele>
        <time>2019-07-07T11:00:03Z</time>
      </trkpt>
      <trkpt lat="50.46514" lon="5.66726">
        <ele>231.33</ele>
        <time>2019-07-07T11:00:04Z</time>
      </trkpt>
      <trkpt lat="50.46513" lon="5.66723">
        <ele>231.33</ele>
        <time>2019-07-07T11:00:05Z</time>
      </trkpt>
      <trkpt lat="50.4651" lon="5.6672">
        <ele>231.33</ele>
        <time>2019-07-07T11:00:06Z</time>
      </trkpt>
      <trkpt lat="50.46474" lon="5.66669">
        <ele>232.78</ele>
        <time>2019-07-07T11:00:23Z</time>
      </trkpt>
      <trkpt lat="50.4644" lon="5.66611">
        <ele>233.74</ele>
        <time>2019-07-07T11:00:40Z</time>
      </trkpt>
      <trkpt lat="50.46413" lon="5.66552">
        <ele>235.18</ele>
        <time>2019-07-07T11:00:53Z</time>
      </trkpt>
      <trkpt lat="50.46372" lon="5.66461">
        <ele>237.1</ele>
        <time>2019-07-07T11:01:12Z</time>
      </trkpt>
      <trkpt lat="50.46364" lon="5.66397">
        <ele>238.06</ele>
        <time>2019-07-07T11:01:23Z</time>
      </trkpt>
      <trkpt lat="50.46349" lon="5.66306">
        <ele>239.02</ele>
        <time>2019-07-07T11:01:39Z</time>
      </trkpt>
      <trkpt lat="50.46325" lon="5.66197">
        <ele>241.43</ele>
        <time>2019-07-07T11:01:59Z</time>
      </trkpt>
      <trkpt lat="50.46312" lon="5.66121">
        <ele>242.39</ele>
        <time>2019-07-07T11:02:15Z</time>
      </trkpt>
      <trkpt lat="50.46301" lon="5.66088">
        <ele>242.87</ele>
        <time>2019-07-07T11:02:25Z</time>
      </trkpt>
      <trkpt lat="50.463" lon="5.66087">
        <ele>242.87</ele>
        <time>2019-07-07T11:02:26Z</time>
      </trkpt>
      <trkpt lat="50.46299" lon="5.66086">
        <ele>242.87</ele>
        <time>2019-07-07T11:02:27Z</time>
      </trkpt>
      <trkpt lat="50.46297" lon="5.66084">
        <ele>242.87</ele>
        <time>2019-07-07T11:02:29Z</time>
      </trkpt>
      <trkpt lat="50.46296" lon="5.66086">
        <ele>242.87</ele>
        <time>2019-07-07T11:02:41Z</time>
      </trkpt>
      <trkpt lat="50.46294" lon="5.66086">
        <ele>242.39</ele>
        <time>2019-07-07T11:03:08Z</time>
      </trkpt>
      <trkpt lat="50.46277" lon="5.66081">
        <ele>242.87</ele>
        <time>2019-07-07T11:03:19Z</time>
      </trkpt>
      <trkpt lat="50.46267" lon="5.66079">
        <ele>242.87</ele>
        <time>2019-07-07T11:03:39Z</time>
      </trkpt>
      <trkpt lat="50.46236" lon="5.66066">
        <ele>242.39</ele>
        <time>2019-07-07T11:03:46Z</time>
      </trkpt>
      <trkpt lat="50.46231" lon="5.66062">
        <ele>242.39</ele>
        <time>2019-07-07T11:03:47Z</time>
      </trkpt>
      <trkpt lat="50.46227" lon="5.66057">
        <ele>242.39</ele>
        <time>2019-07-07T11:03:48Z</time>
      </trkpt>
      <trkpt lat="50.46217" lon="5.66045">
        <ele>241.43</ele>
        <time>2019-07-07T11:03:50Z</time>
      </trkpt>
      <trkpt lat="50.46149" lon="5.65962">
        <ele>239.51</ele>
        <time>2019-07-07T11:04:04Z</time>
      </trkpt>
      <trkpt lat="50.46146" lon="5.65958">
        <ele>238.54</ele>
        <time>2019-07-07T11:04:05Z</time>
      </trkpt>
      <trkpt lat="50.46144" lon="5.65955">
        <ele>238.54</ele>
        <time>2019-07-07T11:04:06Z</time>
      </trkpt>
      <trkpt lat="50.46142" lon="5.65951">
        <ele>238.54</ele>
        <time>2019-07-07T11:04:07Z</time>
      </trkpt>
      <trkpt lat="50.4614" lon="5.65949">
        <ele>238.54</ele>
        <time>2019-07-07T11:04:08Z</time>
      </trkpt>
      <trkpt lat="50.46134" lon="5.65946">
        <ele>238.06</ele>
        <time>2019-07-07T11:04:17Z</time>
      </trkpt>
      <trkpt lat="50.4613" lon="5.65942">
        <ele>238.06</ele>
        <time>2019-07-07T11:04:19Z</time>
      </trkpt>
      <trkpt lat="50.46099" lon="5.65903">
        <ele>237.1</ele>
        <time>2019-07-07T11:04:30Z</time>
      </trkpt>
      <trkpt lat="50.46083" lon="5.65885">
        <ele>237.1</ele>
        <time>2019-07-07T11:04:33Z</time>
      </trkpt>
      <trkpt lat="50.46078" lon="5.65878">
        <ele>236.14</ele>
        <time>2019-07-07T11:04:34Z</time>
      </trkpt>
      <trkpt lat="50.46074" lon="5.6587">
        <ele>235.66</ele>
        <time>2019-07-07T11:04:35Z</time>
      </trkpt>
      <trkpt lat="50.4607" lon="5.65862">
        <ele>235.66</ele>
        <time>2019-07-07T11:04:36Z</time>
      </trkpt>
      <trkpt lat="50.46067" lon="5.65853">
        <ele>235.66</ele>
        <time>2019-07-07T11:04:37Z</time>
      </trkpt>
      <trkpt lat="50.46025" lon="5.65768">
        <ele>235.66</ele>
        <time>2019-07-07T11:04:48Z</time>
      </trkpt>
      <trkpt lat="50.4602" lon="5.65762">
        <ele>235.66</ele>
        <time>2019-07-07T11:04:49Z</time>
      </trkpt>
      <trkpt lat="50.45952" lon="5.65698">
        <ele>235.66</ele>
        <time>2019-07-07T11:05:03Z</time>
      </trkpt>
      <trkpt lat="50.45925" lon="5.65671">
        <ele>238.06</ele>
        <time>2019-07-07T11:05:09Z</time>
      </trkpt>
      <trkpt lat="50.45921" lon="5.6567">
        <ele>238.06</ele>
        <time>2019-07-07T11:05:10Z</time>
      </trkpt>
      <trkpt lat="50.45916" lon="5.65671">
        <ele>238.54</ele>
        <time>2019-07-07T11:05:11Z</time>
      </trkpt>
      <trkpt lat="50.45912" lon="5.65675">
        <ele>238.54</ele>
        <time>2019-07-07T11:05:12Z</time>
      </trkpt>
      <trkpt lat="50.45908" lon="5.65678">
        <ele>238.54</ele>
        <time>2019-07-07T11:05:13Z</time>
      </trkpt>
      <trkpt lat="50.45903" lon="5.65679">
        <ele>239.02</ele>
        <time>2019-07-07T11:05:14Z</time>
      </trkpt>
      <trkpt lat="50.45898" lon="5.65678">
        <ele>239.02</ele>
        <time>2019-07-07T11:05:15Z</time>
      </trkpt>
      <trkpt lat="50.45893" lon="5.65676">
        <ele>239.02</ele>
        <time>2019-07-07T11:05:16Z</time>
      </trkpt>
      <trkpt lat="50.45818" lon="5.65643">
        <ele>240.95</ele>
        <time>2019-07-07T11:05:31Z</time>
      </trkpt>
      <trkpt lat="50.45786" lon="5.6562">
        <ele>242.39</ele>
        <time>2019-07-07T11:05:38Z</time>
      </trkpt>
      <trkpt lat="50.45782" lon="5.65618">
        <ele>242.39</ele>
        <time>2019-07-07T11:05:39Z</time>
      </trkpt>
      <trkpt lat="50.45777" lon="5.65616">
        <ele>242.87</ele>
        <time>2019-07-07T11:05:40Z</time>
      </trkpt>
      <trkpt lat="50.45773" lon="5.65613">
        <ele>242.87</ele>
        <time>2019-07-07T11:05:41Z</time>
      </trkpt>
      <trkpt lat="50.45769" lon="5.65609">
        <ele>242.87</ele>
        <time>2019-07-07T11:05:42Z</time>
      </trkpt>
      <trkpt lat="50.4571" lon="5.65553">
        <ele>244.79</ele>
        <time>2019-07-07T11:05:58Z</time>
      </trkpt>
      <trkpt lat="50.45668" lon="5.65462">
        <ele>246.72</ele>
        <time>2019-07-07T11:06:15Z</time>
      </trkpt>
      <trkpt lat="50.45637" lon="5.6536">
        <ele>247.68</ele>
        <time>2019-07-07T11:06:31Z</time>
      </trkpt>
      <trkpt lat="50.45615" lon="5.65295">
        <ele>248.64</ele>
        <time>2019-07-07T11:06:42Z</time>
      </trkpt>
      <trkpt lat="50.4561" lon="5.65294">
        <ele>248.64</ele>
        <time>2019-07-07T11:06:43Z</time>
      </trkpt>
      <trkpt lat="50.45606" lon="5.65294">
        <ele>248.64</ele>
        <time>2019-07-07T11:06:44Z</time>
      </trkpt>
      <trkpt lat="50.45602" lon="5.65295">
        <ele>249.12</ele>
        <time>2019-07-07T11:06:45Z</time>
      </trkpt>
      <trkpt lat="50.45597" lon="5.65296">
        <ele>249.12</ele>
        <time>2019-07-07T11:06:46Z</time>
      </trkpt>
      <trkpt lat="50.45545" lon="5.65311">
        <ele>250.56</ele>
        <time>2019-07-07T11:06:58Z</time>
      </trkpt>
      <trkpt lat="50.45542" lon="5.65314">
        <ele>251.04</ele>
        <time>2019-07-07T11:06:59Z</time>
      </trkpt>
      <trkpt lat="50.45538" lon="5.65315">
        <ele>251.04</ele>
        <time>2019-07-07T11:07:00Z</time>
      </trkpt>
      <trkpt lat="50.45534" lon="5.65317">
        <ele>251.04</ele>
        <time>2019-07-07T11:07:01Z</time>
      </trkpt>
      <trkpt lat="50.4553" lon="5.65318">
        <ele>251.04</ele>
        <time>2019-07-07T11:07:02Z</time>
      </trkpt>
      <trkpt lat="50.45526" lon="5.65319">
        <ele>251.04</ele>
        <time>2019-07-07T11:07:03Z</time>
      </trkpt>
      <trkpt lat="50.45522" lon="5.6532">
        <ele>251.04</ele>
        <time>2019-07-07T11:07:04Z</time>
      </trkpt>
      <trkpt lat="50.45518" lon="5.65322">
        <ele>251.04</ele>
        <time>2019-07-07T11:07:05Z</time>
      </trkpt>
      <trkpt lat="50.45445" lon="5.65366">
        <ele>250.08</ele>
        <time>2019-07-07T11:07:20Z</time>
      </trkpt>
      <trkpt lat="50.4544" lon="5.65371">
        <ele>250.08</ele>
        <time>2019-07-07T11:07:21Z</time>
      </trkpt>
      <trkpt lat="50.4536" lon="5.6547">
        <ele>246.72</ele>
        <time>2019-07-07T11:07:37Z</time>
      </trkpt>
      <trkpt lat="50.45276" lon="5.65568">
        <ele>243.35</ele>
        <time>2019-07-07T11:07:51Z</time>
      </trkpt>
      <trkpt lat="50.45234" lon="5.65603">
        <ele>239.51</ele>
        <time>2019-07-07T11:07:56Z</time>
      </trkpt>
      <trkpt lat="50.45195" lon="5.65633">
        <ele>236.14</ele>
        <time>2019-07-07T11:08:00Z</time>
      </trkpt>
      <trkpt lat="50.45155" lon="5.65674">
        <ele>232.3</ele>
        <time>2019-07-07T11:08:04Z</time>
      </trkpt>
      <trkpt lat="50.45136" lon="5.65702">
        <ele>231.33</ele>
        <time>2019-07-07T11:08:06Z</time>
      </trkpt>
      <trkpt lat="50.4511" lon="5.65738">
        <ele>229.89</ele>
        <time>2019-07-07T11:08:09Z</time>
      </trkpt>
      <trkpt lat="50.45061" lon="5.65783">
        <ele>232.78</ele>
        <time>2019-07-07T11:08:15Z</time>
      </trkpt>
      <trkpt lat="50.45055" lon="5.65787">
        <ele>233.74</ele>
        <time>2019-07-07T11:08:16Z</time>
      </trkpt>
      <trkpt lat="50.45049" lon="5.6579">
        <ele>234.22</ele>
        <time>2019-07-07T11:08:17Z</time>
      </trkpt>
      <trkpt lat="50.45037" lon="5.65795">
        <ele>235.18</ele>
        <time>2019-07-07T11:08:19Z</time>
      </trkpt>
      <trkpt lat="50.44996" lon="5.65814">
        <ele>238.54</ele>
        <time>2019-07-07T11:08:28Z</time>
      </trkpt>
      <trkpt lat="50.44942" lon="5.65852">
        <ele>241.91</ele>
        <time>2019-07-07T11:08:42Z</time>
      </trkpt>
      <trkpt lat="50.4488" lon="5.65896">
        <ele>244.79</ele>
        <time>2019-07-07T11:08:59Z</time>
      </trkpt>
      <trkpt lat="50.44809" lon="5.6595">
        <ele>245.75</ele>
        <time>2019-07-07T11:09:17Z</time>
      </trkpt>
      <trkpt lat="50.44727" lon="5.66012">
        <ele>245.75</ele>
        <time>2019-07-07T11:09:34Z</time>
      </trkpt>
      <trkpt lat="50.44692" lon="5.66037">
        <ele>245.75</ele>
        <time>2019-07-07T11:09:41Z</time>
      </trkpt>
      <trkpt lat="50.44667" lon="5.66055">
        <ele>244.31</ele>
        <time>2019-07-07T11:09:46Z</time>
      </trkpt>
      <trkpt lat="50.44574" lon="5.66124">
        <ele>242.39</ele>
        <time>2019-07-07T11:10:03Z</time>
      </trkpt>
      <trkpt lat="50.44488" lon="5.66188">
        <ele>243.83</ele>
        <time>2019-07-07T11:10:19Z</time>
      </trkpt>
      <trkpt lat="50.44417" lon="5.66226">
        <ele>247.2</ele>
        <time>2019-07-07T11:10:35Z</time>
      </trkpt>
      <trkpt lat="50.44363" lon="5.66288">
        <ele>247.68</ele>
        <time>2019-07-07T11:10:48Z</time>
      </trkpt>
      <trkpt lat="50.4428" lon="5.6633">
        <ele>246.72</ele>
        <time>2019-07-07T11:11:03Z</time>
      </trkpt>
      <trkpt lat="50.44273" lon="5.66332">
        <ele>246.72</ele>
        <time>2019-07-07T11:11:04Z</time>
      </trkpt>
      <trkpt lat="50.44253" lon="5.6634">
        <ele>245.27</ele>
        <time>2019-07-07T11:11:07Z</time>
      </trkpt>
      <trkpt lat="50.44166" lon="5.664">
        <ele>242.39</ele>
        <time>2019-07-07T11:11:21Z</time>
      </trkpt>
      <trkpt lat="50.44145" lon="5.66416">
        <ele>240.95</ele>
        <time>2019-07-07T11:11:24Z</time>
      </trkpt>
      <trkpt lat="50.44139" lon="5.66424">
        <ele>240.47</ele>
        <time>2019-07-07T11:11:25Z</time>
      </trkpt>
      <trkpt lat="50.44133" lon="5.66434">
        <ele>239.99</ele>
        <time>2019-07-07T11:11:26Z</time>
      </trkpt>
      <trkpt lat="50.44129" lon="5.66446">
        <ele>239.51</ele>
        <time>2019-07-07T11:11:27Z</time>
      </trkpt>
      <trkpt lat="50.44127" lon="5.66459">
        <ele>239.51</ele>
        <time>2019-07-07T11:11:28Z</time>
      </trkpt>
      <trkpt lat="50.44125" lon="5.66471">
        <ele>238.06</ele>
        <time>2019-07-07T11:11:29Z</time>
      </trkpt>
      <trkpt lat="50.44116" lon="5.66518">
        <ele>237.1</ele>
        <time>2019-07-07T11:11:33Z</time>
      </trkpt>
      <trkpt lat="50.44106" lon="5.66556">
        <ele>239.02</ele>
        <time>2019-07-07T11:11:37Z</time>
      </trkpt>
      <trkpt lat="50.44096" lon="5.66637">
        <ele>242.39</ele>
        <time>2019-07-07T11:11:47Z</time>
      </trkpt>
      <trkpt lat="50.4409" lon="5.66668">
        <ele>243.35</ele>
        <time>2019-07-07T11:11:52Z</time>
      </trkpt>
      <trkpt lat="50.44087" lon="5.66674">
        <ele>243.83</ele>
        <time>2019-07-07T11:11:53Z</time>
      </trkpt>
      <trkpt lat="50.44084" lon="5.66679">
        <ele>243.83</ele>
        <time>2019-07-07T11:11:54Z</time>
      </trkpt>
      <trkpt lat="50.44081" lon="5.66683">
        <ele>244.31</ele>
        <time>2019-07-07T11:11:55Z</time>
      </trkpt>
      <trkpt lat="50.44078" lon="5.66687">
        <ele>244.31</ele>
        <time>2019-07-07T11:11:56Z</time>
      </trkpt>
      <trkpt lat="50.44029" lon="5.66717">
        <ele>246.72</ele>
        <time>2019-07-07T11:12:11Z</time>
      </trkpt>
      <trkpt lat="50.43986" lon="5.66728">
        <ele>248.16</ele>
        <time>2019-07-07T11:12:25Z</time>
      </trkpt>
      <trkpt lat="50.43943" lon="5.66737">
        <ele>249.12</ele>
        <time>2019-07-07T11:12:39Z</time>
      </trkpt>
      <trkpt lat="50.43901" lon="5.66743">
        <ele>251.04</ele>
        <time>2019-07-07T11:12:50Z</time>
      </trkpt>
      <trkpt lat="50.43896" lon="5.66744">
        <ele>251.04</ele>
        <time>2019-07-07T11:12:51Z</time>
      </trkpt>
      <trkpt lat="50.43892" lon="5.66742">
        <ele>251.04</ele>
        <time>2019-07-07T11:12:52Z</time>
      </trkpt>
      <trkpt lat="50.43888" lon="5.66739">
        <ele>251.52</ele>
        <time>2019-07-07T11:12:53Z</time>
      </trkpt>
      <trkpt lat="50.43885" lon="5.66735">
        <ele>251.52</ele>
        <time>2019-07-07T11:12:54Z</time>
      </trkpt>
      <trkpt lat="50.43883" lon="5.6673">
        <ele>252.48</ele>
        <time>2019-07-07T11:12:55Z</time>
      </trkpt>
      <trkpt lat="50.43881" lon="5.66726">
        <ele>252.96</ele>
        <time>2019-07-07T11:12:56Z</time>
      </trkpt>
      <trkpt lat="50.43878" lon="5.66722">
        <ele>252.96</ele>
        <time>2019-07-07T11:12:57Z</time>
      </trkpt>
      <trkpt lat="50.43875" lon="5.66719">
        <ele>252.96</ele>
        <time>2019-07-07T11:12:58Z</time>
      </trkpt>
      <trkpt lat="50.43872" lon="5.66717">
        <ele>252.96</ele>
        <time>2019-07-07T11:12:59Z</time>
      </trkpt>
      <trkpt lat="50.43869" lon="5.66716">
        <ele>253.44</ele>
        <time>2019-07-07T11:13:00Z</time>
      </trkpt>
      <trkpt lat="50.43865" lon="5.66715">
        <ele>253.44</ele>
        <time>2019-07-07T11:13:01Z</time>
      </trkpt>
      <trkpt lat="50.43861" lon="5.66715">
        <ele>253.44</ele>
        <time>2019-07-07T11:13:02Z</time>
      </trkpt>
      <trkpt lat="50.43826" lon="5.66709">
        <ele>254.41</ele>
        <time>2019-07-07T11:13:11Z</time>
      </trkpt>
      <trkpt lat="50.43795" lon="5.66667">
        <ele>256.33</ele>
        <time>2019-07-07T11:13:22Z</time>
      </trkpt>
      <trkpt lat="50.43757" lon="5.66627">
        <ele>258.25</ele>
        <time>2019-07-07T11:13:36Z</time>
      </trkpt>
      <trkpt lat="50.4372" lon="5.66605">
        <ele>261.14</ele>
        <time>2019-07-07T11:13:49Z</time>
      </trkpt>
      <trkpt lat="50.43688" lon="5.66567">
        <ele>264.98</ele>
        <time>2019-07-07T11:14:03Z</time>
      </trkpt>
      <trkpt lat="50.43659" lon="5.66523">
        <ele>267.86</ele>
        <time>2019-07-07T11:14:17Z</time>
      </trkpt>
      <trkpt lat="50.43624" lon="5.66475">
        <ele>270.75</ele>
        <time>2019-07-07T11:14:33Z</time>
      </trkpt>
      <trkpt lat="50.43596" lon="5.66459">
        <ele>273.63</ele>
        <time>2019-07-07T11:14:44Z</time>
      </trkpt>
      <trkpt lat="50.43573" lon="5.66456">
        <ele>277</ele>
        <time>2019-07-07T11:14:53Z</time>
      </trkpt>
      <trkpt lat="50.4355" lon="5.6645">
        <ele>279.88</ele>
        <time>2019-07-07T11:15:03Z</time>
      </trkpt>
      <trkpt lat="50.43529" lon="5.66439">
        <ele>283.25</ele>
        <time>2019-07-07T11:15:12Z</time>
      </trkpt>
      <trkpt lat="50.43505" lon="5.6642">
        <ele>286.61</ele>
        <time>2019-07-07T11:15:24Z</time>
      </trkpt>
      <trkpt lat="50.43486" lon="5.66401">
        <ele>289.49</ele>
        <time>2019-07-07T11:15:34Z</time>
      </trkpt>
      <trkpt lat="50.43465" lon="5.6638">
        <ele>292.86</ele>
        <time>2019-07-07T11:15:46Z</time>
      </trkpt>
      <trkpt lat="50.43439" lon="5.66356">
        <ele>296.22</ele>
        <time>2019-07-07T11:16:02Z</time>
      </trkpt>
      <trkpt lat="50.43409" lon="5.66331">
        <ele>298.15</ele>
        <time>2019-07-07T11:16:17Z</time>
      </trkpt>
      <trkpt lat="50.4337" lon="5.66303">
        <ele>300.55</ele>
        <time>2019-07-07T11:16:34Z</time>
      </trkpt>
      <trkpt lat="50.43328" lon="5.66287">
        <ele>302.95</ele>
        <time>2019-07-07T11:16:51Z</time>
      </trkpt>
      <trkpt lat="50.43286" lon="5.66286">
        <ele>305.84</ele>
        <time>2019-07-07T11:17:08Z</time>
      </trkpt>
      <trkpt lat="50.43255" lon="5.66291">
        <ele>308.72</ele>
        <time>2019-07-07T11:17:21Z</time>
      </trkpt>
      <trkpt lat="50.43223" lon="5.66304">
        <ele>312.09</ele>
        <time>2019-07-07T11:17:35Z</time>
      </trkpt>
      <trkpt lat="50.43191" lon="5.66318">
        <ele>314.97</ele>
        <time>2019-07-07T11:17:49Z</time>
      </trkpt>
      <trkpt lat="50.43159" lon="5.66329">
        <ele>317.85</ele>
        <time>2019-07-07T11:18:03Z</time>
      </trkpt>
      <trkpt lat="50.43125" lon="5.66334">
        <ele>320.74</ele>
        <time>2019-07-07T11:18:18Z</time>
      </trkpt>
      <trkpt lat="50.43097" lon="5.66334">
        <ele>322.66</ele>
        <time>2019-07-07T11:18:29Z</time>
      </trkpt>
      <trkpt lat="50.43062" lon="5.66344">
        <ele>324.1</ele>
        <time>2019-07-07T11:18:42Z</time>
      </trkpt>
      <trkpt lat="50.43031" lon="5.66375">
        <ele>326.02</ele>
        <time>2019-07-07T11:18:56Z</time>
      </trkpt>
      <trkpt lat="50.43008" lon="5.66422">
        <ele>327.95</ele>
        <time>2019-07-07T11:19:10Z</time>
      </trkpt>
      <trkpt lat="50.42988" lon="5.66477">
        <ele>329.87</ele>
        <time>2019-07-07T11:19:25Z</time>
      </trkpt>
      <trkpt lat="50.42972" lon="5.6653">
        <ele>332.27</ele>
        <time>2019-07-07T11:19:40Z</time>
      </trkpt>
      <trkpt lat="50.42956" lon="5.66589">
        <ele>335.16</ele>
        <time>2019-07-07T11:19:56Z</time>
      </trkpt>
      <trkpt lat="50.42947" lon="5.66628">
        <ele>337.56</ele>
        <time>2019-07-07T11:20:13Z</time>
      </trkpt>
      <trkpt lat="50.42946" lon="5.66629">
        <ele>337.56</ele>
        <time>2019-07-07T11:20:34Z</time>
      </trkpt>
      <trkpt lat="50.42946" lon="5.66629">
        <ele>337.08</ele>
        <time>2019-07-07T11:21:05Z</time>
      </trkpt>
      <trkpt lat="50.42944" lon="5.66633">
        <ele>337.08</ele>
        <time>2019-07-07T11:21:28Z</time>
      </trkpt>
      <trkpt lat="50.42935" lon="5.66678">
        <ele>339</ele>
        <time>2019-07-07T11:21:41Z</time>
      </trkpt>
      <trkpt lat="50.42926" lon="5.6673">
        <ele>342.37</ele>
        <time>2019-07-07T11:21:54Z</time>
      </trkpt>
      <trkpt lat="50.42912" lon="5.66794">
        <ele>345.25</ele>
        <time>2019-07-07T11:22:10Z</time>
      </trkpt>
      <trkpt lat="50.42885" lon="5.66851">
        <ele>348.13</ele>
        <time>2019-07-07T11:22:27Z</time>
      </trkpt>
      <trkpt lat="50.42854" lon="5.66906">
        <ele>351.02</ele>
        <time>2019-07-07T11:22:44Z</time>
      </trkpt>
      <trkpt lat="50.42824" lon="5.66968">
        <ele>353.9</ele>
        <time>2019-07-07T11:23:01Z</time>
      </trkpt>
      <trkpt lat="50.42798" lon="5.67035">
        <ele>356.79</ele>
        <time>2019-07-07T11:23:18Z</time>
      </trkpt>
      <trkpt lat="50.42773" lon="5.67099">
        <ele>357.75</ele>
        <time>2019-07-07T11:23:33Z</time>
      </trkpt>
      <trkpt lat="50.42756" lon="5.67131">
        <ele>357.75</ele>
        <time>2019-07-07T11:23:39Z</time>
      </trkpt>
      <trkpt lat="50.42731" lon="5.67232">
        <ele>360.15</ele>
        <time>2019-07-07T11:23:55Z</time>
      </trkpt>
      <trkpt lat="50.42721" lon="5.67308">
        <ele>362.55</ele>
        <time>2019-07-07T11:24:08Z</time>
      </trkpt>
      <trkpt lat="50.427" lon="5.67396">
        <ele>364</ele>
        <time>2019-07-07T11:24:23Z</time>
      </trkpt>
      <trkpt lat="50.42698" lon="5.67402">
        <ele>364.96</ele>
        <time>2019-07-07T11:24:24Z</time>
      </trkpt>
      <trkpt lat="50.42697" lon="5.67408">
        <ele>364.96</ele>
        <time>2019-07-07T11:24:25Z</time>
      </trkpt>
      <trkpt lat="50.42667" lon="5.67484">
        <ele>366.4</ele>
        <time>2019-07-07T11:24:40Z</time>
      </trkpt>
      <trkpt lat="50.42646" lon="5.67519">
        <ele>366.88</ele>
        <time>2019-07-07T11:24:47Z</time>
      </trkpt>
      <trkpt lat="50.42638" lon="5.6753">
        <ele>366.88</ele>
        <time>2019-07-07T11:24:49Z</time>
      </trkpt>
      <trkpt lat="50.4263" lon="5.67542">
        <ele>365.44</ele>
        <time>2019-07-07T11:24:51Z</time>
      </trkpt>
      <trkpt lat="50.42614" lon="5.67568">
        <ele>364.96</ele>
        <time>2019-07-07T11:24:55Z</time>
      </trkpt>
      <trkpt lat="50.4261" lon="5.67575">
        <ele>364.96</ele>
        <time>2019-07-07T11:24:56Z</time>
      </trkpt>
      <trkpt lat="50.4256" lon="5.67679">
        <ele>361.11</ele>
        <time>2019-07-07T11:25:08Z</time>
      </trkpt>
      <trkpt lat="50.42557" lon="5.67688">
        <ele>361.11</ele>
        <time>2019-07-07T11:25:09Z</time>
      </trkpt>
      <trkpt lat="50.4253" lon="5.67788">
        <ele>357.75</ele>
        <time>2019-07-07T11:25:18Z</time>
      </trkpt>
      <trkpt lat="50.42527" lon="5.67806">
        <ele>357.75</ele>
        <time>2019-07-07T11:25:20Z</time>
      </trkpt>
      <trkpt lat="50.42525" lon="5.67825">
        <ele>357.75</ele>
        <time>2019-07-07T11:25:22Z</time>
      </trkpt>
      <trkpt lat="50.42526" lon="5.67837">
        <ele>356.79</ele>
        <time>2019-07-07T11:25:23Z</time>
      </trkpt>
      <trkpt lat="50.42527" lon="5.67848">
        <ele>356.31</ele>
        <time>2019-07-07T11:25:24Z</time>
      </trkpt>
      <trkpt lat="50.42528" lon="5.6786">
        <ele>355.34</ele>
        <time>2019-07-07T11:25:25Z</time>
      </trkpt>
      <trkpt lat="50.42528" lon="5.67872">
        <ele>354.86</ele>
        <time>2019-07-07T11:25:26Z</time>
      </trkpt>
      <trkpt lat="50.42527" lon="5.67884">
        <ele>353.9</ele>
        <time>2019-07-07T11:25:27Z</time>
      </trkpt>
      <trkpt lat="50.42524" lon="5.67896">
        <ele>353.42</ele>
        <time>2019-07-07T11:25:28Z</time>
      </trkpt>
      <trkpt lat="50.42519" lon="5.67908">
        <ele>352.94</ele>
        <time>2019-07-07T11:25:29Z</time>
      </trkpt>
      <trkpt lat="50.42514" lon="5.67918">
        <ele>351.98</ele>
        <time>2019-07-07T11:25:30Z</time>
      </trkpt>
      <trkpt lat="50.42507" lon="5.67927">
        <ele>351.5</ele>
        <time>2019-07-07T11:25:31Z</time>
      </trkpt>
      <trkpt lat="50.42501" lon="5.67936">
        <ele>351.02</ele>
        <time>2019-07-07T11:25:32Z</time>
      </trkpt>
      <trkpt lat="50.42464" lon="5.67982">
        <ele>348.13</ele>
        <time>2019-07-07T11:25:38Z</time>
      </trkpt>
      <trkpt lat="50.42448" lon="5.68004">
        <ele>346.69</ele>
        <time>2019-07-07T11:25:41Z</time>
      </trkpt>
      <trkpt lat="50.42444" lon="5.68013">
        <ele>346.21</ele>
        <time>2019-07-07T11:25:42Z</time>
      </trkpt>
      <trkpt lat="50.42442" lon="5.68023">
        <ele>345.73</ele>
        <time>2019-07-07T11:25:43Z</time>
      </trkpt>
      <trkpt lat="50.42441" lon="5.68033">
        <ele>345.25</ele>
        <time>2019-07-07T11:25:44Z</time>
      </trkpt>
      <trkpt lat="50.42442" lon="5.68045">
        <ele>345.25</ele>
        <time>2019-07-07T11:25:45Z</time>
      </trkpt>
      <trkpt lat="50.42444" lon="5.68054">
        <ele>344.77</ele>
        <time>2019-07-07T11:25:46Z</time>
      </trkpt>
      <trkpt lat="50.42447" lon="5.68065">
        <ele>343.81</ele>
        <time>2019-07-07T11:25:47Z</time>
      </trkpt>
      <trkpt lat="50.4245" lon="5.68075">
        <ele>343.81</ele>
        <time>2019-07-07T11:25:48Z</time>
      </trkpt>
      <trkpt lat="50.42471" lon="5.68149">
        <ele>342.85</ele>
        <time>2019-07-07T11:25:58Z</time>
      </trkpt>
      <trkpt lat="50.42473" lon="5.68156">
        <ele>342.37</ele>
        <time>2019-07-07T11:25:59Z</time>
      </trkpt>
      <trkpt lat="50.42474" lon="5.68162">
        <ele>341.89</ele>
        <time>2019-07-07T11:26:00Z</time>
      </trkpt>
      <trkpt lat="50.42475" lon="5.68168">
        <ele>342.37</ele>
        <time>2019-07-07T11:26:01Z</time>
      </trkpt>
      <trkpt lat="50.42474" lon="5.68173">
        <ele>342.37</ele>
        <time>2019-07-07T11:26:02Z</time>
      </trkpt>
      <trkpt lat="50.4247" lon="5.68179">
        <ele>341.89</ele>
        <time>2019-07-07T11:26:03Z</time>
      </trkpt>
      <trkpt lat="50.42467" lon="5.68182">
        <ele>341.89</ele>
        <time>2019-07-07T11:26:04Z</time>
      </trkpt>
      <trkpt lat="50.42462" lon="5.68186">
        <ele>341.89</ele>
        <time>2019-07-07T11:26:05Z</time>
      </trkpt>
      <trkpt lat="50.42457" lon="5.6819">
        <ele>341.89</ele>
        <time>2019-07-07T11:26:06Z</time>
      </trkpt>
      <trkpt lat="50.42452" lon="5.68194">
        <ele>341.89</ele>
        <time>2019-07-07T11:26:07Z</time>
      </trkpt>
      <trkpt lat="50.42443" lon="5.68202">
        <ele>341.89</ele>
        <time>2019-07-07T11:26:09Z</time>
      </trkpt>
      <trkpt lat="50.42439" lon="5.68209">
        <ele>341.89</ele>
        <time>2019-07-07T11:26:10Z</time>
      </trkpt>
      <trkpt lat="50.42436" lon="5.68217">
        <ele>341.89</ele>
        <time>2019-07-07T11:26:11Z</time>
      </trkpt>
      <trkpt lat="50.42436" lon="5.68225">
        <ele>341.89</ele>
        <time>2019-07-07T11:26:12Z</time>
      </trkpt>
      <trkpt lat="50.42437" lon="5.68233">
        <ele>341.89</ele>
        <time>2019-07-07T11:26:13Z</time>
      </trkpt>
      <trkpt lat="50.42439" lon="5.6824">
        <ele>341.89</ele>
        <time>2019-07-07T11:26:14Z</time>
      </trkpt>
      <trkpt lat="50.42441" lon="5.68246">
        <ele>341.89</ele>
        <time>2019-07-07T11:26:15Z</time>
      </trkpt>
      <trkpt lat="50.42444" lon="5.6827">
        <ele>345.25</ele>
        <time>2019-07-07T11:26:20Z</time>
      </trkpt>
      <trkpt lat="50.42436" lon="5.68311">
        <ele>348.62</ele>
        <time>2019-07-07T11:26:30Z</time>
      </trkpt>
      <trkpt lat="50.42415" lon="5.68357">
        <ele>351.02</ele>
        <time>2019-07-07T11:26:44Z</time>
      </trkpt>
      <trkpt lat="50.42395" lon="5.68368">
        <ele>351.02</ele>
        <time>2019-07-07T11:26:49Z</time>
      </trkpt>
      <trkpt lat="50.42391" lon="5.68373">
        <ele>350.06</ele>
        <time>2019-07-07T11:26:50Z</time>
      </trkpt>
      <trkpt lat="50.42337" lon="5.68447">
        <ele>347.65</ele>
        <time>2019-07-07T11:27:03Z</time>
      </trkpt>
      <trkpt lat="50.42318" lon="5.68472">
        <ele>346.69</ele>
        <time>2019-07-07T11:27:08Z</time>
      </trkpt>
      <trkpt lat="50.42313" lon="5.68477">
        <ele>346.69</ele>
        <time>2019-07-07T11:27:09Z</time>
      </trkpt>
      <trkpt lat="50.42235" lon="5.6852">
        <ele>346.21</ele>
        <time>2019-07-07T11:27:25Z</time>
      </trkpt>
      <trkpt lat="50.42224" lon="5.68528">
        <ele>345.73</ele>
        <time>2019-07-07T11:27:27Z</time>
      </trkpt>
      <trkpt lat="50.42213" lon="5.68538">
        <ele>345.25</ele>
        <time>2019-07-07T11:27:29Z</time>
      </trkpt>
      <trkpt lat="50.42167" lon="5.68589">
        <ele>342.37</ele>
        <time>2019-07-07T11:27:37Z</time>
      </trkpt>
      <trkpt lat="50.42114" lon="5.68651">
        <ele>339</ele>
        <time>2019-07-07T11:27:45Z</time>
      </trkpt>
      <trkpt lat="50.42102" lon="5.68668">
        <ele>338.52</ele>
        <time>2019-07-07T11:27:47Z</time>
      </trkpt>
      <trkpt lat="50.42096" lon="5.68678">
        <ele>337.56</ele>
        <time>2019-07-07T11:27:48Z</time>
      </trkpt>
      <trkpt lat="50.42091" lon="5.68689">
        <ele>337.08</ele>
        <time>2019-07-07T11:27:49Z</time>
      </trkpt>
      <trkpt lat="50.42086" lon="5.68701">
        <ele>336.6</ele>
        <time>2019-07-07T11:27:50Z</time>
      </trkpt>
      <trkpt lat="50.42081" lon="5.68714">
        <ele>336.12</ele>
        <time>2019-07-07T11:27:51Z</time>
      </trkpt>
      <trkpt lat="50.42066" lon="5.68749">
        <ele>335.16</ele>
        <time>2019-07-07T11:27:54Z</time>
      </trkpt>
      <trkpt lat="50.42059" lon="5.68759">
        <ele>335.16</ele>
        <time>2019-07-07T11:27:55Z</time>
      </trkpt>
      <trkpt lat="50.42052" lon="5.68767">
        <ele>335.16</ele>
        <time>2019-07-07T11:27:56Z</time>
      </trkpt>
      <trkpt lat="50.42019" lon="5.68795">
        <ele>336.12</ele>
        <time>2019-07-07T11:28:01Z</time>
      </trkpt>
      <trkpt lat="50.41971" lon="5.68836">
        <ele>339.48</ele>
        <time>2019-07-07T11:28:12Z</time>
      </trkpt>
      <trkpt lat="50.41919" lon="5.68883">
        <ele>342.85</ele>
        <time>2019-07-07T11:28:28Z</time>
      </trkpt>
      <trkpt lat="50.41879" lon="5.68916">
        <ele>345.25</ele>
        <time>2019-07-07T11:28:41Z</time>
      </trkpt>
      <trkpt lat="50.41819" lon="5.68948">
        <ele>348.13</ele>
        <time>2019-07-07T11:29:01Z</time>
      </trkpt>
      <trkpt lat="50.41779" lon="5.68962">
        <ele>351.5</ele>
        <time>2019-07-07T11:29:16Z</time>
      </trkpt>
      <trkpt lat="50.41745" lon="5.6897">
        <ele>354.86</ele>
        <time>2019-07-07T11:29:29Z</time>
      </trkpt>
      <trkpt lat="50.41708" lon="5.68986">
        <ele>357.27</ele>
        <time>2019-07-07T11:29:44Z</time>
      </trkpt>
      <trkpt lat="50.41675" lon="5.6901">
        <ele>357.27</ele>
        <time>2019-07-07T11:29:55Z</time>
      </trkpt>
      <trkpt lat="50.41658" lon="5.69015">
        <ele>357.27</ele>
        <time>2019-07-07T11:29:59Z</time>
      </trkpt>
      <trkpt lat="50.41653" lon="5.69016">
        <ele>357.27</ele>
        <time>2019-07-07T11:30:00Z</time>
      </trkpt>
      <trkpt lat="50.41634" lon="5.69017">
        <ele>356.31</ele>
        <time>2019-07-07T11:30:04Z</time>
      </trkpt>
      <trkpt lat="50.41623" lon="5.6902">
        <ele>356.31</ele>
        <time>2019-07-07T11:30:06Z</time>
      </trkpt>
      <trkpt lat="50.41618" lon="5.69023">
        <ele>356.31</ele>
        <time>2019-07-07T11:30:07Z</time>
      </trkpt>
      <trkpt lat="50.41571" lon="5.69072">
        <ele>358.71</ele>
        <time>2019-07-07T11:30:20Z</time>
      </trkpt>
      <trkpt lat="50.41544" lon="5.69103">
        <ele>362.07</ele>
        <time>2019-07-07T11:30:32Z</time>
      </trkpt>
      <trkpt lat="50.41512" lon="5.69132">
        <ele>365.44</ele>
        <time>2019-07-07T11:30:46Z</time>
      </trkpt>
      <trkpt lat="50.41481" lon="5.69143">
        <ele>368.8</ele>
        <time>2019-07-07T11:30:59Z</time>
      </trkpt>
      <trkpt lat="50.41465" lon="5.69111">
        <ele>372.17</ele>
        <time>2019-07-07T11:31:09Z</time>
      </trkpt>
      <trkpt lat="50.41438" lon="5.69098">
        <ele>374.57</ele>
        <time>2019-07-07T11:31:22Z</time>
      </trkpt>
      <trkpt lat="50.41405" lon="5.69109">
        <ele>377.94</ele>
        <time>2019-07-07T11:31:37Z</time>
      </trkpt>
      <trkpt lat="50.41376" lon="5.69108">
        <ele>381.3</ele>
        <time>2019-07-07T11:31:50Z</time>
      </trkpt>
      <trkpt lat="50.41345" lon="5.69111">
        <ele>384.66</ele>
        <time>2019-07-07T11:32:04Z</time>
      </trkpt>
      <trkpt lat="50.4131" lon="5.691">
        <ele>388.03</ele>
        <time>2019-07-07T11:32:21Z</time>
      </trkpt>
      <trkpt lat="50.41278" lon="5.69088">
        <ele>391.39</ele>
        <time>2019-07-07T11:32:36Z</time>
      </trkpt>
      <trkpt lat="50.41258" lon="5.69073">
        <ele>393.8</ele>
        <time>2019-07-07T11:32:46Z</time>
      </trkpt>
      <trkpt lat="50.41256" lon="5.69072">
        <ele>394.28</ele>
        <time>2019-07-07T11:32:47Z</time>
      </trkpt>
      <trkpt lat="50.41255" lon="5.69071">
        <ele>394.28</ele>
        <time>2019-07-07T11:32:48Z</time>
      </trkpt>
      <trkpt lat="50.41254" lon="5.69068">
        <ele>394.28</ele>
        <time>2019-07-07T11:32:49Z</time>
      </trkpt>
      <trkpt lat="50.41253" lon="5.69066">
        <ele>394.76</ele>
        <time>2019-07-07T11:32:50Z</time>
      </trkpt>
      <trkpt lat="50.41253" lon="5.69063">
        <ele>394.76</ele>
        <time>2019-07-07T11:32:51Z</time>
      </trkpt>
      <trkpt lat="50.41253" lon="5.6906">
        <ele>394.76</ele>
        <time>2019-07-07T11:32:52Z</time>
      </trkpt>
      <trkpt lat="50.41256" lon="5.6902">
        <ele>396.2</ele>
        <time>2019-07-07T11:33:04Z</time>
      </trkpt>
      <trkpt lat="50.41265" lon="5.68964">
        <ele>397.64</ele>
        <time>2019-07-07T11:33:18Z</time>
      </trkpt>
      <trkpt lat="50.41268" lon="5.68893">
        <ele>399.08</ele>
        <time>2019-07-07T11:33:34Z</time>
      </trkpt>
      <trkpt lat="50.41248" lon="5.68842">
        <ele>401.01</ele>
        <time>2019-07-07T11:33:48Z</time>
      </trkpt>
      <trkpt lat="50.41228" lon="5.68797">
        <ele>401.49</ele>
        <time>2019-07-07T11:34:01Z</time>
      </trkpt>
      <trkpt lat="50.412" lon="5.6873">
        <ele>401.01</ele>
        <time>2019-07-07T11:34:17Z</time>
      </trkpt>
      <trkpt lat="50.41165" lon="5.6869">
        <ele>401.01</ele>
        <time>2019-07-07T11:34:30Z</time>
      </trkpt>
      <trkpt lat="50.41113" lon="5.68687">
        <ele>400.05</ele>
        <time>2019-07-07T11:34:44Z</time>
      </trkpt>
      <trkpt lat="50.41064" lon="5.68685">
        <ele>396.68</ele>
        <time>2019-07-07T11:34:56Z</time>
      </trkpt>
      <trkpt lat="50.41054" lon="5.68685">
        <ele>396.2</ele>
        <time>2019-07-07T11:34:58Z</time>
      </trkpt>
      <trkpt lat="50.41032" lon="5.68684">
        <ele>394.28</ele>
        <time>2019-07-07T11:35:02Z</time>
      </trkpt>
      <trkpt lat="50.41006" lon="5.68684">
        <ele>390.91</ele>
        <time>2019-07-07T11:35:07Z</time>
      </trkpt>
      <trkpt lat="50.40976" lon="5.68683">
        <ele>387.55</ele>
        <time>2019-07-07T11:35:13Z</time>
      </trkpt>
      <trkpt lat="50.40953" lon="5.68687">
        <ele>384.18</ele>
        <time>2019-07-07T11:35:17Z</time>
      </trkpt>
      <trkpt lat="50.40933" lon="5.68691">
        <ele>380.82</ele>
        <time>2019-07-07T11:35:20Z</time>
      </trkpt>
      <trkpt lat="50.40926" lon="5.6869">
        <ele>380.34</ele>
        <time>2019-07-07T11:35:21Z</time>
      </trkpt>
      <trkpt lat="50.40921" lon="5.68686">
        <ele>380.34</ele>
        <time>2019-07-07T11:35:22Z</time>
      </trkpt>
      <trkpt lat="50.40916" lon="5.6868">
        <ele>380.34</ele>
        <time>2019-07-07T11:35:23Z</time>
      </trkpt>
      <trkpt lat="50.40913" lon="5.68672">
        <ele>380.34</ele>
        <time>2019-07-07T11:35:24Z</time>
      </trkpt>
      <trkpt lat="50.4091" lon="5.68665">
        <ele>380.34</ele>
        <time>2019-07-07T11:35:25Z</time>
      </trkpt>
      <trkpt lat="50.40899" lon="5.68638">
        <ele>382.26</ele>
        <time>2019-07-07T11:35:30Z</time>
      </trkpt>
      <trkpt lat="50.4087" lon="5.68606">
        <ele>385.15</ele>
        <time>2019-07-07T11:35:42Z</time>
      </trkpt>
      <trkpt lat="50.40827" lon="5.68585">
        <ele>388.03</ele>
        <time>2019-07-07T11:35:57Z</time>
      </trkpt>
      <trkpt lat="50.4077" lon="5.68577">
        <ele>390.91</ele>
        <time>2019-07-07T11:36:14Z</time>
      </trkpt>
      <trkpt lat="50.40717" lon="5.68568">
        <ele>393.32</ele>
        <time>2019-07-07T11:36:29Z</time>
      </trkpt>
      <trkpt lat="50.40668" lon="5.68546">
        <ele>393.8</ele>
        <time>2019-07-07T11:36:45Z</time>
      </trkpt>
      <trkpt lat="50.40663" lon="5.68531">
        <ele>393.8</ele>
        <time>2019-07-07T11:36:48Z</time>
      </trkpt>
      <trkpt lat="50.40663" lon="5.68525">
        <ele>393.8</ele>
        <time>2019-07-07T11:36:49Z</time>
      </trkpt>
      <trkpt lat="50.40664" lon="5.68516">
        <ele>392.84</ele>
        <time>2019-07-07T11:36:50Z</time>
      </trkpt>
      <trkpt lat="50.40665" lon="5.68508">
        <ele>392.84</ele>
        <time>2019-07-07T11:36:51Z</time>
      </trkpt>
      <trkpt lat="50.40671" lon="5.68452">
        <ele>388.99</ele>
        <time>2019-07-07T11:36:56Z</time>
      </trkpt>
      <trkpt lat="50.40677" lon="5.68408">
        <ele>386.11</ele>
        <time>2019-07-07T11:37:00Z</time>
      </trkpt>
      <trkpt lat="50.4068" lon="5.68399">
        <ele>385.63</ele>
        <time>2019-07-07T11:37:01Z</time>
      </trkpt>
      <trkpt lat="50.40684" lon="5.68392">
        <ele>385.63</ele>
        <time>2019-07-07T11:37:02Z</time>
      </trkpt>
      <trkpt lat="50.40691" lon="5.68387">
        <ele>384.66</ele>
        <time>2019-07-07T11:37:03Z</time>
      </trkpt>
      <trkpt lat="50.40698" lon="5.68384">
        <ele>384.66</ele>
        <time>2019-07-07T11:37:04Z</time>
      </trkpt>
      <trkpt lat="50.40704" lon="5.68381">
        <ele>383.7</ele>
        <time>2019-07-07T11:37:05Z</time>
      </trkpt>
      <trkpt lat="50.40717" lon="5.68376">
        <ele>383.22</ele>
        <time>2019-07-07T11:37:07Z</time>
      </trkpt>
      <trkpt lat="50.40723" lon="5.68371">
        <ele>382.74</ele>
        <time>2019-07-07T11:37:08Z</time>
      </trkpt>
      <trkpt lat="50.40728" lon="5.68364">
        <ele>381.3</ele>
        <time>2019-07-07T11:37:09Z</time>
      </trkpt>
      <trkpt lat="50.40731" lon="5.68353">
        <ele>380.34</ele>
        <time>2019-07-07T11:37:10Z</time>
      </trkpt>
      <trkpt lat="50.40732" lon="5.68341">
        <ele>379.86</ele>
        <time>2019-07-07T11:37:11Z</time>
      </trkpt>
      <trkpt lat="50.40731" lon="5.68329">
        <ele>378.9</ele>
        <time>2019-07-07T11:37:12Z</time>
      </trkpt>
      <trkpt lat="50.40731" lon="5.68269">
        <ele>375.05</ele>
        <time>2019-07-07T11:37:17Z</time>
      </trkpt>
      <trkpt lat="50.40731" lon="5.68215">
        <ele>371.21</ele>
        <time>2019-07-07T11:37:21Z</time>
      </trkpt>
      <trkpt lat="50.40734" lon="5.68186">
        <ele>368.8</ele>
        <time>2019-07-07T11:37:23Z</time>
      </trkpt>
      <trkpt lat="50.40737" lon="5.68171">
        <ele>367.84</ele>
        <time>2019-07-07T11:37:24Z</time>
      </trkpt>
      <trkpt lat="50.40747" lon="5.6813">
        <ele>364.48</ele>
        <time>2019-07-07T11:37:27Z</time>
      </trkpt>
      <trkpt lat="50.40762" lon="5.68073">
        <ele>361.11</ele>
        <time>2019-07-07T11:37:32Z</time>
      </trkpt>
      <trkpt lat="50.40764" lon="5.6806">
        <ele>360.15</ele>
        <time>2019-07-07T11:37:33Z</time>
      </trkpt>
      <trkpt lat="50.40764" lon="5.68046">
        <ele>358.71</ele>
        <time>2019-07-07T11:37:34Z</time>
      </trkpt>
      <trkpt lat="50.40765" lon="5.68016">
        <ele>356.31</ele>
        <time>2019-07-07T11:37:36Z</time>
      </trkpt>
      <trkpt lat="50.40768" lon="5.67999">
        <ele>354.86</ele>
        <time>2019-07-07T11:37:37Z</time>
      </trkpt>
      <trkpt lat="50.40782" lon="5.6795">
        <ele>351.5</ele>
        <time>2019-07-07T11:37:40Z</time>
      </trkpt>
      <trkpt lat="50.40793" lon="5.679">
        <ele>349.1</ele>
        <time>2019-07-07T11:37:43Z</time>
      </trkpt>
      <trkpt lat="50.408" lon="5.67788">
        <ele>346.69</ele>
        <time>2019-07-07T11:37:51Z</time>
      </trkpt>
      <trkpt lat="50.40798" lon="5.67777">
        <ele>346.21</ele>
        <time>2019-07-07T11:37:52Z</time>
      </trkpt>
      <trkpt lat="50.40795" lon="5.67766">
        <ele>346.21</ele>
        <time>2019-07-07T11:37:53Z</time>
      </trkpt>
      <trkpt lat="50.40788" lon="5.67737">
        <ele>348.13</ele>
        <time>2019-07-07T11:37:56Z</time>
      </trkpt>
      <trkpt lat="50.40786" lon="5.67729">
        <ele>349.1</ele>
        <time>2019-07-07T11:37:57Z</time>
      </trkpt>
      <trkpt lat="50.40786" lon="5.6772">
        <ele>349.58</ele>
        <time>2019-07-07T11:37:58Z</time>
      </trkpt>
      <trkpt lat="50.40786" lon="5.67712">
        <ele>349.58</ele>
        <time>2019-07-07T11:37:59Z</time>
      </trkpt>
      <trkpt lat="50.40787" lon="5.67705">
        <ele>350.54</ele>
        <time>2019-07-07T11:38:00Z</time>
      </trkpt>
      <trkpt lat="50.40789" lon="5.67699">
        <ele>350.54</ele>
        <time>2019-07-07T11:38:01Z</time>
      </trkpt>
      <trkpt lat="50.40793" lon="5.67695">
        <ele>351.02</ele>
        <time>2019-07-07T11:38:02Z</time>
      </trkpt>
      <trkpt lat="50.40796" lon="5.67692">
        <ele>351.5</ele>
        <time>2019-07-07T11:38:03Z</time>
      </trkpt>
      <trkpt lat="50.4083" lon="5.67673">
        <ele>354.86</ele>
        <time>2019-07-07T11:38:14Z</time>
      </trkpt>
      <trkpt lat="50.40835" lon="5.67659">
        <ele>355.34</ele>
        <time>2019-07-07T11:38:18Z</time>
      </trkpt>
      <trkpt lat="50.40835" lon="5.67655">
        <ele>355.34</ele>
        <time>2019-07-07T11:38:19Z</time>
      </trkpt>
      <trkpt lat="50.40835" lon="5.67652">
        <ele>355.34</ele>
        <time>2019-07-07T11:38:20Z</time>
      </trkpt>
      <trkpt lat="50.40834" lon="5.6765">
        <ele>355.34</ele>
        <time>2019-07-07T11:38:21Z</time>
      </trkpt>
      <trkpt lat="50.40833" lon="5.67648">
        <ele>355.83</ele>
        <time>2019-07-07T11:38:22Z</time>
      </trkpt>
      <trkpt lat="50.40832" lon="5.67646">
        <ele>355.83</ele>
        <time>2019-07-07T11:38:23Z</time>
      </trkpt>
      <trkpt lat="50.4083" lon="5.67645">
        <ele>355.83</ele>
        <time>2019-07-07T11:38:24Z</time>
      </trkpt>
      <trkpt lat="50.40826" lon="5.67644">
        <ele>355.83</ele>
        <time>2019-07-07T11:38:25Z</time>
      </trkpt>
      <trkpt lat="50.40823" lon="5.67646">
        <ele>355.83</ele>
        <time>2019-07-07T11:38:26Z</time>
      </trkpt>
      <trkpt lat="50.4082" lon="5.67648">
        <ele>355.83</ele>
        <time>2019-07-07T11:38:27Z</time>
      </trkpt>
      <trkpt lat="50.40818" lon="5.6765">
        <ele>355.83</ele>
        <time>2019-07-07T11:38:28Z</time>
      </trkpt>
      <trkpt lat="50.40815" lon="5.67652">
        <ele>355.83</ele>
        <time>2019-07-07T11:38:29Z</time>
      </trkpt>
      <trkpt lat="50.40812" lon="5.6765">
        <ele>355.83</ele>
        <time>2019-07-07T11:38:30Z</time>
      </trkpt>
      <trkpt lat="50.40809" lon="5.67647">
        <ele>356.31</ele>
        <time>2019-07-07T11:38:31Z</time>
      </trkpt>
      <trkpt lat="50.40808" lon="5.67643">
        <ele>356.31</ele>
        <time>2019-07-07T11:38:32Z</time>
      </trkpt>
      <trkpt lat="50.40807" lon="5.67638">
        <ele>357.27</ele>
        <time>2019-07-07T11:38:33Z</time>
      </trkpt>
      <trkpt lat="50.40808" lon="5.67633">
        <ele>357.27</ele>
        <time>2019-07-07T11:38:34Z</time>
      </trkpt>
      <trkpt lat="50.40808" lon="5.67628">
        <ele>357.27</ele>
        <time>2019-07-07T11:38:35Z</time>
      </trkpt>
      <trkpt lat="50.40823" lon="5.67541">
        <ele>360.63</ele>
        <time>2019-07-07T11:38:52Z</time>
      </trkpt>
      <trkpt lat="50.40841" lon="5.67479">
        <ele>361.59</ele>
        <time>2019-07-07T11:39:05Z</time>
      </trkpt>
      <trkpt lat="50.40867" lon="5.67406">
        <ele>363.52</ele>
        <time>2019-07-07T11:39:20Z</time>
      </trkpt>
      <trkpt lat="50.40894" lon="5.67339">
        <ele>364.96</ele>
        <time>2019-07-07T11:39:33Z</time>
      </trkpt>
      <trkpt lat="50.40943" lon="5.67268">
        <ele>366.4</ele>
        <time>2019-07-07T11:39:50Z</time>
      </trkpt>
      <trkpt lat="50.40951" lon="5.67254">
        <ele>366.4</ele>
        <time>2019-07-07T11:39:53Z</time>
      </trkpt>
      <trkpt lat="50.40957" lon="5.67235">
        <ele>366.4</ele>
        <time>2019-07-07T11:39:56Z</time>
      </trkpt>
      <trkpt lat="50.40959" lon="5.6722">
        <ele>366.4</ele>
        <time>2019-07-07T11:39:58Z</time>
      </trkpt>
      <trkpt lat="50.40959" lon="5.67212">
        <ele>366.4</ele>
        <time>2019-07-07T11:39:59Z</time>
      </trkpt>
      <trkpt lat="50.40959" lon="5.67203">
        <ele>366.4</ele>
        <time>2019-07-07T11:40:00Z</time>
      </trkpt>
      <trkpt lat="50.40956" lon="5.67186">
        <ele>364.96</ele>
        <time>2019-07-07T11:40:02Z</time>
      </trkpt>
      <trkpt lat="50.40953" lon="5.67178">
        <ele>364.96</ele>
        <time>2019-07-07T11:40:03Z</time>
      </trkpt>
      <trkpt lat="50.4095" lon="5.6717">
        <ele>364.48</ele>
        <time>2019-07-07T11:40:04Z</time>
      </trkpt>
      <trkpt lat="50.40881" lon="5.67068">
        <ele>362.07</ele>
        <time>2019-07-07T11:40:18Z</time>
      </trkpt>
      <trkpt lat="50.40789" lon="5.66937">
        <ele>359.67</ele>
        <time>2019-07-07T11:40:36Z</time>
      </trkpt>
      <trkpt lat="50.40715" lon="5.66885">
        <ele>359.19</ele>
        <time>2019-07-07T11:40:49Z</time>
      </trkpt>
      <trkpt lat="50.40666" lon="5.66859">
        <ele>360.15</ele>
        <time>2019-07-07T11:40:59Z</time>
      </trkpt>
      <trkpt lat="50.40589" lon="5.66834">
        <ele>363.04</ele>
        <time>2019-07-07T11:41:16Z</time>
      </trkpt>
      <trkpt lat="50.40533" lon="5.66806">
        <ele>365.92</ele>
        <time>2019-07-07T11:41:31Z</time>
      </trkpt>
      <trkpt lat="50.40474" lon="5.66756">
        <ele>368.32</ele>
        <time>2019-07-07T11:41:48Z</time>
      </trkpt>
      <trkpt lat="50.40445" lon="5.66726">
        <ele>369.76</ele>
        <time>2019-07-07T11:41:57Z</time>
      </trkpt>
      <trkpt lat="50.40442" lon="5.66722">
        <ele>369.76</ele>
        <time>2019-07-07T11:41:58Z</time>
      </trkpt>
      <trkpt lat="50.40439" lon="5.66717">
        <ele>369.76</ele>
        <time>2019-07-07T11:41:59Z</time>
      </trkpt>
      <trkpt lat="50.40437" lon="5.66712">
        <ele>369.76</ele>
        <time>2019-07-07T11:42:00Z</time>
      </trkpt>
      <trkpt lat="50.40434" lon="5.66707">
        <ele>369.76</ele>
        <time>2019-07-07T11:42:01Z</time>
      </trkpt>
      <trkpt lat="50.40432" lon="5.66702">
        <ele>369.76</ele>
        <time>2019-07-07T11:42:02Z</time>
      </trkpt>
      <trkpt lat="50.40415" lon="5.66655">
        <ele>369.76</ele>
        <time>2019-07-07T11:42:10Z</time>
      </trkpt>
      <trkpt lat="50.40411" lon="5.6665">
        <ele>369.76</ele>
        <time>2019-07-07T11:42:11Z</time>
      </trkpt>
      <trkpt lat="50.40407" lon="5.66646">
        <ele>369.76</ele>
        <time>2019-07-07T11:42:12Z</time>
      </trkpt>
      <trkpt lat="50.40403" lon="5.66643">
        <ele>369.76</ele>
        <time>2019-07-07T11:42:13Z</time>
      </trkpt>
      <trkpt lat="50.40399" lon="5.6664">
        <ele>369.76</ele>
        <time>2019-07-07T11:42:14Z</time>
      </trkpt>
      <trkpt lat="50.40394" lon="5.66639">
        <ele>369.76</ele>
        <time>2019-07-07T11:42:15Z</time>
      </trkpt>
      <trkpt lat="50.4039" lon="5.66639">
        <ele>369.76</ele>
        <time>2019-07-07T11:42:16Z</time>
      </trkpt>
      <trkpt lat="50.40321" lon="5.66636">
        <ele>370.73</ele>
        <time>2019-07-07T11:42:32Z</time>
      </trkpt>
      <trkpt lat="50.40248" lon="5.6663">
        <ele>373.13</ele>
        <time>2019-07-07T11:42:51Z</time>
      </trkpt>
      <trkpt lat="50.40199" lon="5.66645">
        <ele>374.57</ele>
        <time>2019-07-07T11:43:05Z</time>
      </trkpt>
      <trkpt lat="50.40155" lon="5.66648">
        <ele>376.97</ele>
        <time>2019-07-07T11:43:17Z</time>
      </trkpt>
      <trkpt lat="50.40109" lon="5.66672">
        <ele>377.94</ele>
        <time>2019-07-07T11:43:29Z</time>
      </trkpt>
      <trkpt lat="50.40057" lon="5.66706">
        <ele>379.38</ele>
        <time>2019-07-07T11:43:43Z</time>
      </trkpt>
      <trkpt lat="50.39993" lon="5.66745">
        <ele>379.86</ele>
        <time>2019-07-07T11:43:59Z</time>
      </trkpt>
      <trkpt lat="50.39923" lon="5.66772">
        <ele>379.86</ele>
        <time>2019-07-07T11:44:14Z</time>
      </trkpt>
      <trkpt lat="50.39914" lon="5.66773">
        <ele>379.86</ele>
        <time>2019-07-07T11:44:16Z</time>
      </trkpt>
      <trkpt lat="50.39842" lon="5.66753">
        <ele>379.86</ele>
        <time>2019-07-07T11:44:29Z</time>
      </trkpt>
      <trkpt lat="50.39813" lon="5.66738">
        <ele>378.42</ele>
        <time>2019-07-07T11:44:34Z</time>
      </trkpt>
      <trkpt lat="50.39729" lon="5.66684">
        <ele>377.45</ele>
        <time>2019-07-07T11:44:49Z</time>
      </trkpt>
      <trkpt lat="50.39637" lon="5.66618">
        <ele>377.94</ele>
        <time>2019-07-07T11:45:06Z</time>
      </trkpt>
      <trkpt lat="50.39533" lon="5.66594">
        <ele>377.45</ele>
        <time>2019-07-07T11:45:23Z</time>
      </trkpt>
      <trkpt lat="50.3944" lon="5.66571">
        <ele>377.45</ele>
        <time>2019-07-07T11:45:38Z</time>
      </trkpt>
      <trkpt lat="50.39371" lon="5.66519">
        <ele>377.45</ele>
        <time>2019-07-07T11:45:51Z</time>
      </trkpt>
      <trkpt lat="50.39301" lon="5.66432">
        <ele>379.38</ele>
        <time>2019-07-07T11:46:07Z</time>
      </trkpt>
      <trkpt lat="50.39276" lon="5.66401">
        <ele>380.82</ele>
        <time>2019-07-07T11:46:14Z</time>
      </trkpt>
      <trkpt lat="50.39237" lon="5.66353">
        <ele>382.26</ele>
        <time>2019-07-07T11:46:26Z</time>
      </trkpt>
      <trkpt lat="50.39191" lon="5.66293">
        <ele>385.15</ele>
        <time>2019-07-07T11:46:40Z</time>
      </trkpt>
      <trkpt lat="50.39145" lon="5.6626">
        <ele>387.55</ele>
        <time>2019-07-07T11:46:54Z</time>
      </trkpt>
      <trkpt lat="50.3908" lon="5.66244">
        <ele>390.91</ele>
        <time>2019-07-07T11:47:12Z</time>
      </trkpt>
      <trkpt lat="50.39025" lon="5.66229">
        <ele>393.32</ele>
        <time>2019-07-07T11:47:28Z</time>
      </trkpt>
      <trkpt lat="50.38965" lon="5.66204">
        <ele>395.72</ele>
        <time>2019-07-07T11:47:45Z</time>
      </trkpt>
      <trkpt lat="50.38918" lon="5.66185">
        <ele>398.12</ele>
        <time>2019-07-07T11:48:00Z</time>
      </trkpt>
      <trkpt lat="50.38917" lon="5.66185">
        <ele>398.6</ele>
        <time>2019-07-07T11:48:17Z</time>
      </trkpt>
      <trkpt lat="50.38915" lon="5.66185">
        <ele>398.6</ele>
        <time>2019-07-07T11:48:18Z</time>
      </trkpt>
      <trkpt lat="50.38913" lon="5.66185">
        <ele>398.6</ele>
        <time>2019-07-07T11:48:19Z</time>
      </trkpt>
      <trkpt lat="50.3891" lon="5.66186">
        <ele>398.6</ele>
        <time>2019-07-07T11:48:20Z</time>
      </trkpt>
      <trkpt lat="50.38907" lon="5.6619">
        <ele>398.6</ele>
        <time>2019-07-07T11:48:21Z</time>
      </trkpt>
      <trkpt lat="50.38904" lon="5.66194">
        <ele>398.6</ele>
        <time>2019-07-07T11:48:22Z</time>
      </trkpt>
      <trkpt lat="50.38901" lon="5.66199">
        <ele>398.6</ele>
        <time>2019-07-07T11:48:23Z</time>
      </trkpt>
      <trkpt lat="50.38891" lon="5.66211">
        <ele>399.57</ele>
        <time>2019-07-07T11:48:26Z</time>
      </trkpt>
      <trkpt lat="50.38838" lon="5.66246">
        <ele>402.45</ele>
        <time>2019-07-07T11:48:40Z</time>
      </trkpt>
      <trkpt lat="50.38785" lon="5.66258">
        <ele>404.85</ele>
        <time>2019-07-07T11:48:54Z</time>
      </trkpt>
      <trkpt lat="50.38781" lon="5.66254">
        <ele>405.33</ele>
        <time>2019-07-07T11:48:55Z</time>
      </trkpt>
      <trkpt lat="50.38777" lon="5.66249">
        <ele>405.33</ele>
        <time>2019-07-07T11:48:56Z</time>
      </trkpt>
      <trkpt lat="50.38775" lon="5.66244">
        <ele>405.33</ele>
        <time>2019-07-07T11:48:57Z</time>
      </trkpt>
      <trkpt lat="50.38772" lon="5.66237">
        <ele>405.33</ele>
        <time>2019-07-07T11:48:58Z</time>
      </trkpt>
      <trkpt lat="50.38726" lon="5.66127">
        <ele>402.93</ele>
        <time>2019-07-07T11:49:12Z</time>
      </trkpt>
      <trkpt lat="50.38692" lon="5.66007">
        <ele>401.01</ele>
        <time>2019-07-07T11:49:25Z</time>
      </trkpt>
      <trkpt lat="50.38673" lon="5.65934">
        <ele>397.64</ele>
        <time>2019-07-07T11:49:32Z</time>
      </trkpt>
      <trkpt lat="50.38669" lon="5.6591">
        <ele>397.16</ele>
        <time>2019-07-07T11:49:34Z</time>
      </trkpt>
      <trkpt lat="50.38664" lon="5.65855">
        <ele>393.8</ele>
        <time>2019-07-07T11:49:38Z</time>
      </trkpt>
      <trkpt lat="50.38659" lon="5.65812">
        <ele>392.36</ele>
        <time>2019-07-07T11:49:41Z</time>
      </trkpt>
      <trkpt lat="50.38653" lon="5.65749">
        <ele>389.47</ele>
        <time>2019-07-07T11:49:45Z</time>
      </trkpt>
      <trkpt lat="50.38646" lon="5.65681">
        <ele>387.07</ele>
        <time>2019-07-07T11:49:49Z</time>
      </trkpt>
      <trkpt lat="50.3864" lon="5.65608">
        <ele>383.22</ele>
        <time>2019-07-07T11:49:53Z</time>
      </trkpt>
      <trkpt lat="50.38634" lon="5.65574">
        <ele>381.78</ele>
        <time>2019-07-07T11:49:55Z</time>
      </trkpt>
      <trkpt lat="50.38628" lon="5.65561">
        <ele>381.3</ele>
        <time>2019-07-07T11:49:56Z</time>
      </trkpt>
      <trkpt lat="50.3862" lon="5.65551">
        <ele>380.34</ele>
        <time>2019-07-07T11:49:57Z</time>
      </trkpt>
      <trkpt lat="50.38611" lon="5.65545">
        <ele>379.86</ele>
        <time>2019-07-07T11:49:58Z</time>
      </trkpt>
      <trkpt lat="50.38601" lon="5.65544">
        <ele>378.9</ele>
        <time>2019-07-07T11:49:59Z</time>
      </trkpt>
      <trkpt lat="50.3859" lon="5.65545">
        <ele>377.94</ele>
        <time>2019-07-07T11:50:00Z</time>
      </trkpt>
      <trkpt lat="50.38581" lon="5.65547">
        <ele>377.94</ele>
        <time>2019-07-07T11:50:01Z</time>
      </trkpt>
      <trkpt lat="50.38571" lon="5.65546">
        <ele>376.97</ele>
        <time>2019-07-07T11:50:02Z</time>
      </trkpt>
      <trkpt lat="50.38562" lon="5.6554">
        <ele>376.97</ele>
        <time>2019-07-07T11:50:03Z</time>
      </trkpt>
      <trkpt lat="50.38555" lon="5.6553">
        <ele>376.97</ele>
        <time>2019-07-07T11:50:04Z</time>
      </trkpt>
      <trkpt lat="50.38551" lon="5.65519">
        <ele>376.97</ele>
        <time>2019-07-07T11:50:05Z</time>
      </trkpt>
      <trkpt lat="50.38549" lon="5.65507">
        <ele>376.97</ele>
        <time>2019-07-07T11:50:06Z</time>
      </trkpt>
      <trkpt lat="50.38548" lon="5.65493">
        <ele>376.97</ele>
        <time>2019-07-07T11:50:07Z</time>
      </trkpt>
      <trkpt lat="50.38542" lon="5.65417">
        <ele>378.42</ele>
        <time>2019-07-07T11:50:14Z</time>
      </trkpt>
      <trkpt lat="50.38542" lon="5.65407">
        <ele>378.42</ele>
        <time>2019-07-07T11:50:15Z</time>
      </trkpt>
      <trkpt lat="50.38535" lon="5.65299">
        <ele>378.9</ele>
        <time>2019-07-07T11:50:27Z</time>
      </trkpt>
      <trkpt lat="50.38535" lon="5.65291">
        <ele>378.9</ele>
        <time>2019-07-07T11:50:28Z</time>
      </trkpt>
      <trkpt lat="50.38535" lon="5.65282">
        <ele>378.9</ele>
        <time>2019-07-07T11:50:29Z</time>
      </trkpt>
      <trkpt lat="50.38535" lon="5.65273">
        <ele>377.94</ele>
        <time>2019-07-07T11:50:30Z</time>
      </trkpt>
      <trkpt lat="50.38534" lon="5.65264">
        <ele>376.97</ele>
        <time>2019-07-07T11:50:31Z</time>
      </trkpt>
      <trkpt lat="50.38534" lon="5.65254">
        <ele>376.97</ele>
        <time>2019-07-07T11:50:32Z</time>
      </trkpt>
      <trkpt lat="50.38521" lon="5.65056">
        <ele>376.01</ele>
        <time>2019-07-07T11:50:51Z</time>
      </trkpt>
      <trkpt lat="50.38493" lon="5.64913">
        <ele>372.17</ele>
        <time>2019-07-07T11:51:04Z</time>
      </trkpt>
      <trkpt lat="50.3849" lon="5.64901">
        <ele>372.17</ele>
        <time>2019-07-07T11:51:05Z</time>
      </trkpt>
      <trkpt lat="50.3847" lon="5.64818">
        <ele>370.24</ele>
        <time>2019-07-07T11:51:12Z</time>
      </trkpt>
      <trkpt lat="50.38466" lon="5.64806">
        <ele>369.76</ele>
        <time>2019-07-07T11:51:13Z</time>
      </trkpt>
      <trkpt lat="50.38437" lon="5.64688">
        <ele>368.8</ele>
        <time>2019-07-07T11:51:23Z</time>
      </trkpt>
      <trkpt lat="50.38385" lon="5.6458">
        <ele>367.36</ele>
        <time>2019-07-07T11:51:34Z</time>
      </trkpt>
      <trkpt lat="50.38312" lon="5.64459">
        <ele>364.96</ele>
        <time>2019-07-07T11:51:48Z</time>
      </trkpt>
      <trkpt lat="50.38297" lon="5.64434">
        <ele>364.48</ele>
        <time>2019-07-07T11:51:51Z</time>
      </trkpt>
      <trkpt lat="50.38288" lon="5.64417">
        <ele>364.48</ele>
        <time>2019-07-07T11:51:53Z</time>
      </trkpt>
      <trkpt lat="50.38284" lon="5.64407">
        <ele>364.48</ele>
        <time>2019-07-07T11:51:54Z</time>
      </trkpt>
      <trkpt lat="50.38271" lon="5.64358">
        <ele>364.48</ele>
        <time>2019-07-07T11:51:59Z</time>
      </trkpt>
      <trkpt lat="50.38267" lon="5.6435">
        <ele>364.48</ele>
        <time>2019-07-07T11:52:00Z</time>
      </trkpt>
      <trkpt lat="50.38259" lon="5.64334">
        <ele>365.92</ele>
        <time>2019-07-07T11:52:02Z</time>
      </trkpt>
      <trkpt lat="50.382" lon="5.64236">
        <ele>366.4</ele>
        <time>2019-07-07T11:52:15Z</time>
      </trkpt>
      <trkpt lat="50.38164" lon="5.64188">
        <ele>364.96</ele>
        <time>2019-07-07T11:52:22Z</time>
      </trkpt>
      <trkpt lat="50.38135" lon="5.64158">
        <ele>364.96</ele>
        <time>2019-07-07T11:52:27Z</time>
      </trkpt>
      <trkpt lat="50.38129" lon="5.64154">
        <ele>364.96</ele>
        <time>2019-07-07T11:52:28Z</time>
      </trkpt>
      <trkpt lat="50.38053" lon="5.64102">
        <ele>364</ele>
        <time>2019-07-07T11:52:40Z</time>
      </trkpt>
      <trkpt lat="50.38003" lon="5.64053">
        <ele>362.55</ele>
        <time>2019-07-07T11:52:48Z</time>
      </trkpt>
      <trkpt lat="50.37986" lon="5.64026">
        <ele>361.11</ele>
        <time>2019-07-07T11:52:51Z</time>
      </trkpt>
      <trkpt lat="50.37979" lon="5.6402">
        <ele>361.11</ele>
        <time>2019-07-07T11:52:52Z</time>
      </trkpt>
      <trkpt lat="50.37954" lon="5.64002">
        <ele>359.19</ele>
        <time>2019-07-07T11:52:55Z</time>
      </trkpt>
      <trkpt lat="50.37919" lon="5.63975">
        <ele>355.83</ele>
        <time>2019-07-07T11:52:59Z</time>
      </trkpt>
      <trkpt lat="50.37909" lon="5.63968">
        <ele>355.83</ele>
        <time>2019-07-07T11:53:00Z</time>
      </trkpt>
      <trkpt lat="50.37881" lon="5.63946">
        <ele>352.46</ele>
        <time>2019-07-07T11:53:03Z</time>
      </trkpt>
      <trkpt lat="50.37872" lon="5.63936">
        <ele>351.5</ele>
        <time>2019-07-07T11:53:04Z</time>
      </trkpt>
      <trkpt lat="50.37845" lon="5.63904">
        <ele>349.58</ele>
        <time>2019-07-07T11:53:07Z</time>
      </trkpt>
      <trkpt lat="50.37812" lon="5.63878">
        <ele>346.21</ele>
        <time>2019-07-07T11:53:10Z</time>
      </trkpt>
      <trkpt lat="50.37777" lon="5.63862">
        <ele>344.77</ele>
        <time>2019-07-07T11:53:13Z</time>
      </trkpt>
      <trkpt lat="50.37719" lon="5.63841">
        <ele>340.92</ele>
        <time>2019-07-07T11:53:19Z</time>
      </trkpt>
      <trkpt lat="50.37671" lon="5.63823">
        <ele>337.56</ele>
        <time>2019-07-07T11:53:25Z</time>
      </trkpt>
      <trkpt lat="50.37664" lon="5.63824">
        <ele>337.08</ele>
        <time>2019-07-07T11:53:26Z</time>
      </trkpt>
      <trkpt lat="50.37656" lon="5.63829">
        <ele>336.6</ele>
        <time>2019-07-07T11:53:27Z</time>
      </trkpt>
      <trkpt lat="50.3765" lon="5.63838">
        <ele>335.64</ele>
        <time>2019-07-07T11:53:28Z</time>
      </trkpt>
      <trkpt lat="50.37644" lon="5.6385">
        <ele>335.16</ele>
        <time>2019-07-07T11:53:29Z</time>
      </trkpt>
      <trkpt lat="50.3764" lon="5.63862">
        <ele>334.2</ele>
        <time>2019-07-07T11:53:30Z</time>
      </trkpt>
      <trkpt lat="50.37636" lon="5.63875">
        <ele>333.23</ele>
        <time>2019-07-07T11:53:31Z</time>
      </trkpt>
      <trkpt lat="50.37621" lon="5.63927">
        <ele>329.87</ele>
        <time>2019-07-07T11:53:35Z</time>
      </trkpt>
      <trkpt lat="50.3761" lon="5.63953">
        <ele>328.43</ele>
        <time>2019-07-07T11:53:37Z</time>
      </trkpt>
      <trkpt lat="50.37602" lon="5.63965">
        <ele>326.99</ele>
        <time>2019-07-07T11:53:38Z</time>
      </trkpt>
      <trkpt lat="50.37503" lon="5.64073">
        <ele>324.58</ele>
        <time>2019-07-07T11:53:50Z</time>
      </trkpt>
      <trkpt lat="50.37495" lon="5.64075">
        <ele>324.58</ele>
        <time>2019-07-07T11:53:51Z</time>
      </trkpt>
      <trkpt lat="50.37488" lon="5.64076">
        <ele>326.02</ele>
        <time>2019-07-07T11:53:52Z</time>
      </trkpt>
      <trkpt lat="50.37481" lon="5.64075">
        <ele>326.02</ele>
        <time>2019-07-07T11:53:53Z</time>
      </trkpt>
      <trkpt lat="50.37475" lon="5.64071">
        <ele>327.95</ele>
        <time>2019-07-07T11:53:54Z</time>
      </trkpt>
      <trkpt lat="50.37471" lon="5.64065">
        <ele>327.95</ele>
        <time>2019-07-07T11:53:55Z</time>
      </trkpt>
      <trkpt lat="50.37468" lon="5.64059">
        <ele>328.43</ele>
        <time>2019-07-07T11:53:56Z</time>
      </trkpt>
      <trkpt lat="50.37465" lon="5.64053">
        <ele>328.43</ele>
        <time>2019-07-07T11:53:57Z</time>
      </trkpt>
      <trkpt lat="50.37462" lon="5.64046">
        <ele>329.39</ele>
        <time>2019-07-07T11:53:58Z</time>
      </trkpt>
      <trkpt lat="50.3746" lon="5.64039">
        <ele>329.39</ele>
        <time>2019-07-07T11:53:59Z</time>
      </trkpt>
      <trkpt lat="50.37454" lon="5.64016">
        <ele>329.87</ele>
        <time>2019-07-07T11:54:02Z</time>
      </trkpt>
      <trkpt lat="50.37442" lon="5.63985">
        <ele>330.35</ele>
        <time>2019-07-07T11:54:06Z</time>
      </trkpt>
      <trkpt lat="50.37439" lon="5.63978">
        <ele>330.35</ele>
        <time>2019-07-07T11:54:07Z</time>
      </trkpt>
      <trkpt lat="50.37427" lon="5.63958">
        <ele>330.83</ele>
        <time>2019-07-07T11:54:10Z</time>
      </trkpt>
      <trkpt lat="50.37422" lon="5.63953">
        <ele>330.83</ele>
        <time>2019-07-07T11:54:11Z</time>
      </trkpt>
      <trkpt lat="50.37417" lon="5.63949">
        <ele>330.83</ele>
        <time>2019-07-07T11:54:12Z</time>
      </trkpt>
      <trkpt lat="50.37412" lon="5.63946">
        <ele>330.83</ele>
        <time>2019-07-07T11:54:13Z</time>
      </trkpt>
      <trkpt lat="50.37407" lon="5.63944">
        <ele>330.83</ele>
        <time>2019-07-07T11:54:14Z</time>
      </trkpt>
      <trkpt lat="50.37401" lon="5.63942">
        <ele>330.83</ele>
        <time>2019-07-07T11:54:15Z</time>
      </trkpt>
      <trkpt lat="50.37326" lon="5.63924">
        <ele>332.27</ele>
        <time>2019-07-07T11:54:31Z</time>
      </trkpt>
      <trkpt lat="50.37293" lon="5.63925">
        <ele>334.2</ele>
        <time>2019-07-07T11:54:39Z</time>
      </trkpt>
      <trkpt lat="50.37289" lon="5.63927">
        <ele>334.2</ele>
        <time>2019-07-07T11:54:40Z</time>
      </trkpt>
      <trkpt lat="50.37267" lon="5.63935">
        <ele>335.16</ele>
        <time>2019-07-07T11:54:45Z</time>
      </trkpt>
      <trkpt lat="50.37263" lon="5.63935">
        <ele>335.16</ele>
        <time>2019-07-07T11:54:46Z</time>
      </trkpt>
      <trkpt lat="50.37259" lon="5.63932">
        <ele>335.16</ele>
        <time>2019-07-07T11:54:47Z</time>
      </trkpt>
      <trkpt lat="50.37255" lon="5.63929">
        <ele>336.12</ele>
        <time>2019-07-07T11:54:48Z</time>
      </trkpt>
      <trkpt lat="50.37252" lon="5.63925">
        <ele>336.12</ele>
        <time>2019-07-07T11:54:49Z</time>
      </trkpt>
      <trkpt lat="50.37249" lon="5.63921">
        <ele>336.12</ele>
        <time>2019-07-07T11:54:50Z</time>
      </trkpt>
      <trkpt lat="50.3723" lon="5.63883">
        <ele>336.12</ele>
        <time>2019-07-07T11:54:56Z</time>
      </trkpt>
      <trkpt lat="50.37223" lon="5.63865">
        <ele>336.6</ele>
        <time>2019-07-07T11:54:59Z</time>
      </trkpt>
      <trkpt lat="50.37213" lon="5.63848">
        <ele>336.6</ele>
        <time>2019-07-07T11:55:02Z</time>
      </trkpt>
      <trkpt lat="50.3721" lon="5.63844">
        <ele>337.08</ele>
        <time>2019-07-07T11:55:03Z</time>
      </trkpt>
      <trkpt lat="50.37206" lon="5.63841">
        <ele>337.08</ele>
        <time>2019-07-07T11:55:04Z</time>
      </trkpt>
      <trkpt lat="50.37202" lon="5.6384">
        <ele>337.08</ele>
        <time>2019-07-07T11:55:05Z</time>
      </trkpt>
      <trkpt lat="50.37198" lon="5.63841">
        <ele>337.08</ele>
        <time>2019-07-07T11:55:06Z</time>
      </trkpt>
      <trkpt lat="50.37194" lon="5.63844">
        <ele>337.56</ele>
        <time>2019-07-07T11:55:07Z</time>
      </trkpt>
      <trkpt lat="50.37191" lon="5.63846">
        <ele>337.56</ele>
        <time>2019-07-07T11:55:08Z</time>
      </trkpt>
      <trkpt lat="50.37188" lon="5.63849">
        <ele>337.56</ele>
        <time>2019-07-07T11:55:09Z</time>
      </trkpt>
      <trkpt lat="50.37185" lon="5.63851">
        <ele>338.04</ele>
        <time>2019-07-07T11:55:10Z</time>
      </trkpt>
      <trkpt lat="50.37175" lon="5.63856">
        <ele>339.48</ele>
        <time>2019-07-07T11:55:13Z</time>
      </trkpt>
      <trkpt lat="50.37148" lon="5.63842">
        <ele>340.92</ele>
        <time>2019-07-07T11:55:21Z</time>
      </trkpt>
      <trkpt lat="50.37132" lon="5.63818">
        <ele>340.92</ele>
        <time>2019-07-07T11:55:26Z</time>
      </trkpt>
      <trkpt lat="50.37128" lon="5.63815">
        <ele>340.92</ele>
        <time>2019-07-07T11:55:27Z</time>
      </trkpt>
      <trkpt lat="50.37123" lon="5.63813">
        <ele>340.92</ele>
        <time>2019-07-07T11:55:28Z</time>
      </trkpt>
      <trkpt lat="50.37119" lon="5.63813">
        <ele>340.92</ele>
        <time>2019-07-07T11:55:29Z</time>
      </trkpt>
      <trkpt lat="50.37115" lon="5.63813">
        <ele>340.92</ele>
        <time>2019-07-07T11:55:30Z</time>
      </trkpt>
      <trkpt lat="50.37111" lon="5.63815">
        <ele>340.92</ele>
        <time>2019-07-07T11:55:31Z</time>
      </trkpt>
      <trkpt lat="50.37107" lon="5.63817">
        <ele>340.92</ele>
        <time>2019-07-07T11:55:32Z</time>
      </trkpt>
      <trkpt lat="50.37104" lon="5.63819">
        <ele>341.89</ele>
        <time>2019-07-07T11:55:33Z</time>
      </trkpt>
      <trkpt lat="50.37073" lon="5.63867">
        <ele>345.73</ele>
        <time>2019-07-07T11:55:46Z</time>
      </trkpt>
      <trkpt lat="50.37047" lon="5.63916">
        <ele>348.62</ele>
        <time>2019-07-07T11:55:59Z</time>
      </trkpt>
      <trkpt lat="50.37005" lon="5.63921">
        <ele>350.54</ele>
        <time>2019-07-07T11:56:11Z</time>
      </trkpt>
      <trkpt lat="50.36942" lon="5.63911">
        <ele>352.46</ele>
        <time>2019-07-07T11:56:27Z</time>
      </trkpt>
      <trkpt lat="50.36929" lon="5.63908">
        <ele>352.46</ele>
        <time>2019-07-07T11:56:30Z</time>
      </trkpt>
      <trkpt lat="50.3686" lon="5.63875">
        <ele>352.46</ele>
        <time>2019-07-07T11:56:45Z</time>
      </trkpt>
      <trkpt lat="50.36856" lon="5.63872">
        <ele>352.46</ele>
        <time>2019-07-07T11:56:46Z</time>
      </trkpt>
      <trkpt lat="50.36779" lon="5.63829">
        <ele>354.38</ele>
        <time>2019-07-07T11:57:04Z</time>
      </trkpt>
      <trkpt lat="50.36723" lon="5.6379">
        <ele>355.83</ele>
        <time>2019-07-07T11:57:18Z</time>
      </trkpt>
      <trkpt lat="50.36676" lon="5.63739">
        <ele>357.27</ele>
        <time>2019-07-07T11:57:31Z</time>
      </trkpt>
      <trkpt lat="50.36626" lon="5.63679">
        <ele>358.71</ele>
        <time>2019-07-07T11:57:45Z</time>
      </trkpt>
      <trkpt lat="50.36604" lon="5.63654">
        <ele>359.67</ele>
        <time>2019-07-07T11:57:51Z</time>
      </trkpt>
      <trkpt lat="50.36559" lon="5.63591">
        <ele>361.59</ele>
        <time>2019-07-07T11:58:05Z</time>
      </trkpt>
      <trkpt lat="50.36496" lon="5.6351">
        <ele>362.55</ele>
        <time>2019-07-07T11:58:21Z</time>
      </trkpt>
      <trkpt lat="50.3643" lon="5.63453">
        <ele>365.92</ele>
        <time>2019-07-07T11:58:37Z</time>
      </trkpt>
      <trkpt lat="50.36383" lon="5.63413">
        <ele>369.28</ele>
        <time>2019-07-07T11:58:51Z</time>
      </trkpt>
      <trkpt lat="50.36374" lon="5.63402">
        <ele>369.76</ele>
        <time>2019-07-07T11:58:54Z</time>
      </trkpt>
      <trkpt lat="50.36371" lon="5.63397">
        <ele>370.24</ele>
        <time>2019-07-07T11:58:55Z</time>
      </trkpt>
      <trkpt lat="50.36368" lon="5.63393">
        <ele>370.24</ele>
        <time>2019-07-07T11:58:56Z</time>
      </trkpt>
      <trkpt lat="50.36365" lon="5.63388">
        <ele>370.24</ele>
        <time>2019-07-07T11:58:57Z</time>
      </trkpt>
      <trkpt lat="50.36362" lon="5.63384">
        <ele>370.73</ele>
        <time>2019-07-07T11:58:58Z</time>
      </trkpt>
      <trkpt lat="50.3632" lon="5.63331">
        <ele>373.13</ele>
        <time>2019-07-07T11:59:11Z</time>
      </trkpt>
      <trkpt lat="50.36292" lon="5.63301">
        <ele>373.13</ele>
        <time>2019-07-07T11:59:19Z</time>
      </trkpt>
      <trkpt lat="50.36222" lon="5.63251">
        <ele>374.57</ele>
        <time>2019-07-07T11:59:35Z</time>
      </trkpt>
      <trkpt lat="50.36144" lon="5.63199">
        <ele>374.57</ele>
        <time>2019-07-07T11:59:51Z</time>
      </trkpt>
      <trkpt lat="50.36139" lon="5.63196">
        <ele>375.05</ele>
        <time>2019-07-07T11:59:52Z</time>
      </trkpt>
      <trkpt lat="50.36101" lon="5.63182">
        <ele>375.05</ele>
        <time>2019-07-07T12:00:00Z</time>
      </trkpt>
      <trkpt lat="50.36097" lon="5.63181">
        <ele>375.05</ele>
        <time>2019-07-07T12:00:01Z</time>
      </trkpt>
      <trkpt lat="50.3606" lon="5.63171">
        <ele>375.05</ele>
        <time>2019-07-07T12:00:09Z</time>
      </trkpt>
      <trkpt lat="50.36052" lon="5.63164">
        <ele>373.61</ele>
        <time>2019-07-07T12:00:11Z</time>
      </trkpt>
      <trkpt lat="50.36048" lon="5.6316">
        <ele>373.61</ele>
        <time>2019-07-07T12:00:12Z</time>
      </trkpt>
      <trkpt lat="50.36044" lon="5.63154">
        <ele>373.13</ele>
        <time>2019-07-07T12:00:13Z</time>
      </trkpt>
      <trkpt lat="50.36041" lon="5.6315">
        <ele>373.13</ele>
        <time>2019-07-07T12:00:14Z</time>
      </trkpt>
      <trkpt lat="50.36038" lon="5.63146">
        <ele>372.65</ele>
        <time>2019-07-07T12:00:15Z</time>
      </trkpt>
      <trkpt lat="50.36036" lon="5.63142">
        <ele>372.65</ele>
        <time>2019-07-07T12:00:16Z</time>
      </trkpt>
      <trkpt lat="50.36035" lon="5.63138">
        <ele>372.65</ele>
        <time>2019-07-07T12:00:17Z</time>
      </trkpt>
      <trkpt lat="50.36034" lon="5.63133">
        <ele>372.65</ele>
        <time>2019-07-07T12:00:18Z</time>
      </trkpt>
      <trkpt lat="50.3603" lon="5.63118">
        <ele>372.17</ele>
        <time>2019-07-07T12:00:21Z</time>
      </trkpt>
      <trkpt lat="50.36015" lon="5.63055">
        <ele>369.28</ele>
        <time>2019-07-07T12:00:29Z</time>
      </trkpt>
      <trkpt lat="50.3597" lon="5.62939">
        <ele>368.8</ele>
        <time>2019-07-07T12:00:44Z</time>
      </trkpt>
      <trkpt lat="50.35964" lon="5.62925">
        <ele>368.8</ele>
        <time>2019-07-07T12:00:46Z</time>
      </trkpt>
      <trkpt lat="50.35936" lon="5.62848">
        <ele>369.76</ele>
        <time>2019-07-07T12:00:57Z</time>
      </trkpt>
      <trkpt lat="50.35903" lon="5.62766">
        <ele>373.13</ele>
        <time>2019-07-07T12:01:10Z</time>
      </trkpt>
      <trkpt lat="50.35883" lon="5.62719">
        <ele>375.05</ele>
        <time>2019-07-07T12:01:19Z</time>
      </trkpt>
      <trkpt lat="50.35849" lon="5.6264">
        <ele>377.45</ele>
        <time>2019-07-07T12:01:34Z</time>
      </trkpt>
      <trkpt lat="50.35816" lon="5.62565">
        <ele>380.82</ele>
        <time>2019-07-07T12:01:48Z</time>
      </trkpt>
      <trkpt lat="50.3578" lon="5.62462">
        <ele>381.78</ele>
        <time>2019-07-07T12:02:05Z</time>
      </trkpt>
      <trkpt lat="50.35737" lon="5.62351">
        <ele>383.7</ele>
        <time>2019-07-07T12:02:23Z</time>
      </trkpt>
      <trkpt lat="50.35698" lon="5.62275">
        <ele>386.11</ele>
        <time>2019-07-07T12:02:35Z</time>
      </trkpt>
      <trkpt lat="50.35647" lon="5.62173">
        <ele>387.55</ele>
        <time>2019-07-07T12:02:52Z</time>
      </trkpt>
      <trkpt lat="50.35594" lon="5.62044">
        <ele>387.55</ele>
        <time>2019-07-07T12:03:10Z</time>
      </trkpt>
      <trkpt lat="50.3555" lon="5.61939">
        <ele>387.55</ele>
        <time>2019-07-07T12:03:25Z</time>
      </trkpt>
      <trkpt lat="50.35536" lon="5.61907">
        <ele>386.11</ele>
        <time>2019-07-07T12:03:29Z</time>
      </trkpt>
      <trkpt lat="50.35485" lon="5.61776">
        <ele>385.15</ele>
        <time>2019-07-07T12:03:45Z</time>
      </trkpt>
      <trkpt lat="50.35433" lon="5.61657">
        <ele>384.66</ele>
        <time>2019-07-07T12:04:01Z</time>
      </trkpt>
      <trkpt lat="50.35389" lon="5.61544">
        <ele>382.74</ele>
        <time>2019-07-07T12:04:15Z</time>
      </trkpt>
      <trkpt lat="50.35337" lon="5.61407">
        <ele>381.3</ele>
        <time>2019-07-07T12:04:31Z</time>
      </trkpt>
      <trkpt lat="50.353" lon="5.61274">
        <ele>380.34</ele>
        <time>2019-07-07T12:04:46Z</time>
      </trkpt>
      <trkpt lat="50.35291" lon="5.61246">
        <ele>379.86</ele>
        <time>2019-07-07T12:04:52Z</time>
      </trkpt>
      <trkpt lat="50.35291" lon="5.61248">
        <ele>379.86</ele>
        <time>2019-07-07T12:04:53Z</time>
      </trkpt>
      <trkpt lat="50.35292" lon="5.61251">
        <ele>379.86</ele>
        <time>2019-07-07T12:04:54Z</time>
      </trkpt>
      <trkpt lat="50.35303" lon="5.61283">
        <ele>380.34</ele>
        <time>2019-07-07T12:05:03Z</time>
      </trkpt>
      <trkpt lat="50.35325" lon="5.6137">
        <ele>380.34</ele>
        <time>2019-07-07T12:05:15Z</time>
      </trkpt>
      <trkpt lat="50.35329" lon="5.61384">
        <ele>381.78</ele>
        <time>2019-07-07T12:05:18Z</time>
      </trkpt>
      <trkpt lat="50.35337" lon="5.61407">
        <ele>381.78</ele>
        <time>2019-07-07T12:05:27Z</time>
      </trkpt>
      <trkpt lat="50.35338" lon="5.61407">
        <ele>381.78</ele>
        <time>2019-07-07T12:05:28Z</time>
      </trkpt>
      <trkpt lat="50.35336" lon="5.61402">
        <ele>381.78</ele>
        <time>2019-07-07T12:05:34Z</time>
      </trkpt>
      <trkpt lat="50.35335" lon="5.614">
        <ele>381.78</ele>
        <time>2019-07-07T12:05:35Z</time>
      </trkpt>
      <trkpt lat="50.35323" lon="5.61364">
        <ele>381.78</ele>
        <time>2019-07-07T12:05:45Z</time>
      </trkpt>
      <trkpt lat="50.35322" lon="5.6136">
        <ele>381.78</ele>
        <time>2019-07-07T12:05:46Z</time>
      </trkpt>
      <trkpt lat="50.35321" lon="5.61355">
        <ele>381.78</ele>
        <time>2019-07-07T12:05:47Z</time>
      </trkpt>
      <trkpt lat="50.35319" lon="5.61351">
        <ele>381.78</ele>
        <time>2019-07-07T12:05:48Z</time>
      </trkpt>
      <trkpt lat="50.35318" lon="5.61346">
        <ele>381.78</ele>
        <time>2019-07-07T12:05:49Z</time>
      </trkpt>
      <trkpt lat="50.3531" lon="5.61307">
        <ele>381.78</ele>
        <time>2019-07-07T12:05:55Z</time>
      </trkpt>
      <trkpt lat="50.35308" lon="5.613">
        <ele>380.34</ele>
        <time>2019-07-07T12:05:56Z</time>
      </trkpt>
      <trkpt lat="50.35306" lon="5.61292">
        <ele>380.34</ele>
        <time>2019-07-07T12:05:57Z</time>
      </trkpt>
      <trkpt lat="50.35268" lon="5.61185">
        <ele>379.38</ele>
        <time>2019-07-07T12:06:12Z</time>
      </trkpt>
      <trkpt lat="50.35222" lon="5.61074">
        <ele>376.01</ele>
        <time>2019-07-07T12:06:24Z</time>
      </trkpt>
      <trkpt lat="50.35203" lon="5.61026">
        <ele>372.65</ele>
        <time>2019-07-07T12:06:28Z</time>
      </trkpt>
      <trkpt lat="50.35178" lon="5.60976">
        <ele>368.8</ele>
        <time>2019-07-07T12:06:32Z</time>
      </trkpt>
      <trkpt lat="50.35155" lon="5.60943">
        <ele>364.96</ele>
        <time>2019-07-07T12:06:35Z</time>
      </trkpt>
      <trkpt lat="50.3513" lon="5.60907">
        <ele>361.11</ele>
        <time>2019-07-07T12:06:38Z</time>
      </trkpt>
      <trkpt lat="50.35103" lon="5.60868">
        <ele>356.79</ele>
        <time>2019-07-07T12:06:41Z</time>
      </trkpt>
      <trkpt lat="50.35079" lon="5.60828">
        <ele>352.94</ele>
        <time>2019-07-07T12:06:44Z</time>
      </trkpt>
      <trkpt lat="50.35057" lon="5.60782">
        <ele>349.1</ele>
        <time>2019-07-07T12:06:47Z</time>
      </trkpt>
      <trkpt lat="50.35037" lon="5.60737">
        <ele>344.77</ele>
        <time>2019-07-07T12:06:50Z</time>
      </trkpt>
      <trkpt lat="50.35017" lon="5.6069">
        <ele>340.92</ele>
        <time>2019-07-07T12:06:53Z</time>
      </trkpt>
      <trkpt lat="50.34999" lon="5.60648">
        <ele>337.08</ele>
        <time>2019-07-07T12:06:56Z</time>
      </trkpt>
      <trkpt lat="50.34983" lon="5.60607">
        <ele>333.71</ele>
        <time>2019-07-07T12:06:59Z</time>
      </trkpt>
      <trkpt lat="50.34978" lon="5.60592">
        <ele>332.75</ele>
        <time>2019-07-07T12:07:00Z</time>
      </trkpt>
      <trkpt lat="50.34974" lon="5.60576">
        <ele>331.31</ele>
        <time>2019-07-07T12:07:01Z</time>
      </trkpt>
      <trkpt lat="50.34972" lon="5.60558">
        <ele>330.35</ele>
        <time>2019-07-07T12:07:02Z</time>
      </trkpt>
      <trkpt lat="50.34967" lon="5.60506">
        <ele>326.99</ele>
        <time>2019-07-07T12:07:05Z</time>
      </trkpt>
      <trkpt lat="50.34964" lon="5.60456">
        <ele>323.14</ele>
        <time>2019-07-07T12:07:08Z</time>
      </trkpt>
      <trkpt lat="50.3496" lon="5.60421">
        <ele>320.74</ele>
        <time>2019-07-07T12:07:10Z</time>
      </trkpt>
      <trkpt lat="50.34956" lon="5.60405">
        <ele>319.78</ele>
        <time>2019-07-07T12:07:11Z</time>
      </trkpt>
      <trkpt lat="50.34943" lon="5.60355">
        <ele>314.97</ele>
        <time>2019-07-07T12:07:14Z</time>
      </trkpt>
      <trkpt lat="50.34927" lon="5.60293">
        <ele>311.6</ele>
        <time>2019-07-07T12:07:18Z</time>
      </trkpt>
      <trkpt lat="50.34915" lon="5.60245">
        <ele>308.24</ele>
        <time>2019-07-07T12:07:21Z</time>
      </trkpt>
      <trkpt lat="50.34907" lon="5.60194">
        <ele>303.91</ele>
        <time>2019-07-07T12:07:24Z</time>
      </trkpt>
      <trkpt lat="50.34902" lon="5.60159">
        <ele>300.55</ele>
        <time>2019-07-07T12:07:26Z</time>
      </trkpt>
      <trkpt lat="50.34896" lon="5.60124">
        <ele>297.18</ele>
        <time>2019-07-07T12:07:28Z</time>
      </trkpt>
      <trkpt lat="50.34887" lon="5.60071">
        <ele>292.86</ele>
        <time>2019-07-07T12:07:31Z</time>
      </trkpt>
      <trkpt lat="50.34881" lon="5.60037">
        <ele>289.49</ele>
        <time>2019-07-07T12:07:33Z</time>
      </trkpt>
      <trkpt lat="50.34872" lon="5.59988">
        <ele>286.13</ele>
        <time>2019-07-07T12:07:36Z</time>
      </trkpt>
      <trkpt lat="50.34863" lon="5.59944">
        <ele>282.77</ele>
        <time>2019-07-07T12:07:39Z</time>
      </trkpt>
      <trkpt lat="50.34852" lon="5.59906">
        <ele>279.88</ele>
        <time>2019-07-07T12:07:42Z</time>
      </trkpt>
      <trkpt lat="50.34832" lon="5.59854">
        <ele>276.04</ele>
        <time>2019-07-07T12:07:47Z</time>
      </trkpt>
      <trkpt lat="50.34828" lon="5.59843">
        <ele>275.56</ele>
        <time>2019-07-07T12:07:48Z</time>
      </trkpt>
      <trkpt lat="50.34826" lon="5.59832">
        <ele>274.59</ele>
        <time>2019-07-07T12:07:49Z</time>
      </trkpt>
      <trkpt lat="50.34825" lon="5.59819">
        <ele>274.11</ele>
        <time>2019-07-07T12:07:50Z</time>
      </trkpt>
      <trkpt lat="50.34826" lon="5.59805">
        <ele>273.15</ele>
        <time>2019-07-07T12:07:51Z</time>
      </trkpt>
      <trkpt lat="50.34827" lon="5.59791">
        <ele>272.19</ele>
        <time>2019-07-07T12:07:52Z</time>
      </trkpt>
      <trkpt lat="50.34828" lon="5.5976">
        <ele>268.83</ele>
        <time>2019-07-07T12:07:54Z</time>
      </trkpt>
      <trkpt lat="50.3483" lon="5.5971">
        <ele>265.46</ele>
        <time>2019-07-07T12:07:57Z</time>
      </trkpt>
      <trkpt lat="50.34831" lon="5.59656">
        <ele>261.62</ele>
        <time>2019-07-07T12:08:00Z</time>
      </trkpt>
      <trkpt lat="50.3483" lon="5.59605">
        <ele>258.73</ele>
        <time>2019-07-07T12:08:03Z</time>
      </trkpt>
      <trkpt lat="50.34826" lon="5.59544">
        <ele>254.41</ele>
        <time>2019-07-07T12:08:07Z</time>
      </trkpt>
      <trkpt lat="50.34827" lon="5.59498">
        <ele>251.52</ele>
        <time>2019-07-07T12:08:10Z</time>
      </trkpt>
      <trkpt lat="50.34829" lon="5.59483">
        <ele>250.56</ele>
        <time>2019-07-07T12:08:11Z</time>
      </trkpt>
      <trkpt lat="50.34832" lon="5.59468">
        <ele>249.6</ele>
        <time>2019-07-07T12:08:12Z</time>
      </trkpt>
      <trkpt lat="50.34838" lon="5.59454">
        <ele>248.16</ele>
        <time>2019-07-07T12:08:13Z</time>
      </trkpt>
      <trkpt lat="50.34843" lon="5.59441">
        <ele>246.72</ele>
        <time>2019-07-07T12:08:14Z</time>
      </trkpt>
      <trkpt lat="50.34861" lon="5.59407">
        <ele>243.83</ele>
        <time>2019-07-07T12:08:17Z</time>
      </trkpt>
      <trkpt lat="50.34874" lon="5.59388">
        <ele>242.87</ele>
        <time>2019-07-07T12:08:19Z</time>
      </trkpt>
      <trkpt lat="50.34889" lon="5.59372">
        <ele>239.99</ele>
        <time>2019-07-07T12:08:21Z</time>
      </trkpt>
      <trkpt lat="50.34898" lon="5.59368">
        <ele>238.54</ele>
        <time>2019-07-07T12:08:22Z</time>
      </trkpt>
      <trkpt lat="50.34907" lon="5.59366">
        <ele>237.58</ele>
        <time>2019-07-07T12:08:23Z</time>
      </trkpt>
      <trkpt lat="50.34914" lon="5.59364">
        <ele>237.1</ele>
        <time>2019-07-07T12:08:24Z</time>
      </trkpt>
      <trkpt lat="50.3492" lon="5.59359">
        <ele>236.14</ele>
        <time>2019-07-07T12:08:25Z</time>
      </trkpt>
      <trkpt lat="50.34924" lon="5.5935">
        <ele>235.66</ele>
        <time>2019-07-07T12:08:26Z</time>
      </trkpt>
      <trkpt lat="50.34924" lon="5.59339">
        <ele>234.22</ele>
        <time>2019-07-07T12:08:27Z</time>
      </trkpt>
      <trkpt lat="50.34922" lon="5.59327">
        <ele>234.22</ele>
        <time>2019-07-07T12:08:28Z</time>
      </trkpt>
      <trkpt lat="50.34915" lon="5.59287">
        <ele>231.33</ele>
        <time>2019-07-07T12:08:31Z</time>
      </trkpt>
      <trkpt lat="50.34907" lon="5.59226">
        <ele>227.01</ele>
        <time>2019-07-07T12:08:35Z</time>
      </trkpt>
      <trkpt lat="50.34902" lon="5.59174">
        <ele>223.16</ele>
        <time>2019-07-07T12:08:38Z</time>
      </trkpt>
      <trkpt lat="50.34897" lon="5.59132">
        <ele>219.32</ele>
        <time>2019-07-07T12:08:41Z</time>
      </trkpt>
      <trkpt lat="50.34894" lon="5.5912">
        <ele>217.88</ele>
        <time>2019-07-07T12:08:42Z</time>
      </trkpt>
      <trkpt lat="50.3489" lon="5.59108">
        <ele>216.91</ele>
        <time>2019-07-07T12:08:43Z</time>
      </trkpt>
      <trkpt lat="50.34882" lon="5.59088">
        <ele>214.99</ele>
        <time>2019-07-07T12:08:45Z</time>
      </trkpt>
      <trkpt lat="50.34879" lon="5.59078">
        <ele>213.55</ele>
        <time>2019-07-07T12:08:46Z</time>
      </trkpt>
      <trkpt lat="50.3488" lon="5.59067">
        <ele>212.59</ele>
        <time>2019-07-07T12:08:47Z</time>
      </trkpt>
      <trkpt lat="50.34882" lon="5.59057">
        <ele>211.63</ele>
        <time>2019-07-07T12:08:48Z</time>
      </trkpt>
      <trkpt lat="50.34885" lon="5.59046">
        <ele>210.67</ele>
        <time>2019-07-07T12:08:49Z</time>
      </trkpt>
      <trkpt lat="50.3489" lon="5.59035">
        <ele>209.7</ele>
        <time>2019-07-07T12:08:50Z</time>
      </trkpt>
      <trkpt lat="50.34896" lon="5.59025">
        <ele>208.26</ele>
        <time>2019-07-07T12:08:51Z</time>
      </trkpt>
      <trkpt lat="50.34901" lon="5.59016">
        <ele>207.3</ele>
        <time>2019-07-07T12:08:52Z</time>
      </trkpt>
      <trkpt lat="50.34906" lon="5.59008">
        <ele>206.34</ele>
        <time>2019-07-07T12:08:53Z</time>
      </trkpt>
      <trkpt lat="50.34923" lon="5.58983">
        <ele>203.94</ele>
        <time>2019-07-07T12:08:56Z</time>
      </trkpt>
      <trkpt lat="50.34943" lon="5.5896">
        <ele>202.01</ele>
        <time>2019-07-07T12:08:59Z</time>
      </trkpt>
      <trkpt lat="50.34961" lon="5.58935">
        <ele>199.61</ele>
        <time>2019-07-07T12:09:02Z</time>
      </trkpt>
      <trkpt lat="50.34975" lon="5.58915">
        <ele>198.65</ele>
        <time>2019-07-07T12:09:05Z</time>
      </trkpt>
      <trkpt lat="50.34975" lon="5.58906">
        <ele>199.13</ele>
        <time>2019-07-07T12:09:06Z</time>
      </trkpt>
      <trkpt lat="50.34971" lon="5.58898">
        <ele>198.17</ele>
        <time>2019-07-07T12:09:07Z</time>
      </trkpt>
      <trkpt lat="50.34966" lon="5.58894">
        <ele>199.13</ele>
        <time>2019-07-07T12:09:08Z</time>
      </trkpt>
      <trkpt lat="50.34961" lon="5.58893">
        <ele>198.65</ele>
        <time>2019-07-07T12:09:09Z</time>
      </trkpt>
      <trkpt lat="50.34956" lon="5.58896">
        <ele>197.69</ele>
        <time>2019-07-07T12:09:10Z</time>
      </trkpt>
      <trkpt lat="50.34951" lon="5.58901">
        <ele>197.69</ele>
        <time>2019-07-07T12:09:11Z</time>
      </trkpt>
      <trkpt lat="50.3493" lon="5.58924">
        <ele>195.77</ele>
        <time>2019-07-07T12:09:15Z</time>
      </trkpt>
      <trkpt lat="50.34923" lon="5.5893">
        <ele>195.77</ele>
        <time>2019-07-07T12:09:16Z</time>
      </trkpt>
      <trkpt lat="50.34886" lon="5.58958">
        <ele>193.36</ele>
        <time>2019-07-07T12:09:21Z</time>
      </trkpt>
      <trkpt lat="50.34844" lon="5.58985">
        <ele>190</ele>
        <time>2019-07-07T12:09:26Z</time>
      </trkpt>
      <trkpt lat="50.34754" lon="5.59027">
        <ele>190</ele>
        <time>2019-07-07T12:09:38Z</time>
      </trkpt>
      <trkpt lat="50.34747" lon="5.59028">
        <ele>190</ele>
        <time>2019-07-07T12:09:39Z</time>
      </trkpt>
      <trkpt lat="50.3474" lon="5.59028">
        <ele>190</ele>
        <time>2019-07-07T12:09:40Z</time>
      </trkpt>
      <trkpt lat="50.34734" lon="5.59026">
        <ele>190</ele>
        <time>2019-07-07T12:09:41Z</time>
      </trkpt>
      <trkpt lat="50.34727" lon="5.59022">
        <ele>190</ele>
        <time>2019-07-07T12:09:42Z</time>
      </trkpt>
      <trkpt lat="50.34721" lon="5.59017">
        <ele>190</ele>
        <time>2019-07-07T12:09:43Z</time>
      </trkpt>
      <trkpt lat="50.34715" lon="5.5901">
        <ele>190.96</ele>
        <time>2019-07-07T12:09:44Z</time>
      </trkpt>
      <trkpt lat="50.3471" lon="5.59002">
        <ele>191.44</ele>
        <time>2019-07-07T12:09:45Z</time>
      </trkpt>
      <trkpt lat="50.34706" lon="5.58994">
        <ele>192.4</ele>
        <time>2019-07-07T12:09:46Z</time>
      </trkpt>
      <trkpt lat="50.34702" lon="5.58986">
        <ele>192.4</ele>
        <time>2019-07-07T12:09:47Z</time>
      </trkpt>
      <trkpt lat="50.34689" lon="5.58957">
        <ele>193.36</ele>
        <time>2019-07-07T12:09:52Z</time>
      </trkpt>
      <trkpt lat="50.34687" lon="5.5895">
        <ele>193.36</ele>
        <time>2019-07-07T12:09:53Z</time>
      </trkpt>
      <trkpt lat="50.34685" lon="5.58945">
        <ele>193.36</ele>
        <time>2019-07-07T12:09:54Z</time>
      </trkpt>
      <trkpt lat="50.34674" lon="5.58925">
        <ele>192.88</ele>
        <time>2019-07-07T12:09:59Z</time>
      </trkpt>
      <trkpt lat="50.34673" lon="5.58922">
        <ele>192.88</ele>
        <time>2019-07-07T12:10:11Z</time>
      </trkpt>
      <trkpt lat="50.34667" lon="5.58918">
        <ele>192.88</ele>
        <time>2019-07-07T12:10:23Z</time>
      </trkpt>
      <trkpt lat="50.34666" lon="5.5892">
        <ele>192.88</ele>
        <time>2019-07-07T12:10:24Z</time>
      </trkpt>
      <trkpt lat="50.34656" lon="5.58931">
        <ele>192.88</ele>
        <time>2019-07-07T12:10:28Z</time>
      </trkpt>
      <trkpt lat="50.34652" lon="5.58934">
        <ele>192.88</ele>
        <time>2019-07-07T12:10:29Z</time>
      </trkpt>
      <trkpt lat="50.34648" lon="5.58938">
        <ele>192.88</ele>
        <time>2019-07-07T12:10:30Z</time>
      </trkpt>
      <trkpt lat="50.34579" lon="5.58987">
        <ele>192.88</ele>
        <time>2019-07-07T12:10:43Z</time>
      </trkpt>
      <trkpt lat="50.34459" lon="5.59031">
        <ele>193.84</ele>
        <time>2019-07-07T12:11:04Z</time>
      </trkpt>
      <trkpt lat="50.34336" lon="5.59075">
        <ele>195.28</ele>
        <time>2019-07-07T12:11:26Z</time>
      </trkpt>
      <trkpt lat="50.34223" lon="5.59116">
        <ele>196.73</ele>
        <time>2019-07-07T12:11:46Z</time>
      </trkpt>
      <trkpt lat="50.34108" lon="5.59158">
        <ele>198.65</ele>
        <time>2019-07-07T12:12:06Z</time>
      </trkpt>
      <trkpt lat="50.34016" lon="5.59181">
        <ele>200.57</ele>
        <time>2019-07-07T12:12:22Z</time>
      </trkpt>
      <trkpt lat="50.34009" lon="5.59181">
        <ele>200.57</ele>
        <time>2019-07-07T12:12:23Z</time>
      </trkpt>
      <trkpt lat="50.33895" lon="5.59182">
        <ele>200.09</ele>
        <time>2019-07-07T12:12:39Z</time>
      </trkpt>
      <trkpt lat="50.33757" lon="5.59181">
        <ele>200.09</ele>
        <time>2019-07-07T12:12:59Z</time>
      </trkpt>
      <trkpt lat="50.33663" lon="5.5918">
        <ele>202.49</ele>
        <time>2019-07-07T12:13:14Z</time>
      </trkpt>
      <trkpt lat="50.33606" lon="5.59204">
        <ele>203.94</ele>
        <time>2019-07-07T12:13:24Z</time>
      </trkpt>
      <trkpt lat="50.33571" lon="5.59245">
        <ele>204.42</ele>
        <time>2019-07-07T12:13:31Z</time>
      </trkpt>
      <trkpt lat="50.3351" lon="5.59351">
        <ele>207.3</ele>
        <time>2019-07-07T12:13:47Z</time>
      </trkpt>
      <trkpt lat="50.33451" lon="5.59454">
        <ele>209.22</ele>
        <time>2019-07-07T12:14:03Z</time>
      </trkpt>
      <trkpt lat="50.33447" lon="5.5946">
        <ele>209.7</ele>
        <time>2019-07-07T12:14:04Z</time>
      </trkpt>
      <trkpt lat="50.33444" lon="5.59467">
        <ele>209.7</ele>
        <time>2019-07-07T12:14:05Z</time>
      </trkpt>
      <trkpt lat="50.33385" lon="5.59563">
        <ele>212.11</ele>
        <time>2019-07-07T12:14:21Z</time>
      </trkpt>
      <trkpt lat="50.33323" lon="5.59628">
        <ele>214.03</ele>
        <time>2019-07-07T12:14:36Z</time>
      </trkpt>
      <trkpt lat="50.33306" lon="5.59645">
        <ele>214.51</ele>
        <time>2019-07-07T12:14:40Z</time>
      </trkpt>
      <trkpt lat="50.33293" lon="5.59667">
        <ele>214.99</ele>
        <time>2019-07-07T12:14:44Z</time>
      </trkpt>
      <trkpt lat="50.3329" lon="5.59673">
        <ele>214.99</ele>
        <time>2019-07-07T12:14:45Z</time>
      </trkpt>
      <trkpt lat="50.33286" lon="5.59678">
        <ele>214.99</ele>
        <time>2019-07-07T12:14:46Z</time>
      </trkpt>
      <trkpt lat="50.33282" lon="5.59684">
        <ele>214.99</ele>
        <time>2019-07-07T12:14:47Z</time>
      </trkpt>
      <trkpt lat="50.33278" lon="5.59689">
        <ele>214.99</ele>
        <time>2019-07-07T12:14:48Z</time>
      </trkpt>
      <trkpt lat="50.33273" lon="5.59694">
        <ele>215.47</ele>
        <time>2019-07-07T12:14:49Z</time>
      </trkpt>
      <trkpt lat="50.33254" lon="5.59712">
        <ele>215.95</ele>
        <time>2019-07-07T12:14:53Z</time>
      </trkpt>
      <trkpt lat="50.33191" lon="5.59788">
        <ele>217.4</ele>
        <time>2019-07-07T12:15:08Z</time>
      </trkpt>
      <trkpt lat="50.3315" lon="5.59843">
        <ele>218.84</ele>
        <time>2019-07-07T12:15:18Z</time>
      </trkpt>
      <trkpt lat="50.33103" lon="5.59886">
        <ele>220.28</ele>
        <time>2019-07-07T12:15:28Z</time>
      </trkpt>
      <trkpt lat="50.33075" lon="5.59907">
        <ele>220.76</ele>
        <time>2019-07-07T12:15:34Z</time>
      </trkpt>
      <trkpt lat="50.33055" lon="5.59918">
        <ele>221.24</ele>
        <time>2019-07-07T12:15:38Z</time>
      </trkpt>
      <trkpt lat="50.3304" lon="5.59929">
        <ele>221.72</ele>
        <time>2019-07-07T12:15:41Z</time>
      </trkpt>
      <trkpt lat="50.32972" lon="5.59977">
        <ele>224.12</ele>
        <time>2019-07-07T12:15:55Z</time>
      </trkpt>
      <trkpt lat="50.32959" lon="5.59991">
        <ele>224.12</ele>
        <time>2019-07-07T12:15:58Z</time>
      </trkpt>
      <trkpt lat="50.32955" lon="5.59995">
        <ele>224.61</ele>
        <time>2019-07-07T12:15:59Z</time>
      </trkpt>
      <trkpt lat="50.32927" lon="5.6002">
        <ele>225.09</ele>
        <time>2019-07-07T12:16:05Z</time>
      </trkpt>
      <trkpt lat="50.32899" lon="5.60044">
        <ele>225.09</ele>
        <time>2019-07-07T12:16:11Z</time>
      </trkpt>
      <trkpt lat="50.32839" lon="5.6008">
        <ele>227.01</ele>
        <time>2019-07-07T12:16:23Z</time>
      </trkpt>
      <trkpt lat="50.32799" lon="5.60098">
        <ele>227.97</ele>
        <time>2019-07-07T12:16:31Z</time>
      </trkpt>
      <trkpt lat="50.32694" lon="5.60131">
        <ele>230.37</ele>
        <time>2019-07-07T12:16:51Z</time>
      </trkpt>
      <trkpt lat="50.32689" lon="5.60133">
        <ele>230.37</ele>
        <time>2019-07-07T12:16:52Z</time>
      </trkpt>
      <trkpt lat="50.32684" lon="5.60135">
        <ele>230.37</ele>
        <time>2019-07-07T12:16:53Z</time>
      </trkpt>
      <trkpt lat="50.32611" lon="5.6016">
        <ele>231.33</ele>
        <time>2019-07-07T12:17:07Z</time>
      </trkpt>
      <trkpt lat="50.32531" lon="5.60182">
        <ele>231.33</ele>
        <time>2019-07-07T12:17:21Z</time>
      </trkpt>
      <trkpt lat="50.32519" lon="5.60182">
        <ele>231.33</ele>
        <time>2019-07-07T12:17:23Z</time>
      </trkpt>
      <trkpt lat="50.32439" lon="5.60163">
        <ele>231.33</ele>
        <time>2019-07-07T12:17:36Z</time>
      </trkpt>
      <trkpt lat="50.3236" lon="5.60137">
        <ele>233.26</ele>
        <time>2019-07-07T12:17:51Z</time>
      </trkpt>
      <trkpt lat="50.32356" lon="5.60136">
        <ele>233.26</ele>
        <time>2019-07-07T12:17:52Z</time>
      </trkpt>
      <trkpt lat="50.32335" lon="5.6013">
        <ele>233.74</ele>
        <time>2019-07-07T12:17:56Z</time>
      </trkpt>
      <trkpt lat="50.3233" lon="5.60128">
        <ele>233.74</ele>
        <time>2019-07-07T12:17:57Z</time>
      </trkpt>
      <trkpt lat="50.32263" lon="5.60128">
        <ele>235.66</ele>
        <time>2019-07-07T12:18:10Z</time>
      </trkpt>
      <trkpt lat="50.32258" lon="5.60128">
        <ele>236.14</ele>
        <time>2019-07-07T12:18:11Z</time>
      </trkpt>
      <trkpt lat="50.32253" lon="5.60128">
        <ele>236.14</ele>
        <time>2019-07-07T12:18:12Z</time>
      </trkpt>
      <trkpt lat="50.32248" lon="5.60129">
        <ele>236.14</ele>
        <time>2019-07-07T12:18:13Z</time>
      </trkpt>
      <trkpt lat="50.32172" lon="5.60138">
        <ele>238.06</ele>
        <time>2019-07-07T12:18:28Z</time>
      </trkpt>
      <trkpt lat="50.32146" lon="5.60147">
        <ele>238.54</ele>
        <time>2019-07-07T12:18:33Z</time>
      </trkpt>
      <trkpt lat="50.32111" lon="5.60161">
        <ele>239.99</ele>
        <time>2019-07-07T12:18:40Z</time>
      </trkpt>
      <trkpt lat="50.32106" lon="5.60164">
        <ele>239.99</ele>
        <time>2019-07-07T12:18:41Z</time>
      </trkpt>
      <trkpt lat="50.321" lon="5.60167">
        <ele>239.99</ele>
        <time>2019-07-07T12:18:42Z</time>
      </trkpt>
      <trkpt lat="50.32096" lon="5.60171">
        <ele>239.99</ele>
        <time>2019-07-07T12:18:43Z</time>
      </trkpt>
      <trkpt lat="50.32091" lon="5.60174">
        <ele>239.99</ele>
        <time>2019-07-07T12:18:44Z</time>
      </trkpt>
      <trkpt lat="50.32086" lon="5.60178">
        <ele>240.47</ele>
        <time>2019-07-07T12:18:45Z</time>
      </trkpt>
      <trkpt lat="50.32017" lon="5.60231">
        <ele>241.91</ele>
        <time>2019-07-07T12:19:00Z</time>
      </trkpt>
      <trkpt lat="50.32001" lon="5.60254">
        <ele>241.91</ele>
        <time>2019-07-07T12:19:04Z</time>
      </trkpt>
      <trkpt lat="50.31995" lon="5.60267">
        <ele>242.39</ele>
        <time>2019-07-07T12:19:06Z</time>
      </trkpt>
      <trkpt lat="50.31966" lon="5.60321">
        <ele>243.83</ele>
        <time>2019-07-07T12:19:15Z</time>
      </trkpt>
      <trkpt lat="50.31954" lon="5.60346">
        <ele>243.83</ele>
        <time>2019-07-07T12:19:19Z</time>
      </trkpt>
      <trkpt lat="50.31944" lon="5.60364">
        <ele>244.31</ele>
        <time>2019-07-07T12:19:22Z</time>
      </trkpt>
      <trkpt lat="50.3194" lon="5.60371">
        <ele>244.79</ele>
        <time>2019-07-07T12:19:23Z</time>
      </trkpt>
      <trkpt lat="50.31906" lon="5.60421">
        <ele>245.75</ele>
        <time>2019-07-07T12:19:32Z</time>
      </trkpt>
      <trkpt lat="50.31902" lon="5.60426">
        <ele>245.75</ele>
        <time>2019-07-07T12:19:33Z</time>
      </trkpt>
      <trkpt lat="50.31898" lon="5.60432">
        <ele>245.75</ele>
        <time>2019-07-07T12:19:34Z</time>
      </trkpt>
      <trkpt lat="50.31876" lon="5.60464">
        <ele>247.2</ele>
        <time>2019-07-07T12:19:40Z</time>
      </trkpt>
      <trkpt lat="50.31872" lon="5.6047">
        <ele>247.2</ele>
        <time>2019-07-07T12:19:41Z</time>
      </trkpt>
      <trkpt lat="50.31868" lon="5.60476">
        <ele>247.2</ele>
        <time>2019-07-07T12:19:42Z</time>
      </trkpt>
      <trkpt lat="50.31824" lon="5.60565">
        <ele>249.12</ele>
        <time>2019-07-07T12:19:54Z</time>
      </trkpt>
      <trkpt lat="50.31812" lon="5.60598">
        <ele>249.6</ele>
        <time>2019-07-07T12:19:58Z</time>
      </trkpt>
      <trkpt lat="50.31809" lon="5.60606">
        <ele>249.6</ele>
        <time>2019-07-07T12:19:59Z</time>
      </trkpt>
      <trkpt lat="50.31807" lon="5.60614">
        <ele>250.08</ele>
        <time>2019-07-07T12:20:00Z</time>
      </trkpt>
      <trkpt lat="50.31804" lon="5.60622">
        <ele>250.08</ele>
        <time>2019-07-07T12:20:01Z</time>
      </trkpt>
      <trkpt lat="50.31801" lon="5.60629">
        <ele>250.08</ele>
        <time>2019-07-07T12:20:02Z</time>
      </trkpt>
      <trkpt lat="50.31783" lon="5.60671">
        <ele>250.56</ele>
        <time>2019-07-07T12:20:08Z</time>
      </trkpt>
      <trkpt lat="50.31781" lon="5.60679">
        <ele>251.04</ele>
        <time>2019-07-07T12:20:09Z</time>
      </trkpt>
      <trkpt lat="50.31774" lon="5.607">
        <ele>251.52</ele>
        <time>2019-07-07T12:20:12Z</time>
      </trkpt>
      <trkpt lat="50.31772" lon="5.60706">
        <ele>252</ele>
        <time>2019-07-07T12:20:13Z</time>
      </trkpt>
      <trkpt lat="50.31732" lon="5.60782">
        <ele>253.44</ele>
        <time>2019-07-07T12:20:26Z</time>
      </trkpt>
      <trkpt lat="50.31695" lon="5.60869">
        <ele>254.41</ele>
        <time>2019-07-07T12:20:39Z</time>
      </trkpt>
      <trkpt lat="50.31661" lon="5.60973">
        <ele>256.33</ele>
        <time>2019-07-07T12:20:54Z</time>
      </trkpt>
      <trkpt lat="50.31631" lon="5.6107">
        <ele>258.25</ele>
        <time>2019-07-07T12:21:07Z</time>
      </trkpt>
      <trkpt lat="50.31629" lon="5.61077">
        <ele>258.25</ele>
        <time>2019-07-07T12:21:08Z</time>
      </trkpt>
      <trkpt lat="50.31626" lon="5.61085">
        <ele>258.73</ele>
        <time>2019-07-07T12:21:09Z</time>
      </trkpt>
      <trkpt lat="50.31584" lon="5.61197">
        <ele>261.14</ele>
        <time>2019-07-07T12:21:25Z</time>
      </trkpt>
      <trkpt lat="50.31573" lon="5.61242">
        <ele>262.1</ele>
        <time>2019-07-07T12:21:31Z</time>
      </trkpt>
      <trkpt lat="50.31553" lon="5.61301">
        <ele>263.54</ele>
        <time>2019-07-07T12:21:39Z</time>
      </trkpt>
      <trkpt lat="50.31519" lon="5.61378">
        <ele>265.94</ele>
        <time>2019-07-07T12:21:51Z</time>
      </trkpt>
      <trkpt lat="50.31516" lon="5.61384">
        <ele>266.42</ele>
        <time>2019-07-07T12:21:52Z</time>
      </trkpt>
      <trkpt lat="50.31473" lon="5.61458">
        <ele>268.35</ele>
        <time>2019-07-07T12:22:05Z</time>
      </trkpt>
      <trkpt lat="50.31452" lon="5.61482">
        <ele>269.31</ele>
        <time>2019-07-07T12:22:11Z</time>
      </trkpt>
      <trkpt lat="50.31449" lon="5.61486">
        <ele>269.31</ele>
        <time>2019-07-07T12:22:12Z</time>
      </trkpt>
      <trkpt lat="50.31446" lon="5.6149">
        <ele>269.79</ele>
        <time>2019-07-07T12:22:13Z</time>
      </trkpt>
      <trkpt lat="50.31438" lon="5.61504">
        <ele>270.27</ele>
        <time>2019-07-07T12:22:16Z</time>
      </trkpt>
      <trkpt lat="50.31436" lon="5.61509">
        <ele>270.75</ele>
        <time>2019-07-07T12:22:17Z</time>
      </trkpt>
      <trkpt lat="50.31434" lon="5.61515">
        <ele>270.75</ele>
        <time>2019-07-07T12:22:18Z</time>
      </trkpt>
      <trkpt lat="50.31427" lon="5.6154">
        <ele>271.23</ele>
        <time>2019-07-07T12:22:22Z</time>
      </trkpt>
      <trkpt lat="50.31407" lon="5.61615">
        <ele>272.67</ele>
        <time>2019-07-07T12:22:34Z</time>
      </trkpt>
      <trkpt lat="50.31406" lon="5.61621">
        <ele>272.67</ele>
        <time>2019-07-07T12:22:35Z</time>
      </trkpt>
      <trkpt lat="50.31405" lon="5.61627">
        <ele>273.63</ele>
        <time>2019-07-07T12:22:36Z</time>
      </trkpt>
      <trkpt lat="50.31378" lon="5.61715">
        <ele>276.04</ele>
        <time>2019-07-07T12:22:51Z</time>
      </trkpt>
      <trkpt lat="50.31377" lon="5.61721">
        <ele>276.04</ele>
        <time>2019-07-07T12:22:52Z</time>
      </trkpt>
      <trkpt lat="50.31349" lon="5.61807">
        <ele>277.48</ele>
        <time>2019-07-07T12:23:06Z</time>
      </trkpt>
      <trkpt lat="50.3134" lon="5.61829">
        <ele>277.96</ele>
        <time>2019-07-07T12:23:10Z</time>
      </trkpt>
      <trkpt lat="50.31337" lon="5.61833">
        <ele>277.96</ele>
        <time>2019-07-07T12:23:11Z</time>
      </trkpt>
      <trkpt lat="50.31334" lon="5.61838">
        <ele>277.96</ele>
        <time>2019-07-07T12:23:12Z</time>
      </trkpt>
      <trkpt lat="50.31307" lon="5.61889">
        <ele>279.88</ele>
        <time>2019-07-07T12:23:22Z</time>
      </trkpt>
      <trkpt lat="50.31295" lon="5.61923">
        <ele>280.84</ele>
        <time>2019-07-07T12:23:28Z</time>
      </trkpt>
      <trkpt lat="50.31287" lon="5.62011">
        <ele>282.77</ele>
        <time>2019-07-07T12:23:42Z</time>
      </trkpt>
      <trkpt lat="50.31287" lon="5.62017">
        <ele>283.25</ele>
        <time>2019-07-07T12:23:43Z</time>
      </trkpt>
      <trkpt lat="50.31287" lon="5.62024">
        <ele>283.25</ele>
        <time>2019-07-07T12:23:44Z</time>
      </trkpt>
      <trkpt lat="50.313" lon="5.62116">
        <ele>285.65</ele>
        <time>2019-07-07T12:23:58Z</time>
      </trkpt>
      <trkpt lat="50.31288" lon="5.62214">
        <ele>288.05</ele>
        <time>2019-07-07T12:24:14Z</time>
      </trkpt>
      <trkpt lat="50.31253" lon="5.62279">
        <ele>289.97</ele>
        <time>2019-07-07T12:24:28Z</time>
      </trkpt>
      <trkpt lat="50.31223" lon="5.62328">
        <ele>292.86</ele>
        <time>2019-07-07T12:24:40Z</time>
      </trkpt>
      <trkpt lat="50.31191" lon="5.62379">
        <ele>293.82</ele>
        <time>2019-07-07T12:24:52Z</time>
      </trkpt>
      <trkpt lat="50.31154" lon="5.62437">
        <ele>296.7</ele>
        <time>2019-07-07T12:25:06Z</time>
      </trkpt>
      <trkpt lat="50.31124" lon="5.62484">
        <ele>298.15</ele>
        <time>2019-07-07T12:25:18Z</time>
      </trkpt>
      <trkpt lat="50.31084" lon="5.62538">
        <ele>300.55</ele>
        <time>2019-07-07T12:25:33Z</time>
      </trkpt>
      <trkpt lat="50.31045" lon="5.62583">
        <ele>301.99</ele>
        <time>2019-07-07T12:25:47Z</time>
      </trkpt>
      <trkpt lat="50.3101" lon="5.6263">
        <ele>304.39</ele>
        <time>2019-07-07T12:26:00Z</time>
      </trkpt>
      <trkpt lat="50.30968" lon="5.62684">
        <ele>306.8</ele>
        <time>2019-07-07T12:26:15Z</time>
      </trkpt>
      <trkpt lat="50.30931" lon="5.62748">
        <ele>308.72</ele>
        <time>2019-07-07T12:26:30Z</time>
      </trkpt>
      <trkpt lat="50.30894" lon="5.62813">
        <ele>311.12</ele>
        <time>2019-07-07T12:26:45Z</time>
      </trkpt>
      <trkpt lat="50.30854" lon="5.6288">
        <ele>312.57</ele>
        <time>2019-07-07T12:27:00Z</time>
      </trkpt>
      <trkpt lat="50.30831" lon="5.62921">
        <ele>314.49</ele>
        <time>2019-07-07T12:27:08Z</time>
      </trkpt>
      <trkpt lat="50.30825" lon="5.62931">
        <ele>314.49</ele>
        <time>2019-07-07T12:27:10Z</time>
      </trkpt>
      <trkpt lat="50.30783" lon="5.63006">
        <ele>317.37</ele>
        <time>2019-07-07T12:27:26Z</time>
      </trkpt>
      <trkpt lat="50.30766" lon="5.63088">
        <ele>319.78</ele>
        <time>2019-07-07T12:27:41Z</time>
      </trkpt>
      <trkpt lat="50.30753" lon="5.63184">
        <ele>322.66</ele>
        <time>2019-07-07T12:27:58Z</time>
      </trkpt>
      <trkpt lat="50.30738" lon="5.63272">
        <ele>325.54</ele>
        <time>2019-07-07T12:28:14Z</time>
      </trkpt>
      <trkpt lat="50.30715" lon="5.63373">
        <ele>328.43</ele>
        <time>2019-07-07T12:28:32Z</time>
      </trkpt>
      <trkpt lat="50.30691" lon="5.63453">
        <ele>330.35</ele>
        <time>2019-07-07T12:28:47Z</time>
      </trkpt>
      <trkpt lat="50.3067" lon="5.63521">
        <ele>332.27</ele>
        <time>2019-07-07T12:29:00Z</time>
      </trkpt>
      <trkpt lat="50.30633" lon="5.6359">
        <ele>334.2</ele>
        <time>2019-07-07T12:29:15Z</time>
      </trkpt>
      <trkpt lat="50.30602" lon="5.63641">
        <ele>336.6</ele>
        <time>2019-07-07T12:29:27Z</time>
      </trkpt>
      <trkpt lat="50.30574" lon="5.63679">
        <ele>338.52</ele>
        <time>2019-07-07T12:29:38Z</time>
      </trkpt>
      <trkpt lat="50.30527" lon="5.63729">
        <ele>340.44</ele>
        <time>2019-07-07T12:29:53Z</time>
      </trkpt>
      <trkpt lat="50.30496" lon="5.63763">
        <ele>342.37</ele>
        <time>2019-07-07T12:30:03Z</time>
      </trkpt>
      <trkpt lat="50.30465" lon="5.63811">
        <ele>344.77</ele>
        <time>2019-07-07T12:30:16Z</time>
      </trkpt>
      <trkpt lat="50.30426" lon="5.63881">
        <ele>347.17</ele>
        <time>2019-07-07T12:30:32Z</time>
      </trkpt>
      <trkpt lat="50.30396" lon="5.63926">
        <ele>349.1</ele>
        <time>2019-07-07T12:30:44Z</time>
      </trkpt>
      <trkpt lat="50.30361" lon="5.63981">
        <ele>350.54</ele>
        <time>2019-07-07T12:30:59Z</time>
      </trkpt>
      <trkpt lat="50.30325" lon="5.64045">
        <ele>352.94</ele>
        <time>2019-07-07T12:31:15Z</time>
      </trkpt>
      <trkpt lat="50.303" lon="5.64106">
        <ele>355.34</ele>
        <time>2019-07-07T12:31:28Z</time>
      </trkpt>
      <trkpt lat="50.30288" lon="5.6418">
        <ele>357.75</ele>
        <time>2019-07-07T12:31:42Z</time>
      </trkpt>
      <trkpt lat="50.30292" lon="5.64265">
        <ele>360.15</ele>
        <time>2019-07-07T12:31:58Z</time>
      </trkpt>
      <trkpt lat="50.30301" lon="5.64355">
        <ele>362.07</ele>
        <time>2019-07-07T12:32:15Z</time>
      </trkpt>
      <trkpt lat="50.30307" lon="5.64399">
        <ele>363.04</ele>
        <time>2019-07-07T12:32:22Z</time>
      </trkpt>
      <trkpt lat="50.30308" lon="5.64405">
        <ele>363.04</ele>
        <time>2019-07-07T12:32:23Z</time>
      </trkpt>
      <trkpt lat="50.30309" lon="5.64411">
        <ele>363.52</ele>
        <time>2019-07-07T12:32:24Z</time>
      </trkpt>
      <trkpt lat="50.3031" lon="5.64416">
        <ele>363.52</ele>
        <time>2019-07-07T12:32:25Z</time>
      </trkpt>
      <trkpt lat="50.30311" lon="5.64422">
        <ele>364</ele>
        <time>2019-07-07T12:32:26Z</time>
      </trkpt>
      <trkpt lat="50.30311" lon="5.64428">
        <ele>364</ele>
        <time>2019-07-07T12:32:27Z</time>
      </trkpt>
      <trkpt lat="50.30308" lon="5.64515">
        <ele>366.4</ele>
        <time>2019-07-07T12:32:42Z</time>
      </trkpt>
      <trkpt lat="50.30284" lon="5.64601">
        <ele>368.8</ele>
        <time>2019-07-07T12:32:58Z</time>
      </trkpt>
      <trkpt lat="50.3025" lon="5.64661">
        <ele>370.73</ele>
        <time>2019-07-07T12:33:12Z</time>
      </trkpt>
      <trkpt lat="50.30245" lon="5.64676">
        <ele>371.69</ele>
        <time>2019-07-07T12:33:15Z</time>
      </trkpt>
      <trkpt lat="50.30212" lon="5.6474">
        <ele>374.09</ele>
        <time>2019-07-07T12:33:29Z</time>
      </trkpt>
      <trkpt lat="50.30179" lon="5.64826">
        <ele>376.49</ele>
        <time>2019-07-07T12:33:46Z</time>
      </trkpt>
      <trkpt lat="50.30159" lon="5.64909">
        <ele>378.9</ele>
        <time>2019-07-07T12:34:01Z</time>
      </trkpt>
      <trkpt lat="50.3014" lon="5.64973">
        <ele>380.34</ele>
        <time>2019-07-07T12:34:13Z</time>
      </trkpt>
      <trkpt lat="50.30102" lon="5.65047">
        <ele>383.22</ele>
        <time>2019-07-07T12:34:29Z</time>
      </trkpt>
      <trkpt lat="50.30086" lon="5.65083">
        <ele>384.66</ele>
        <time>2019-07-07T12:34:37Z</time>
      </trkpt>
      <trkpt lat="50.30083" lon="5.65088">
        <ele>384.66</ele>
        <time>2019-07-07T12:34:38Z</time>
      </trkpt>
      <trkpt lat="50.30079" lon="5.65093">
        <ele>384.66</ele>
        <time>2019-07-07T12:34:39Z</time>
      </trkpt>
      <trkpt lat="50.30042" lon="5.6513">
        <ele>386.59</ele>
        <time>2019-07-07T12:34:50Z</time>
      </trkpt>
      <trkpt lat="50.2998" lon="5.65158">
        <ele>389.47</ele>
        <time>2019-07-07T12:35:07Z</time>
      </trkpt>
      <trkpt lat="50.29932" lon="5.65167">
        <ele>391.87</ele>
        <time>2019-07-07T12:35:20Z</time>
      </trkpt>
      <trkpt lat="50.29882" lon="5.65158">
        <ele>393.8</ele>
        <time>2019-07-07T12:35:33Z</time>
      </trkpt>
      <trkpt lat="50.29834" lon="5.65151">
        <ele>395.72</ele>
        <time>2019-07-07T12:35:46Z</time>
      </trkpt>
      <trkpt lat="50.29792" lon="5.65148">
        <ele>397.64</ele>
        <time>2019-07-07T12:35:57Z</time>
      </trkpt>
      <trkpt lat="50.29729" lon="5.6514">
        <ele>400.05</ele>
        <time>2019-07-07T12:36:14Z</time>
      </trkpt>
      <trkpt lat="50.29675" lon="5.65145">
        <ele>401.97</ele>
        <time>2019-07-07T12:36:28Z</time>
      </trkpt>
      <trkpt lat="50.29614" lon="5.65172">
        <ele>404.37</ele>
        <time>2019-07-07T12:36:44Z</time>
      </trkpt>
      <trkpt lat="50.29563" lon="5.65211">
        <ele>406.77</ele>
        <time>2019-07-07T12:36:59Z</time>
      </trkpt>
      <trkpt lat="50.29522" lon="5.65264">
        <ele>409.18</ele>
        <time>2019-07-07T12:37:13Z</time>
      </trkpt>
      <trkpt lat="50.29486" lon="5.65324">
        <ele>410.62</ele>
        <time>2019-07-07T12:37:26Z</time>
      </trkpt>
      <trkpt lat="50.29458" lon="5.65363">
        <ele>412.54</ele>
        <time>2019-07-07T12:37:35Z</time>
      </trkpt>
      <trkpt lat="50.2941" lon="5.65429">
        <ele>414.95</ele>
        <time>2019-07-07T12:37:50Z</time>
      </trkpt>
      <trkpt lat="50.29404" lon="5.65447">
        <ele>415.43</ele>
        <time>2019-07-07T12:37:53Z</time>
      </trkpt>
      <trkpt lat="50.29399" lon="5.65477">
        <ele>415.91</ele>
        <time>2019-07-07T12:37:57Z</time>
      </trkpt>
      <trkpt lat="50.29399" lon="5.65485">
        <ele>415.91</ele>
        <time>2019-07-07T12:37:58Z</time>
      </trkpt>
      <trkpt lat="50.29402" lon="5.65604">
        <ele>417.83</ele>
        <time>2019-07-07T12:38:13Z</time>
      </trkpt>
      <trkpt lat="50.29409" lon="5.65682">
        <ele>418.31</ele>
        <time>2019-07-07T12:38:23Z</time>
      </trkpt>
      <trkpt lat="50.29411" lon="5.6569">
        <ele>418.79</ele>
        <time>2019-07-07T12:38:24Z</time>
      </trkpt>
      <trkpt lat="50.29413" lon="5.65698">
        <ele>418.79</ele>
        <time>2019-07-07T12:38:25Z</time>
      </trkpt>
      <trkpt lat="50.29424" lon="5.65728">
        <ele>419.27</ele>
        <time>2019-07-07T12:38:29Z</time>
      </trkpt>
      <trkpt lat="50.29427" lon="5.65735">
        <ele>419.27</ele>
        <time>2019-07-07T12:38:30Z</time>
      </trkpt>
      <trkpt lat="50.29473" lon="5.65816">
        <ele>419.75</ele>
        <time>2019-07-07T12:38:43Z</time>
      </trkpt>
      <trkpt lat="50.29486" lon="5.65863">
        <ele>419.75</ele>
        <time>2019-07-07T12:38:49Z</time>
      </trkpt>
      <trkpt lat="50.29487" lon="5.65892">
        <ele>420.23</ele>
        <time>2019-07-07T12:38:52Z</time>
      </trkpt>
      <trkpt lat="50.29486" lon="5.65901">
        <ele>420.23</ele>
        <time>2019-07-07T12:38:53Z</time>
      </trkpt>
      <trkpt lat="50.29483" lon="5.65919">
        <ele>420.23</ele>
        <time>2019-07-07T12:38:55Z</time>
      </trkpt>
      <trkpt lat="50.2948" lon="5.65928">
        <ele>420.23</ele>
        <time>2019-07-07T12:38:56Z</time>
      </trkpt>
      <trkpt lat="50.29478" lon="5.65935">
        <ele>420.23</ele>
        <time>2019-07-07T12:38:57Z</time>
      </trkpt>
      <trkpt lat="50.29474" lon="5.65943">
        <ele>420.23</ele>
        <time>2019-07-07T12:38:58Z</time>
      </trkpt>
      <trkpt lat="50.2947" lon="5.6595">
        <ele>420.23</ele>
        <time>2019-07-07T12:38:59Z</time>
      </trkpt>
      <trkpt lat="50.29401" lon="5.66046">
        <ele>421.68</ele>
        <time>2019-07-07T12:39:16Z</time>
      </trkpt>
      <trkpt lat="50.29345" lon="5.66125">
        <ele>422.64</ele>
        <time>2019-07-07T12:39:32Z</time>
      </trkpt>
      <trkpt lat="50.29321" lon="5.66156">
        <ele>423.12</ele>
        <time>2019-07-07T12:39:39Z</time>
      </trkpt>
      <trkpt lat="50.29318" lon="5.66161">
        <ele>423.12</ele>
        <time>2019-07-07T12:39:40Z</time>
      </trkpt>
      <trkpt lat="50.29316" lon="5.66167">
        <ele>423.12</ele>
        <time>2019-07-07T12:39:41Z</time>
      </trkpt>
      <trkpt lat="50.29314" lon="5.66171">
        <ele>423.12</ele>
        <time>2019-07-07T12:39:42Z</time>
      </trkpt>
      <trkpt lat="50.2931" lon="5.66175">
        <ele>423.6</ele>
        <time>2019-07-07T12:39:43Z</time>
      </trkpt>
      <trkpt lat="50.29307" lon="5.66178">
        <ele>423.6</ele>
        <time>2019-07-07T12:39:44Z</time>
      </trkpt>
      <trkpt lat="50.29295" lon="5.6619">
        <ele>423.6</ele>
        <time>2019-07-07T12:39:49Z</time>
      </trkpt>
      <trkpt lat="50.29292" lon="5.6619">
        <ele>423.6</ele>
        <time>2019-07-07T12:39:50Z</time>
      </trkpt>
      <trkpt lat="50.2929" lon="5.66191">
        <ele>423.6</ele>
        <time>2019-07-07T12:39:51Z</time>
      </trkpt>
      <trkpt lat="50.29289" lon="5.66192">
        <ele>423.6</ele>
        <time>2019-07-07T12:39:52Z</time>
      </trkpt>
      <trkpt lat="50.29288" lon="5.66195">
        <ele>424.08</ele>
        <time>2019-07-07T12:39:54Z</time>
      </trkpt>
      <trkpt lat="50.29289" lon="5.66196">
        <ele>424.08</ele>
        <time>2019-07-07T12:39:55Z</time>
      </trkpt>
      <trkpt lat="50.29288" lon="5.66197">
        <ele>424.08</ele>
        <time>2019-07-07T12:39:59Z</time>
      </trkpt>
      <trkpt lat="50.29287" lon="5.66194">
        <ele>424.08</ele>
        <time>2019-07-07T12:40:01Z</time>
      </trkpt>
      <trkpt lat="50.29287" lon="5.66193">
        <ele>424.08</ele>
        <time>2019-07-07T12:40:18Z</time>
      </trkpt>
      <trkpt lat="50.29287" lon="5.66195">
        <ele>423.6</ele>
        <time>2019-07-07T12:40:57Z</time>
      </trkpt>
      <trkpt lat="50.29287" lon="5.66193">
        <ele>423.6</ele>
        <time>2019-07-07T12:41:44Z</time>
      </trkpt>
      <trkpt lat="50.29287" lon="5.66195">
        <ele>423.6</ele>
        <time>2019-07-07T12:42:31Z</time>
      </trkpt>
      <trkpt lat="50.29287" lon="5.66194">
        <ele>423.6</ele>
        <time>2019-07-07T12:43:10Z</time>
      </trkpt>
      <trkpt lat="50.29288" lon="5.66193">
        <ele>423.6</ele>
        <time>2019-07-07T12:43:33Z</time>
      </trkpt>
      <trkpt lat="50.29287" lon="5.66194">
        <ele>423.6</ele>
        <time>2019-07-07T12:44:11Z</time>
      </trkpt>
      <trkpt lat="50.29287" lon="5.66195">
        <ele>423.6</ele>
        <time>2019-07-07T12:44:46Z</time>
      </trkpt>
      <trkpt lat="50.29288" lon="5.66194">
        <ele>422.64</ele>
        <time>2019-07-07T12:45:31Z</time>
      </trkpt>
      <trkpt lat="50.29289" lon="5.66194">
        <ele>422.64</ele>
        <time>2019-07-07T12:46:03Z</time>
      </trkpt>
      <trkpt lat="50.29289" lon="5.66195">
        <ele>422.64</ele>
        <time>2019-07-07T12:46:31Z</time>
      </trkpt>
      <trkpt lat="50.2929" lon="5.66197">
        <ele>422.64</ele>
        <time>2019-07-07T12:46:42Z</time>
      </trkpt>
      <trkpt lat="50.2929" lon="5.66201">
        <ele>422.64</ele>
        <time>2019-07-07T12:46:54Z</time>
      </trkpt>
      <trkpt lat="50.29291" lon="5.66203">
        <ele>422.64</ele>
        <time>2019-07-07T12:47:01Z</time>
      </trkpt>
      <trkpt lat="50.29292" lon="5.66204">
        <ele>422.64</ele>
        <time>2019-07-07T12:47:02Z</time>
      </trkpt>
      <trkpt lat="50.29294" lon="5.66204">
        <ele>422.64</ele>
        <time>2019-07-07T12:47:03Z</time>
      </trkpt>
      <trkpt lat="50.29295" lon="5.66204">
        <ele>422.64</ele>
        <time>2019-07-07T12:47:04Z</time>
      </trkpt>
      <trkpt lat="50.29297" lon="5.66202">
        <ele>422.64</ele>
        <time>2019-07-07T12:47:05Z</time>
      </trkpt>
      <trkpt lat="50.29297" lon="5.662">
        <ele>422.64</ele>
        <time>2019-07-07T12:47:06Z</time>
      </trkpt>
      <trkpt lat="50.29296" lon="5.66198">
        <ele>422.64</ele>
        <time>2019-07-07T12:47:07Z</time>
      </trkpt>
      <trkpt lat="50.29295" lon="5.66197">
        <ele>422.64</ele>
        <time>2019-07-07T12:47:08Z</time>
      </trkpt>
      <trkpt lat="50.29293" lon="5.66197">
        <ele>422.64</ele>
        <time>2019-07-07T12:47:09Z</time>
      </trkpt>
      <trkpt lat="50.29291" lon="5.662">
        <ele>422.64</ele>
        <time>2019-07-07T12:47:10Z</time>
      </trkpt>
      <trkpt lat="50.2929" lon="5.66201">
        <ele>422.64</ele>
        <time>2019-07-07T12:47:11Z</time>
      </trkpt>
      <trkpt lat="50.29289" lon="5.66204">
        <ele>422.64</ele>
        <time>2019-07-07T12:47:12Z</time>
      </trkpt>
      <trkpt lat="50.29268" lon="5.66229">
        <ele>422.64</ele>
        <time>2019-07-07T12:47:21Z</time>
      </trkpt>
      <trkpt lat="50.29212" lon="5.66309">
        <ele>424.08</ele>
        <time>2019-07-07T12:47:34Z</time>
      </trkpt>
      <trkpt lat="50.29151" lon="5.66395">
        <ele>425.04</ele>
        <time>2019-07-07T12:47:50Z</time>
      </trkpt>
      <trkpt lat="50.29112" lon="5.66435">
        <ele>426</ele>
        <time>2019-07-07T12:48:04Z</time>
      </trkpt>
      <trkpt lat="50.29107" lon="5.66446">
        <ele>426</ele>
        <time>2019-07-07T12:48:22Z</time>
      </trkpt>
      <trkpt lat="50.29107" lon="5.66452">
        <ele>426</ele>
        <time>2019-07-07T12:48:23Z</time>
      </trkpt>
      <trkpt lat="50.29106" lon="5.66459">
        <ele>426</ele>
        <time>2019-07-07T12:48:24Z</time>
      </trkpt>
      <trkpt lat="50.29108" lon="5.66487">
        <ele>426</ele>
        <time>2019-07-07T12:48:27Z</time>
      </trkpt>
      <trkpt lat="50.29129" lon="5.66654">
        <ele>427.92</ele>
        <time>2019-07-07T12:48:44Z</time>
      </trkpt>
      <trkpt lat="50.29147" lon="5.66807">
        <ele>430.33</ele>
        <time>2019-07-07T12:49:02Z</time>
      </trkpt>
      <trkpt lat="50.29166" lon="5.66974">
        <ele>433.21</ele>
        <time>2019-07-07T12:49:23Z</time>
      </trkpt>
      <trkpt lat="50.29182" lon="5.67115">
        <ele>436.58</ele>
        <time>2019-07-07T12:49:42Z</time>
      </trkpt>
      <trkpt lat="50.292" lon="5.67265">
        <ele>439.46</ele>
        <time>2019-07-07T12:50:02Z</time>
      </trkpt>
      <trkpt lat="50.29219" lon="5.67423">
        <ele>441.86</ele>
        <time>2019-07-07T12:50:23Z</time>
      </trkpt>
      <trkpt lat="50.29231" lon="5.67524">
        <ele>443.31</ele>
        <time>2019-07-07T12:50:39Z</time>
      </trkpt>
      <trkpt lat="50.29233" lon="5.67547">
        <ele>444.27</ele>
        <time>2019-07-07T12:50:51Z</time>
      </trkpt>
      <trkpt lat="50.29234" lon="5.67547">
        <ele>444.27</ele>
        <time>2019-07-07T12:51:12Z</time>
      </trkpt>
      <trkpt lat="50.29234" lon="5.67549">
        <ele>444.27</ele>
        <time>2019-07-07T12:51:13Z</time>
      </trkpt>
      <trkpt lat="50.29235" lon="5.67551">
        <ele>444.27</ele>
        <time>2019-07-07T12:51:14Z</time>
      </trkpt>
      <trkpt lat="50.29236" lon="5.67554">
        <ele>444.27</ele>
        <time>2019-07-07T12:51:15Z</time>
      </trkpt>
      <trkpt lat="50.29237" lon="5.67558">
        <ele>444.27</ele>
        <time>2019-07-07T12:51:16Z</time>
      </trkpt>
      <trkpt lat="50.29237" lon="5.67561">
        <ele>444.27</ele>
        <time>2019-07-07T12:51:17Z</time>
      </trkpt>
      <trkpt lat="50.29237" lon="5.67565">
        <ele>444.27</ele>
        <time>2019-07-07T12:51:18Z</time>
      </trkpt>
      <trkpt lat="50.29237" lon="5.67568">
        <ele>444.27</ele>
        <time>2019-07-07T12:51:19Z</time>
      </trkpt>
      <trkpt lat="50.29237" lon="5.6757">
        <ele>444.27</ele>
        <time>2019-07-07T12:51:25Z</time>
      </trkpt>
      <trkpt lat="50.29236" lon="5.67572">
        <ele>444.27</ele>
        <time>2019-07-07T12:51:41Z</time>
      </trkpt>
      <trkpt lat="50.29236" lon="5.67572">
        <ele>444.27</ele>
        <time>2019-07-07T12:52:08Z</time>
      </trkpt>
      <trkpt lat="50.29234" lon="5.67569">
        <ele>444.27</ele>
        <time>2019-07-07T12:52:39Z</time>
      </trkpt>
      <trkpt lat="50.29233" lon="5.67567">
        <ele>444.27</ele>
        <time>2019-07-07T12:53:05Z</time>
      </trkpt>
      <trkpt lat="50.29234" lon="5.67566">
        <ele>444.27</ele>
        <time>2019-07-07T12:53:44Z</time>
      </trkpt>
      <trkpt lat="50.29236" lon="5.67568">
        <ele>444.75</ele>
        <time>2019-07-07T12:54:15Z</time>
      </trkpt>
      <trkpt lat="50.29236" lon="5.67572">
        <ele>444.75</ele>
        <time>2019-07-07T12:54:40Z</time>
      </trkpt>
      <trkpt lat="50.29234" lon="5.67571">
        <ele>444.75</ele>
        <time>2019-07-07T12:55:07Z</time>
      </trkpt>
      <trkpt lat="50.29234" lon="5.67571">
        <ele>444.75</ele>
        <time>2019-07-07T12:55:42Z</time>
      </trkpt>
      <trkpt lat="50.29234" lon="5.67571">
        <ele>444.75</ele>
        <time>2019-07-07T12:56:08Z</time>
      </trkpt>
      <trkpt lat="50.29235" lon="5.67571">
        <ele>444.75</ele>
        <time>2019-07-07T12:56:38Z</time>
      </trkpt>
      <trkpt lat="50.29234" lon="5.67571">
        <ele>444.75</ele>
        <time>2019-07-07T12:57:03Z</time>
      </trkpt>
      <trkpt lat="50.29236" lon="5.67571">
        <ele>444.75</ele>
        <time>2019-07-07T12:57:31Z</time>
      </trkpt>
      <trkpt lat="50.29236" lon="5.67572">
        <ele>444.75</ele>
        <time>2019-07-07T12:58:06Z</time>
      </trkpt>
      <trkpt lat="50.29235" lon="5.67572">
        <ele>444.75</ele>
        <time>2019-07-07T12:58:49Z</time>
      </trkpt>
      <trkpt lat="50.29235" lon="5.67572">
        <ele>444.75</ele>
        <time>2019-07-07T12:59:23Z</time>
      </trkpt>
      <trkpt lat="50.29235" lon="5.67572">
        <ele>444.75</ele>
        <time>2019-07-07T12:59:55Z</time>
      </trkpt>
      <trkpt lat="50.29236" lon="5.67574">
        <ele>444.75</ele>
        <time>2019-07-07T13:00:30Z</time>
      </trkpt>
      <trkpt lat="50.29235" lon="5.67571">
        <ele>444.75</ele>
        <time>2019-07-07T13:00:58Z</time>
      </trkpt>
      <trkpt lat="50.29237" lon="5.6757">
        <ele>444.75</ele>
        <time>2019-07-07T13:01:35Z</time>
      </trkpt>
      <trkpt lat="50.29236" lon="5.6757">
        <ele>444.75</ele>
        <time>2019-07-07T13:02:06Z</time>
      </trkpt>
      <trkpt lat="50.29237" lon="5.67571">
        <ele>444.75</ele>
        <time>2019-07-07T13:02:38Z</time>
      </trkpt>
      <trkpt lat="50.29235" lon="5.67571">
        <ele>444.75</ele>
        <time>2019-07-07T13:03:12Z</time>
      </trkpt>
      <trkpt lat="50.29236" lon="5.67573">
        <ele>444.75</ele>
        <time>2019-07-07T13:03:44Z</time>
      </trkpt>
      <trkpt lat="50.29236" lon="5.67573">
        <ele>444.75</ele>
        <time>2019-07-07T13:04:17Z</time>
      </trkpt>
      <trkpt lat="50.29237" lon="5.67573">
        <ele>444.75</ele>
        <time>2019-07-07T13:04:47Z</time>
      </trkpt>
      <trkpt lat="50.29236" lon="5.67571">
        <ele>444.75</ele>
        <time>2019-07-07T13:05:14Z</time>
      </trkpt>
      <trkpt lat="50.29237" lon="5.67571">
        <ele>444.75</ele>
        <time>2019-07-07T13:05:48Z</time>
      </trkpt>
      <trkpt lat="50.29236" lon="5.67572">
        <ele>444.75</ele>
        <time>2019-07-07T13:06:20Z</time>
      </trkpt>
      <trkpt lat="50.29236" lon="5.67572">
        <ele>444.75</ele>
        <time>2019-07-07T13:06:54Z</time>
      </trkpt>
      <trkpt lat="50.29236" lon="5.67573">
        <ele>444.75</ele>
        <time>2019-07-07T13:07:36Z</time>
      </trkpt>
      <trkpt lat="50.29237" lon="5.67574">
        <ele>444.75</ele>
        <time>2019-07-07T13:08:12Z</time>
      </trkpt>
      <trkpt lat="50.29236" lon="5.67571">
        <ele>444.75</ele>
        <time>2019-07-07T13:08:46Z</time>
      </trkpt>
      <trkpt lat="50.29236" lon="5.67572">
        <ele>444.75</ele>
        <time>2019-07-07T13:09:20Z</time>
      </trkpt>
      <trkpt lat="50.29236" lon="5.67571">
        <ele>444.75</ele>
        <time>2019-07-07T13:09:50Z</time>
      </trkpt>
      <trkpt lat="50.29235" lon="5.67572">
        <ele>443.79</ele>
        <time>2019-07-07T13:10:20Z</time>
      </trkpt>
      <trkpt lat="50.29235" lon="5.67572">
        <ele>443.79</ele>
        <time>2019-07-07T13:10:50Z</time>
      </trkpt>
      <trkpt lat="50.29235" lon="5.67573">
        <ele>443.79</ele>
        <time>2019-07-07T13:11:21Z</time>
      </trkpt>
      <trkpt lat="50.29234" lon="5.67572">
        <ele>443.31</ele>
        <time>2019-07-07T13:11:52Z</time>
      </trkpt>
      <trkpt lat="50.29234" lon="5.67572">
        <ele>443.31</ele>
        <time>2019-07-07T13:12:23Z</time>
      </trkpt>
      <trkpt lat="50.29234" lon="5.67571">
        <ele>443.31</ele>
        <time>2019-07-07T13:12:57Z</time>
      </trkpt>
      <trkpt lat="50.29236" lon="5.67572">
        <ele>443.31</ele>
        <time>2019-07-07T13:13:23Z</time>
      </trkpt>
      <trkpt lat="50.29236" lon="5.67573">
        <ele>443.31</ele>
        <time>2019-07-07T13:13:48Z</time>
      </trkpt>
      <trkpt lat="50.29236" lon="5.67572">
        <ele>443.31</ele>
        <time>2019-07-07T13:14:24Z</time>
      </trkpt>
      <trkpt lat="50.29237" lon="5.6757">
        <ele>443.31</ele>
        <time>2019-07-07T13:14:56Z</time>
      </trkpt>
      <trkpt lat="50.29237" lon="5.6757">
        <ele>443.31</ele>
        <time>2019-07-07T13:15:17Z</time>
      </trkpt>
      <trkpt lat="50.29237" lon="5.6757">
        <ele>443.31</ele>
        <time>2019-07-07T13:15:37Z</time>
      </trkpt>
      <trkpt lat="50.29237" lon="5.67571">
        <ele>443.31</ele>
        <time>2019-07-07T13:15:55Z</time>
      </trkpt>
      <trkpt lat="50.29237" lon="5.67569">
        <ele>443.31</ele>
        <time>2019-07-07T13:16:20Z</time>
      </trkpt>
      <trkpt lat="50.29237" lon="5.67568">
        <ele>443.31</ele>
        <time>2019-07-07T13:16:48Z</time>
      </trkpt>
      <trkpt lat="50.29237" lon="5.6757">
        <ele>443.31</ele>
        <time>2019-07-07T13:17:09Z</time>
      </trkpt>
      <trkpt lat="50.29238" lon="5.67571">
        <ele>443.31</ele>
        <time>2019-07-07T13:17:33Z</time>
      </trkpt>
      <trkpt lat="50.29237" lon="5.67571">
        <ele>443.31</ele>
        <time>2019-07-07T13:17:58Z</time>
      </trkpt>
      <trkpt lat="50.2924" lon="5.67571">
        <ele>443.79</ele>
        <time>2019-07-07T13:18:09Z</time>
      </trkpt>
      <trkpt lat="50.29241" lon="5.67572">
        <ele>443.31</ele>
        <time>2019-07-07T13:18:10Z</time>
      </trkpt>
      <trkpt lat="50.29243" lon="5.67573">
        <ele>443.31</ele>
        <time>2019-07-07T13:18:11Z</time>
      </trkpt>
      <trkpt lat="50.29244" lon="5.67576">
        <ele>443.79</ele>
        <time>2019-07-07T13:18:24Z</time>
      </trkpt>
      <trkpt lat="50.29256" lon="5.67612">
        <ele>442.82</ele>
        <time>2019-07-07T13:18:35Z</time>
      </trkpt>
      <trkpt lat="50.29283" lon="5.67701">
        <ele>438.98</ele>
        <time>2019-07-07T13:18:44Z</time>
      </trkpt>
      <trkpt lat="50.29309" lon="5.67791">
        <ele>435.61</ele>
        <time>2019-07-07T13:18:51Z</time>
      </trkpt>
      <trkpt lat="50.29325" lon="5.67847">
        <ele>433.69</ele>
        <time>2019-07-07T13:18:55Z</time>
      </trkpt>
      <trkpt lat="50.29353" lon="5.67945">
        <ele>430.33</ele>
        <time>2019-07-07T13:19:02Z</time>
      </trkpt>
      <trkpt lat="50.2937" lon="5.68003">
        <ele>429.37</ele>
        <time>2019-07-07T13:19:06Z</time>
      </trkpt>
      <trkpt lat="50.29375" lon="5.68017">
        <ele>428.4</ele>
        <time>2019-07-07T13:19:07Z</time>
      </trkpt>
      <trkpt lat="50.29425" lon="5.68134">
        <ele>425.04</ele>
        <time>2019-07-07T13:19:16Z</time>
      </trkpt>
      <trkpt lat="50.29495" lon="5.68301">
        <ele>423.6</ele>
        <time>2019-07-07T13:19:31Z</time>
      </trkpt>
      <trkpt lat="50.29566" lon="5.68465">
        <ele>422.64</ele>
        <time>2019-07-07T13:19:47Z</time>
      </trkpt>
      <trkpt lat="50.29635" lon="5.68632">
        <ele>419.75</ele>
        <time>2019-07-07T13:20:03Z</time>
      </trkpt>
      <trkpt lat="50.29682" lon="5.68741">
        <ele>416.39</ele>
        <time>2019-07-07T13:20:13Z</time>
      </trkpt>
      <trkpt lat="50.29736" lon="5.68868">
        <ele>413.02</ele>
        <time>2019-07-07T13:20:24Z</time>
      </trkpt>
      <trkpt lat="50.29811" lon="5.69045">
        <ele>411.58</ele>
        <time>2019-07-07T13:20:39Z</time>
      </trkpt>
      <trkpt lat="50.29905" lon="5.69264">
        <ele>411.58</ele>
        <time>2019-07-07T13:20:59Z</time>
      </trkpt>
      <trkpt lat="50.29951" lon="5.69416">
        <ele>409.66</ele>
        <time>2019-07-07T13:21:12Z</time>
      </trkpt>
      <trkpt lat="50.29996" lon="5.69588">
        <ele>409.66</ele>
        <time>2019-07-07T13:21:28Z</time>
      </trkpt>
      <trkpt lat="50.30009" lon="5.69664">
        <ele>409.66</ele>
        <time>2019-07-07T13:21:35Z</time>
      </trkpt>
      <trkpt lat="50.30013" lon="5.69674">
        <ele>409.66</ele>
        <time>2019-07-07T13:21:36Z</time>
      </trkpt>
      <trkpt lat="50.30017" lon="5.69682">
        <ele>409.66</ele>
        <time>2019-07-07T13:21:37Z</time>
      </trkpt>
      <trkpt lat="50.30059" lon="5.69751">
        <ele>411.58</ele>
        <time>2019-07-07T13:21:46Z</time>
      </trkpt>
      <trkpt lat="50.30063" lon="5.6976">
        <ele>411.58</ele>
        <time>2019-07-07T13:21:47Z</time>
      </trkpt>
      <trkpt lat="50.30066" lon="5.6977">
        <ele>411.58</ele>
        <time>2019-07-07T13:21:48Z</time>
      </trkpt>
      <trkpt lat="50.30076" lon="5.69797">
        <ele>412.06</ele>
        <time>2019-07-07T13:21:51Z</time>
      </trkpt>
      <trkpt lat="50.3008" lon="5.69805">
        <ele>412.06</ele>
        <time>2019-07-07T13:21:52Z</time>
      </trkpt>
      <trkpt lat="50.30085" lon="5.69812">
        <ele>412.06</ele>
        <time>2019-07-07T13:21:53Z</time>
      </trkpt>
      <trkpt lat="50.30091" lon="5.69818">
        <ele>412.06</ele>
        <time>2019-07-07T13:21:54Z</time>
      </trkpt>
      <trkpt lat="50.30097" lon="5.69824">
        <ele>412.06</ele>
        <time>2019-07-07T13:21:55Z</time>
      </trkpt>
      <trkpt lat="50.30103" lon="5.69829">
        <ele>412.06</ele>
        <time>2019-07-07T13:21:56Z</time>
      </trkpt>
      <trkpt lat="50.30115" lon="5.69839">
        <ele>411.1</ele>
        <time>2019-07-07T13:21:58Z</time>
      </trkpt>
      <trkpt lat="50.30123" lon="5.69842">
        <ele>411.1</ele>
        <time>2019-07-07T13:21:59Z</time>
      </trkpt>
      <trkpt lat="50.30131" lon="5.69843">
        <ele>410.14</ele>
        <time>2019-07-07T13:22:00Z</time>
      </trkpt>
      <trkpt lat="50.30147" lon="5.69844">
        <ele>409.66</ele>
        <time>2019-07-07T13:22:02Z</time>
      </trkpt>
      <trkpt lat="50.30155" lon="5.69846">
        <ele>409.18</ele>
        <time>2019-07-07T13:22:03Z</time>
      </trkpt>
      <trkpt lat="50.30162" lon="5.69851">
        <ele>409.18</ele>
        <time>2019-07-07T13:22:04Z</time>
      </trkpt>
      <trkpt lat="50.30169" lon="5.69859">
        <ele>408.7</ele>
        <time>2019-07-07T13:22:05Z</time>
      </trkpt>
      <trkpt lat="50.30173" lon="5.69868">
        <ele>408.7</ele>
        <time>2019-07-07T13:22:06Z</time>
      </trkpt>
      <trkpt lat="50.30177" lon="5.69878">
        <ele>408.7</ele>
        <time>2019-07-07T13:22:07Z</time>
      </trkpt>
      <trkpt lat="50.30205" lon="5.69945">
        <ele>408.7</ele>
        <time>2019-07-07T13:22:14Z</time>
      </trkpt>
      <trkpt lat="50.3021" lon="5.69953">
        <ele>408.7</ele>
        <time>2019-07-07T13:22:15Z</time>
      </trkpt>
      <trkpt lat="50.30215" lon="5.69961">
        <ele>408.7</ele>
        <time>2019-07-07T13:22:16Z</time>
      </trkpt>
      <trkpt lat="50.30251" lon="5.70002">
        <ele>407.74</ele>
        <time>2019-07-07T13:22:22Z</time>
      </trkpt>
      <trkpt lat="50.30294" lon="5.70034">
        <ele>407.26</ele>
        <time>2019-07-07T13:22:28Z</time>
      </trkpt>
      <trkpt lat="50.303" lon="5.70041">
        <ele>407.26</ele>
        <time>2019-07-07T13:22:29Z</time>
      </trkpt>
      <trkpt lat="50.30305" lon="5.70049">
        <ele>406.77</ele>
        <time>2019-07-07T13:22:30Z</time>
      </trkpt>
      <trkpt lat="50.3031" lon="5.70058">
        <ele>406.77</ele>
        <time>2019-07-07T13:22:31Z</time>
      </trkpt>
      <trkpt lat="50.30314" lon="5.70069">
        <ele>406.77</ele>
        <time>2019-07-07T13:22:32Z</time>
      </trkpt>
      <trkpt lat="50.30326" lon="5.70099">
        <ele>406.29</ele>
        <time>2019-07-07T13:22:35Z</time>
      </trkpt>
      <trkpt lat="50.30339" lon="5.70156">
        <ele>405.81</ele>
        <time>2019-07-07T13:22:40Z</time>
      </trkpt>
      <trkpt lat="50.30339" lon="5.70167">
        <ele>405.81</ele>
        <time>2019-07-07T13:22:41Z</time>
      </trkpt>
      <trkpt lat="50.30344" lon="5.70336">
        <ele>403.89</ele>
        <time>2019-07-07T13:22:55Z</time>
      </trkpt>
      <trkpt lat="50.30347" lon="5.70347">
        <ele>403.89</ele>
        <time>2019-07-07T13:22:56Z</time>
      </trkpt>
      <trkpt lat="50.30351" lon="5.70359">
        <ele>403.89</ele>
        <time>2019-07-07T13:22:57Z</time>
      </trkpt>
      <trkpt lat="50.30354" lon="5.70369">
        <ele>403.89</ele>
        <time>2019-07-07T13:22:58Z</time>
      </trkpt>
      <trkpt lat="50.30359" lon="5.7038">
        <ele>403.89</ele>
        <time>2019-07-07T13:22:59Z</time>
      </trkpt>
      <trkpt lat="50.30364" lon="5.70391">
        <ele>402.93</ele>
        <time>2019-07-07T13:23:00Z</time>
      </trkpt>
      <trkpt lat="50.30368" lon="5.70402">
        <ele>402.93</ele>
        <time>2019-07-07T13:23:01Z</time>
      </trkpt>
      <trkpt lat="50.30437" lon="5.70543">
        <ele>399.57</ele>
        <time>2019-07-07T13:23:14Z</time>
      </trkpt>
      <trkpt lat="50.30447" lon="5.70565">
        <ele>399.08</ele>
        <time>2019-07-07T13:23:16Z</time>
      </trkpt>
      <trkpt lat="50.30525" lon="5.70731">
        <ele>397.64</ele>
        <time>2019-07-07T13:23:32Z</time>
      </trkpt>
      <trkpt lat="50.30603" lon="5.70918">
        <ele>397.16</ele>
        <time>2019-07-07T13:23:50Z</time>
      </trkpt>
      <trkpt lat="50.3063" lon="5.71096">
        <ele>394.28</ele>
        <time>2019-07-07T13:24:04Z</time>
      </trkpt>
      <trkpt lat="50.30661" lon="5.71307">
        <ele>395.72</ele>
        <time>2019-07-07T13:24:22Z</time>
      </trkpt>
      <trkpt lat="50.30664" lon="5.71317">
        <ele>395.72</ele>
        <time>2019-07-07T13:24:23Z</time>
      </trkpt>
      <trkpt lat="50.30725" lon="5.71457">
        <ele>396.68</ele>
        <time>2019-07-07T13:24:38Z</time>
      </trkpt>
      <trkpt lat="50.30809" lon="5.7163">
        <ele>398.12</ele>
        <time>2019-07-07T13:24:58Z</time>
      </trkpt>
      <trkpt lat="50.30821" lon="5.71653">
        <ele>398.6</ele>
        <time>2019-07-07T13:25:01Z</time>
      </trkpt>
      <trkpt lat="50.3088" lon="5.71767">
        <ele>399.08</ele>
        <time>2019-07-07T13:25:18Z</time>
      </trkpt>
      <trkpt lat="50.30956" lon="5.71868">
        <ele>400.53</ele>
        <time>2019-07-07T13:25:36Z</time>
      </trkpt>
      <trkpt lat="50.31015" lon="5.71956">
        <ele>401.97</ele>
        <time>2019-07-07T13:25:51Z</time>
      </trkpt>
      <trkpt lat="50.31075" lon="5.72075">
        <ele>404.37</ele>
        <time>2019-07-07T13:26:10Z</time>
      </trkpt>
      <trkpt lat="50.31111" lon="5.72215">
        <ele>403.41</ele>
        <time>2019-07-07T13:26:26Z</time>
      </trkpt>
      <trkpt lat="50.31157" lon="5.7237">
        <ele>401.49</ele>
        <time>2019-07-07T13:26:42Z</time>
      </trkpt>
      <trkpt lat="50.31223" lon="5.7247">
        <ele>403.41</ele>
        <time>2019-07-07T13:26:57Z</time>
      </trkpt>
      <trkpt lat="50.31298" lon="5.7255">
        <ele>405.81</ele>
        <time>2019-07-07T13:27:14Z</time>
      </trkpt>
      <trkpt lat="50.31386" lon="5.72593">
        <ele>407.26</ele>
        <time>2019-07-07T13:27:30Z</time>
      </trkpt>
      <trkpt lat="50.31483" lon="5.72644">
        <ele>407.74</ele>
        <time>2019-07-07T13:27:47Z</time>
      </trkpt>
      <trkpt lat="50.31541" lon="5.72683">
        <ele>404.37</ele>
        <time>2019-07-07T13:27:55Z</time>
      </trkpt>
      <trkpt lat="50.31586" lon="5.72713">
        <ele>401.97</ele>
        <time>2019-07-07T13:28:00Z</time>
      </trkpt>
      <trkpt lat="50.31625" lon="5.72739">
        <ele>398.6</ele>
        <time>2019-07-07T13:28:04Z</time>
      </trkpt>
      <trkpt lat="50.31677" lon="5.72773">
        <ele>394.76</ele>
        <time>2019-07-07T13:28:09Z</time>
      </trkpt>
      <trkpt lat="50.31698" lon="5.72789">
        <ele>393.8</ele>
        <time>2019-07-07T13:28:11Z</time>
      </trkpt>
      <trkpt lat="50.3173" lon="5.72816">
        <ele>390.43</ele>
        <time>2019-07-07T13:28:14Z</time>
      </trkpt>
      <trkpt lat="50.31785" lon="5.72864">
        <ele>387.07</ele>
        <time>2019-07-07T13:28:19Z</time>
      </trkpt>
      <trkpt lat="50.31817" lon="5.72894">
        <ele>385.15</ele>
        <time>2019-07-07T13:28:22Z</time>
      </trkpt>
      <trkpt lat="50.3192" lon="5.72986">
        <ele>382.26</ele>
        <time>2019-07-07T13:28:32Z</time>
      </trkpt>
      <trkpt lat="50.32046" lon="5.73076">
        <ele>383.22</ele>
        <time>2019-07-07T13:28:46Z</time>
      </trkpt>
      <trkpt lat="50.32136" lon="5.73128">
        <ele>386.59</ele>
        <time>2019-07-07T13:28:58Z</time>
      </trkpt>
      <trkpt lat="50.32192" lon="5.73168">
        <ele>387.55</ele>
        <time>2019-07-07T13:29:07Z</time>
      </trkpt>
      <trkpt lat="50.32199" lon="5.73171">
        <ele>387.55</ele>
        <time>2019-07-07T13:29:08Z</time>
      </trkpt>
      <trkpt lat="50.32282" lon="5.73192">
        <ele>388.03</ele>
        <time>2019-07-07T13:29:21Z</time>
      </trkpt>
      <trkpt lat="50.32296" lon="5.73196">
        <ele>388.03</ele>
        <time>2019-07-07T13:29:23Z</time>
      </trkpt>
      <trkpt lat="50.32302" lon="5.73202">
        <ele>386.59</ele>
        <time>2019-07-07T13:29:24Z</time>
      </trkpt>
      <trkpt lat="50.32309" lon="5.73208">
        <ele>386.59</ele>
        <time>2019-07-07T13:29:25Z</time>
      </trkpt>
      <trkpt lat="50.32329" lon="5.73229">
        <ele>385.15</ele>
        <time>2019-07-07T13:29:28Z</time>
      </trkpt>
      <trkpt lat="50.32334" lon="5.73239">
        <ele>384.18</ele>
        <time>2019-07-07T13:29:29Z</time>
      </trkpt>
      <trkpt lat="50.32337" lon="5.73252">
        <ele>384.18</ele>
        <time>2019-07-07T13:29:30Z</time>
      </trkpt>
      <trkpt lat="50.32339" lon="5.73266">
        <ele>383.22</ele>
        <time>2019-07-07T13:29:31Z</time>
      </trkpt>
      <trkpt lat="50.3234" lon="5.7328">
        <ele>382.74</ele>
        <time>2019-07-07T13:29:32Z</time>
      </trkpt>
      <trkpt lat="50.32343" lon="5.7331">
        <ele>381.78</ele>
        <time>2019-07-07T13:29:34Z</time>
      </trkpt>
      <trkpt lat="50.32342" lon="5.73325">
        <ele>380.82</ele>
        <time>2019-07-07T13:29:35Z</time>
      </trkpt>
      <trkpt lat="50.32336" lon="5.73417">
        <ele>377.94</ele>
        <time>2019-07-07T13:29:41Z</time>
      </trkpt>
      <trkpt lat="50.32331" lon="5.73432">
        <ele>377.45</ele>
        <time>2019-07-07T13:29:42Z</time>
      </trkpt>
      <trkpt lat="50.32325" lon="5.73445">
        <ele>376.49</ele>
        <time>2019-07-07T13:29:43Z</time>
      </trkpt>
      <trkpt lat="50.32304" lon="5.73484">
        <ele>375.05</ele>
        <time>2019-07-07T13:29:46Z</time>
      </trkpt>
      <trkpt lat="50.323" lon="5.735">
        <ele>374.57</ele>
        <time>2019-07-07T13:29:47Z</time>
      </trkpt>
      <trkpt lat="50.32297" lon="5.73515">
        <ele>374.57</ele>
        <time>2019-07-07T13:29:48Z</time>
      </trkpt>
      <trkpt lat="50.32289" lon="5.73566">
        <ele>373.13</ele>
        <time>2019-07-07T13:29:51Z</time>
      </trkpt>
      <trkpt lat="50.32285" lon="5.73581">
        <ele>372.65</ele>
        <time>2019-07-07T13:29:52Z</time>
      </trkpt>
      <trkpt lat="50.32275" lon="5.73615">
        <ele>371.69</ele>
        <time>2019-07-07T13:29:54Z</time>
      </trkpt>
      <trkpt lat="50.3227" lon="5.73629">
        <ele>370.73</ele>
        <time>2019-07-07T13:29:55Z</time>
      </trkpt>
      <trkpt lat="50.32263" lon="5.73642">
        <ele>369.76</ele>
        <time>2019-07-07T13:29:56Z</time>
      </trkpt>
      <trkpt lat="50.32254" lon="5.73653">
        <ele>369.76</ele>
        <time>2019-07-07T13:29:57Z</time>
      </trkpt>
      <trkpt lat="50.32243" lon="5.73663">
        <ele>369.28</ele>
        <time>2019-07-07T13:29:58Z</time>
      </trkpt>
      <trkpt lat="50.32233" lon="5.73672">
        <ele>368.8</ele>
        <time>2019-07-07T13:29:59Z</time>
      </trkpt>
      <trkpt lat="50.32203" lon="5.73705">
        <ele>365.44</ele>
        <time>2019-07-07T13:30:02Z</time>
      </trkpt>
      <trkpt lat="50.32166" lon="5.7376">
        <ele>362.07</ele>
        <time>2019-07-07T13:30:06Z</time>
      </trkpt>
      <trkpt lat="50.32158" lon="5.73775">
        <ele>361.59</ele>
        <time>2019-07-07T13:30:07Z</time>
      </trkpt>
      <trkpt lat="50.32149" lon="5.73794">
        <ele>360.63</ele>
        <time>2019-07-07T13:30:08Z</time>
      </trkpt>
      <trkpt lat="50.32144" lon="5.7381">
        <ele>360.15</ele>
        <time>2019-07-07T13:30:09Z</time>
      </trkpt>
      <trkpt lat="50.32139" lon="5.73828">
        <ele>359.19</ele>
        <time>2019-07-07T13:30:10Z</time>
      </trkpt>
      <trkpt lat="50.32135" lon="5.73847">
        <ele>358.71</ele>
        <time>2019-07-07T13:30:11Z</time>
      </trkpt>
      <trkpt lat="50.32132" lon="5.73866">
        <ele>357.75</ele>
        <time>2019-07-07T13:30:12Z</time>
      </trkpt>
      <trkpt lat="50.32131" lon="5.73886">
        <ele>357.27</ele>
        <time>2019-07-07T13:30:13Z</time>
      </trkpt>
      <trkpt lat="50.3213" lon="5.73904">
        <ele>357.27</ele>
        <time>2019-07-07T13:30:14Z</time>
      </trkpt>
      <trkpt lat="50.3213" lon="5.73925">
        <ele>356.79</ele>
        <time>2019-07-07T13:30:15Z</time>
      </trkpt>
      <trkpt lat="50.32134" lon="5.73999">
        <ele>354.86</ele>
        <time>2019-07-07T13:30:19Z</time>
      </trkpt>
      <trkpt lat="50.32137" lon="5.74018">
        <ele>354.86</ele>
        <time>2019-07-07T13:30:20Z</time>
      </trkpt>
      <trkpt lat="50.32141" lon="5.74033">
        <ele>354.38</ele>
        <time>2019-07-07T13:30:21Z</time>
      </trkpt>
      <trkpt lat="50.32147" lon="5.7405">
        <ele>354.38</ele>
        <time>2019-07-07T13:30:22Z</time>
      </trkpt>
      <trkpt lat="50.32153" lon="5.74063">
        <ele>353.9</ele>
        <time>2019-07-07T13:30:23Z</time>
      </trkpt>
      <trkpt lat="50.3216" lon="5.74076">
        <ele>353.9</ele>
        <time>2019-07-07T13:30:24Z</time>
      </trkpt>
      <trkpt lat="50.32167" lon="5.74087">
        <ele>353.9</ele>
        <time>2019-07-07T13:30:25Z</time>
      </trkpt>
      <trkpt lat="50.32175" lon="5.74098">
        <ele>353.42</ele>
        <time>2019-07-07T13:30:26Z</time>
      </trkpt>
      <trkpt lat="50.32184" lon="5.74108">
        <ele>353.42</ele>
        <time>2019-07-07T13:30:27Z</time>
      </trkpt>
      <trkpt lat="50.32273" lon="5.7422">
        <ele>350.06</ele>
        <time>2019-07-07T13:30:38Z</time>
      </trkpt>
      <trkpt lat="50.32277" lon="5.74225">
        <ele>349.58</ele>
        <time>2019-07-07T13:30:39Z</time>
      </trkpt>
      <trkpt lat="50.32302" lon="5.74255">
        <ele>348.62</ele>
        <time>2019-07-07T13:30:42Z</time>
      </trkpt>
      <trkpt lat="50.32399" lon="5.74377">
        <ele>345.73</ele>
        <time>2019-07-07T13:30:55Z</time>
      </trkpt>
      <trkpt lat="50.32458" lon="5.74451">
        <ele>342.37</ele>
        <time>2019-07-07T13:31:02Z</time>
      </trkpt>
      <trkpt lat="50.32517" lon="5.7453">
        <ele>339.96</ele>
        <time>2019-07-07T13:31:09Z</time>
      </trkpt>
      <trkpt lat="50.32525" lon="5.74543">
        <ele>339</ele>
        <time>2019-07-07T13:31:10Z</time>
      </trkpt>
      <trkpt lat="50.32532" lon="5.74558">
        <ele>338.04</ele>
        <time>2019-07-07T13:31:11Z</time>
      </trkpt>
      <trkpt lat="50.32538" lon="5.74575">
        <ele>338.04</ele>
        <time>2019-07-07T13:31:12Z</time>
      </trkpt>
      <trkpt lat="50.32544" lon="5.74592">
        <ele>337.08</ele>
        <time>2019-07-07T13:31:13Z</time>
      </trkpt>
      <trkpt lat="50.32548" lon="5.74608">
        <ele>336.6</ele>
        <time>2019-07-07T13:31:14Z</time>
      </trkpt>
      <trkpt lat="50.32552" lon="5.74626">
        <ele>335.64</ele>
        <time>2019-07-07T13:31:15Z</time>
      </trkpt>
      <trkpt lat="50.32573" lon="5.74716">
        <ele>332.27</ele>
        <time>2019-07-07T13:31:20Z</time>
      </trkpt>
      <trkpt lat="50.3259" lon="5.7479">
        <ele>328.91</ele>
        <time>2019-07-07T13:31:24Z</time>
      </trkpt>
      <trkpt lat="50.32608" lon="5.74865">
        <ele>325.54</ele>
        <time>2019-07-07T13:31:28Z</time>
      </trkpt>
      <trkpt lat="50.3263" lon="5.74957">
        <ele>321.7</ele>
        <time>2019-07-07T13:31:33Z</time>
      </trkpt>
      <trkpt lat="50.32648" lon="5.75027">
        <ele>318.33</ele>
        <time>2019-07-07T13:31:37Z</time>
      </trkpt>
      <trkpt lat="50.32661" lon="5.75073">
        <ele>316.41</ele>
        <time>2019-07-07T13:31:40Z</time>
      </trkpt>
      <trkpt lat="50.32708" lon="5.75214">
        <ele>315.93</ele>
        <time>2019-07-07T13:31:51Z</time>
      </trkpt>
      <trkpt lat="50.32717" lon="5.75243">
        <ele>317.37</ele>
        <time>2019-07-07T13:31:54Z</time>
      </trkpt>
      <trkpt lat="50.32738" lon="5.75304">
        <ele>320.74</ele>
        <time>2019-07-07T13:32:02Z</time>
      </trkpt>
      <trkpt lat="50.32765" lon="5.75387">
        <ele>323.62</ele>
        <time>2019-07-07T13:32:16Z</time>
      </trkpt>
      <trkpt lat="50.32789" lon="5.75458">
        <ele>326.99</ele>
        <time>2019-07-07T13:32:29Z</time>
      </trkpt>
      <trkpt lat="50.32814" lon="5.75531">
        <ele>330.35</ele>
        <time>2019-07-07T13:32:44Z</time>
      </trkpt>
      <trkpt lat="50.32837" lon="5.75598">
        <ele>333.71</ele>
        <time>2019-07-07T13:32:58Z</time>
      </trkpt>
      <trkpt lat="50.32861" lon="5.75673">
        <ele>337.08</ele>
        <time>2019-07-07T13:33:14Z</time>
      </trkpt>
      <trkpt lat="50.32887" lon="5.75726">
        <ele>339.96</ele>
        <time>2019-07-07T13:33:27Z</time>
      </trkpt>
      <trkpt lat="50.3292" lon="5.75783">
        <ele>343.33</ele>
        <time>2019-07-07T13:33:43Z</time>
      </trkpt>
      <trkpt lat="50.32928" lon="5.7585">
        <ele>346.69</ele>
        <time>2019-07-07T13:33:58Z</time>
      </trkpt>
      <trkpt lat="50.32945" lon="5.75908">
        <ele>349.58</ele>
        <time>2019-07-07T13:34:12Z</time>
      </trkpt>
      <trkpt lat="50.32978" lon="5.75947">
        <ele>352.46</ele>
        <time>2019-07-07T13:34:26Z</time>
      </trkpt>
      <trkpt lat="50.32992" lon="5.75995">
        <ele>356.31</ele>
        <time>2019-07-07T13:34:38Z</time>
      </trkpt>
      <trkpt lat="50.32983" lon="5.76059">
        <ele>359.19</ele>
        <time>2019-07-07T13:34:52Z</time>
      </trkpt>
      <trkpt lat="50.32968" lon="5.76125">
        <ele>361.59</ele>
        <time>2019-07-07T13:35:07Z</time>
      </trkpt>
      <trkpt lat="50.32973" lon="5.76195">
        <ele>364.48</ele>
        <time>2019-07-07T13:35:23Z</time>
      </trkpt>
      <trkpt lat="50.32977" lon="5.76267">
        <ele>367.84</ele>
        <time>2019-07-07T13:35:39Z</time>
      </trkpt>
      <trkpt lat="50.32945" lon="5.76306">
        <ele>370.73</ele>
        <time>2019-07-07T13:35:53Z</time>
      </trkpt>
      <trkpt lat="50.32899" lon="5.76313">
        <ele>374.09</ele>
        <time>2019-07-07T13:36:06Z</time>
      </trkpt>
      <trkpt lat="50.32895" lon="5.76314">
        <ele>374.09</ele>
        <time>2019-07-07T13:36:07Z</time>
      </trkpt>
      <trkpt lat="50.32849" lon="5.76344">
        <ele>376.97</ele>
        <time>2019-07-07T13:36:19Z</time>
      </trkpt>
      <trkpt lat="50.32814" lon="5.76404">
        <ele>379.86</ele>
        <time>2019-07-07T13:36:34Z</time>
      </trkpt>
      <trkpt lat="50.32819" lon="5.76479">
        <ele>382.26</ele>
        <time>2019-07-07T13:36:49Z</time>
      </trkpt>
      <trkpt lat="50.32845" lon="5.7656">
        <ele>384.66</ele>
        <time>2019-07-07T13:37:06Z</time>
      </trkpt>
      <trkpt lat="50.32869" lon="5.76659">
        <ele>386.59</ele>
        <time>2019-07-07T13:37:24Z</time>
      </trkpt>
      <trkpt lat="50.32884" lon="5.76729">
        <ele>388.51</ele>
        <time>2019-07-07T13:37:38Z</time>
      </trkpt>
      <trkpt lat="50.32902" lon="5.76805">
        <ele>390.91</ele>
        <time>2019-07-07T13:37:53Z</time>
      </trkpt>
      <trkpt lat="50.32923" lon="5.76891">
        <ele>393.8</ele>
        <time>2019-07-07T13:38:10Z</time>
      </trkpt>
      <trkpt lat="50.32944" lon="5.76965">
        <ele>396.68</ele>
        <time>2019-07-07T13:38:27Z</time>
      </trkpt>
      <trkpt lat="50.32962" lon="5.77009">
        <ele>398.6</ele>
        <time>2019-07-07T13:38:39Z</time>
      </trkpt>
      <trkpt lat="50.32985" lon="5.77053">
        <ele>400.53</ele>
        <time>2019-07-07T13:38:52Z</time>
      </trkpt>
      <trkpt lat="50.33024" lon="5.77108">
        <ele>403.41</ele>
        <time>2019-07-07T13:39:09Z</time>
      </trkpt>
      <trkpt lat="50.3306" lon="5.77146">
        <ele>405.81</ele>
        <time>2019-07-07T13:39:23Z</time>
      </trkpt>
      <trkpt lat="50.33105" lon="5.77185">
        <ele>408.7</ele>
        <time>2019-07-07T13:39:40Z</time>
      </trkpt>
      <trkpt lat="50.33148" lon="5.77222">
        <ele>411.58</ele>
        <time>2019-07-07T13:39:56Z</time>
      </trkpt>
      <trkpt lat="50.33188" lon="5.77267">
        <ele>413.98</ele>
        <time>2019-07-07T13:40:12Z</time>
      </trkpt>
      <trkpt lat="50.33211" lon="5.77332">
        <ele>416.87</ele>
        <time>2019-07-07T13:40:27Z</time>
      </trkpt>
      <trkpt lat="50.33209" lon="5.77406">
        <ele>419.27</ele>
        <time>2019-07-07T13:40:42Z</time>
      </trkpt>
      <trkpt lat="50.33191" lon="5.77459">
        <ele>421.19</ele>
        <time>2019-07-07T13:40:55Z</time>
      </trkpt>
      <trkpt lat="50.33175" lon="5.77496">
        <ele>423.12</ele>
        <time>2019-07-07T13:41:05Z</time>
      </trkpt>
      <trkpt lat="50.3315" lon="5.77551">
        <ele>426</ele>
        <time>2019-07-07T13:41:20Z</time>
      </trkpt>
      <trkpt lat="50.33131" lon="5.77615">
        <ele>427.44</ele>
        <time>2019-07-07T13:41:34Z</time>
      </trkpt>
      <trkpt lat="50.33126" lon="5.77681">
        <ele>428.4</ele>
        <time>2019-07-07T13:41:46Z</time>
      </trkpt>
      <trkpt lat="50.33134" lon="5.77745">
        <ele>428.89</ele>
        <time>2019-07-07T13:41:57Z</time>
      </trkpt>
      <trkpt lat="50.33171" lon="5.77856">
        <ele>428.89</ele>
        <time>2019-07-07T13:42:15Z</time>
      </trkpt>
      <trkpt lat="50.33182" lon="5.7789">
        <ele>429.85</ele>
        <time>2019-07-07T13:42:21Z</time>
      </trkpt>
      <trkpt lat="50.33213" lon="5.77985">
        <ele>431.77</ele>
        <time>2019-07-07T13:42:38Z</time>
      </trkpt>
      <trkpt lat="50.3324" lon="5.7806">
        <ele>434.17</ele>
        <time>2019-07-07T13:42:53Z</time>
      </trkpt>
      <trkpt lat="50.3326" lon="5.78113">
        <ele>435.61</ele>
        <time>2019-07-07T13:43:05Z</time>
      </trkpt>
      <trkpt lat="50.33277" lon="5.78166">
        <ele>437.54</ele>
        <time>2019-07-07T13:43:17Z</time>
      </trkpt>
      <trkpt lat="50.33295" lon="5.78218">
        <ele>438.02</ele>
        <time>2019-07-07T13:43:33Z</time>
      </trkpt>
      <trkpt lat="50.33296" lon="5.78219">
        <ele>438.02</ele>
        <time>2019-07-07T13:43:51Z</time>
      </trkpt>
      <trkpt lat="50.33304" lon="5.78242">
        <ele>438.02</ele>
        <time>2019-07-07T13:44:05Z</time>
      </trkpt>
      <trkpt lat="50.3334" lon="5.78333">
        <ele>436.58</ele>
        <time>2019-07-07T13:44:16Z</time>
      </trkpt>
      <trkpt lat="50.33395" lon="5.784">
        <ele>433.21</ele>
        <time>2019-07-07T13:44:25Z</time>
      </trkpt>
      <trkpt lat="50.33402" lon="5.78408">
        <ele>433.21</ele>
        <time>2019-07-07T13:44:26Z</time>
      </trkpt>
      <trkpt lat="50.33444" lon="5.78454">
        <ele>429.37</ele>
        <time>2019-07-07T13:44:31Z</time>
      </trkpt>
      <trkpt lat="50.33489" lon="5.78501">
        <ele>426.48</ele>
        <time>2019-07-07T13:44:36Z</time>
      </trkpt>
      <trkpt lat="50.33508" lon="5.78521">
        <ele>425.52</ele>
        <time>2019-07-07T13:44:38Z</time>
      </trkpt>
      <trkpt lat="50.33545" lon="5.78561">
        <ele>422.16</ele>
        <time>2019-07-07T13:44:42Z</time>
      </trkpt>
      <trkpt lat="50.33585" lon="5.78603">
        <ele>419.27</ele>
        <time>2019-07-07T13:44:46Z</time>
      </trkpt>
      <trkpt lat="50.33595" lon="5.78614">
        <ele>419.27</ele>
        <time>2019-07-07T13:44:47Z</time>
      </trkpt>
      <trkpt lat="50.33635" lon="5.78659">
        <ele>415.91</ele>
        <time>2019-07-07T13:44:51Z</time>
      </trkpt>
      <trkpt lat="50.33677" lon="5.78704">
        <ele>412.54</ele>
        <time>2019-07-07T13:44:55Z</time>
      </trkpt>
      <trkpt lat="50.33756" lon="5.78794">
        <ele>409.18</ele>
        <time>2019-07-07T13:45:03Z</time>
      </trkpt>
      <trkpt lat="50.33764" lon="5.78807">
        <ele>408.7</ele>
        <time>2019-07-07T13:45:04Z</time>
      </trkpt>
      <trkpt lat="50.33771" lon="5.78821">
        <ele>408.7</ele>
        <time>2019-07-07T13:45:05Z</time>
      </trkpt>
      <trkpt lat="50.33849" lon="5.79009">
        <ele>405.33</ele>
        <time>2019-07-07T13:45:18Z</time>
      </trkpt>
      <trkpt lat="50.33911" lon="5.79161">
        <ele>402.45</ele>
        <time>2019-07-07T13:45:29Z</time>
      </trkpt>
      <trkpt lat="50.33974" lon="5.79318">
        <ele>399.08</ele>
        <time>2019-07-07T13:45:41Z</time>
      </trkpt>
      <trkpt lat="50.34035" lon="5.79465">
        <ele>395.72</ele>
        <time>2019-07-07T13:45:53Z</time>
      </trkpt>
      <trkpt lat="50.34071" lon="5.79629">
        <ele>392.36</ele>
        <time>2019-07-07T13:46:05Z</time>
      </trkpt>
      <trkpt lat="50.34096" lon="5.79827">
        <ele>389.47</ele>
        <time>2019-07-07T13:46:18Z</time>
      </trkpt>
      <trkpt lat="50.3412" lon="5.79966">
        <ele>387.07</ele>
        <time>2019-07-07T13:46:27Z</time>
      </trkpt>
      <trkpt lat="50.34178" lon="5.80122">
        <ele>384.66</ele>
        <time>2019-07-07T13:46:39Z</time>
      </trkpt>
      <trkpt lat="50.3423" lon="5.80264">
        <ele>384.18</ele>
        <time>2019-07-07T13:46:52Z</time>
      </trkpt>
      <trkpt lat="50.34258" lon="5.80397">
        <ele>386.11</ele>
        <time>2019-07-07T13:47:05Z</time>
      </trkpt>
      <trkpt lat="50.34275" lon="5.80485">
        <ele>387.07</ele>
        <time>2019-07-07T13:47:14Z</time>
      </trkpt>
      <trkpt lat="50.34303" lon="5.80588">
        <ele>388.03</ele>
        <time>2019-07-07T13:47:25Z</time>
      </trkpt>
      <trkpt lat="50.34321" lon="5.80621">
        <ele>388.03</ele>
        <time>2019-07-07T13:47:29Z</time>
      </trkpt>
      <trkpt lat="50.3439" lon="5.80672">
        <ele>388.51</ele>
        <time>2019-07-07T13:47:41Z</time>
      </trkpt>
      <trkpt lat="50.34457" lon="5.80724">
        <ele>389.95</ele>
        <time>2019-07-07T13:47:54Z</time>
      </trkpt>
      <trkpt lat="50.34504" lon="5.808">
        <ele>392.84</ele>
        <time>2019-07-07T13:48:08Z</time>
      </trkpt>
      <trkpt lat="50.34529" lon="5.80877">
        <ele>396.2</ele>
        <time>2019-07-07T13:48:21Z</time>
      </trkpt>
      <trkpt lat="50.34533" lon="5.80927">
        <ele>397.64</ele>
        <time>2019-07-07T13:48:29Z</time>
      </trkpt>
      <trkpt lat="50.34536" lon="5.80973">
        <ele>399.57</ele>
        <time>2019-07-07T13:48:36Z</time>
      </trkpt>
      <trkpt lat="50.34536" lon="5.80979">
        <ele>399.57</ele>
        <time>2019-07-07T13:48:37Z</time>
      </trkpt>
      <trkpt lat="50.34537" lon="5.80985">
        <ele>399.57</ele>
        <time>2019-07-07T13:48:38Z</time>
      </trkpt>
      <trkpt lat="50.34542" lon="5.8103">
        <ele>401.49</ele>
        <time>2019-07-07T13:48:45Z</time>
      </trkpt>
      <trkpt lat="50.34547" lon="5.81054">
        <ele>402.45</ele>
        <time>2019-07-07T13:48:49Z</time>
      </trkpt>
      <trkpt lat="50.34549" lon="5.81061">
        <ele>402.45</ele>
        <time>2019-07-07T13:48:50Z</time>
      </trkpt>
      <trkpt lat="50.34574" lon="5.81169">
        <ele>405.81</ele>
        <time>2019-07-07T13:49:07Z</time>
      </trkpt>
      <trkpt lat="50.34594" lon="5.81248">
        <ele>407.74</ele>
        <time>2019-07-07T13:49:19Z</time>
      </trkpt>
      <trkpt lat="50.34596" lon="5.81254">
        <ele>407.74</ele>
        <time>2019-07-07T13:49:20Z</time>
      </trkpt>
      <trkpt lat="50.34599" lon="5.81261">
        <ele>407.74</ele>
        <time>2019-07-07T13:49:21Z</time>
      </trkpt>
      <trkpt lat="50.34601" lon="5.81268">
        <ele>407.74</ele>
        <time>2019-07-07T13:49:22Z</time>
      </trkpt>
      <trkpt lat="50.34603" lon="5.81275">
        <ele>407.74</ele>
        <time>2019-07-07T13:49:23Z</time>
      </trkpt>
      <trkpt lat="50.34606" lon="5.81281">
        <ele>407.74</ele>
        <time>2019-07-07T13:49:24Z</time>
      </trkpt>
      <trkpt lat="50.34608" lon="5.81288">
        <ele>407.74</ele>
        <time>2019-07-07T13:49:25Z</time>
      </trkpt>
      <trkpt lat="50.34655" lon="5.81388">
        <ele>407.74</ele>
        <time>2019-07-07T13:49:39Z</time>
      </trkpt>
      <trkpt lat="50.34685" lon="5.81447">
        <ele>406.29</ele>
        <time>2019-07-07T13:49:46Z</time>
      </trkpt>
      <trkpt lat="50.34752" lon="5.81584">
        <ele>403.89</ele>
        <time>2019-07-07T13:50:01Z</time>
      </trkpt>
      <trkpt lat="50.34776" lon="5.81632">
        <ele>402.93</ele>
        <time>2019-07-07T13:50:06Z</time>
      </trkpt>
      <trkpt lat="50.34781" lon="5.81641">
        <ele>402.93</ele>
        <time>2019-07-07T13:50:07Z</time>
      </trkpt>
      <trkpt lat="50.34786" lon="5.81651">
        <ele>402.93</ele>
        <time>2019-07-07T13:50:08Z</time>
      </trkpt>
      <trkpt lat="50.34847" lon="5.81774">
        <ele>401.49</ele>
        <time>2019-07-07T13:50:21Z</time>
      </trkpt>
      <trkpt lat="50.34914" lon="5.81909">
        <ele>398.12</ele>
        <time>2019-07-07T13:50:35Z</time>
      </trkpt>
      <trkpt lat="50.3499" lon="5.82044">
        <ele>394.76</ele>
        <time>2019-07-07T13:50:49Z</time>
      </trkpt>
      <trkpt lat="50.35035" lon="5.82099">
        <ele>391.87</ele>
        <time>2019-07-07T13:50:55Z</time>
      </trkpt>
      <trkpt lat="50.35079" lon="5.82138">
        <ele>388.03</ele>
        <time>2019-07-07T13:51:00Z</time>
      </trkpt>
      <trkpt lat="50.35119" lon="5.82165">
        <ele>384.66</ele>
        <time>2019-07-07T13:51:04Z</time>
      </trkpt>
      <trkpt lat="50.35152" lon="5.82187">
        <ele>382.26</ele>
        <time>2019-07-07T13:51:07Z</time>
      </trkpt>
      <trkpt lat="50.35186" lon="5.8221">
        <ele>378.42</ele>
        <time>2019-07-07T13:51:10Z</time>
      </trkpt>
      <trkpt lat="50.35223" lon="5.82236">
        <ele>374.57</ele>
        <time>2019-07-07T13:51:13Z</time>
      </trkpt>
      <trkpt lat="50.35259" lon="5.82269">
        <ele>370.73</ele>
        <time>2019-07-07T13:51:16Z</time>
      </trkpt>
      <trkpt lat="50.35292" lon="5.82316">
        <ele>366.4</ele>
        <time>2019-07-07T13:51:19Z</time>
      </trkpt>
      <trkpt lat="50.35318" lon="5.82372">
        <ele>362.07</ele>
        <time>2019-07-07T13:51:22Z</time>
      </trkpt>
      <trkpt lat="50.35341" lon="5.82433">
        <ele>357.75</ele>
        <time>2019-07-07T13:51:25Z</time>
      </trkpt>
      <trkpt lat="50.35367" lon="5.82495">
        <ele>353.9</ele>
        <time>2019-07-07T13:51:28Z</time>
      </trkpt>
      <trkpt lat="50.35382" lon="5.82535">
        <ele>350.54</ele>
        <time>2019-07-07T13:51:30Z</time>
      </trkpt>
      <trkpt lat="50.35403" lon="5.82588">
        <ele>346.69</ele>
        <time>2019-07-07T13:51:33Z</time>
      </trkpt>
      <trkpt lat="50.35422" lon="5.82636">
        <ele>343.33</ele>
        <time>2019-07-07T13:51:36Z</time>
      </trkpt>
      <trkpt lat="50.35432" lon="5.82663">
        <ele>341.89</ele>
        <time>2019-07-07T13:51:38Z</time>
      </trkpt>
      <trkpt lat="50.35436" lon="5.82679">
        <ele>340.92</ele>
        <time>2019-07-07T13:51:39Z</time>
      </trkpt>
      <trkpt lat="50.35441" lon="5.82705">
        <ele>340.44</ele>
        <time>2019-07-07T13:51:41Z</time>
      </trkpt>
      <trkpt lat="50.35446" lon="5.82717">
        <ele>340.44</ele>
        <time>2019-07-07T13:51:42Z</time>
      </trkpt>
      <trkpt lat="50.35454" lon="5.82727">
        <ele>339.96</ele>
        <time>2019-07-07T13:51:43Z</time>
      </trkpt>
      <trkpt lat="50.35463" lon="5.82737">
        <ele>339</ele>
        <time>2019-07-07T13:51:44Z</time>
      </trkpt>
      <trkpt lat="50.3547" lon="5.82747">
        <ele>338.04</ele>
        <time>2019-07-07T13:51:45Z</time>
      </trkpt>
      <trkpt lat="50.35478" lon="5.82759">
        <ele>338.04</ele>
        <time>2019-07-07T13:51:46Z</time>
      </trkpt>
      <trkpt lat="50.35502" lon="5.82797">
        <ele>335.16</ele>
        <time>2019-07-07T13:51:49Z</time>
      </trkpt>
      <trkpt lat="50.35527" lon="5.82837">
        <ele>331.79</ele>
        <time>2019-07-07T13:51:52Z</time>
      </trkpt>
      <trkpt lat="50.35552" lon="5.8288">
        <ele>328.43</ele>
        <time>2019-07-07T13:51:55Z</time>
      </trkpt>
      <trkpt lat="50.3556" lon="5.82896">
        <ele>327.47</ele>
        <time>2019-07-07T13:51:56Z</time>
      </trkpt>
      <trkpt lat="50.35587" lon="5.82957">
        <ele>324.1</ele>
        <time>2019-07-07T13:52:00Z</time>
      </trkpt>
      <trkpt lat="50.35594" lon="5.82969">
        <ele>324.1</ele>
        <time>2019-07-07T13:52:01Z</time>
      </trkpt>
      <trkpt lat="50.35603" lon="5.82983">
        <ele>323.14</ele>
        <time>2019-07-07T13:52:02Z</time>
      </trkpt>
      <trkpt lat="50.35611" lon="5.82994">
        <ele>322.66</ele>
        <time>2019-07-07T13:52:03Z</time>
      </trkpt>
      <trkpt lat="50.35636" lon="5.83028">
        <ele>320.74</ele>
        <time>2019-07-07T13:52:07Z</time>
      </trkpt>
      <trkpt lat="50.3564" lon="5.83038">
        <ele>320.26</ele>
        <time>2019-07-07T13:52:08Z</time>
      </trkpt>
      <trkpt lat="50.35642" lon="5.83049">
        <ele>319.78</ele>
        <time>2019-07-07T13:52:09Z</time>
      </trkpt>
      <trkpt lat="50.35644" lon="5.83056">
        <ele>320.26</ele>
        <time>2019-07-07T13:52:10Z</time>
      </trkpt>
      <trkpt lat="50.35646" lon="5.83063">
        <ele>320.26</ele>
        <time>2019-07-07T13:52:11Z</time>
      </trkpt>
      <trkpt lat="50.3565" lon="5.83069">
        <ele>319.78</ele>
        <time>2019-07-07T13:52:12Z</time>
      </trkpt>
      <trkpt lat="50.35653" lon="5.83074">
        <ele>319.78</ele>
        <time>2019-07-07T13:52:13Z</time>
      </trkpt>
      <trkpt lat="50.35654" lon="5.83077">
        <ele>319.78</ele>
        <time>2019-07-07T13:52:14Z</time>
      </trkpt>
      <trkpt lat="50.35656" lon="5.83081">
        <ele>319.78</ele>
        <time>2019-07-07T13:52:15Z</time>
      </trkpt>
      <trkpt lat="50.35657" lon="5.83084">
        <ele>319.3</ele>
        <time>2019-07-07T13:52:16Z</time>
      </trkpt>
      <trkpt lat="50.35665" lon="5.83117">
        <ele>318.81</ele>
        <time>2019-07-07T13:52:23Z</time>
      </trkpt>
      <trkpt lat="50.35664" lon="5.83124">
        <ele>318.81</ele>
        <time>2019-07-07T13:52:24Z</time>
      </trkpt>
      <trkpt lat="50.35658" lon="5.83187">
        <ele>318.33</ele>
        <time>2019-07-07T13:52:31Z</time>
      </trkpt>
      <trkpt lat="50.35656" lon="5.83197">
        <ele>317.85</ele>
        <time>2019-07-07T13:52:32Z</time>
      </trkpt>
      <trkpt lat="50.35632" lon="5.83325">
        <ele>316.41</ele>
        <time>2019-07-07T13:52:43Z</time>
      </trkpt>
      <trkpt lat="50.35584" lon="5.83552">
        <ele>314.97</ele>
        <time>2019-07-07T13:53:01Z</time>
      </trkpt>
      <trkpt lat="50.35564" lon="5.83692">
        <ele>314.49</ele>
        <time>2019-07-07T13:53:12Z</time>
      </trkpt>
      <trkpt lat="50.35566" lon="5.83705">
        <ele>314.49</ele>
        <time>2019-07-07T13:53:13Z</time>
      </trkpt>
      <trkpt lat="50.35568" lon="5.83717">
        <ele>314.49</ele>
        <time>2019-07-07T13:53:14Z</time>
      </trkpt>
      <trkpt lat="50.35571" lon="5.83729">
        <ele>314.49</ele>
        <time>2019-07-07T13:53:15Z</time>
      </trkpt>
      <trkpt lat="50.35574" lon="5.8374">
        <ele>313.53</ele>
        <time>2019-07-07T13:53:16Z</time>
      </trkpt>
      <trkpt lat="50.35578" lon="5.8375">
        <ele>313.53</ele>
        <time>2019-07-07T13:53:17Z</time>
      </trkpt>
      <trkpt lat="50.35583" lon="5.83759">
        <ele>313.53</ele>
        <time>2019-07-07T13:53:18Z</time>
      </trkpt>
      <trkpt lat="50.35588" lon="5.83768">
        <ele>313.53</ele>
        <time>2019-07-07T13:53:19Z</time>
      </trkpt>
      <trkpt lat="50.35593" lon="5.83775">
        <ele>313.53</ele>
        <time>2019-07-07T13:53:20Z</time>
      </trkpt>
      <trkpt lat="50.35599" lon="5.83782">
        <ele>313.53</ele>
        <time>2019-07-07T13:53:21Z</time>
      </trkpt>
      <trkpt lat="50.35605" lon="5.83788">
        <ele>313.53</ele>
        <time>2019-07-07T13:53:22Z</time>
      </trkpt>
      <trkpt lat="50.35611" lon="5.83793">
        <ele>313.53</ele>
        <time>2019-07-07T13:53:23Z</time>
      </trkpt>
      <trkpt lat="50.35618" lon="5.83797">
        <ele>313.53</ele>
        <time>2019-07-07T13:53:24Z</time>
      </trkpt>
      <trkpt lat="50.35624" lon="5.838">
        <ele>313.53</ele>
        <time>2019-07-07T13:53:25Z</time>
      </trkpt>
      <trkpt lat="50.35631" lon="5.83802">
        <ele>313.53</ele>
        <time>2019-07-07T13:53:26Z</time>
      </trkpt>
      <trkpt lat="50.35637" lon="5.83802">
        <ele>313.53</ele>
        <time>2019-07-07T13:53:27Z</time>
      </trkpt>
      <trkpt lat="50.35644" lon="5.83802">
        <ele>312.57</ele>
        <time>2019-07-07T13:53:28Z</time>
      </trkpt>
      <trkpt lat="50.35724" lon="5.83797">
        <ele>311.6</ele>
        <time>2019-07-07T13:53:40Z</time>
      </trkpt>
      <trkpt lat="50.35811" lon="5.83789">
        <ele>309.68</ele>
        <time>2019-07-07T13:53:52Z</time>
      </trkpt>
      <trkpt lat="50.35891" lon="5.83798">
        <ele>308.72</ele>
        <time>2019-07-07T13:54:03Z</time>
      </trkpt>
      <trkpt lat="50.35971" lon="5.8382">
        <ele>307.28</ele>
        <time>2019-07-07T13:54:14Z</time>
      </trkpt>
      <trkpt lat="50.36061" lon="5.83842">
        <ele>306.32</ele>
        <time>2019-07-07T13:54:26Z</time>
      </trkpt>
      <trkpt lat="50.36185" lon="5.8389">
        <ele>304.39</ele>
        <time>2019-07-07T13:54:43Z</time>
      </trkpt>
      <trkpt lat="50.36256" lon="5.83974">
        <ele>302.95</ele>
        <time>2019-07-07T13:54:55Z</time>
      </trkpt>
      <trkpt lat="50.36331" lon="5.8412">
        <ele>301.03</ele>
        <time>2019-07-07T13:55:12Z</time>
      </trkpt>
      <trkpt lat="50.3635" lon="5.84159">
        <ele>301.03</ele>
        <time>2019-07-07T13:55:17Z</time>
      </trkpt>
      <trkpt lat="50.36354" lon="5.84167">
        <ele>301.03</ele>
        <time>2019-07-07T13:55:18Z</time>
      </trkpt>
      <trkpt lat="50.3641" lon="5.84279">
        <ele>301.03</ele>
        <time>2019-07-07T13:55:32Z</time>
      </trkpt>
      <trkpt lat="50.36468" lon="5.8439">
        <ele>301.03</ele>
        <time>2019-07-07T13:55:45Z</time>
      </trkpt>
      <trkpt lat="50.36498" lon="5.8445">
        <ele>302.95</ele>
        <time>2019-07-07T13:55:52Z</time>
      </trkpt>
      <trkpt lat="50.36501" lon="5.84456">
        <ele>302.95</ele>
        <time>2019-07-07T13:55:53Z</time>
      </trkpt>
      <trkpt lat="50.36503" lon="5.84461">
        <ele>302.95</ele>
        <time>2019-07-07T13:55:54Z</time>
      </trkpt>
      <trkpt lat="50.36504" lon="5.84465">
        <ele>302.95</ele>
        <time>2019-07-07T13:55:55Z</time>
      </trkpt>
      <trkpt lat="50.36505" lon="5.84468">
        <ele>302.95</ele>
        <time>2019-07-07T13:55:56Z</time>
      </trkpt>
      <trkpt lat="50.36533" lon="5.84528">
        <ele>302.95</ele>
        <time>2019-07-07T13:56:06Z</time>
      </trkpt>
      <trkpt lat="50.366" lon="5.8466">
        <ele>302.95</ele>
        <time>2019-07-07T13:56:22Z</time>
      </trkpt>
      <trkpt lat="50.36662" lon="5.8478">
        <ele>299.59</ele>
        <time>2019-07-07T13:56:36Z</time>
      </trkpt>
      <trkpt lat="50.36681" lon="5.84818">
        <ele>299.59</ele>
        <time>2019-07-07T13:56:41Z</time>
      </trkpt>
      <trkpt lat="50.36691" lon="5.84841">
        <ele>298.63</ele>
        <time>2019-07-07T13:56:44Z</time>
      </trkpt>
      <trkpt lat="50.367" lon="5.84855">
        <ele>298.63</ele>
        <time>2019-07-07T13:56:46Z</time>
      </trkpt>
      <trkpt lat="50.36703" lon="5.84863">
        <ele>298.15</ele>
        <time>2019-07-07T13:56:47Z</time>
      </trkpt>
      <trkpt lat="50.36706" lon="5.8487">
        <ele>298.15</ele>
        <time>2019-07-07T13:56:48Z</time>
      </trkpt>
      <trkpt lat="50.36758" lon="5.84971">
        <ele>297.67</ele>
        <time>2019-07-07T13:57:00Z</time>
      </trkpt>
      <trkpt lat="50.36813" lon="5.85079">
        <ele>299.11</ele>
        <time>2019-07-07T13:57:13Z</time>
      </trkpt>
      <trkpt lat="50.36859" lon="5.85182">
        <ele>299.59</ele>
        <time>2019-07-07T13:57:25Z</time>
      </trkpt>
      <trkpt lat="50.36874" lon="5.85231">
        <ele>299.59</ele>
        <time>2019-07-07T13:57:31Z</time>
      </trkpt>
      <trkpt lat="50.3688" lon="5.85257">
        <ele>299.59</ele>
        <time>2019-07-07T13:57:34Z</time>
      </trkpt>
      <trkpt lat="50.36924" lon="5.85415">
        <ele>297.67</ele>
        <time>2019-07-07T13:57:50Z</time>
      </trkpt>
      <trkpt lat="50.36965" lon="5.85558">
        <ele>293.82</ele>
        <time>2019-07-07T13:58:02Z</time>
      </trkpt>
      <trkpt lat="50.37004" lon="5.85702">
        <ele>290.94</ele>
        <time>2019-07-07T13:58:14Z</time>
      </trkpt>
      <trkpt lat="50.37011" lon="5.85726">
        <ele>289.97</ele>
        <time>2019-07-07T13:58:16Z</time>
      </trkpt>
      <trkpt lat="50.37014" lon="5.85738">
        <ele>289.97</ele>
        <time>2019-07-07T13:58:17Z</time>
      </trkpt>
      <trkpt lat="50.37017" lon="5.85751">
        <ele>289.49</ele>
        <time>2019-07-07T13:58:18Z</time>
      </trkpt>
      <trkpt lat="50.37021" lon="5.85764">
        <ele>289.49</ele>
        <time>2019-07-07T13:58:19Z</time>
      </trkpt>
      <trkpt lat="50.37024" lon="5.85777">
        <ele>289.01</ele>
        <time>2019-07-07T13:58:20Z</time>
      </trkpt>
      <trkpt lat="50.37045" lon="5.85901">
        <ele>285.65</ele>
        <time>2019-07-07T13:58:29Z</time>
      </trkpt>
      <trkpt lat="50.37046" lon="5.85975">
        <ele>283.73</ele>
        <time>2019-07-07T13:58:34Z</time>
      </trkpt>
      <trkpt lat="50.37041" lon="5.86087">
        <ele>280.36</ele>
        <time>2019-07-07T13:58:42Z</time>
      </trkpt>
      <trkpt lat="50.37037" lon="5.86139">
        <ele>279.4</ele>
        <time>2019-07-07T13:58:46Z</time>
      </trkpt>
      <trkpt lat="50.37034" lon="5.86152">
        <ele>278.92</ele>
        <time>2019-07-07T13:58:47Z</time>
      </trkpt>
      <trkpt lat="50.37031" lon="5.86165">
        <ele>278.92</ele>
        <time>2019-07-07T13:58:48Z</time>
      </trkpt>
      <trkpt lat="50.37026" lon="5.86177">
        <ele>278.44</ele>
        <time>2019-07-07T13:58:49Z</time>
      </trkpt>
      <trkpt lat="50.37021" lon="5.86188">
        <ele>277.48</ele>
        <time>2019-07-07T13:58:50Z</time>
      </trkpt>
      <trkpt lat="50.36969" lon="5.86303">
        <ele>274.59</ele>
        <time>2019-07-07T13:59:00Z</time>
      </trkpt>
      <trkpt lat="50.36945" lon="5.86392">
        <ele>273.15</ele>
        <time>2019-07-07T13:59:07Z</time>
      </trkpt>
      <trkpt lat="50.36947" lon="5.8651">
        <ele>271.71</ele>
        <time>2019-07-07T13:59:17Z</time>
      </trkpt>
      <trkpt lat="50.36955" lon="5.86562">
        <ele>270.75</ele>
        <time>2019-07-07T13:59:22Z</time>
      </trkpt>
      <trkpt lat="50.36976" lon="5.8664">
        <ele>269.31</ele>
        <time>2019-07-07T13:59:29Z</time>
      </trkpt>
      <trkpt lat="50.3699" lon="5.86672">
        <ele>267.86</ele>
        <time>2019-07-07T13:59:32Z</time>
      </trkpt>
      <trkpt lat="50.37016" lon="5.86722">
        <ele>265.94</ele>
        <time>2019-07-07T13:59:37Z</time>
      </trkpt>
      <trkpt lat="50.37093" lon="5.86838">
        <ele>263.06</ele>
        <time>2019-07-07T13:59:49Z</time>
      </trkpt>
      <trkpt lat="50.37163" lon="5.86942">
        <ele>259.21</ele>
        <time>2019-07-07T14:00:00Z</time>
      </trkpt>
      <trkpt lat="50.37204" lon="5.87018">
        <ele>256.33</ele>
        <time>2019-07-07T14:00:08Z</time>
      </trkpt>
      <trkpt lat="50.37207" lon="5.87027">
        <ele>256.33</ele>
        <time>2019-07-07T14:00:09Z</time>
      </trkpt>
      <trkpt lat="50.37209" lon="5.87037">
        <ele>255.37</ele>
        <time>2019-07-07T14:00:10Z</time>
      </trkpt>
      <trkpt lat="50.37226" lon="5.87148">
        <ele>253.93</ele>
        <time>2019-07-07T14:00:23Z</time>
      </trkpt>
      <trkpt lat="50.3723" lon="5.87184">
        <ele>254.41</ele>
        <time>2019-07-07T14:00:28Z</time>
      </trkpt>
      <trkpt lat="50.37231" lon="5.8719">
        <ele>254.41</ele>
        <time>2019-07-07T14:00:29Z</time>
      </trkpt>
      <trkpt lat="50.37234" lon="5.87196">
        <ele>254.41</ele>
        <time>2019-07-07T14:00:30Z</time>
      </trkpt>
      <trkpt lat="50.37236" lon="5.87201">
        <ele>254.41</ele>
        <time>2019-07-07T14:00:31Z</time>
      </trkpt>
      <trkpt lat="50.3724" lon="5.87206">
        <ele>254.41</ele>
        <time>2019-07-07T14:00:32Z</time>
      </trkpt>
      <trkpt lat="50.37244" lon="5.87209">
        <ele>254.41</ele>
        <time>2019-07-07T14:00:33Z</time>
      </trkpt>
      <trkpt lat="50.37248" lon="5.87212">
        <ele>254.41</ele>
        <time>2019-07-07T14:00:34Z</time>
      </trkpt>
      <trkpt lat="50.37254" lon="5.87214">
        <ele>254.41</ele>
        <time>2019-07-07T14:00:35Z</time>
      </trkpt>
      <trkpt lat="50.3726" lon="5.87215">
        <ele>254.41</ele>
        <time>2019-07-07T14:00:36Z</time>
      </trkpt>
      <trkpt lat="50.37266" lon="5.87216">
        <ele>254.41</ele>
        <time>2019-07-07T14:00:37Z</time>
      </trkpt>
      <trkpt lat="50.37272" lon="5.87217">
        <ele>254.41</ele>
        <time>2019-07-07T14:00:38Z</time>
      </trkpt>
      <trkpt lat="50.37362" lon="5.87239">
        <ele>254.41</ele>
        <time>2019-07-07T14:00:53Z</time>
      </trkpt>
      <trkpt lat="50.37458" lon="5.87288">
        <ele>253.44</ele>
        <time>2019-07-07T14:01:10Z</time>
      </trkpt>
      <trkpt lat="50.37512" lon="5.87315">
        <ele>253.44</ele>
        <time>2019-07-07T14:01:19Z</time>
      </trkpt>
      <trkpt lat="50.37518" lon="5.8732">
        <ele>253.44</ele>
        <time>2019-07-07T14:01:20Z</time>
      </trkpt>
      <trkpt lat="50.37611" lon="5.87429">
        <ele>252.48</ele>
        <time>2019-07-07T14:01:37Z</time>
      </trkpt>
      <trkpt lat="50.37682" lon="5.87507">
        <ele>251.04</ele>
        <time>2019-07-07T14:01:51Z</time>
      </trkpt>
      <trkpt lat="50.37685" lon="5.87512">
        <ele>251.04</ele>
        <time>2019-07-07T14:01:52Z</time>
      </trkpt>
      <trkpt lat="50.37686" lon="5.87521">
        <ele>251.04</ele>
        <time>2019-07-07T14:01:53Z</time>
      </trkpt>
      <trkpt lat="50.37684" lon="5.87529">
        <ele>251.04</ele>
        <time>2019-07-07T14:01:54Z</time>
      </trkpt>
      <trkpt lat="50.37672" lon="5.87558">
        <ele>252</ele>
        <time>2019-07-07T14:01:59Z</time>
      </trkpt>
      <trkpt lat="50.37668" lon="5.87564">
        <ele>252</ele>
        <time>2019-07-07T14:02:00Z</time>
      </trkpt>
      <trkpt lat="50.37655" lon="5.87579">
        <ele>252.48</ele>
        <time>2019-07-07T14:02:03Z</time>
      </trkpt>
      <trkpt lat="50.37622" lon="5.87611">
        <ele>252.96</ele>
        <time>2019-07-07T14:02:12Z</time>
      </trkpt>
      <trkpt lat="50.37618" lon="5.8761">
        <ele>252.96</ele>
        <time>2019-07-07T14:02:13Z</time>
      </trkpt>
      <trkpt lat="50.37616" lon="5.87606">
        <ele>252.96</ele>
        <time>2019-07-07T14:02:14Z</time>
      </trkpt>
      <trkpt lat="50.37614" lon="5.876">
        <ele>252.48</ele>
        <time>2019-07-07T14:02:15Z</time>
      </trkpt>
      <trkpt lat="50.37612" lon="5.87593">
        <ele>252.48</ele>
        <time>2019-07-07T14:02:16Z</time>
      </trkpt>
      <trkpt lat="50.37611" lon="5.87586">
        <ele>252.48</ele>
        <time>2019-07-07T14:02:17Z</time>
      </trkpt>
      <trkpt lat="50.37611" lon="5.87577">
        <ele>252.48</ele>
        <time>2019-07-07T14:02:18Z</time>
      </trkpt>
      <trkpt lat="50.37609" lon="5.87569">
        <ele>252.48</ele>
        <time>2019-07-07T14:02:19Z</time>
      </trkpt>
      <trkpt lat="50.37607" lon="5.87562">
        <ele>252.48</ele>
        <time>2019-07-07T14:02:20Z</time>
      </trkpt>
      <trkpt lat="50.37604" lon="5.87555">
        <ele>252.48</ele>
        <time>2019-07-07T14:02:21Z</time>
      </trkpt>
      <trkpt lat="50.37593" lon="5.87532">
        <ele>251.52</ele>
        <time>2019-07-07T14:02:24Z</time>
      </trkpt>
      <trkpt lat="50.37584" lon="5.87518">
        <ele>251.52</ele>
        <time>2019-07-07T14:02:26Z</time>
      </trkpt>
      <trkpt lat="50.3758" lon="5.87512">
        <ele>251.04</ele>
        <time>2019-07-07T14:02:27Z</time>
      </trkpt>
      <trkpt lat="50.37567" lon="5.87497">
        <ele>251.04</ele>
        <time>2019-07-07T14:02:30Z</time>
      </trkpt>
      <trkpt lat="50.37557" lon="5.87482">
        <ele>250.56</ele>
        <time>2019-07-07T14:02:34Z</time>
      </trkpt>
      <trkpt lat="50.37556" lon="5.87478">
        <ele>250.56</ele>
        <time>2019-07-07T14:02:36Z</time>
      </trkpt>
      <trkpt lat="50.37557" lon="5.87476">
        <ele>250.56</ele>
        <time>2019-07-07T14:02:37Z</time>
      </trkpt>
      <trkpt lat="50.37558" lon="5.87475">
        <ele>250.56</ele>
        <time>2019-07-07T14:02:38Z</time>
      </trkpt>
      <trkpt lat="50.37559" lon="5.87476">
        <ele>250.56</ele>
        <time>2019-07-07T14:02:39Z</time>
      </trkpt>
      <trkpt lat="50.37561" lon="5.87479">
        <ele>250.56</ele>
        <time>2019-07-07T14:02:40Z</time>
      </trkpt>
      <trkpt lat="50.37563" lon="5.87481">
        <ele>250.56</ele>
        <time>2019-07-07T14:02:41Z</time>
      </trkpt>
      <trkpt lat="50.37578" lon="5.87496">
        <ele>253.93</ele>
        <time>2019-07-07T14:02:49Z</time>
      </trkpt>
      <trkpt lat="50.37591" lon="5.87511">
        <ele>255.37</ele>
        <time>2019-07-07T14:03:00Z</time>
      </trkpt>
      <trkpt lat="50.37603" lon="5.87529">
        <ele>258.73</ele>
        <time>2019-07-07T14:03:09Z</time>
      </trkpt>
      <trkpt lat="50.37605" lon="5.87531">
        <ele>259.21</ele>
        <time>2019-07-07T14:03:10Z</time>
      </trkpt>
      <trkpt lat="50.37607" lon="5.87533">
        <ele>259.21</ele>
        <time>2019-07-07T14:03:11Z</time>
      </trkpt>
      <trkpt lat="50.37608" lon="5.87535">
        <ele>259.69</ele>
        <time>2019-07-07T14:03:12Z</time>
      </trkpt>
      <trkpt lat="50.37609" lon="5.87537">
        <ele>260.17</ele>
        <time>2019-07-07T14:03:13Z</time>
      </trkpt>
      <trkpt lat="50.37611" lon="5.87539">
        <ele>260.17</ele>
        <time>2019-07-07T14:03:14Z</time>
      </trkpt>
      <trkpt lat="50.37612" lon="5.87542">
        <ele>261.14</ele>
        <time>2019-07-07T14:03:15Z</time>
      </trkpt>
      <trkpt lat="50.37621" lon="5.87554">
        <ele>262.58</ele>
        <time>2019-07-07T14:03:21Z</time>
      </trkpt>
      <trkpt lat="50.37643" lon="5.87599">
        <ele>263.06</ele>
        <time>2019-07-07T14:03:31Z</time>
      </trkpt>
      <trkpt lat="50.37645" lon="5.87605">
        <ele>263.06</ele>
        <time>2019-07-07T14:03:32Z</time>
      </trkpt>
      <trkpt lat="50.37651" lon="5.87626">
        <ele>263.54</ele>
        <time>2019-07-07T14:03:35Z</time>
      </trkpt>
      <trkpt lat="50.37663" lon="5.87694">
        <ele>264.5</ele>
        <time>2019-07-07T14:03:45Z</time>
      </trkpt>
      <trkpt lat="50.37677" lon="5.87779">
        <ele>265.46</ele>
        <time>2019-07-07T14:03:58Z</time>
      </trkpt>
      <trkpt lat="50.37682" lon="5.87811">
        <ele>265.46</ele>
        <time>2019-07-07T14:04:03Z</time>
      </trkpt>
      <trkpt lat="50.37697" lon="5.87903">
        <ele>266.42</ele>
        <time>2019-07-07T14:04:17Z</time>
      </trkpt>
      <trkpt lat="50.37702" lon="5.87944">
        <ele>266.9</ele>
        <time>2019-07-07T14:04:23Z</time>
      </trkpt>
      <trkpt lat="50.37715" lon="5.8803">
        <ele>268.35</ele>
        <time>2019-07-07T14:04:37Z</time>
      </trkpt>
      <trkpt lat="50.37734" lon="5.88118">
        <ele>269.79</ele>
        <time>2019-07-07T14:04:52Z</time>
      </trkpt>
      <trkpt lat="50.37754" lon="5.88183">
        <ele>270.75</ele>
        <time>2019-07-07T14:05:05Z</time>
      </trkpt>
      <trkpt lat="50.37781" lon="5.8825">
        <ele>272.19</ele>
        <time>2019-07-07T14:05:21Z</time>
      </trkpt>
      <trkpt lat="50.37791" lon="5.88274">
        <ele>272.19</ele>
        <time>2019-07-07T14:05:33Z</time>
      </trkpt>
      <trkpt lat="50.37793" lon="5.88269">
        <ele>272.67</ele>
        <time>2019-07-07T14:05:40Z</time>
      </trkpt>
      <trkpt lat="50.37777" lon="5.8823">
        <ele>272.67</ele>
        <time>2019-07-07T14:05:50Z</time>
      </trkpt>
      <trkpt lat="50.37774" lon="5.88225">
        <ele>272.67</ele>
        <time>2019-07-07T14:05:52Z</time>
      </trkpt>
      <trkpt lat="50.37773" lon="5.88225">
        <ele>272.67</ele>
        <time>2019-07-07T14:05:53Z</time>
      </trkpt>
      <trkpt lat="50.37772" lon="5.8823">
        <ele>272.67</ele>
        <time>2019-07-07T14:06:03Z</time>
      </trkpt>
      <trkpt lat="50.37771" lon="5.88232">
        <ele>272.67</ele>
        <time>2019-07-07T14:06:16Z</time>
      </trkpt>
      <trkpt lat="50.37769" lon="5.88231">
        <ele>271.23</ele>
        <time>2019-07-07T14:06:38Z</time>
      </trkpt>
      <trkpt lat="50.3777" lon="5.88235">
        <ele>271.71</ele>
        <time>2019-07-07T14:07:00Z</time>
      </trkpt>
      <trkpt lat="50.37771" lon="5.88229">
        <ele>271.71</ele>
        <time>2019-07-07T14:07:20Z</time>
      </trkpt>
      <trkpt lat="50.37773" lon="5.88232">
        <ele>271.71</ele>
        <time>2019-07-07T14:07:44Z</time>
      </trkpt>
      <trkpt lat="50.37775" lon="5.8823">
        <ele>271.71</ele>
        <time>2019-07-07T14:07:59Z</time>
      </trkpt>
      <trkpt lat="50.37775" lon="5.88233">
        <ele>271.71</ele>
        <time>2019-07-07T14:08:00Z</time>
      </trkpt>
      <trkpt lat="50.37791" lon="5.88273">
        <ele>271.71</ele>
        <time>2019-07-07T14:08:09Z</time>
      </trkpt>
      <trkpt lat="50.3781" lon="5.88319">
        <ele>272.67</ele>
        <time>2019-07-07T14:08:16Z</time>
      </trkpt>
      <trkpt lat="50.37855" lon="5.88426">
        <ele>274.11</ele>
        <time>2019-07-07T14:08:32Z</time>
      </trkpt>
      <trkpt lat="50.37858" lon="5.88433">
        <ele>274.11</ele>
        <time>2019-07-07T14:08:33Z</time>
      </trkpt>
      <trkpt lat="50.37868" lon="5.88454">
        <ele>274.59</ele>
        <time>2019-07-07T14:08:36Z</time>
      </trkpt>
      <trkpt lat="50.37892" lon="5.88547">
        <ele>275.56</ele>
        <time>2019-07-07T14:08:48Z</time>
      </trkpt>
      <trkpt lat="50.37899" lon="5.88588">
        <ele>276.04</ele>
        <time>2019-07-07T14:08:53Z</time>
      </trkpt>
      <trkpt lat="50.37907" lon="5.88635">
        <ele>277</ele>
        <time>2019-07-07T14:08:59Z</time>
      </trkpt>
      <trkpt lat="50.37908" lon="5.88644">
        <ele>277</ele>
        <time>2019-07-07T14:09:00Z</time>
      </trkpt>
      <trkpt lat="50.37909" lon="5.88652">
        <ele>277</ele>
        <time>2019-07-07T14:09:01Z</time>
      </trkpt>
      <trkpt lat="50.37912" lon="5.88685">
        <ele>277.48</ele>
        <time>2019-07-07T14:09:05Z</time>
      </trkpt>
      <trkpt lat="50.37914" lon="5.887">
        <ele>277.48</ele>
        <time>2019-07-07T14:09:07Z</time>
      </trkpt>
      <trkpt lat="50.37915" lon="5.88706">
        <ele>277.96</ele>
        <time>2019-07-07T14:09:08Z</time>
      </trkpt>
      <trkpt lat="50.37915" lon="5.8873">
        <ele>277.96</ele>
        <time>2019-07-07T14:09:11Z</time>
      </trkpt>
      <trkpt lat="50.37915" lon="5.88782">
        <ele>278.44</ele>
        <time>2019-07-07T14:09:17Z</time>
      </trkpt>
      <trkpt lat="50.37915" lon="5.88789">
        <ele>278.44</ele>
        <time>2019-07-07T14:09:18Z</time>
      </trkpt>
      <trkpt lat="50.37909" lon="5.88906">
        <ele>280.36</ele>
        <time>2019-07-07T14:09:33Z</time>
      </trkpt>
      <trkpt lat="50.37906" lon="5.88937">
        <ele>280.84</ele>
        <time>2019-07-07T14:09:37Z</time>
      </trkpt>
      <trkpt lat="50.37906" lon="5.88945">
        <ele>280.84</ele>
        <time>2019-07-07T14:09:38Z</time>
      </trkpt>
      <trkpt lat="50.37894" lon="5.89086">
        <ele>282.77</ele>
        <time>2019-07-07T14:09:57Z</time>
      </trkpt>
      <trkpt lat="50.37891" lon="5.89191">
        <ele>283.73</ele>
        <time>2019-07-07T14:10:11Z</time>
      </trkpt>
      <trkpt lat="50.37892" lon="5.89199">
        <ele>283.73</ele>
        <time>2019-07-07T14:10:12Z</time>
      </trkpt>
      <trkpt lat="50.37893" lon="5.89213">
        <ele>284.21</ele>
        <time>2019-07-07T14:10:14Z</time>
      </trkpt>
      <trkpt lat="50.37893" lon="5.89227">
        <ele>284.69</ele>
        <time>2019-07-07T14:10:16Z</time>
      </trkpt>
      <trkpt lat="50.37893" lon="5.89234">
        <ele>284.69</ele>
        <time>2019-07-07T14:10:17Z</time>
      </trkpt>
      <trkpt lat="50.37898" lon="5.89277">
        <ele>284.21</ele>
        <time>2019-07-07T14:10:23Z</time>
      </trkpt>
      <trkpt lat="50.37908" lon="5.89353">
        <ele>286.13</ele>
        <time>2019-07-07T14:10:35Z</time>
      </trkpt>
      <trkpt lat="50.3791" lon="5.89367">
        <ele>286.13</ele>
        <time>2019-07-07T14:10:37Z</time>
      </trkpt>
      <trkpt lat="50.37912" lon="5.89374">
        <ele>286.13</ele>
        <time>2019-07-07T14:10:38Z</time>
      </trkpt>
      <trkpt lat="50.37913" lon="5.89381">
        <ele>286.13</ele>
        <time>2019-07-07T14:10:39Z</time>
      </trkpt>
      <trkpt lat="50.37917" lon="5.89402">
        <ele>286.61</ele>
        <time>2019-07-07T14:10:42Z</time>
      </trkpt>
      <trkpt lat="50.37925" lon="5.89429">
        <ele>287.09</ele>
        <time>2019-07-07T14:10:46Z</time>
      </trkpt>
      <trkpt lat="50.37926" lon="5.89436">
        <ele>287.09</ele>
        <time>2019-07-07T14:10:47Z</time>
      </trkpt>
      <trkpt lat="50.37929" lon="5.8945">
        <ele>287.57</ele>
        <time>2019-07-07T14:10:49Z</time>
      </trkpt>
      <trkpt lat="50.37935" lon="5.89472">
        <ele>287.57</ele>
        <time>2019-07-07T14:10:52Z</time>
      </trkpt>
      <trkpt lat="50.37939" lon="5.89484">
        <ele>287.57</ele>
        <time>2019-07-07T14:10:54Z</time>
      </trkpt>
      <trkpt lat="50.37942" lon="5.8949">
        <ele>287.57</ele>
        <time>2019-07-07T14:10:55Z</time>
      </trkpt>
      <trkpt lat="50.37944" lon="5.89496">
        <ele>288.05</ele>
        <time>2019-07-07T14:10:56Z</time>
      </trkpt>
      <trkpt lat="50.37948" lon="5.89508">
        <ele>288.05</ele>
        <time>2019-07-07T14:10:58Z</time>
      </trkpt>
      <trkpt lat="50.37968" lon="5.89564">
        <ele>289.01</ele>
        <time>2019-07-07T14:11:07Z</time>
      </trkpt>
      <trkpt lat="50.37976" lon="5.89581">
        <ele>289.49</ele>
        <time>2019-07-07T14:11:10Z</time>
      </trkpt>
      <trkpt lat="50.37978" lon="5.89586">
        <ele>289.49</ele>
        <time>2019-07-07T14:11:11Z</time>
      </trkpt>
      <trkpt lat="50.37981" lon="5.89592">
        <ele>289.49</ele>
        <time>2019-07-07T14:11:12Z</time>
      </trkpt>
      <trkpt lat="50.37994" lon="5.8962">
        <ele>289.49</ele>
        <time>2019-07-07T14:11:17Z</time>
      </trkpt>
      <trkpt lat="50.37997" lon="5.89625">
        <ele>289.97</ele>
        <time>2019-07-07T14:11:18Z</time>
      </trkpt>
      <trkpt lat="50.38008" lon="5.89648">
        <ele>289.97</ele>
        <time>2019-07-07T14:11:22Z</time>
      </trkpt>
      <trkpt lat="50.38012" lon="5.89653">
        <ele>290.94</ele>
        <time>2019-07-07T14:11:23Z</time>
      </trkpt>
      <trkpt lat="50.38015" lon="5.89659">
        <ele>290.94</ele>
        <time>2019-07-07T14:11:24Z</time>
      </trkpt>
      <trkpt lat="50.38042" lon="5.89699">
        <ele>290.94</ele>
        <time>2019-07-07T14:11:32Z</time>
      </trkpt>
      <trkpt lat="50.38096" lon="5.89762">
        <ele>292.38</ele>
        <time>2019-07-07T14:11:46Z</time>
      </trkpt>
      <trkpt lat="50.38166" lon="5.89818">
        <ele>293.82</ele>
        <time>2019-07-07T14:12:01Z</time>
      </trkpt>
      <trkpt lat="50.38182" lon="5.89829">
        <ele>293.82</ele>
        <time>2019-07-07T14:12:05Z</time>
      </trkpt>
      <trkpt lat="50.38187" lon="5.89832">
        <ele>293.82</ele>
        <time>2019-07-07T14:12:06Z</time>
      </trkpt>
      <trkpt lat="50.38237" lon="5.89864">
        <ele>295.26</ele>
        <time>2019-07-07T14:12:17Z</time>
      </trkpt>
      <trkpt lat="50.38285" lon="5.89895">
        <ele>295.74</ele>
        <time>2019-07-07T14:12:27Z</time>
      </trkpt>
      <trkpt lat="50.3829" lon="5.89899">
        <ele>296.22</ele>
        <time>2019-07-07T14:12:28Z</time>
      </trkpt>
      <trkpt lat="50.3832" lon="5.89919">
        <ele>296.7</ele>
        <time>2019-07-07T14:12:34Z</time>
      </trkpt>
      <trkpt lat="50.38325" lon="5.89922">
        <ele>296.7</ele>
        <time>2019-07-07T14:12:35Z</time>
      </trkpt>
      <trkpt lat="50.3833" lon="5.89926">
        <ele>296.7</ele>
        <time>2019-07-07T14:12:36Z</time>
      </trkpt>
      <trkpt lat="50.38397" lon="5.89994">
        <ele>297.67</ele>
        <time>2019-07-07T14:12:51Z</time>
      </trkpt>
      <trkpt lat="50.38401" lon="5.89999">
        <ele>298.15</ele>
        <time>2019-07-07T14:12:52Z</time>
      </trkpt>
      <trkpt lat="50.38405" lon="5.90004">
        <ele>298.15</ele>
        <time>2019-07-07T14:12:53Z</time>
      </trkpt>
      <trkpt lat="50.38409" lon="5.9001">
        <ele>298.15</ele>
        <time>2019-07-07T14:12:54Z</time>
      </trkpt>
      <trkpt lat="50.38438" lon="5.90049">
        <ele>298.63</ele>
        <time>2019-07-07T14:13:01Z</time>
      </trkpt>
      <trkpt lat="50.3847" lon="5.90103">
        <ele>299.59</ele>
        <time>2019-07-07T14:13:10Z</time>
      </trkpt>
      <trkpt lat="50.38474" lon="5.90109">
        <ele>300.07</ele>
        <time>2019-07-07T14:13:11Z</time>
      </trkpt>
      <trkpt lat="50.38481" lon="5.9012">
        <ele>300.55</ele>
        <time>2019-07-07T14:13:13Z</time>
      </trkpt>
      <trkpt lat="50.38485" lon="5.90125">
        <ele>300.55</ele>
        <time>2019-07-07T14:13:14Z</time>
      </trkpt>
      <trkpt lat="50.38488" lon="5.90131">
        <ele>300.55</ele>
        <time>2019-07-07T14:13:15Z</time>
      </trkpt>
      <trkpt lat="50.38491" lon="5.90137">
        <ele>300.55</ele>
        <time>2019-07-07T14:13:16Z</time>
      </trkpt>
      <trkpt lat="50.38494" lon="5.90143">
        <ele>300.55</ele>
        <time>2019-07-07T14:13:17Z</time>
      </trkpt>
      <trkpt lat="50.38515" lon="5.90197">
        <ele>301.03</ele>
        <time>2019-07-07T14:13:25Z</time>
      </trkpt>
      <trkpt lat="50.38518" lon="5.90204">
        <ele>301.51</ele>
        <time>2019-07-07T14:13:26Z</time>
      </trkpt>
      <trkpt lat="50.3852" lon="5.90211">
        <ele>301.51</ele>
        <time>2019-07-07T14:13:27Z</time>
      </trkpt>
      <trkpt lat="50.38536" lon="5.90261">
        <ele>301.99</ele>
        <time>2019-07-07T14:13:34Z</time>
      </trkpt>
      <trkpt lat="50.38538" lon="5.90268">
        <ele>301.99</ele>
        <time>2019-07-07T14:13:35Z</time>
      </trkpt>
      <trkpt lat="50.38546" lon="5.90299">
        <ele>302.47</ele>
        <time>2019-07-07T14:13:39Z</time>
      </trkpt>
      <trkpt lat="50.38548" lon="5.90307">
        <ele>302.95</ele>
        <time>2019-07-07T14:13:40Z</time>
      </trkpt>
      <trkpt lat="50.38567" lon="5.9042">
        <ele>303.91</ele>
        <time>2019-07-07T14:13:54Z</time>
      </trkpt>
      <trkpt lat="50.38569" lon="5.90435">
        <ele>303.91</ele>
        <time>2019-07-07T14:13:56Z</time>
      </trkpt>
      <trkpt lat="50.3857" lon="5.90443">
        <ele>303.91</ele>
        <time>2019-07-07T14:13:57Z</time>
      </trkpt>
      <trkpt lat="50.38572" lon="5.90457">
        <ele>304.39</ele>
        <time>2019-07-07T14:13:59Z</time>
      </trkpt>
      <trkpt lat="50.38573" lon="5.90465">
        <ele>304.39</ele>
        <time>2019-07-07T14:14:00Z</time>
      </trkpt>
      <trkpt lat="50.38574" lon="5.90472">
        <ele>304.39</ele>
        <time>2019-07-07T14:14:01Z</time>
      </trkpt>
      <trkpt lat="50.38575" lon="5.90505">
        <ele>304.88</ele>
        <time>2019-07-07T14:14:05Z</time>
      </trkpt>
      <trkpt lat="50.38575" lon="5.90618">
        <ele>305.84</ele>
        <time>2019-07-07T14:14:18Z</time>
      </trkpt>
      <trkpt lat="50.38573" lon="5.90671">
        <ele>305.84</ele>
        <time>2019-07-07T14:14:24Z</time>
      </trkpt>
      <trkpt lat="50.38572" lon="5.90679">
        <ele>305.84</ele>
        <time>2019-07-07T14:14:25Z</time>
      </trkpt>
      <trkpt lat="50.38571" lon="5.90721">
        <ele>306.8</ele>
        <time>2019-07-07T14:14:30Z</time>
      </trkpt>
      <trkpt lat="50.38573" lon="5.90744">
        <ele>306.8</ele>
        <time>2019-07-07T14:14:33Z</time>
      </trkpt>
      <trkpt lat="50.38567" lon="5.90897">
        <ele>309.2</ele>
        <time>2019-07-07T14:14:51Z</time>
      </trkpt>
      <trkpt lat="50.38564" lon="5.91035">
        <ele>311.12</ele>
        <time>2019-07-07T14:15:07Z</time>
      </trkpt>
      <trkpt lat="50.38563" lon="5.911">
        <ele>311.6</ele>
        <time>2019-07-07T14:15:15Z</time>
      </trkpt>
      <trkpt lat="50.3856" lon="5.91213">
        <ele>312.57</ele>
        <time>2019-07-07T14:15:29Z</time>
      </trkpt>
      <trkpt lat="50.38559" lon="5.9125">
        <ele>313.05</ele>
        <time>2019-07-07T14:15:34Z</time>
      </trkpt>
      <trkpt lat="50.38559" lon="5.91272">
        <ele>314.01</ele>
        <time>2019-07-07T14:15:37Z</time>
      </trkpt>
      <trkpt lat="50.38559" lon="5.91281">
        <ele>313.53</ele>
        <time>2019-07-07T14:15:38Z</time>
      </trkpt>
      <trkpt lat="50.38558" lon="5.91307">
        <ele>314.01</ele>
        <time>2019-07-07T14:15:41Z</time>
      </trkpt>
      <trkpt lat="50.38558" lon="5.91315">
        <ele>314.01</ele>
        <time>2019-07-07T14:15:42Z</time>
      </trkpt>
      <trkpt lat="50.38555" lon="5.91447">
        <ele>315.93</ele>
        <time>2019-07-07T14:15:58Z</time>
      </trkpt>
      <trkpt lat="50.38554" lon="5.91524">
        <ele>316.89</ele>
        <time>2019-07-07T14:16:08Z</time>
      </trkpt>
      <trkpt lat="50.38565" lon="5.91629">
        <ele>318.33</ele>
        <time>2019-07-07T14:16:21Z</time>
      </trkpt>
      <trkpt lat="50.38569" lon="5.91662">
        <ele>318.33</ele>
        <time>2019-07-07T14:16:25Z</time>
      </trkpt>
      <trkpt lat="50.38571" lon="5.9167">
        <ele>318.33</ele>
        <time>2019-07-07T14:16:26Z</time>
      </trkpt>
      <trkpt lat="50.3858" lon="5.91708">
        <ele>319.3</ele>
        <time>2019-07-07T14:16:31Z</time>
      </trkpt>
      <trkpt lat="50.38582" lon="5.91716">
        <ele>319.3</ele>
        <time>2019-07-07T14:16:32Z</time>
      </trkpt>
      <trkpt lat="50.38586" lon="5.91731">
        <ele>319.3</ele>
        <time>2019-07-07T14:16:34Z</time>
      </trkpt>
      <trkpt lat="50.3859" lon="5.91745">
        <ele>319.78</ele>
        <time>2019-07-07T14:16:36Z</time>
      </trkpt>
      <trkpt lat="50.38618" lon="5.91848">
        <ele>320.74</ele>
        <time>2019-07-07T14:16:49Z</time>
      </trkpt>
      <trkpt lat="50.38623" lon="5.91863">
        <ele>320.74</ele>
        <time>2019-07-07T14:16:51Z</time>
      </trkpt>
      <trkpt lat="50.38626" lon="5.9187">
        <ele>321.22</ele>
        <time>2019-07-07T14:16:52Z</time>
      </trkpt>
      <trkpt lat="50.38628" lon="5.91877">
        <ele>321.22</ele>
        <time>2019-07-07T14:16:53Z</time>
      </trkpt>
      <trkpt lat="50.38631" lon="5.91884">
        <ele>321.22</ele>
        <time>2019-07-07T14:16:54Z</time>
      </trkpt>
      <trkpt lat="50.38633" lon="5.9189">
        <ele>321.22</ele>
        <time>2019-07-07T14:16:55Z</time>
      </trkpt>
      <trkpt lat="50.38674" lon="5.91983">
        <ele>322.66</ele>
        <time>2019-07-07T14:17:09Z</time>
      </trkpt>
      <trkpt lat="50.3869" lon="5.92012">
        <ele>323.62</ele>
        <time>2019-07-07T14:17:14Z</time>
      </trkpt>
      <trkpt lat="50.38701" lon="5.9203">
        <ele>324.1</ele>
        <time>2019-07-07T14:17:17Z</time>
      </trkpt>
      <trkpt lat="50.3872" lon="5.92059">
        <ele>324.1</ele>
        <time>2019-07-07T14:17:22Z</time>
      </trkpt>
      <trkpt lat="50.38724" lon="5.92064">
        <ele>324.1</ele>
        <time>2019-07-07T14:17:23Z</time>
      </trkpt>
      <trkpt lat="50.3876" lon="5.92108">
        <ele>324.58</ele>
        <time>2019-07-07T14:17:31Z</time>
      </trkpt>
      <trkpt lat="50.38819" lon="5.92163">
        <ele>325.54</ele>
        <time>2019-07-07T14:17:43Z</time>
      </trkpt>
      <trkpt lat="50.38842" lon="5.92181">
        <ele>326.02</ele>
        <time>2019-07-07T14:17:48Z</time>
      </trkpt>
      <trkpt lat="50.38919" lon="5.92224">
        <ele>326.02</ele>
        <time>2019-07-07T14:18:01Z</time>
      </trkpt>
      <trkpt lat="50.39005" lon="5.92274">
        <ele>326.02</ele>
        <time>2019-07-07T14:18:16Z</time>
      </trkpt>
      <trkpt lat="50.39042" lon="5.92294">
        <ele>326.02</ele>
        <time>2019-07-07T14:18:22Z</time>
      </trkpt>
      <trkpt lat="50.39128" lon="5.9234">
        <ele>326.02</ele>
        <time>2019-07-07T14:18:37Z</time>
      </trkpt>
      <trkpt lat="50.39139" lon="5.92346">
        <ele>326.02</ele>
        <time>2019-07-07T14:18:39Z</time>
      </trkpt>
      <trkpt lat="50.39143" lon="5.92349">
        <ele>326.02</ele>
        <time>2019-07-07T14:18:40Z</time>
      </trkpt>
      <trkpt lat="50.39148" lon="5.92351">
        <ele>326.02</ele>
        <time>2019-07-07T14:18:41Z</time>
      </trkpt>
      <trkpt lat="50.39213" lon="5.92387">
        <ele>326.02</ele>
        <time>2019-07-07T14:18:54Z</time>
      </trkpt>
      <trkpt lat="50.39277" lon="5.92424">
        <ele>326.5</ele>
        <time>2019-07-07T14:19:07Z</time>
      </trkpt>
      <trkpt lat="50.39291" lon="5.9243">
        <ele>326.99</ele>
        <time>2019-07-07T14:19:10Z</time>
      </trkpt>
      <trkpt lat="50.39295" lon="5.92432">
        <ele>326.99</ele>
        <time>2019-07-07T14:19:11Z</time>
      </trkpt>
      <trkpt lat="50.39299" lon="5.92435">
        <ele>326.99</ele>
        <time>2019-07-07T14:19:12Z</time>
      </trkpt>
      <trkpt lat="50.39303" lon="5.92438">
        <ele>326.99</ele>
        <time>2019-07-07T14:19:13Z</time>
      </trkpt>
      <trkpt lat="50.39307" lon="5.92441">
        <ele>326.99</ele>
        <time>2019-07-07T14:19:14Z</time>
      </trkpt>
      <trkpt lat="50.39375" lon="5.92479">
        <ele>328.43</ele>
        <time>2019-07-07T14:19:28Z</time>
      </trkpt>
      <trkpt lat="50.39456" lon="5.92524">
        <ele>329.87</ele>
        <time>2019-07-07T14:19:45Z</time>
      </trkpt>
      <trkpt lat="50.39538" lon="5.9257">
        <ele>331.31</ele>
        <time>2019-07-07T14:20:03Z</time>
      </trkpt>
      <trkpt lat="50.39608" lon="5.92626">
        <ele>331.79</ele>
        <time>2019-07-07T14:20:18Z</time>
      </trkpt>
      <trkpt lat="50.39639" lon="5.92657">
        <ele>331.79</ele>
        <time>2019-07-07T14:20:25Z</time>
      </trkpt>
      <trkpt lat="50.39643" lon="5.92662">
        <ele>331.79</ele>
        <time>2019-07-07T14:20:26Z</time>
      </trkpt>
      <trkpt lat="50.39716" lon="5.92764">
        <ele>331.79</ele>
        <time>2019-07-07T14:20:42Z</time>
      </trkpt>
      <trkpt lat="50.39771" lon="5.92874">
        <ele>330.35</ele>
        <time>2019-07-07T14:20:56Z</time>
      </trkpt>
      <trkpt lat="50.39774" lon="5.92883">
        <ele>330.35</ele>
        <time>2019-07-07T14:20:57Z</time>
      </trkpt>
      <trkpt lat="50.39812" lon="5.92989">
        <ele>329.87</ele>
        <time>2019-07-07T14:21:09Z</time>
      </trkpt>
      <trkpt lat="50.39816" lon="5.93008">
        <ele>329.87</ele>
        <time>2019-07-07T14:21:11Z</time>
      </trkpt>
      <trkpt lat="50.39846" lon="5.93093">
        <ele>329.87</ele>
        <time>2019-07-07T14:21:21Z</time>
      </trkpt>
      <trkpt lat="50.39878" lon="5.93191">
        <ele>329.87</ele>
        <time>2019-07-07T14:21:33Z</time>
      </trkpt>
      <trkpt lat="50.39901" lon="5.93256">
        <ele>329.39</ele>
        <time>2019-07-07T14:21:42Z</time>
      </trkpt>
      <trkpt lat="50.39903" lon="5.93263">
        <ele>329.39</ele>
        <time>2019-07-07T14:21:43Z</time>
      </trkpt>
      <trkpt lat="50.39911" lon="5.93291">
        <ele>329.39</ele>
        <time>2019-07-07T14:21:47Z</time>
      </trkpt>
      <trkpt lat="50.40095" lon="5.93977">
        <ele>324.58</ele>
        <time>2019-07-07T14:22:54Z</time>
      </trkpt>
      <trkpt lat="50.40087" lon="5.93986">
        <ele>324.58</ele>
        <time>2019-07-07T14:22:55Z</time>
      </trkpt>
      <trkpt lat="50.40094" lon="5.94002">
        <ele>324.1</ele>
        <time>2019-07-07T14:22:56Z</time>
      </trkpt>
      <trkpt lat="50.40107" lon="5.94077">
        <ele>323.14</ele>
        <time>2019-07-07T14:23:03Z</time>
      </trkpt>
      <trkpt lat="50.40121" lon="5.94163">
        <ele>322.66</ele>
        <time>2019-07-07T14:23:11Z</time>
      </trkpt>
      <trkpt lat="50.40134" lon="5.94255">
        <ele>321.7</ele>
        <time>2019-07-07T14:23:19Z</time>
      </trkpt>
      <trkpt lat="50.40135" lon="5.94267">
        <ele>320.74</ele>
        <time>2019-07-07T14:23:20Z</time>
      </trkpt>
      <trkpt lat="50.40161" lon="5.94414">
        <ele>318.81</ele>
        <time>2019-07-07T14:23:32Z</time>
      </trkpt>
      <trkpt lat="50.40178" lon="5.94508">
        <ele>317.37</ele>
        <time>2019-07-07T14:23:40Z</time>
      </trkpt>
      <trkpt lat="50.40205" lon="5.94673">
        <ele>314.97</ele>
        <time>2019-07-07T14:23:53Z</time>
      </trkpt>
      <trkpt lat="50.40237" lon="5.94868">
        <ele>311.6</ele>
        <time>2019-07-07T14:24:08Z</time>
      </trkpt>
      <trkpt lat="50.40272" lon="5.95073">
        <ele>309.2</ele>
        <time>2019-07-07T14:24:24Z</time>
      </trkpt>
      <trkpt lat="50.4031" lon="5.95265">
        <ele>308.24</ele>
        <time>2019-07-07T14:24:40Z</time>
      </trkpt>
      <trkpt lat="50.40347" lon="5.95426">
        <ele>308.24</ele>
        <time>2019-07-07T14:24:56Z</time>
      </trkpt>
      <trkpt lat="50.40379" lon="5.95555">
        <ele>310.64</ele>
        <time>2019-07-07T14:25:11Z</time>
      </trkpt>
      <trkpt lat="50.40416" lon="5.95683">
        <ele>313.05</ele>
        <time>2019-07-07T14:25:28Z</time>
      </trkpt>
      <trkpt lat="50.40428" lon="5.95724">
        <ele>313.05</ele>
        <time>2019-07-07T14:25:34Z</time>
      </trkpt>
      <trkpt lat="50.4043" lon="5.95731">
        <ele>313.05</ele>
        <time>2019-07-07T14:25:35Z</time>
      </trkpt>
      <trkpt lat="50.40438" lon="5.95757">
        <ele>313.53</ele>
        <time>2019-07-07T14:25:39Z</time>
      </trkpt>
      <trkpt lat="50.4044" lon="5.95763">
        <ele>313.53</ele>
        <time>2019-07-07T14:25:40Z</time>
      </trkpt>
      <trkpt lat="50.40443" lon="5.95769">
        <ele>313.53</ele>
        <time>2019-07-07T14:25:41Z</time>
      </trkpt>
      <trkpt lat="50.40445" lon="5.95776">
        <ele>314.49</ele>
        <time>2019-07-07T14:25:42Z</time>
      </trkpt>
      <trkpt lat="50.40447" lon="5.95783">
        <ele>314.49</ele>
        <time>2019-07-07T14:25:43Z</time>
      </trkpt>
      <trkpt lat="50.40482" lon="5.95895">
        <ele>315.93</ele>
        <time>2019-07-07T14:26:00Z</time>
      </trkpt>
      <trkpt lat="50.40513" lon="5.9598">
        <ele>317.37</ele>
        <time>2019-07-07T14:26:14Z</time>
      </trkpt>
      <trkpt lat="50.40546" lon="5.9607">
        <ele>318.81</ele>
        <time>2019-07-07T14:26:28Z</time>
      </trkpt>
      <trkpt lat="50.40562" lon="5.96115">
        <ele>319.3</ele>
        <time>2019-07-07T14:26:35Z</time>
      </trkpt>
      <trkpt lat="50.40564" lon="5.96122">
        <ele>319.78</ele>
        <time>2019-07-07T14:26:36Z</time>
      </trkpt>
      <trkpt lat="50.40606" lon="5.96235">
        <ele>321.22</ele>
        <time>2019-07-07T14:26:54Z</time>
      </trkpt>
      <trkpt lat="50.40643" lon="5.96338">
        <ele>323.14</ele>
        <time>2019-07-07T14:27:10Z</time>
      </trkpt>
      <trkpt lat="50.40675" lon="5.96424">
        <ele>324.58</ele>
        <time>2019-07-07T14:27:24Z</time>
      </trkpt>
      <trkpt lat="50.40722" lon="5.96554">
        <ele>326.5</ele>
        <time>2019-07-07T14:27:44Z</time>
      </trkpt>
      <trkpt lat="50.40755" lon="5.96644">
        <ele>328.43</ele>
        <time>2019-07-07T14:27:58Z</time>
      </trkpt>
      <trkpt lat="50.40757" lon="5.96651">
        <ele>328.43</ele>
        <time>2019-07-07T14:27:59Z</time>
      </trkpt>
      <trkpt lat="50.40794" lon="5.96751">
        <ele>329.87</ele>
        <time>2019-07-07T14:28:14Z</time>
      </trkpt>
      <trkpt lat="50.4084" lon="5.96874">
        <ele>331.79</ele>
        <time>2019-07-07T14:28:32Z</time>
      </trkpt>
      <trkpt lat="50.40842" lon="5.96881">
        <ele>331.79</ele>
        <time>2019-07-07T14:28:33Z</time>
      </trkpt>
      <trkpt lat="50.40886" lon="5.97">
        <ele>332.75</ele>
        <time>2019-07-07T14:28:51Z</time>
      </trkpt>
      <trkpt lat="50.40935" lon="5.97126">
        <ele>332.75</ele>
        <time>2019-07-07T14:29:09Z</time>
      </trkpt>
      <trkpt lat="50.40972" lon="5.97222">
        <ele>333.23</ele>
        <time>2019-07-07T14:29:23Z</time>
      </trkpt>
      <trkpt lat="50.40991" lon="5.97269">
        <ele>333.71</ele>
        <time>2019-07-07T14:29:30Z</time>
      </trkpt>
      <trkpt lat="50.41027" lon="5.97364">
        <ele>335.16</ele>
        <time>2019-07-07T14:29:44Z</time>
      </trkpt>
      <trkpt lat="50.4104" lon="5.97397">
        <ele>335.64</ele>
        <time>2019-07-07T14:29:49Z</time>
      </trkpt>
      <trkpt lat="50.41063" lon="5.97458">
        <ele>336.6</ele>
        <time>2019-07-07T14:29:58Z</time>
      </trkpt>
      <trkpt lat="50.41065" lon="5.97465">
        <ele>336.6</ele>
        <time>2019-07-07T14:29:59Z</time>
      </trkpt>
      <trkpt lat="50.41073" lon="5.97485">
        <ele>337.08</ele>
        <time>2019-07-07T14:30:02Z</time>
      </trkpt>
      <trkpt lat="50.41075" lon="5.97492">
        <ele>337.08</ele>
        <time>2019-07-07T14:30:03Z</time>
      </trkpt>
      <trkpt lat="50.41088" lon="5.97525">
        <ele>337.56</ele>
        <time>2019-07-07T14:30:08Z</time>
      </trkpt>
      <trkpt lat="50.4113" lon="5.9763">
        <ele>338.52</ele>
        <time>2019-07-07T14:30:23Z</time>
      </trkpt>
      <trkpt lat="50.41169" lon="5.97729">
        <ele>339</ele>
        <time>2019-07-07T14:30:37Z</time>
      </trkpt>
      <trkpt lat="50.41213" lon="5.97846">
        <ele>339.96</ele>
        <time>2019-07-07T14:30:53Z</time>
      </trkpt>
      <trkpt lat="50.41246" lon="5.97953">
        <ele>340.92</ele>
        <time>2019-07-07T14:31:07Z</time>
      </trkpt>
      <trkpt lat="50.41282" lon="5.98097">
        <ele>343.33</ele>
        <time>2019-07-07T14:31:26Z</time>
      </trkpt>
      <trkpt lat="50.41297" lon="5.98164">
        <ele>343.81</ele>
        <time>2019-07-07T14:31:35Z</time>
      </trkpt>
      <trkpt lat="50.41299" lon="5.98171">
        <ele>343.81</ele>
        <time>2019-07-07T14:31:36Z</time>
      </trkpt>
      <trkpt lat="50.41327" lon="5.98282">
        <ele>345.25</ele>
        <time>2019-07-07T14:31:51Z</time>
      </trkpt>
      <trkpt lat="50.41334" lon="5.98312">
        <ele>345.73</ele>
        <time>2019-07-07T14:31:55Z</time>
      </trkpt>
      <trkpt lat="50.4134" lon="5.98333">
        <ele>346.21</ele>
        <time>2019-07-07T14:31:58Z</time>
      </trkpt>
      <trkpt lat="50.4137" lon="5.98434">
        <ele>347.65</ele>
        <time>2019-07-07T14:32:11Z</time>
      </trkpt>
      <trkpt lat="50.41372" lon="5.98442">
        <ele>347.65</ele>
        <time>2019-07-07T14:32:12Z</time>
      </trkpt>
      <trkpt lat="50.41377" lon="5.98456">
        <ele>347.65</ele>
        <time>2019-07-07T14:32:14Z</time>
      </trkpt>
      <trkpt lat="50.4138" lon="5.98463">
        <ele>347.65</ele>
        <time>2019-07-07T14:32:15Z</time>
      </trkpt>
      <trkpt lat="50.41412" lon="5.98537">
        <ele>349.1</ele>
        <time>2019-07-07T14:32:26Z</time>
      </trkpt>
      <trkpt lat="50.41424" lon="5.98563">
        <ele>349.58</ele>
        <time>2019-07-07T14:32:30Z</time>
      </trkpt>
      <trkpt lat="50.41483" lon="5.98674">
        <ele>351.02</ele>
        <time>2019-07-07T14:32:48Z</time>
      </trkpt>
      <trkpt lat="50.41529" lon="5.98807">
        <ele>352.46</ele>
        <time>2019-07-07T14:33:06Z</time>
      </trkpt>
      <trkpt lat="50.41569" lon="5.98933">
        <ele>353.42</ele>
        <time>2019-07-07T14:33:22Z</time>
      </trkpt>
      <trkpt lat="50.41601" lon="5.99031">
        <ele>354.38</ele>
        <time>2019-07-07T14:33:36Z</time>
      </trkpt>
      <trkpt lat="50.41633" lon="5.99128">
        <ele>354.38</ele>
        <time>2019-07-07T14:33:46Z</time>
      </trkpt>
      <trkpt lat="50.41642" lon="5.99146">
        <ele>354.38</ele>
        <time>2019-07-07T14:33:48Z</time>
      </trkpt>
      <trkpt lat="50.41645" lon="5.99155">
        <ele>354.38</ele>
        <time>2019-07-07T14:33:49Z</time>
      </trkpt>
      <trkpt lat="50.4166" lon="5.99212">
        <ele>354.38</ele>
        <time>2019-07-07T14:33:55Z</time>
      </trkpt>
      <trkpt lat="50.41662" lon="5.99221">
        <ele>354.38</ele>
        <time>2019-07-07T14:33:56Z</time>
      </trkpt>
      <trkpt lat="50.41684" lon="5.99334">
        <ele>354.38</ele>
        <time>2019-07-07T14:34:08Z</time>
      </trkpt>
      <trkpt lat="50.4172" lon="5.99665">
        <ele>352.46</ele>
        <time>2019-07-07T14:34:38Z</time>
      </trkpt>
      <trkpt lat="50.41781" lon="5.99774">
        <ele>350.54</ele>
        <time>2019-07-07T14:34:51Z</time>
      </trkpt>
      <trkpt lat="50.41812" lon="5.99818">
        <ele>349.1</ele>
        <time>2019-07-07T14:34:57Z</time>
      </trkpt>
      <trkpt lat="50.41831" lon="5.99847">
        <ele>349.1</ele>
        <time>2019-07-07T14:35:01Z</time>
      </trkpt>
      <trkpt lat="50.41836" lon="5.99854">
        <ele>348.62</ele>
        <time>2019-07-07T14:35:02Z</time>
      </trkpt>
      <trkpt lat="50.41871" lon="5.99911">
        <ele>348.13</ele>
        <time>2019-07-07T14:35:09Z</time>
      </trkpt>
      <trkpt lat="50.41913" lon="6.0003">
        <ele>346.69</ele>
        <time>2019-07-07T14:35:21Z</time>
      </trkpt>
      <trkpt lat="50.4195" lon="6.00189">
        <ele>344.29</ele>
        <time>2019-07-07T14:35:36Z</time>
      </trkpt>
      <trkpt lat="50.41991" lon="6.00334">
        <ele>342.37</ele>
        <time>2019-07-07T14:35:50Z</time>
      </trkpt>
      <trkpt lat="50.42048" lon="6.00508">
        <ele>339.96</ele>
        <time>2019-07-07T14:36:06Z</time>
      </trkpt>
      <trkpt lat="50.42074" lon="6.00629">
        <ele>338.52</ele>
        <time>2019-07-07T14:36:18Z</time>
      </trkpt>
      <trkpt lat="50.42082" lon="6.0076">
        <ele>337.08</ele>
        <time>2019-07-07T14:36:30Z</time>
      </trkpt>
      <trkpt lat="50.42082" lon="6.0077">
        <ele>337.08</ele>
        <time>2019-07-07T14:36:31Z</time>
      </trkpt>
      <trkpt lat="50.42083" lon="6.00777">
        <ele>337.08</ele>
        <time>2019-07-07T14:36:32Z</time>
      </trkpt>
      <trkpt lat="50.42084" lon="6.00784">
        <ele>337.08</ele>
        <time>2019-07-07T14:36:33Z</time>
      </trkpt>
      <trkpt lat="50.42087" lon="6.00791">
        <ele>337.08</ele>
        <time>2019-07-07T14:36:34Z</time>
      </trkpt>
      <trkpt lat="50.42089" lon="6.00799">
        <ele>336.12</ele>
        <time>2019-07-07T14:36:35Z</time>
      </trkpt>
      <trkpt lat="50.4209" lon="6.00809">
        <ele>335.64</ele>
        <time>2019-07-07T14:36:36Z</time>
      </trkpt>
      <trkpt lat="50.42091" lon="6.0082">
        <ele>334.68</ele>
        <time>2019-07-07T14:36:37Z</time>
      </trkpt>
      <trkpt lat="50.42091" lon="6.00831">
        <ele>334.68</ele>
        <time>2019-07-07T14:36:38Z</time>
      </trkpt>
      <trkpt lat="50.42091" lon="6.00842">
        <ele>333.71</ele>
        <time>2019-07-07T14:36:39Z</time>
      </trkpt>
      <trkpt lat="50.4209" lon="6.00854">
        <ele>333.23</ele>
        <time>2019-07-07T14:36:40Z</time>
      </trkpt>
      <trkpt lat="50.42088" lon="6.00866">
        <ele>333.23</ele>
        <time>2019-07-07T14:36:41Z</time>
      </trkpt>
      <trkpt lat="50.42076" lon="6.00929">
        <ele>329.87</ele>
        <time>2019-07-07T14:36:47Z</time>
      </trkpt>
      <trkpt lat="50.42065" lon="6.00975">
        <ele>327.47</ele>
        <time>2019-07-07T14:36:52Z</time>
      </trkpt>
      <trkpt lat="50.42064" lon="6.00983">
        <ele>327.47</ele>
        <time>2019-07-07T14:36:53Z</time>
      </trkpt>
      <trkpt lat="50.42064" lon="6.0099">
        <ele>326.5</ele>
        <time>2019-07-07T14:36:54Z</time>
      </trkpt>
      <trkpt lat="50.42063" lon="6.00997">
        <ele>326.5</ele>
        <time>2019-07-07T14:36:55Z</time>
      </trkpt>
      <trkpt lat="50.42063" lon="6.01004">
        <ele>326.5</ele>
        <time>2019-07-07T14:36:56Z</time>
      </trkpt>
      <trkpt lat="50.42064" lon="6.0101">
        <ele>326.5</ele>
        <time>2019-07-07T14:36:57Z</time>
      </trkpt>
      <trkpt lat="50.42066" lon="6.01016">
        <ele>326.5</ele>
        <time>2019-07-07T14:36:58Z</time>
      </trkpt>
      <trkpt lat="50.42103" lon="6.01116">
        <ele>326.99</ele>
        <time>2019-07-07T14:37:10Z</time>
      </trkpt>
      <trkpt lat="50.42157" lon="6.0127">
        <ele>326.99</ele>
        <time>2019-07-07T14:37:29Z</time>
      </trkpt>
      <trkpt lat="50.42163" lon="6.01285">
        <ele>327.95</ele>
        <time>2019-07-07T14:37:31Z</time>
      </trkpt>
      <trkpt lat="50.4218" lon="6.01355">
        <ele>328.91</ele>
        <time>2019-07-07T14:37:43Z</time>
      </trkpt>
      <trkpt lat="50.42179" lon="6.01365">
        <ele>328.91</ele>
        <time>2019-07-07T14:37:45Z</time>
      </trkpt>
      <trkpt lat="50.42179" lon="6.01373">
        <ele>328.91</ele>
        <time>2019-07-07T14:37:46Z</time>
      </trkpt>
      <trkpt lat="50.42181" lon="6.0138">
        <ele>328.91</ele>
        <time>2019-07-07T14:37:47Z</time>
      </trkpt>
      <trkpt lat="50.42184" lon="6.01388">
        <ele>328.91</ele>
        <time>2019-07-07T14:37:48Z</time>
      </trkpt>
      <trkpt lat="50.42187" lon="6.01395">
        <ele>328.91</ele>
        <time>2019-07-07T14:37:49Z</time>
      </trkpt>
      <trkpt lat="50.4219" lon="6.01404">
        <ele>328.91</ele>
        <time>2019-07-07T14:37:50Z</time>
      </trkpt>
      <trkpt lat="50.42237" lon="6.01542">
        <ele>329.39</ele>
        <time>2019-07-07T14:38:06Z</time>
      </trkpt>
      <trkpt lat="50.42297" lon="6.01713">
        <ele>330.83</ele>
        <time>2019-07-07T14:38:27Z</time>
      </trkpt>
      <trkpt lat="50.4235" lon="6.01864">
        <ele>331.79</ele>
        <time>2019-07-07T14:38:45Z</time>
      </trkpt>
      <trkpt lat="50.42412" lon="6.02039">
        <ele>332.75</ele>
        <time>2019-07-07T14:39:06Z</time>
      </trkpt>
      <trkpt lat="50.42465" lon="6.02187">
        <ele>333.23</ele>
        <time>2019-07-07T14:39:24Z</time>
      </trkpt>
      <trkpt lat="50.42481" lon="6.02237">
        <ele>333.71</ele>
        <time>2019-07-07T14:39:30Z</time>
      </trkpt>
      <trkpt lat="50.42513" lon="6.02318">
        <ele>334.68</ele>
        <time>2019-07-07T14:39:41Z</time>
      </trkpt>
      <trkpt lat="50.42514" lon="6.02327">
        <ele>335.16</ele>
        <time>2019-07-07T14:39:42Z</time>
      </trkpt>
      <trkpt lat="50.42514" lon="6.02336">
        <ele>335.16</ele>
        <time>2019-07-07T14:39:43Z</time>
      </trkpt>
      <trkpt lat="50.42514" lon="6.02353">
        <ele>335.64</ele>
        <time>2019-07-07T14:39:45Z</time>
      </trkpt>
      <trkpt lat="50.42516" lon="6.0236">
        <ele>335.64</ele>
        <time>2019-07-07T14:39:46Z</time>
      </trkpt>
      <trkpt lat="50.4252" lon="6.02368">
        <ele>336.12</ele>
        <time>2019-07-07T14:39:47Z</time>
      </trkpt>
      <trkpt lat="50.42524" lon="6.02374">
        <ele>336.12</ele>
        <time>2019-07-07T14:39:48Z</time>
      </trkpt>
      <trkpt lat="50.42528" lon="6.02379">
        <ele>336.12</ele>
        <time>2019-07-07T14:39:49Z</time>
      </trkpt>
      <trkpt lat="50.42532" lon="6.02386">
        <ele>336.12</ele>
        <time>2019-07-07T14:39:50Z</time>
      </trkpt>
      <trkpt lat="50.42535" lon="6.02392">
        <ele>336.12</ele>
        <time>2019-07-07T14:39:51Z</time>
      </trkpt>
      <trkpt lat="50.42546" lon="6.02414">
        <ele>335.16</ele>
        <time>2019-07-07T14:39:54Z</time>
      </trkpt>
      <trkpt lat="50.42584" lon="6.02492">
        <ele>334.68</ele>
        <time>2019-07-07T14:40:06Z</time>
      </trkpt>
      <trkpt lat="50.42585" lon="6.02499">
        <ele>334.68</ele>
        <time>2019-07-07T14:40:07Z</time>
      </trkpt>
      <trkpt lat="50.42593" lon="6.02562">
        <ele>336.12</ele>
        <time>2019-07-07T14:40:17Z</time>
      </trkpt>
      <trkpt lat="50.42595" lon="6.02572">
        <ele>335.64</ele>
        <time>2019-07-07T14:40:20Z</time>
      </trkpt>
      <trkpt lat="50.42598" lon="6.02574">
        <ele>336.12</ele>
        <time>2019-07-07T14:40:21Z</time>
      </trkpt>
      <trkpt lat="50.426" lon="6.02575">
        <ele>335.64</ele>
        <time>2019-07-07T14:40:22Z</time>
      </trkpt>
      <trkpt lat="50.42604" lon="6.02575">
        <ele>335.64</ele>
        <time>2019-07-07T14:40:23Z</time>
      </trkpt>
      <trkpt lat="50.42606" lon="6.02575">
        <ele>335.64</ele>
        <time>2019-07-07T14:40:24Z</time>
      </trkpt>
      <trkpt lat="50.42636" lon="6.02541">
        <ele>335.64</ele>
        <time>2019-07-07T14:40:33Z</time>
      </trkpt>
      <trkpt lat="50.42644" lon="6.02533">
        <ele>334.68</ele>
        <time>2019-07-07T14:40:35Z</time>
      </trkpt>
      <trkpt lat="50.42649" lon="6.02532">
        <ele>334.68</ele>
        <time>2019-07-07T14:40:36Z</time>
      </trkpt>
      <trkpt lat="50.42653" lon="6.02535">
        <ele>334.68</ele>
        <time>2019-07-07T14:40:37Z</time>
      </trkpt>
      <trkpt lat="50.42658" lon="6.02541">
        <ele>334.2</ele>
        <time>2019-07-07T14:40:38Z</time>
      </trkpt>
      <trkpt lat="50.42661" lon="6.02546">
        <ele>334.68</ele>
        <time>2019-07-07T14:40:39Z</time>
      </trkpt>
      <trkpt lat="50.42727" lon="6.02641">
        <ele>335.64</ele>
        <time>2019-07-07T14:40:55Z</time>
      </trkpt>
      <trkpt lat="50.42732" lon="6.02645">
        <ele>335.64</ele>
        <time>2019-07-07T14:40:56Z</time>
      </trkpt>
      <trkpt lat="50.42737" lon="6.02646">
        <ele>335.64</ele>
        <time>2019-07-07T14:40:57Z</time>
      </trkpt>
      <trkpt lat="50.42743" lon="6.02644">
        <ele>335.64</ele>
        <time>2019-07-07T14:40:58Z</time>
      </trkpt>
      <trkpt lat="50.42748" lon="6.02638">
        <ele>335.64</ele>
        <time>2019-07-07T14:40:59Z</time>
      </trkpt>
      <trkpt lat="50.42751" lon="6.02632">
        <ele>335.64</ele>
        <time>2019-07-07T14:41:00Z</time>
      </trkpt>
      <trkpt lat="50.42755" lon="6.02625">
        <ele>335.64</ele>
        <time>2019-07-07T14:41:01Z</time>
      </trkpt>
      <trkpt lat="50.42802" lon="6.02556">
        <ele>335.64</ele>
        <time>2019-07-07T14:41:12Z</time>
      </trkpt>
      <trkpt lat="50.42806" lon="6.02553">
        <ele>335.64</ele>
        <time>2019-07-07T14:41:13Z</time>
      </trkpt>
      <trkpt lat="50.42812" lon="6.02555">
        <ele>334.68</ele>
        <time>2019-07-07T14:41:14Z</time>
      </trkpt>
      <trkpt lat="50.42816" lon="6.0256">
        <ele>334.68</ele>
        <time>2019-07-07T14:41:15Z</time>
      </trkpt>
      <trkpt lat="50.4282" lon="6.02566">
        <ele>334.68</ele>
        <time>2019-07-07T14:41:16Z</time>
      </trkpt>
      <trkpt lat="50.42824" lon="6.02574">
        <ele>334.68</ele>
        <time>2019-07-07T14:41:17Z</time>
      </trkpt>
      <trkpt lat="50.42835" lon="6.02596">
        <ele>334.68</ele>
        <time>2019-07-07T14:41:20Z</time>
      </trkpt>
      <trkpt lat="50.42839" lon="6.02604">
        <ele>334.68</ele>
        <time>2019-07-07T14:41:21Z</time>
      </trkpt>
      <trkpt lat="50.42865" lon="6.02659">
        <ele>334.68</ele>
        <time>2019-07-07T14:41:28Z</time>
      </trkpt>
      <trkpt lat="50.4287" lon="6.02665">
        <ele>334.68</ele>
        <time>2019-07-07T14:41:29Z</time>
      </trkpt>
      <trkpt lat="50.42875" lon="6.0267">
        <ele>334.68</ele>
        <time>2019-07-07T14:41:30Z</time>
      </trkpt>
      <trkpt lat="50.42954" lon="6.02716">
        <ele>334.68</ele>
        <time>2019-07-07T14:41:44Z</time>
      </trkpt>
      <trkpt lat="50.43031" lon="6.02768">
        <ele>335.64</ele>
        <time>2019-07-07T14:41:58Z</time>
      </trkpt>
      <trkpt lat="50.4313" lon="6.02832">
        <ele>337.56</ele>
        <time>2019-07-07T14:42:15Z</time>
      </trkpt>
      <trkpt lat="50.43205" lon="6.02878">
        <ele>338.04</ele>
        <time>2019-07-07T14:42:28Z</time>
      </trkpt>
      <trkpt lat="50.43211" lon="6.02882">
        <ele>338.52</ele>
        <time>2019-07-07T14:42:29Z</time>
      </trkpt>
      <trkpt lat="50.43273" lon="6.02923">
        <ele>339</ele>
        <time>2019-07-07T14:42:40Z</time>
      </trkpt>
      <trkpt lat="50.43278" lon="6.02927">
        <ele>339.48</ele>
        <time>2019-07-07T14:42:41Z</time>
      </trkpt>
      <trkpt lat="50.43362" lon="6.0298">
        <ele>339.96</ele>
        <time>2019-07-07T14:42:56Z</time>
      </trkpt>
      <trkpt lat="50.43367" lon="6.02983">
        <ele>339.96</ele>
        <time>2019-07-07T14:42:57Z</time>
      </trkpt>
      <trkpt lat="50.43412" lon="6.02998">
        <ele>340.92</ele>
        <time>2019-07-07T14:43:06Z</time>
      </trkpt>
      <trkpt lat="50.43487" lon="6.02967">
        <ele>342.37</ele>
        <time>2019-07-07T14:43:20Z</time>
      </trkpt>
      <trkpt lat="50.43534" lon="6.02934">
        <ele>342.85</ele>
        <time>2019-07-07T14:43:29Z</time>
      </trkpt>
      <trkpt lat="50.4354" lon="6.02932">
        <ele>342.85</ele>
        <time>2019-07-07T14:43:30Z</time>
      </trkpt>
      <trkpt lat="50.43545" lon="6.0293">
        <ele>342.85</ele>
        <time>2019-07-07T14:43:31Z</time>
      </trkpt>
      <trkpt lat="50.43557" lon="6.02928">
        <ele>343.33</ele>
        <time>2019-07-07T14:43:33Z</time>
      </trkpt>
      <trkpt lat="50.43574" lon="6.0293">
        <ele>343.81</ele>
        <time>2019-07-07T14:43:36Z</time>
      </trkpt>
      <trkpt lat="50.4358" lon="6.02931">
        <ele>343.81</ele>
        <time>2019-07-07T14:43:37Z</time>
      </trkpt>
      <trkpt lat="50.43585" lon="6.02934">
        <ele>343.81</ele>
        <time>2019-07-07T14:43:38Z</time>
      </trkpt>
      <trkpt lat="50.43671" lon="6.02981">
        <ele>345.73</ele>
        <time>2019-07-07T14:43:54Z</time>
      </trkpt>
      <trkpt lat="50.4376" lon="6.03033">
        <ele>346.21</ele>
        <time>2019-07-07T14:44:10Z</time>
      </trkpt>
      <trkpt lat="50.43854" lon="6.03087">
        <ele>346.69</ele>
        <time>2019-07-07T14:44:26Z</time>
      </trkpt>
      <trkpt lat="50.4388" lon="6.03101">
        <ele>347.17</ele>
        <time>2019-07-07T14:44:31Z</time>
      </trkpt>
      <trkpt lat="50.43905" lon="6.0312">
        <ele>348.62</ele>
        <time>2019-07-07T14:44:36Z</time>
      </trkpt>
      <trkpt lat="50.4391" lon="6.03125">
        <ele>348.62</ele>
        <time>2019-07-07T14:44:37Z</time>
      </trkpt>
      <trkpt lat="50.43915" lon="6.03133">
        <ele>349.1</ele>
        <time>2019-07-07T14:44:38Z</time>
      </trkpt>
      <trkpt lat="50.43917" lon="6.03139">
        <ele>349.58</ele>
        <time>2019-07-07T14:44:39Z</time>
      </trkpt>
      <trkpt lat="50.4392" lon="6.03146">
        <ele>349.58</ele>
        <time>2019-07-07T14:44:40Z</time>
      </trkpt>
      <trkpt lat="50.43978" lon="6.03254">
        <ele>351.5</ele>
        <time>2019-07-07T14:44:56Z</time>
      </trkpt>
      <trkpt lat="50.44042" lon="6.03374">
        <ele>351.5</ele>
        <time>2019-07-07T14:45:13Z</time>
      </trkpt>
      <trkpt lat="50.44072" lon="6.03459">
        <ele>351.5</ele>
        <time>2019-07-07T14:45:23Z</time>
      </trkpt>
      <trkpt lat="50.44072" lon="6.03464">
        <ele>351.5</ele>
        <time>2019-07-07T14:45:24Z</time>
      </trkpt>
      <trkpt lat="50.44071" lon="6.0347">
        <ele>351.5</ele>
        <time>2019-07-07T14:45:25Z</time>
      </trkpt>
      <trkpt lat="50.44071" lon="6.03477">
        <ele>351.5</ele>
        <time>2019-07-07T14:45:26Z</time>
      </trkpt>
      <trkpt lat="50.44071" lon="6.03483">
        <ele>351.5</ele>
        <time>2019-07-07T14:45:27Z</time>
      </trkpt>
      <trkpt lat="50.44072" lon="6.03489">
        <ele>351.5</ele>
        <time>2019-07-07T14:45:28Z</time>
      </trkpt>
      <trkpt lat="50.44073" lon="6.03497">
        <ele>350.06</ele>
        <time>2019-07-07T14:45:29Z</time>
      </trkpt>
      <trkpt lat="50.44073" lon="6.03505">
        <ele>350.06</ele>
        <time>2019-07-07T14:45:30Z</time>
      </trkpt>
      <trkpt lat="50.44074" lon="6.03513">
        <ele>350.06</ele>
        <time>2019-07-07T14:45:31Z</time>
      </trkpt>
      <trkpt lat="50.44074" lon="6.03522">
        <ele>350.06</ele>
        <time>2019-07-07T14:45:32Z</time>
      </trkpt>
      <trkpt lat="50.44074" lon="6.03529">
        <ele>350.06</ele>
        <time>2019-07-07T14:45:33Z</time>
      </trkpt>
      <trkpt lat="50.44076" lon="6.03538">
        <ele>350.06</ele>
        <time>2019-07-07T14:45:35Z</time>
      </trkpt>
      <trkpt lat="50.44078" lon="6.03539">
        <ele>350.06</ele>
        <time>2019-07-07T14:45:36Z</time>
      </trkpt>
      <trkpt lat="50.4408" lon="6.03537">
        <ele>350.06</ele>
        <time>2019-07-07T14:45:44Z</time>
      </trkpt>
    </trkseg>
  </trk>
</gpx>